<?xml version="1.0" encoding="UTF-8" standalone="no" ?>
<gpx xmlns="http://www.topografix.com/GPX/1/1" xmlns:xsi="http://www.w3.org/2001/XMLSchema-instance" xsi:schemaLocation="http://www.topografix.com/GPX/1/1 http://www.topografix.com/GPX/1/1/gpx.xsd" version="1.1" creator="VisuGPX - https://www.visugpx.com">
  <metadata>
    <name>Road trip fait P/E</name>
  </metadata>
  <trk>
    <name><![CDATA[Road trip fait P/E_7]]></name>
    <extensions>
      <line xmlns="http://www.topografix.com/GPX/gpx_style/0/2">
        <color>FF0000</color>
        <width>4</width>
      </line>
    </extensions>
    <trkseg>
      <trkpt lat="37.13414" lon="-8.58738">
        <ele>16.2134</ele>
        <time>2021-07-12T07:07:28Z</time>
      </trkpt>
      <trkpt lat="37.13414" lon="-8.58738">
        <ele>16.2134</ele>
        <time>2021-07-12T07:07:28Z</time>
      </trkpt>
      <trkpt lat="37.13447" lon="-8.58755">
        <ele>-6.456729</ele>
        <time>2021-07-12T07:07:40Z</time>
      </trkpt>
      <trkpt lat="37.13451" lon="-8.58755">
        <ele>3.955394</ele>
        <time>2021-07-12T07:07:56Z</time>
      </trkpt>
      <trkpt lat="37.13423" lon="-8.58737">
        <ele>18.13061</ele>
        <time>2021-07-12T07:08:07Z</time>
      </trkpt>
      <trkpt lat="37.13417" lon="-8.58736">
        <ele>16.88705</ele>
        <time>2021-07-12T07:08:18Z</time>
      </trkpt>
      <trkpt lat="37.13417" lon="-8.58736">
        <ele>16.88705</ele>
        <time>2021-07-12T07:09:14Z</time>
      </trkpt>
      <trkpt lat="37.13413" lon="-8.58738">
        <ele>16.727</ele>
        <time>2021-07-12T07:09:29Z</time>
      </trkpt>
      <trkpt lat="37.13411" lon="-8.58734">
        <ele>16.89256</ele>
        <time>2021-07-12T07:09:42Z</time>
      </trkpt>
      <trkpt lat="37.13415" lon="-8.58732">
        <ele>16.00457</ele>
        <time>2021-07-12T07:09:54Z</time>
      </trkpt>
      <trkpt lat="37.13438" lon="-8.58737">
        <ele>16.62161</ele>
        <time>2021-07-12T07:10:05Z</time>
      </trkpt>
      <trkpt lat="37.1347" lon="-8.58791">
        <ele>22.38928</ele>
        <time>2021-07-12T07:10:16Z</time>
      </trkpt>
      <trkpt lat="37.13519" lon="-8.58829">
        <ele>25.01433</ele>
        <time>2021-07-12T07:10:27Z</time>
      </trkpt>
      <trkpt lat="37.13531" lon="-8.58895">
        <ele>30.89945</ele>
        <time>2021-07-12T07:10:38Z</time>
      </trkpt>
      <trkpt lat="37.13481" lon="-8.58908">
        <ele>29.1794</ele>
        <time>2021-07-12T07:10:49Z</time>
      </trkpt>
      <trkpt lat="37.13454" lon="-8.58941">
        <ele>23.42574</ele>
        <time>2021-07-12T07:11:00Z</time>
      </trkpt>
      <trkpt lat="37.13493" lon="-8.58997">
        <ele>28.81928</ele>
        <time>2021-07-12T07:11:11Z</time>
      </trkpt>
      <trkpt lat="37.13489" lon="-8.59025">
        <ele>29.50621</ele>
        <time>2021-07-12T07:11:22Z</time>
      </trkpt>
      <trkpt lat="37.1349" lon="-8.59025">
        <ele>29.65345</ele>
        <time>2021-07-12T07:12:21Z</time>
      </trkpt>
      <trkpt lat="37.13511" lon="-8.59046">
        <ele>30.07553</ele>
        <time>2021-07-12T07:12:32Z</time>
      </trkpt>
      <trkpt lat="37.13517" lon="-8.59048">
        <ele>31.05242</ele>
        <time>2021-07-12T07:12:55Z</time>
      </trkpt>
      <trkpt lat="37.13633" lon="-8.59011">
        <ele>31.81201</ele>
        <time>2021-07-12T07:13:06Z</time>
      </trkpt>
      <trkpt lat="37.13782" lon="-8.58938">
        <ele>21.93998</ele>
        <time>2021-07-12T07:13:17Z</time>
      </trkpt>
      <trkpt lat="37.13944" lon="-8.58929">
        <ele>7.524133</ele>
        <time>2021-07-12T07:13:28Z</time>
      </trkpt>
      <trkpt lat="37.14118" lon="-8.58881">
        <ele>3.310957</ele>
        <time>2021-07-12T07:13:39Z</time>
      </trkpt>
      <trkpt lat="37.14255" lon="-8.58755">
        <ele>9.545582</ele>
        <time>2021-07-12T07:13:50Z</time>
      </trkpt>
      <trkpt lat="37.14369" lon="-8.58585">
        <ele>14.01206</ele>
        <time>2021-07-12T07:14:01Z</time>
      </trkpt>
      <trkpt lat="37.14481" lon="-8.58468">
        <ele>18.47968</ele>
        <time>2021-07-12T07:14:12Z</time>
      </trkpt>
      <trkpt lat="37.14561" lon="-8.58375">
        <ele>10.15038</ele>
        <time>2021-07-12T07:14:23Z</time>
      </trkpt>
      <trkpt lat="37.14659" lon="-8.58265">
        <ele>3.0112</ele>
        <time>2021-07-12T07:14:34Z</time>
      </trkpt>
      <trkpt lat="37.14708" lon="-8.5813">
        <ele>-1.448085</ele>
        <time>2021-07-12T07:14:45Z</time>
      </trkpt>
      <trkpt lat="37.1475" lon="-8.57985">
        <ele>0.447556</ele>
        <time>2021-07-12T07:14:56Z</time>
      </trkpt>
      <trkpt lat="37.14832" lon="-8.57844">
        <ele>4.001167</ele>
        <time>2021-07-12T07:15:07Z</time>
      </trkpt>
      <trkpt lat="37.14919" lon="-8.57692">
        <ele>3.44251</ele>
        <time>2021-07-12T07:15:18Z</time>
      </trkpt>
      <trkpt lat="37.15049" lon="-8.57663">
        <ele>2.683892</ele>
        <time>2021-07-12T07:15:29Z</time>
      </trkpt>
      <trkpt lat="37.15191" lon="-8.57621">
        <ele>2.512823</ele>
        <time>2021-07-12T07:15:40Z</time>
      </trkpt>
      <trkpt lat="37.15317" lon="-8.57537">
        <ele>4.103098</ele>
        <time>2021-07-12T07:15:51Z</time>
      </trkpt>
      <trkpt lat="37.15458" lon="-8.5749">
        <ele>6.037624</ele>
        <time>2021-07-12T07:16:02Z</time>
      </trkpt>
      <trkpt lat="37.15589" lon="-8.57394">
        <ele>4.707028</ele>
        <time>2021-07-12T07:16:13Z</time>
      </trkpt>
      <trkpt lat="37.15695" lon="-8.5729">
        <ele>1.822146</ele>
        <time>2021-07-12T07:16:24Z</time>
      </trkpt>
      <trkpt lat="37.15807" lon="-8.5719">
        <ele>1.090466</ele>
        <time>2021-07-12T07:16:35Z</time>
      </trkpt>
      <trkpt lat="37.15931" lon="-8.57084">
        <ele>2.737272</ele>
        <time>2021-07-12T07:16:46Z</time>
      </trkpt>
      <trkpt lat="37.16026" lon="-8.56995">
        <ele>4.508784</ele>
        <time>2021-07-12T07:16:57Z</time>
      </trkpt>
      <trkpt lat="37.16094" lon="-8.56857">
        <ele>10.21048</ele>
        <time>2021-07-12T07:17:08Z</time>
      </trkpt>
      <trkpt lat="37.16131" lon="-8.56647">
        <ele>25.58009</ele>
        <time>2021-07-12T07:17:19Z</time>
      </trkpt>
      <trkpt lat="37.16185" lon="-8.56396">
        <ele>35.69824</ele>
        <time>2021-07-12T07:17:30Z</time>
      </trkpt>
      <trkpt lat="37.16227" lon="-8.5614">
        <ele>39.23746</ele>
        <time>2021-07-12T07:17:41Z</time>
      </trkpt>
      <trkpt lat="37.16214" lon="-8.55878">
        <ele>37.39587</ele>
        <time>2021-07-12T07:17:52Z</time>
      </trkpt>
      <trkpt lat="37.16106" lon="-8.55635">
        <ele>28.74621</ele>
        <time>2021-07-12T07:18:03Z</time>
      </trkpt>
      <trkpt lat="37.15951" lon="-8.55415">
        <ele>23.88084</ele>
        <time>2021-07-12T07:18:14Z</time>
      </trkpt>
      <trkpt lat="37.15849" lon="-8.5516">
        <ele>28.11133</ele>
        <time>2021-07-12T07:18:25Z</time>
      </trkpt>
      <trkpt lat="37.15835" lon="-8.54904">
        <ele>30.47224</ele>
        <time>2021-07-12T07:18:36Z</time>
      </trkpt>
      <trkpt lat="37.1585" lon="-8.54623">
        <ele>33.60212</ele>
        <time>2021-07-12T07:18:47Z</time>
      </trkpt>
      <trkpt lat="37.15837" lon="-8.54344">
        <ele>34.20395</ele>
        <time>2021-07-12T07:18:58Z</time>
      </trkpt>
      <trkpt lat="37.15744" lon="-8.54092">
        <ele>35.15029</ele>
        <time>2021-07-12T07:19:09Z</time>
      </trkpt>
      <trkpt lat="37.15638" lon="-8.53807">
        <ele>32.27342</ele>
        <time>2021-07-12T07:19:20Z</time>
      </trkpt>
      <trkpt lat="37.15574" lon="-8.5353">
        <ele>28.42062</ele>
        <time>2021-07-12T07:19:31Z</time>
      </trkpt>
      <trkpt lat="37.15514" lon="-8.53282">
        <ele>25.48062</ele>
        <time>2021-07-12T07:19:42Z</time>
      </trkpt>
      <trkpt lat="37.15458" lon="-8.53043">
        <ele>22.0063</ele>
        <time>2021-07-12T07:19:53Z</time>
      </trkpt>
      <trkpt lat="37.15401" lon="-8.52803">
        <ele>14.76427</ele>
        <time>2021-07-12T07:20:04Z</time>
      </trkpt>
      <trkpt lat="37.15351" lon="-8.52569">
        <ele>8.962578</ele>
        <time>2021-07-12T07:20:15Z</time>
      </trkpt>
      <trkpt lat="37.1531" lon="-8.52352">
        <ele>5.936899</ele>
        <time>2021-07-12T07:20:26Z</time>
      </trkpt>
      <trkpt lat="37.15277" lon="-8.52142">
        <ele>5.449115</ele>
        <time>2021-07-12T07:20:37Z</time>
      </trkpt>
      <trkpt lat="37.1525" lon="-8.5194">
        <ele>3.380973</ele>
        <time>2021-07-12T07:20:48Z</time>
      </trkpt>
      <trkpt lat="37.15226" lon="-8.51707">
        <ele>2.787093</ele>
        <time>2021-07-12T07:20:59Z</time>
      </trkpt>
      <trkpt lat="37.15202" lon="-8.51424">
        <ele>3.089391</ele>
        <time>2021-07-12T07:21:10Z</time>
      </trkpt>
      <trkpt lat="37.15183" lon="-8.51173">
        <ele>1.922025</ele>
        <time>2021-07-12T07:21:21Z</time>
      </trkpt>
      <trkpt lat="37.15164" lon="-8.50942">
        <ele>6.099506</ele>
        <time>2021-07-12T07:21:32Z</time>
      </trkpt>
      <trkpt lat="37.15148" lon="-8.50725">
        <ele>9.274909</ele>
        <time>2021-07-12T07:21:43Z</time>
      </trkpt>
      <trkpt lat="37.15131" lon="-8.50509">
        <ele>8.604856</ele>
        <time>2021-07-12T07:21:54Z</time>
      </trkpt>
      <trkpt lat="37.15113" lon="-8.50277">
        <ele>4.071798</ele>
        <time>2021-07-12T07:22:05Z</time>
      </trkpt>
      <trkpt lat="37.15096" lon="-8.50068">
        <ele>3.126655</ele>
        <time>2021-07-12T07:22:16Z</time>
      </trkpt>
      <trkpt lat="37.15096" lon="-8.49833">
        <ele>3.501631</ele>
        <time>2021-07-12T07:22:27Z</time>
      </trkpt>
      <trkpt lat="37.15175" lon="-8.49597">
        <ele>4.688381</ele>
        <time>2021-07-12T07:22:38Z</time>
      </trkpt>
      <trkpt lat="37.15256" lon="-8.49408">
        <ele>7.875916</ele>
        <time>2021-07-12T07:22:49Z</time>
      </trkpt>
      <trkpt lat="37.15308" lon="-8.49246">
        <ele>11.40323</ele>
        <time>2021-07-12T07:23:00Z</time>
      </trkpt>
      <trkpt lat="37.15328" lon="-8.49023">
        <ele>19.43055</ele>
        <time>2021-07-12T07:23:11Z</time>
      </trkpt>
      <trkpt lat="37.153" lon="-8.48852">
        <ele>28.06718</ele>
        <time>2021-07-12T07:23:22Z</time>
      </trkpt>
      <trkpt lat="37.15265" lon="-8.48715">
        <ele>31.13645</ele>
        <time>2021-07-12T07:23:33Z</time>
      </trkpt>
      <trkpt lat="37.15221" lon="-8.48537">
        <ele>35.02055</ele>
        <time>2021-07-12T07:23:44Z</time>
      </trkpt>
      <trkpt lat="37.15163" lon="-8.48342">
        <ele>34.0792</ele>
        <time>2021-07-12T07:23:55Z</time>
      </trkpt>
      <trkpt lat="37.15088" lon="-8.48185">
        <ele>30.53784</ele>
        <time>2021-07-12T07:24:06Z</time>
      </trkpt>
      <trkpt lat="37.14989" lon="-8.48049">
        <ele>25.28348</ele>
        <time>2021-07-12T07:24:17Z</time>
      </trkpt>
      <trkpt lat="37.14864" lon="-8.47934">
        <ele>22.95252</ele>
        <time>2021-07-12T07:24:28Z</time>
      </trkpt>
      <trkpt lat="37.14728" lon="-8.47851">
        <ele>24.13673</ele>
        <time>2021-07-12T07:24:39Z</time>
      </trkpt>
      <trkpt lat="37.14575" lon="-8.4777">
        <ele>27.0174</ele>
        <time>2021-07-12T07:24:50Z</time>
      </trkpt>
      <trkpt lat="37.14446" lon="-8.47696">
        <ele>29.2399</ele>
        <time>2021-07-12T07:25:01Z</time>
      </trkpt>
      <trkpt lat="37.14295" lon="-8.47568">
        <ele>32.51464</ele>
        <time>2021-07-12T07:25:12Z</time>
      </trkpt>
      <trkpt lat="37.14164" lon="-8.47403">
        <ele>40.51844</ele>
        <time>2021-07-12T07:25:23Z</time>
      </trkpt>
      <trkpt lat="37.14045" lon="-8.47153">
        <ele>50.70624</ele>
        <time>2021-07-12T07:25:34Z</time>
      </trkpt>
      <trkpt lat="37.13936" lon="-8.46878">
        <ele>55.35931</ele>
        <time>2021-07-12T07:25:45Z</time>
      </trkpt>
      <trkpt lat="37.1382" lon="-8.466">
        <ele>49.32482</ele>
        <time>2021-07-12T07:25:56Z</time>
      </trkpt>
      <trkpt lat="37.1373" lon="-8.46388">
        <ele>42.05847</ele>
        <time>2021-07-12T07:26:07Z</time>
      </trkpt>
      <trkpt lat="37.13655" lon="-8.46232">
        <ele>38.20119</ele>
        <time>2021-07-12T07:26:18Z</time>
      </trkpt>
      <trkpt lat="37.13581" lon="-8.46089">
        <ele>40.10723</ele>
        <time>2021-07-12T07:26:29Z</time>
      </trkpt>
      <trkpt lat="37.13517" lon="-8.45982">
        <ele>42.91443</ele>
        <time>2021-07-12T07:26:40Z</time>
      </trkpt>
      <trkpt lat="37.13474" lon="-8.45939">
        <ele>44.93216</ele>
        <time>2021-07-12T07:26:51Z</time>
      </trkpt>
      <trkpt lat="37.1341" lon="-8.45792">
        <ele>48.20358</ele>
        <time>2021-07-12T07:27:02Z</time>
      </trkpt>
      <trkpt lat="37.13325" lon="-8.45643">
        <ele>45.25644</ele>
        <time>2021-07-12T07:27:13Z</time>
      </trkpt>
      <trkpt lat="37.1328" lon="-8.45503">
        <ele>42.71332</ele>
        <time>2021-07-12T07:27:24Z</time>
      </trkpt>
      <trkpt lat="37.13266" lon="-8.454">
        <ele>41.84412</ele>
        <time>2021-07-12T07:27:35Z</time>
      </trkpt>
      <trkpt lat="37.13262" lon="-8.45368">
        <ele>38.71473</ele>
        <time>2021-07-12T07:27:46Z</time>
      </trkpt>
      <trkpt lat="37.13244" lon="-8.45329">
        <ele>37.6903</ele>
        <time>2021-07-12T07:27:57Z</time>
      </trkpt>
      <trkpt lat="37.13231" lon="-8.45159">
        <ele>37.36007</ele>
        <time>2021-07-12T07:28:08Z</time>
      </trkpt>
      <trkpt lat="37.13201" lon="-8.44986">
        <ele>37.76616</ele>
        <time>2021-07-12T07:28:19Z</time>
      </trkpt>
      <trkpt lat="37.13177" lon="-8.44826">
        <ele>37.13685</ele>
        <time>2021-07-12T07:28:30Z</time>
      </trkpt>
      <trkpt lat="37.13101" lon="-8.44743">
        <ele>36.96564</ele>
        <time>2021-07-12T07:28:41Z</time>
      </trkpt>
      <trkpt lat="37.12974" lon="-8.44642">
        <ele>37.10878</ele>
        <time>2021-07-12T07:28:52Z</time>
      </trkpt>
      <trkpt lat="37.12848" lon="-8.44509">
        <ele>35.33241</ele>
        <time>2021-07-12T07:29:03Z</time>
      </trkpt>
      <trkpt lat="37.12754" lon="-8.44362">
        <ele>33.58147</ele>
        <time>2021-07-12T07:29:14Z</time>
      </trkpt>
      <trkpt lat="37.12664" lon="-8.44151">
        <ele>35.92229</ele>
        <time>2021-07-12T07:29:25Z</time>
      </trkpt>
      <trkpt lat="37.12572" lon="-8.43933">
        <ele>40.87059</ele>
        <time>2021-07-12T07:29:36Z</time>
      </trkpt>
      <trkpt lat="37.12442" lon="-8.43728">
        <ele>42.53342</ele>
        <time>2021-07-12T07:29:47Z</time>
      </trkpt>
      <trkpt lat="37.12284" lon="-8.43552">
        <ele>44.55107</ele>
        <time>2021-07-12T07:29:58Z</time>
      </trkpt>
      <trkpt lat="37.12078" lon="-8.43465">
        <ele>46.53751</ele>
        <time>2021-07-12T07:30:09Z</time>
      </trkpt>
      <trkpt lat="37.11879" lon="-8.43421">
        <ele>55.87609</ele>
        <time>2021-07-12T07:30:20Z</time>
      </trkpt>
      <trkpt lat="37.11664" lon="-8.43405">
        <ele>63.58489</ele>
        <time>2021-07-12T07:30:31Z</time>
      </trkpt>
      <trkpt lat="37.11421" lon="-8.43414">
        <ele>68.24901</ele>
        <time>2021-07-12T07:30:42Z</time>
      </trkpt>
      <trkpt lat="37.11236" lon="-8.43416">
        <ele>81.78564</ele>
        <time>2021-07-12T07:30:53Z</time>
      </trkpt>
      <trkpt lat="37.1116" lon="-8.43422">
        <ele>83.2868</ele>
        <time>2021-07-12T07:31:04Z</time>
      </trkpt>
      <trkpt lat="37.11036" lon="-8.43412">
        <ele>82.42232</ele>
        <time>2021-07-12T07:31:15Z</time>
      </trkpt>
      <trkpt lat="37.10877" lon="-8.43347">
        <ele>81.05053</ele>
        <time>2021-07-12T07:31:26Z</time>
      </trkpt>
      <trkpt lat="37.10725" lon="-8.43377">
        <ele>81.3829</ele>
        <time>2021-07-12T07:31:37Z</time>
      </trkpt>
      <trkpt lat="37.10679" lon="-8.43337">
        <ele>77.4785</ele>
        <time>2021-07-12T07:31:48Z</time>
      </trkpt>
      <trkpt lat="37.10625" lon="-8.43129">
        <ele>66.60224</ele>
        <time>2021-07-12T07:31:59Z</time>
      </trkpt>
      <trkpt lat="37.10473" lon="-8.43015">
        <ele>55.78477</ele>
        <time>2021-07-12T07:32:10Z</time>
      </trkpt>
      <trkpt lat="37.10336" lon="-8.42899">
        <ele>45.06675</ele>
        <time>2021-07-12T07:32:21Z</time>
      </trkpt>
      <trkpt lat="37.10183" lon="-8.42794">
        <ele>36.01162</ele>
        <time>2021-07-12T07:32:32Z</time>
      </trkpt>
      <trkpt lat="37.1006" lon="-8.4262">
        <ele>46.47982</ele>
        <time>2021-07-12T07:32:43Z</time>
      </trkpt>
      <trkpt lat="37.09934" lon="-8.42459">
        <ele>66.27493</ele>
        <time>2021-07-12T07:32:54Z</time>
      </trkpt>
      <trkpt lat="37.09834" lon="-8.42309">
        <ele>70.30504</ele>
        <time>2021-07-12T07:33:05Z</time>
      </trkpt>
      <trkpt lat="37.09749" lon="-8.42127">
        <ele>61.74641</ele>
        <time>2021-07-12T07:33:16Z</time>
      </trkpt>
      <trkpt lat="37.09747" lon="-8.41972">
        <ele>65.40336</ele>
        <time>2021-07-12T07:33:27Z</time>
      </trkpt>
      <trkpt lat="37.09704" lon="-8.41942">
        <ele>64.31824</ele>
        <time>2021-07-12T07:33:38Z</time>
      </trkpt>
      <trkpt lat="37.09566" lon="-8.41955">
        <ele>57.68027</ele>
        <time>2021-07-12T07:33:49Z</time>
      </trkpt>
      <trkpt lat="37.09386" lon="-8.41939">
        <ele>51.53008</ele>
        <time>2021-07-12T07:34:00Z</time>
      </trkpt>
      <trkpt lat="37.09248" lon="-8.41921">
        <ele>47.34641</ele>
        <time>2021-07-12T07:34:11Z</time>
      </trkpt>
      <trkpt lat="37.09181" lon="-8.42037">
        <ele>45.22571</ele>
        <time>2021-07-12T07:34:22Z</time>
      </trkpt>
      <trkpt lat="37.09068" lon="-8.42156">
        <ele>39.45902</ele>
        <time>2021-07-12T07:34:33Z</time>
      </trkpt>
      <trkpt lat="37.08988" lon="-8.42302">
        <ele>40.9036</ele>
        <time>2021-07-12T07:34:44Z</time>
      </trkpt>
      <trkpt lat="37.08948" lon="-8.42381">
        <ele>45.1538</ele>
        <time>2021-07-12T07:34:55Z</time>
      </trkpt>
      <trkpt lat="37.08943" lon="-8.42414">
        <ele>42.46923</ele>
        <time>2021-07-12T07:35:06Z</time>
      </trkpt>
      <trkpt lat="37.08907" lon="-8.42417">
        <ele>39.92225</ele>
        <time>2021-07-12T07:35:17Z</time>
      </trkpt>
      <trkpt lat="37.08901" lon="-8.424">
        <ele>39.27813</ele>
        <time>2021-07-12T07:35:28Z</time>
      </trkpt>
      <trkpt lat="37.08902" lon="-8.42398">
        <ele>36.57025</ele>
        <time>2021-07-12T07:36:26Z</time>
      </trkpt>
      <trkpt lat="37.08904" lon="-8.42387">
        <ele>36.11249</ele>
        <time>2021-07-12T07:36:37Z</time>
      </trkpt>
      <trkpt lat="37.08897" lon="-8.42371">
        <ele>43.64305</ele>
        <time>2021-07-12T07:36:48Z</time>
      </trkpt>
      <trkpt lat="37.08887" lon="-8.42358">
        <ele>43.06782</ele>
        <time>2021-07-12T07:36:59Z</time>
      </trkpt>
      <trkpt lat="37.08874" lon="-8.42353">
        <ele>41.31282</ele>
        <time>2021-07-12T07:37:10Z</time>
      </trkpt>
      <trkpt lat="37.08862" lon="-8.42348">
        <ele>40.36054</ele>
        <time>2021-07-12T07:37:21Z</time>
      </trkpt>
      <trkpt lat="37.08856" lon="-8.42336">
        <ele>40.48934</ele>
        <time>2021-07-12T07:37:32Z</time>
      </trkpt>
      <trkpt lat="37.08853" lon="-8.4232">
        <ele>38.07685</ele>
        <time>2021-07-12T07:37:43Z</time>
      </trkpt>
      <trkpt lat="37.08841" lon="-8.42318">
        <ele>35.88766</ele>
        <time>2021-07-12T07:37:54Z</time>
      </trkpt>
      <trkpt lat="37.08827" lon="-8.42322">
        <ele>36.62473</ele>
        <time>2021-07-12T07:38:05Z</time>
      </trkpt>
      <trkpt lat="37.08823" lon="-8.42321">
        <ele>36.22802</ele>
        <time>2021-07-12T07:38:16Z</time>
      </trkpt>
      <trkpt lat="37.08812" lon="-8.42327">
        <ele>35.28155</ele>
        <time>2021-07-12T07:38:27Z</time>
      </trkpt>
      <trkpt lat="37.08797" lon="-8.4233">
        <ele>33.87049</ele>
        <time>2021-07-12T07:38:38Z</time>
      </trkpt>
      <trkpt lat="37.08784" lon="-8.42335">
        <ele>33.48892</ele>
        <time>2021-07-12T07:38:49Z</time>
      </trkpt>
      <trkpt lat="37.08771" lon="-8.42337">
        <ele>31.35005</ele>
        <time>2021-07-12T07:39:00Z</time>
      </trkpt>
      <trkpt lat="37.08761" lon="-8.42345">
        <ele>27.27993</ele>
        <time>2021-07-12T07:39:11Z</time>
      </trkpt>
      <trkpt lat="37.08751" lon="-8.42359">
        <ele>29.9093</ele>
        <time>2021-07-12T07:39:22Z</time>
      </trkpt>
      <trkpt lat="37.0874" lon="-8.42367">
        <ele>30.31172</ele>
        <time>2021-07-12T07:39:33Z</time>
      </trkpt>
      <trkpt lat="37.08734" lon="-8.42368">
        <ele>29.19164</ele>
        <time>2021-07-12T07:39:44Z</time>
      </trkpt>
      <trkpt lat="37.08727" lon="-8.42359">
        <ele>25.74128</ele>
        <time>2021-07-12T07:39:55Z</time>
      </trkpt>
      <trkpt lat="37.08722" lon="-8.4236">
        <ele>22.59428</ele>
        <time>2021-07-12T07:40:08Z</time>
      </trkpt>
      <trkpt lat="37.08718" lon="-8.42364">
        <ele>21.26787</ele>
        <time>2021-07-12T07:40:19Z</time>
      </trkpt>
      <trkpt lat="37.08714" lon="-8.42366">
        <ele>20.45208</ele>
        <time>2021-07-12T07:40:35Z</time>
      </trkpt>
      <trkpt lat="37.0871" lon="-8.42369">
        <ele>18.852</ele>
        <time>2021-07-12T07:40:50Z</time>
      </trkpt>
      <trkpt lat="37.08707" lon="-8.4238">
        <ele>20.72672</ele>
        <time>2021-07-12T07:41:01Z</time>
      </trkpt>
      <trkpt lat="37.08707" lon="-8.42385">
        <ele>23.31845</ele>
        <time>2021-07-12T07:41:43Z</time>
      </trkpt>
      <trkpt lat="37.08697" lon="-8.42392">
        <ele>20.95096</ele>
        <time>2021-07-12T07:41:54Z</time>
      </trkpt>
      <trkpt lat="37.08685" lon="-8.42394">
        <ele>18.36963</ele>
        <time>2021-07-12T07:42:05Z</time>
      </trkpt>
      <trkpt lat="37.08679" lon="-8.42389">
        <ele>11.97051</ele>
        <time>2021-07-12T07:42:16Z</time>
      </trkpt>
      <trkpt lat="37.08675" lon="-8.42388">
        <ele>8.193308</ele>
        <time>2021-07-12T07:42:27Z</time>
      </trkpt>
      <trkpt lat="37.08678" lon="-8.42384">
        <ele>4.30735</ele>
        <time>2021-07-12T07:42:55Z</time>
      </trkpt>
      <trkpt lat="37.08687" lon="-8.42389">
        <ele>12.37091</ele>
        <time>2021-07-12T07:43:06Z</time>
      </trkpt>
      <trkpt lat="37.08696" lon="-8.42393">
        <ele>19.87137</ele>
        <time>2021-07-12T07:43:17Z</time>
      </trkpt>
      <trkpt lat="37.08707" lon="-8.42398">
        <ele>26.50858</ele>
        <time>2021-07-12T07:43:28Z</time>
      </trkpt>
      <trkpt lat="37.08717" lon="-8.42399">
        <ele>29.9636</ele>
        <time>2021-07-12T07:43:39Z</time>
      </trkpt>
      <trkpt lat="37.08728" lon="-8.42392">
        <ele>33.28489</ele>
        <time>2021-07-12T07:43:50Z</time>
      </trkpt>
      <trkpt lat="37.08738" lon="-8.42381">
        <ele>31.87994</ele>
        <time>2021-07-12T07:44:01Z</time>
      </trkpt>
      <trkpt lat="37.08748" lon="-8.42368">
        <ele>32.76788</ele>
        <time>2021-07-12T07:44:12Z</time>
      </trkpt>
      <trkpt lat="37.0876" lon="-8.42368">
        <ele>33.20013</ele>
        <time>2021-07-12T07:44:23Z</time>
      </trkpt>
      <trkpt lat="37.08772" lon="-8.42373">
        <ele>35.94339</ele>
        <time>2021-07-12T07:44:34Z</time>
      </trkpt>
      <trkpt lat="37.08786" lon="-8.42373">
        <ele>38.63278</ele>
        <time>2021-07-12T07:44:45Z</time>
      </trkpt>
      <trkpt lat="37.088" lon="-8.42372">
        <ele>38.91768</ele>
        <time>2021-07-12T07:44:56Z</time>
      </trkpt>
      <trkpt lat="37.08811" lon="-8.42384">
        <ele>39.98963</ele>
        <time>2021-07-12T07:45:07Z</time>
      </trkpt>
      <trkpt lat="37.08821" lon="-8.42396">
        <ele>40.96417</ele>
        <time>2021-07-12T07:45:18Z</time>
      </trkpt>
      <trkpt lat="37.08834" lon="-8.42394">
        <ele>41.45357</ele>
        <time>2021-07-12T07:45:29Z</time>
      </trkpt>
      <trkpt lat="37.08843" lon="-8.42378">
        <ele>40.74552</ele>
        <time>2021-07-12T07:45:40Z</time>
      </trkpt>
      <trkpt lat="37.0885" lon="-8.42361">
        <ele>42.62265</ele>
        <time>2021-07-12T07:45:51Z</time>
      </trkpt>
      <trkpt lat="37.08859" lon="-8.42348">
        <ele>40.32822</ele>
        <time>2021-07-12T07:46:02Z</time>
      </trkpt>
      <trkpt lat="37.08872" lon="-8.42352">
        <ele>42.53633</ele>
        <time>2021-07-12T07:46:13Z</time>
      </trkpt>
      <trkpt lat="37.08887" lon="-8.4236">
        <ele>42.15617</ele>
        <time>2021-07-12T07:46:24Z</time>
      </trkpt>
      <trkpt lat="37.08895" lon="-8.42375">
        <ele>44.06002</ele>
        <time>2021-07-12T07:46:35Z</time>
      </trkpt>
      <trkpt lat="37.08901" lon="-8.42391">
        <ele>43.02882</ele>
        <time>2021-07-12T07:46:46Z</time>
      </trkpt>
      <trkpt lat="37.08901" lon="-8.42399">
        <ele>43.38647</ele>
        <time>2021-07-12T07:46:57Z</time>
      </trkpt>
      <trkpt lat="37.08901" lon="-8.424">
        <ele>44.2286</ele>
        <time>2021-07-12T07:47:56Z</time>
      </trkpt>
      <trkpt lat="37.08906" lon="-8.42393">
        <ele>42.40167</ele>
        <time>2021-07-12T07:48:07Z</time>
      </trkpt>
      <trkpt lat="37.08901" lon="-8.42469">
        <ele>42.78248</ele>
        <time>2021-07-12T07:48:18Z</time>
      </trkpt>
      <trkpt lat="37.08927" lon="-8.42528">
        <ele>40.05783</ele>
        <time>2021-07-12T07:48:29Z</time>
      </trkpt>
      <trkpt lat="37.08904" lon="-8.42577">
        <ele>35.37913</ele>
        <time>2021-07-12T07:48:40Z</time>
      </trkpt>
      <trkpt lat="37.08867" lon="-8.4266">
        <ele>21.13795</ele>
        <time>2021-07-12T07:48:51Z</time>
      </trkpt>
      <trkpt lat="37.08802" lon="-8.42647">
        <ele>16.05309</ele>
        <time>2021-07-12T07:49:02Z</time>
      </trkpt>
      <trkpt lat="37.08784" lon="-8.42663">
        <ele>16.28146</ele>
        <time>2021-07-12T07:49:13Z</time>
      </trkpt>
      <trkpt lat="37.08844" lon="-8.42701">
        <ele>21.28703</ele>
        <time>2021-07-12T07:49:24Z</time>
      </trkpt>
      <trkpt lat="37.08903" lon="-8.42743">
        <ele>31.65553</ele>
        <time>2021-07-12T07:49:35Z</time>
      </trkpt>
      <trkpt lat="37.08921" lon="-8.42819">
        <ele>44.04649</ele>
        <time>2021-07-12T07:49:46Z</time>
      </trkpt>
      <trkpt lat="37.0892" lon="-8.42834">
        <ele>46.03731</ele>
        <time>2021-07-12T07:49:57Z</time>
      </trkpt>
      <trkpt lat="37.08913" lon="-8.4277">
        <ele>40.32107</ele>
        <time>2021-07-12T07:50:08Z</time>
      </trkpt>
      <trkpt lat="37.08863" lon="-8.42724">
        <ele>25.68631</ele>
        <time>2021-07-12T07:50:19Z</time>
      </trkpt>
      <trkpt lat="37.08808" lon="-8.42688">
        <ele>16.98123</ele>
        <time>2021-07-12T07:50:30Z</time>
      </trkpt>
      <trkpt lat="37.08782" lon="-8.42649">
        <ele>13.59884</ele>
        <time>2021-07-12T07:50:41Z</time>
      </trkpt>
      <trkpt lat="37.08871" lon="-8.42655">
        <ele>19.01563</ele>
        <time>2021-07-12T07:50:52Z</time>
      </trkpt>
      <trkpt lat="37.08884" lon="-8.42628">
        <ele>24.36863</ele>
        <time>2021-07-12T07:51:03Z</time>
      </trkpt>
      <trkpt lat="37.08888" lon="-8.42617">
        <ele>31.76682</ele>
        <time>2021-07-12T07:51:14Z</time>
      </trkpt>
      <trkpt lat="37.08889" lon="-8.42613">
        <ele>31.42222</ele>
        <time>2021-07-12T07:51:30Z</time>
      </trkpt>
      <trkpt lat="37.08929" lon="-8.42537">
        <ele>41.22059</ele>
        <time>2021-07-12T07:51:41Z</time>
      </trkpt>
      <trkpt lat="37.08906" lon="-8.42541">
        <ele>37.62275</ele>
        <time>2021-07-12T07:51:52Z</time>
      </trkpt>
      <trkpt lat="37.08898" lon="-8.42541">
        <ele>37.80409</ele>
        <time>2021-07-12T07:52:03Z</time>
      </trkpt>
      <trkpt lat="37.08897" lon="-8.42545">
        <ele>38.62179</ele>
        <time>2021-07-12T07:52:26Z</time>
      </trkpt>
      <trkpt lat="37.08897" lon="-8.42543">
        <ele>38.31907</ele>
        <time>2021-07-12T07:53:25Z</time>
      </trkpt>
      <trkpt lat="37.08893" lon="-8.42544">
        <ele>38.50323</ele>
        <time>2021-07-12T07:54:01Z</time>
      </trkpt>
      <trkpt lat="37.08892" lon="-8.42543">
        <ele>38.65416</ele>
        <time>2021-07-12T07:54:59Z</time>
      </trkpt>
      <trkpt lat="37.08895" lon="-8.42546">
        <ele>42.45397</ele>
        <time>2021-07-12T07:55:24Z</time>
      </trkpt>
      <trkpt lat="37.08895" lon="-8.42544">
        <ele>39.17541</ele>
        <time>2021-07-12T07:56:23Z</time>
      </trkpt>
      <trkpt lat="37.08897" lon="-8.42543">
        <ele>38.6386</ele>
        <time>2021-07-12T07:57:22Z</time>
      </trkpt>
      <trkpt lat="37.089" lon="-8.42544">
        <ele>38.12792</ele>
        <time>2021-07-12T07:58:20Z</time>
      </trkpt>
      <trkpt lat="37.08931" lon="-8.4253">
        <ele>41.81369</ele>
        <time>2021-07-12T07:58:31Z</time>
      </trkpt>
      <trkpt lat="37.08932" lon="-8.42517">
        <ele>43.32203</ele>
        <time>2021-07-12T07:58:42Z</time>
      </trkpt>
      <trkpt lat="37.08945" lon="-8.42346">
        <ele>44.98566</ele>
        <time>2021-07-12T07:58:53Z</time>
      </trkpt>
      <trkpt lat="37.09038" lon="-8.422">
        <ele>43.51092</ele>
        <time>2021-07-12T07:59:04Z</time>
      </trkpt>
      <trkpt lat="37.0916" lon="-8.42045">
        <ele>48.01808</ele>
        <time>2021-07-12T07:59:15Z</time>
      </trkpt>
      <trkpt lat="37.0923" lon="-8.41917">
        <ele>53.2916</ele>
        <time>2021-07-12T07:59:26Z</time>
      </trkpt>
      <trkpt lat="37.09405" lon="-8.41941">
        <ele>55.72667</ele>
        <time>2021-07-12T07:59:37Z</time>
      </trkpt>
      <trkpt lat="37.09578" lon="-8.4194">
        <ele>62.35147</ele>
        <time>2021-07-12T07:59:48Z</time>
      </trkpt>
      <trkpt lat="37.09725" lon="-8.41939">
        <ele>71.10929</ele>
        <time>2021-07-12T07:59:59Z</time>
      </trkpt>
      <trkpt lat="37.09801" lon="-8.41841">
        <ele>68.62161</ele>
        <time>2021-07-12T08:00:10Z</time>
      </trkpt>
      <trkpt lat="37.09916" lon="-8.41745">
        <ele>64.09473</ele>
        <time>2021-07-12T08:00:21Z</time>
      </trkpt>
      <trkpt lat="37.10069" lon="-8.41617">
        <ele>74.30748</ele>
        <time>2021-07-12T08:00:32Z</time>
      </trkpt>
      <trkpt lat="37.10198" lon="-8.41607">
        <ele>75.79193</ele>
        <time>2021-07-12T08:00:43Z</time>
      </trkpt>
      <trkpt lat="37.10371" lon="-8.41556">
        <ele>78.06607</ele>
        <time>2021-07-12T08:00:54Z</time>
      </trkpt>
      <trkpt lat="37.10451" lon="-8.41466">
        <ele>82.13478</ele>
        <time>2021-07-12T08:01:05Z</time>
      </trkpt>
      <trkpt lat="37.10617" lon="-8.41472">
        <ele>82.54996</ele>
        <time>2021-07-12T08:01:16Z</time>
      </trkpt>
      <trkpt lat="37.10815" lon="-8.4153">
        <ele>84.18827</ele>
        <time>2021-07-12T08:01:27Z</time>
      </trkpt>
      <trkpt lat="37.1101" lon="-8.4157">
        <ele>88.29416</ele>
        <time>2021-07-12T08:01:38Z</time>
      </trkpt>
      <trkpt lat="37.11215" lon="-8.4159">
        <ele>88.72265</ele>
        <time>2021-07-12T08:01:49Z</time>
      </trkpt>
      <trkpt lat="37.11402" lon="-8.41648">
        <ele>88.62718</ele>
        <time>2021-07-12T08:02:00Z</time>
      </trkpt>
      <trkpt lat="37.1159" lon="-8.41721">
        <ele>73.86046</ele>
        <time>2021-07-12T08:02:11Z</time>
      </trkpt>
      <trkpt lat="37.11784" lon="-8.41735">
        <ele>61.11476</ele>
        <time>2021-07-12T08:02:22Z</time>
      </trkpt>
      <trkpt lat="37.11997" lon="-8.4182">
        <ele>69.83638</ele>
        <time>2021-07-12T08:02:33Z</time>
      </trkpt>
      <trkpt lat="37.12219" lon="-8.41873">
        <ele>79.04065</ele>
        <time>2021-07-12T08:02:44Z</time>
      </trkpt>
      <trkpt lat="37.12418" lon="-8.41904">
        <ele>88.56255</ele>
        <time>2021-07-12T08:02:55Z</time>
      </trkpt>
      <trkpt lat="37.12618" lon="-8.4196">
        <ele>89.7972</ele>
        <time>2021-07-12T08:03:06Z</time>
      </trkpt>
      <trkpt lat="37.12767" lon="-8.42025">
        <ele>75.24618</ele>
        <time>2021-07-12T08:03:17Z</time>
      </trkpt>
      <trkpt lat="37.1283" lon="-8.42091">
        <ele>72.00245</ele>
        <time>2021-07-12T08:03:28Z</time>
      </trkpt>
      <trkpt lat="37.12838" lon="-8.41902">
        <ele>74.35544</ele>
        <time>2021-07-12T08:03:39Z</time>
      </trkpt>
      <trkpt lat="37.12844" lon="-8.4169">
        <ele>78.86946</ele>
        <time>2021-07-12T08:03:50Z</time>
      </trkpt>
      <trkpt lat="37.12749" lon="-8.41513">
        <ele>80.39123</ele>
        <time>2021-07-12T08:04:01Z</time>
      </trkpt>
      <trkpt lat="37.12679" lon="-8.41304">
        <ele>81.18009</ele>
        <time>2021-07-12T08:04:12Z</time>
      </trkpt>
      <trkpt lat="37.12676" lon="-8.41079">
        <ele>78.51902</ele>
        <time>2021-07-12T08:04:23Z</time>
      </trkpt>
      <trkpt lat="37.12643" lon="-8.40847">
        <ele>78.26943</ele>
        <time>2021-07-12T08:04:34Z</time>
      </trkpt>
      <trkpt lat="37.1262" lon="-8.40616">
        <ele>76.47095</ele>
        <time>2021-07-12T08:04:45Z</time>
      </trkpt>
      <trkpt lat="37.12636" lon="-8.40455">
        <ele>75.49212</ele>
        <time>2021-07-12T08:04:56Z</time>
      </trkpt>
      <trkpt lat="37.12636" lon="-8.40424">
        <ele>79.80966</ele>
        <time>2021-07-12T08:05:07Z</time>
      </trkpt>
      <trkpt lat="37.12633" lon="-8.40412">
        <ele>78.00326</ele>
        <time>2021-07-12T08:05:18Z</time>
      </trkpt>
      <trkpt lat="37.12632" lon="-8.4041">
        <ele>75.29894</ele>
        <time>2021-07-12T08:06:17Z</time>
      </trkpt>
      <trkpt lat="37.12633" lon="-8.40406">
        <ele>68.08275</ele>
        <time>2021-07-12T08:06:41Z</time>
      </trkpt>
      <trkpt lat="37.12635" lon="-8.40405">
        <ele>67.42208</ele>
        <time>2021-07-12T08:07:40Z</time>
      </trkpt>
      <trkpt lat="37.12635" lon="-8.40405">
        <ele>67.42208</ele>
        <time>2021-07-12T08:08:39Z</time>
      </trkpt>
      <trkpt lat="37.12635" lon="-8.40405">
        <ele>67.42208</ele>
        <time>2021-07-12T08:09:38Z</time>
      </trkpt>
      <trkpt lat="37.12632" lon="-8.40401">
        <ele>70.66983</ele>
        <time>2021-07-12T08:10:26Z</time>
      </trkpt>
      <trkpt lat="37.1264" lon="-8.40387">
        <ele>75.33948</ele>
        <time>2021-07-12T08:10:37Z</time>
      </trkpt>
      <trkpt lat="37.12646" lon="-8.40383">
        <ele>79.85647</ele>
        <time>2021-07-12T08:10:51Z</time>
      </trkpt>
      <trkpt lat="37.12667" lon="-8.40244">
        <ele>79.46164</ele>
        <time>2021-07-12T08:11:02Z</time>
      </trkpt>
      <trkpt lat="37.12589" lon="-8.40177">
        <ele>88.5076</ele>
        <time>2021-07-12T08:11:13Z</time>
      </trkpt>
      <trkpt lat="37.12477" lon="-8.40117">
        <ele>96.30285</ele>
        <time>2021-07-12T08:11:24Z</time>
      </trkpt>
      <trkpt lat="37.12352" lon="-8.40043">
        <ele>95.53362</ele>
        <time>2021-07-12T08:11:35Z</time>
      </trkpt>
      <trkpt lat="37.12219" lon="-8.4007">
        <ele>91.60237</ele>
        <time>2021-07-12T08:11:46Z</time>
      </trkpt>
      <trkpt lat="37.12073" lon="-8.40121">
        <ele>85.17351</ele>
        <time>2021-07-12T08:11:57Z</time>
      </trkpt>
      <trkpt lat="37.11909" lon="-8.4013">
        <ele>87.29886</ele>
        <time>2021-07-12T08:12:08Z</time>
      </trkpt>
      <trkpt lat="37.11754" lon="-8.39996">
        <ele>83.22392</ele>
        <time>2021-07-12T08:12:19Z</time>
      </trkpt>
      <trkpt lat="37.11606" lon="-8.39859">
        <ele>82.7127</ele>
        <time>2021-07-12T08:12:30Z</time>
      </trkpt>
      <trkpt lat="37.11492" lon="-8.39679">
        <ele>79.0598</ele>
        <time>2021-07-12T08:12:41Z</time>
      </trkpt>
      <trkpt lat="37.11361" lon="-8.39456">
        <ele>78.12306</ele>
        <time>2021-07-12T08:12:52Z</time>
      </trkpt>
      <trkpt lat="37.11251" lon="-8.39262">
        <ele>75.42519</ele>
        <time>2021-07-12T08:13:03Z</time>
      </trkpt>
      <trkpt lat="37.11126" lon="-8.39045">
        <ele>71.06582</ele>
        <time>2021-07-12T08:13:14Z</time>
      </trkpt>
      <trkpt lat="37.11009" lon="-8.38845">
        <ele>70.18282</ele>
        <time>2021-07-12T08:13:25Z</time>
      </trkpt>
      <trkpt lat="37.10847" lon="-8.38683">
        <ele>65.1235</ele>
        <time>2021-07-12T08:13:36Z</time>
      </trkpt>
      <trkpt lat="37.10691" lon="-8.38482">
        <ele>59.54595</ele>
        <time>2021-07-12T08:13:47Z</time>
      </trkpt>
      <trkpt lat="37.10606" lon="-8.38286">
        <ele>56.04192</ele>
        <time>2021-07-12T08:13:58Z</time>
      </trkpt>
      <trkpt lat="37.10582" lon="-8.3808">
        <ele>53.16998</ele>
        <time>2021-07-12T08:14:09Z</time>
      </trkpt>
      <trkpt lat="37.1055" lon="-8.37871">
        <ele>49.47943</ele>
        <time>2021-07-12T08:14:20Z</time>
      </trkpt>
      <trkpt lat="37.1049" lon="-8.37645">
        <ele>40.7719</ele>
        <time>2021-07-12T08:14:31Z</time>
      </trkpt>
      <trkpt lat="37.10406" lon="-8.37442">
        <ele>29.45096</ele>
        <time>2021-07-12T08:14:42Z</time>
      </trkpt>
      <trkpt lat="37.10367" lon="-8.37227">
        <ele>16.74433</ele>
        <time>2021-07-12T08:14:53Z</time>
      </trkpt>
      <trkpt lat="37.1035" lon="-8.37079">
        <ele>9.35634</ele>
        <time>2021-07-12T08:15:04Z</time>
      </trkpt>
      <trkpt lat="37.10345" lon="-8.37007">
        <ele>11.29815</ele>
        <time>2021-07-12T08:15:15Z</time>
      </trkpt>
      <trkpt lat="37.10315" lon="-8.36875">
        <ele>17.97293</ele>
        <time>2021-07-12T08:15:26Z</time>
      </trkpt>
      <trkpt lat="37.10289" lon="-8.36759">
        <ele>22.68366</ele>
        <time>2021-07-12T08:15:37Z</time>
      </trkpt>
      <trkpt lat="37.1027" lon="-8.36683">
        <ele>24.12071</ele>
        <time>2021-07-12T08:15:48Z</time>
      </trkpt>
      <trkpt lat="37.10316" lon="-8.3665">
        <ele>31.87834</ele>
        <time>2021-07-12T08:15:59Z</time>
      </trkpt>
      <trkpt lat="37.10374" lon="-8.36621">
        <ele>39.74933</ele>
        <time>2021-07-12T08:16:10Z</time>
      </trkpt>
      <trkpt lat="37.10375" lon="-8.36485">
        <ele>22.71985</ele>
        <time>2021-07-12T08:16:21Z</time>
      </trkpt>
      <trkpt lat="37.10334" lon="-8.36395">
        <ele>12.05959</ele>
        <time>2021-07-12T08:16:32Z</time>
      </trkpt>
      <trkpt lat="37.10308" lon="-8.36308">
        <ele>11.6993</ele>
        <time>2021-07-12T08:16:43Z</time>
      </trkpt>
      <trkpt lat="37.10306" lon="-8.363">
        <ele>22.22325</ele>
        <time>2021-07-12T08:16:54Z</time>
      </trkpt>
      <trkpt lat="37.103" lon="-8.3627">
        <ele>29.34032</ele>
        <time>2021-07-12T08:17:05Z</time>
      </trkpt>
      <trkpt lat="37.10293" lon="-8.36183">
        <ele>22.50616</ele>
        <time>2021-07-12T08:17:16Z</time>
      </trkpt>
      <trkpt lat="37.1021" lon="-8.36158">
        <ele>24.88548</ele>
        <time>2021-07-12T08:17:27Z</time>
      </trkpt>
      <trkpt lat="37.10202" lon="-8.36156">
        <ele>22.4196</ele>
        <time>2021-07-12T08:17:38Z</time>
      </trkpt>
      <trkpt lat="37.10198" lon="-8.36155">
        <ele>25.87071</ele>
        <time>2021-07-12T08:17:50Z</time>
      </trkpt>
      <trkpt lat="37.10194" lon="-8.36154">
        <ele>33.84882</ele>
        <time>2021-07-12T08:18:38Z</time>
      </trkpt>
      <trkpt lat="37.1019" lon="-8.36154">
        <ele>27.63352</ele>
        <time>2021-07-12T08:18:49Z</time>
      </trkpt>
      <trkpt lat="37.10195" lon="-8.36167">
        <ele>26.48334</ele>
        <time>2021-07-12T08:19:00Z</time>
      </trkpt>
      <trkpt lat="37.10197" lon="-8.36184">
        <ele>14.21219</ele>
        <time>2021-07-12T08:19:11Z</time>
      </trkpt>
      <trkpt lat="37.10201" lon="-8.36186">
        <ele>10.01</ele>
        <time>2021-07-12T08:19:22Z</time>
      </trkpt>
      <trkpt lat="37.10204" lon="-8.36189">
        <ele>11.14449</ele>
        <time>2021-07-12T08:19:40Z</time>
      </trkpt>
      <trkpt lat="37.10205" lon="-8.36188">
        <ele>9.815906</ele>
        <time>2021-07-12T08:20:39Z</time>
      </trkpt>
      <trkpt lat="37.1021" lon="-8.36188">
        <ele>9.527432</ele>
        <time>2021-07-12T08:20:54Z</time>
      </trkpt>
      <trkpt lat="37.10209" lon="-8.36183">
        <ele>10.37442</ele>
        <time>2021-07-12T08:21:18Z</time>
      </trkpt>
      <trkpt lat="37.10207" lon="-8.36187">
        <ele>10.15669</ele>
        <time>2021-07-12T08:21:36Z</time>
      </trkpt>
      <trkpt lat="37.10207" lon="-8.36186">
        <ele>10.34621</ele>
        <time>2021-07-12T08:22:35Z</time>
      </trkpt>
      <trkpt lat="37.10202" lon="-8.36185">
        <ele>11.22585</ele>
        <time>2021-07-12T08:22:46Z</time>
      </trkpt>
      <trkpt lat="37.10206" lon="-8.36184">
        <ele>10.51425</ele>
        <time>2021-07-12T08:22:57Z</time>
      </trkpt>
      <trkpt lat="37.10207" lon="-8.36189">
        <ele>10.58444</ele>
        <time>2021-07-12T08:23:18Z</time>
      </trkpt>
      <trkpt lat="37.10203" lon="-8.36189">
        <ele>10.48416</ele>
        <time>2021-07-12T08:23:24Z</time>
      </trkpt>
      <trkpt lat="37.10207" lon="-8.36191">
        <ele>9.505771</ele>
        <time>2021-07-12T08:23:36Z</time>
      </trkpt>
      <trkpt lat="37.10211" lon="-8.36192">
        <ele>10.45704</ele>
        <time>2021-07-12T08:24:00Z</time>
      </trkpt>
      <trkpt lat="37.10207" lon="-8.3619">
        <ele>10.59948</ele>
        <time>2021-07-12T08:24:53Z</time>
      </trkpt>
      <trkpt lat="37.10208" lon="-8.36186">
        <ele>9.834643</ele>
        <time>2021-07-12T08:25:10Z</time>
      </trkpt>
      <trkpt lat="37.10209" lon="-8.36181">
        <ele>10.13435</ele>
        <time>2021-07-12T08:25:18Z</time>
      </trkpt>
      <trkpt lat="37.10207" lon="-8.36186">
        <ele>10.50956</ele>
        <time>2021-07-12T08:25:45Z</time>
      </trkpt>
      <trkpt lat="37.10209" lon="-8.36191">
        <ele>10.5023</ele>
        <time>2021-07-12T08:26:37Z</time>
      </trkpt>
      <trkpt lat="37.10204" lon="-8.36193">
        <ele>10.49442</ele>
        <time>2021-07-12T08:26:58Z</time>
      </trkpt>
      <trkpt lat="37.10207" lon="-8.36189">
        <ele>11.92251</ele>
        <time>2021-07-12T08:27:10Z</time>
      </trkpt>
      <trkpt lat="37.10205" lon="-8.36184">
        <ele>11.94308</ele>
        <time>2021-07-12T08:28:09Z</time>
      </trkpt>
      <trkpt lat="37.10209" lon="-8.36186">
        <ele>11.1934</ele>
        <time>2021-07-12T08:28:26Z</time>
      </trkpt>
      <trkpt lat="37.10205" lon="-8.36184">
        <ele>11.30357</ele>
        <time>2021-07-12T08:28:43Z</time>
      </trkpt>
      <trkpt lat="37.10207" lon="-8.36184">
        <ele>10.92542</ele>
        <time>2021-07-12T08:29:43Z</time>
      </trkpt>
      <trkpt lat="37.10208" lon="-8.36189">
        <ele>10.20125</ele>
        <time>2021-07-12T08:29:59Z</time>
      </trkpt>
      <trkpt lat="37.10212" lon="-8.36187">
        <ele>10.24529</ele>
        <time>2021-07-12T08:30:07Z</time>
      </trkpt>
      <trkpt lat="37.1021" lon="-8.36192">
        <ele>9.494371</ele>
        <time>2021-07-12T08:30:33Z</time>
      </trkpt>
      <trkpt lat="37.10207" lon="-8.36189">
        <ele>10.67854</ele>
        <time>2021-07-12T08:31:03Z</time>
      </trkpt>
      <trkpt lat="37.10205" lon="-8.36187">
        <ele>11.1705</ele>
        <time>2021-07-12T08:32:02Z</time>
      </trkpt>
      <trkpt lat="37.10209" lon="-8.36185">
        <ele>9.84922</ele>
        <time>2021-07-12T08:32:39Z</time>
      </trkpt>
      <trkpt lat="37.10213" lon="-8.36185">
        <ele>11.51748</ele>
        <time>2021-07-12T08:32:46Z</time>
      </trkpt>
      <trkpt lat="37.10213" lon="-8.3619">
        <ele>11.43086</ele>
        <time>2021-07-12T08:33:07Z</time>
      </trkpt>
      <trkpt lat="37.10213" lon="-8.36196">
        <ele>10.4662</ele>
        <time>2021-07-12T08:33:50Z</time>
      </trkpt>
      <trkpt lat="37.1021" lon="-8.36192">
        <ele>10.53856</ele>
        <time>2021-07-12T08:34:07Z</time>
      </trkpt>
      <trkpt lat="37.1021" lon="-8.36187">
        <ele>10.14517</ele>
        <time>2021-07-12T08:34:23Z</time>
      </trkpt>
      <trkpt lat="37.10206" lon="-8.36189">
        <ele>10.93138</ele>
        <time>2021-07-12T08:34:41Z</time>
      </trkpt>
      <trkpt lat="37.10208" lon="-8.36193">
        <ele>11.38146</ele>
        <time>2021-07-12T08:34:58Z</time>
      </trkpt>
      <trkpt lat="37.1021" lon="-8.36189">
        <ele>10.97274</ele>
        <time>2021-07-12T08:35:13Z</time>
      </trkpt>
      <trkpt lat="37.10212" lon="-8.36191">
        <ele>11.33685</ele>
        <time>2021-07-12T08:36:12Z</time>
      </trkpt>
      <trkpt lat="37.10213" lon="-8.36186">
        <ele>10.11525</ele>
        <time>2021-07-12T08:36:50Z</time>
      </trkpt>
      <trkpt lat="37.10209" lon="-8.36185">
        <ele>10.1924</ele>
        <time>2021-07-12T08:37:08Z</time>
      </trkpt>
      <trkpt lat="37.10206" lon="-8.36189">
        <ele>9.201098</ele>
        <time>2021-07-12T08:37:31Z</time>
      </trkpt>
      <trkpt lat="37.10208" lon="-8.36182">
        <ele>9.866797</ele>
        <time>2021-07-12T08:37:45Z</time>
      </trkpt>
      <trkpt lat="37.10211" lon="-8.36185">
        <ele>10.05647</ele>
        <time>2021-07-12T08:37:59Z</time>
      </trkpt>
      <trkpt lat="37.10208" lon="-8.36182">
        <ele>10.46232</ele>
        <time>2021-07-12T08:38:25Z</time>
      </trkpt>
      <trkpt lat="37.1021" lon="-8.36186">
        <ele>11.03853</ele>
        <time>2021-07-12T08:39:23Z</time>
      </trkpt>
      <trkpt lat="37.10215" lon="-8.36187">
        <ele>10.60556</ele>
        <time>2021-07-12T08:39:33Z</time>
      </trkpt>
      <trkpt lat="37.10218" lon="-8.36187">
        <ele>11.24824</ele>
        <time>2021-07-12T08:40:04Z</time>
      </trkpt>
      <trkpt lat="37.10215" lon="-8.36185">
        <ele>9.747955</ele>
        <time>2021-07-12T08:40:12Z</time>
      </trkpt>
      <trkpt lat="37.10212" lon="-8.36182">
        <ele>10.26039</ele>
        <time>2021-07-12T08:40:23Z</time>
      </trkpt>
      <trkpt lat="37.10211" lon="-8.36177">
        <ele>10.53954</ele>
        <time>2021-07-12T08:41:16Z</time>
      </trkpt>
      <trkpt lat="37.10207" lon="-8.36177">
        <ele>9.362462</ele>
        <time>2021-07-12T08:41:32Z</time>
      </trkpt>
      <trkpt lat="37.10204" lon="-8.36175">
        <ele>10.58081</ele>
        <time>2021-07-12T08:41:59Z</time>
      </trkpt>
      <trkpt lat="37.10202" lon="-8.36178">
        <ele>11.10287</ele>
        <time>2021-07-12T08:42:13Z</time>
      </trkpt>
      <trkpt lat="37.10205" lon="-8.36181">
        <ele>10.9313</ele>
        <time>2021-07-12T08:42:23Z</time>
      </trkpt>
      <trkpt lat="37.10208" lon="-8.36185">
        <ele>10.74738</ele>
        <time>2021-07-12T08:42:30Z</time>
      </trkpt>
      <trkpt lat="37.10211" lon="-8.36183">
        <ele>9.985624</ele>
        <time>2021-07-12T08:43:08Z</time>
      </trkpt>
      <trkpt lat="37.10215" lon="-8.36185">
        <ele>9.968497</ele>
        <time>2021-07-12T08:43:20Z</time>
      </trkpt>
      <trkpt lat="37.10218" lon="-8.36188">
        <ele>10.04766</ele>
        <time>2021-07-12T08:43:49Z</time>
      </trkpt>
      <trkpt lat="37.10214" lon="-8.36188">
        <ele>9.746223</ele>
        <time>2021-07-12T08:44:01Z</time>
      </trkpt>
      <trkpt lat="37.10212" lon="-8.36183">
        <ele>10.59403</ele>
        <time>2021-07-12T08:44:07Z</time>
      </trkpt>
      <trkpt lat="37.10213" lon="-8.36186">
        <ele>10.36473</ele>
        <time>2021-07-12T08:45:06Z</time>
      </trkpt>
      <trkpt lat="37.10209" lon="-8.36188">
        <ele>10.0842</ele>
        <time>2021-07-12T08:45:40Z</time>
      </trkpt>
      <trkpt lat="37.10207" lon="-8.36184">
        <ele>11.66012</ele>
        <time>2021-07-12T08:45:54Z</time>
      </trkpt>
      <trkpt lat="37.1021" lon="-8.36186">
        <ele>10.40568</ele>
        <time>2021-07-12T08:46:27Z</time>
      </trkpt>
      <trkpt lat="37.10207" lon="-8.3619">
        <ele>11.21983</ele>
        <time>2021-07-12T08:46:36Z</time>
      </trkpt>
      <trkpt lat="37.10211" lon="-8.36187">
        <ele>10.71348</ele>
        <time>2021-07-12T08:46:48Z</time>
      </trkpt>
      <trkpt lat="37.10212" lon="-8.36182">
        <ele>9.289667</ele>
        <time>2021-07-12T08:47:31Z</time>
      </trkpt>
      <trkpt lat="37.10212" lon="-8.36187">
        <ele>11.30371</ele>
        <time>2021-07-12T08:47:46Z</time>
      </trkpt>
      <trkpt lat="37.10209" lon="-8.36184">
        <ele>9.320606</ele>
        <time>2021-07-12T08:48:22Z</time>
      </trkpt>
      <trkpt lat="37.10206" lon="-8.36191">
        <ele>15.87096</ele>
        <time>2021-07-12T08:48:46Z</time>
      </trkpt>
      <trkpt lat="37.10204" lon="-8.36195">
        <ele>10.34846</ele>
        <time>2021-07-12T08:48:53Z</time>
      </trkpt>
      <trkpt lat="37.10198" lon="-8.36201">
        <ele>9.139554</ele>
        <time>2021-07-12T08:48:59Z</time>
      </trkpt>
      <trkpt lat="37.10203" lon="-8.362">
        <ele>10.09256</ele>
        <time>2021-07-12T08:49:06Z</time>
      </trkpt>
      <trkpt lat="37.10209" lon="-8.36195">
        <ele>6.166041</ele>
        <time>2021-07-12T08:49:12Z</time>
      </trkpt>
      <trkpt lat="37.10203" lon="-8.362">
        <ele>12.08285</ele>
        <time>2021-07-12T08:49:18Z</time>
      </trkpt>
      <trkpt lat="37.10206" lon="-8.36196">
        <ele>8.303616</ele>
        <time>2021-07-12T08:49:25Z</time>
      </trkpt>
      <trkpt lat="37.10209" lon="-8.36193">
        <ele>10.1192</ele>
        <time>2021-07-12T08:49:36Z</time>
      </trkpt>
      <trkpt lat="37.10213" lon="-8.36191">
        <ele>10.8211</ele>
        <time>2021-07-12T08:49:42Z</time>
      </trkpt>
      <trkpt lat="37.10211" lon="-8.36186">
        <ele>9.531903</ele>
        <time>2021-07-12T08:50:02Z</time>
      </trkpt>
      <trkpt lat="37.10208" lon="-8.36173">
        <ele>11.08937</ele>
        <time>2021-07-12T08:50:08Z</time>
      </trkpt>
      <trkpt lat="37.10207" lon="-8.36165">
        <ele>9.681279</ele>
        <time>2021-07-12T08:50:14Z</time>
      </trkpt>
      <trkpt lat="37.10208" lon="-8.36169">
        <ele>9.230988</ele>
        <time>2021-07-12T08:50:20Z</time>
      </trkpt>
      <trkpt lat="37.10205" lon="-8.36164">
        <ele>9.967499</ele>
        <time>2021-07-12T08:50:37Z</time>
      </trkpt>
      <trkpt lat="37.10209" lon="-8.36159">
        <ele>10.46084</ele>
        <time>2021-07-12T08:50:48Z</time>
      </trkpt>
      <trkpt lat="37.10211" lon="-8.36153">
        <ele>11.08933</ele>
        <time>2021-07-12T08:51:16Z</time>
      </trkpt>
      <trkpt lat="37.10207" lon="-8.36156">
        <ele>10.8431</ele>
        <time>2021-07-12T08:52:10Z</time>
      </trkpt>
      <trkpt lat="37.1021" lon="-8.36153">
        <ele>9.591928</ele>
        <time>2021-07-12T08:52:40Z</time>
      </trkpt>
      <trkpt lat="37.10224" lon="-8.36161">
        <ele>9.18796</ele>
        <time>2021-07-12T08:52:51Z</time>
      </trkpt>
      <trkpt lat="37.10285" lon="-8.36169">
        <ele>9.407478</ele>
        <time>2021-07-12T08:53:02Z</time>
      </trkpt>
      <trkpt lat="37.10304" lon="-8.3622">
        <ele>8.334547</ele>
        <time>2021-07-12T08:53:13Z</time>
      </trkpt>
      <trkpt lat="37.1031" lon="-8.36286">
        <ele>9.892058</ele>
        <time>2021-07-12T08:53:24Z</time>
      </trkpt>
      <trkpt lat="37.10367" lon="-8.36289">
        <ele>9.049797</ele>
        <time>2021-07-12T08:53:35Z</time>
      </trkpt>
      <trkpt lat="37.10389" lon="-8.36284">
        <ele>8.292915</ele>
        <time>2021-07-12T08:53:46Z</time>
      </trkpt>
      <trkpt lat="37.10405" lon="-8.36276">
        <ele>6.518132</ele>
        <time>2021-07-12T08:53:57Z</time>
      </trkpt>
      <trkpt lat="37.1041" lon="-8.36275">
        <ele>9.803132</ele>
        <time>2021-07-12T08:54:08Z</time>
      </trkpt>
      <trkpt lat="37.10423" lon="-8.36247">
        <ele>12.06689</ele>
        <time>2021-07-12T08:54:19Z</time>
      </trkpt>
      <trkpt lat="37.10441" lon="-8.36136">
        <ele>11.96942</ele>
        <time>2021-07-12T08:54:30Z</time>
      </trkpt>
      <trkpt lat="37.10456" lon="-8.36016">
        <ele>11.02662</ele>
        <time>2021-07-12T08:54:41Z</time>
      </trkpt>
      <trkpt lat="37.10472" lon="-8.3591">
        <ele>13.11201</ele>
        <time>2021-07-12T08:54:52Z</time>
      </trkpt>
      <trkpt lat="37.10487" lon="-8.35814">
        <ele>14.47728</ele>
        <time>2021-07-12T08:55:03Z</time>
      </trkpt>
      <trkpt lat="37.10548" lon="-8.35701">
        <ele>16.1069</ele>
        <time>2021-07-12T08:55:14Z</time>
      </trkpt>
      <trkpt lat="37.10637" lon="-8.35602">
        <ele>12.46366</ele>
        <time>2021-07-12T08:55:25Z</time>
      </trkpt>
      <trkpt lat="37.10719" lon="-8.35529">
        <ele>8.392683</ele>
        <time>2021-07-12T08:55:36Z</time>
      </trkpt>
      <trkpt lat="37.10819" lon="-8.35441">
        <ele>12.74667</ele>
        <time>2021-07-12T08:55:47Z</time>
      </trkpt>
      <trkpt lat="37.10893" lon="-8.35363">
        <ele>13.55966</ele>
        <time>2021-07-12T08:55:58Z</time>
      </trkpt>
      <trkpt lat="37.10943" lon="-8.35341">
        <ele>13.31492</ele>
        <time>2021-07-12T08:56:09Z</time>
      </trkpt>
      <trkpt lat="37.11044" lon="-8.35288">
        <ele>15.81881</ele>
        <time>2021-07-12T08:56:20Z</time>
      </trkpt>
      <trkpt lat="37.11118" lon="-8.35275">
        <ele>16.48378</ele>
        <time>2021-07-12T08:56:31Z</time>
      </trkpt>
      <trkpt lat="37.11145" lon="-8.35273">
        <ele>17.36105</ele>
        <time>2021-07-12T08:56:42Z</time>
      </trkpt>
      <trkpt lat="37.11225" lon="-8.35266">
        <ele>19.65738</ele>
        <time>2021-07-12T08:56:53Z</time>
      </trkpt>
      <trkpt lat="37.11371" lon="-8.35241">
        <ele>25.24585</ele>
        <time>2021-07-12T08:57:04Z</time>
      </trkpt>
      <trkpt lat="37.11513" lon="-8.35187">
        <ele>27.45581</ele>
        <time>2021-07-12T08:57:15Z</time>
      </trkpt>
      <trkpt lat="37.11646" lon="-8.35139">
        <ele>21.98755</ele>
        <time>2021-07-12T08:57:26Z</time>
      </trkpt>
      <trkpt lat="37.11767" lon="-8.35096">
        <ele>10.48889</ele>
        <time>2021-07-12T08:57:37Z</time>
      </trkpt>
      <trkpt lat="37.11821" lon="-8.35073">
        <ele>5.497121</ele>
        <time>2021-07-12T08:57:48Z</time>
      </trkpt>
      <trkpt lat="37.11892" lon="-8.35055">
        <ele>8.395342</ele>
        <time>2021-07-12T08:57:59Z</time>
      </trkpt>
      <trkpt lat="37.12017" lon="-8.35006">
        <ele>18.54629</ele>
        <time>2021-07-12T08:58:10Z</time>
      </trkpt>
      <trkpt lat="37.12128" lon="-8.34916">
        <ele>19.04631</ele>
        <time>2021-07-12T08:58:21Z</time>
      </trkpt>
      <trkpt lat="37.12247" lon="-8.34831">
        <ele>9.763232</ele>
        <time>2021-07-12T08:58:32Z</time>
      </trkpt>
      <trkpt lat="37.12321" lon="-8.3478">
        <ele>7.061293</ele>
        <time>2021-07-12T08:58:43Z</time>
      </trkpt>
      <trkpt lat="37.12403" lon="-8.34751">
        <ele>6.815961</ele>
        <time>2021-07-12T08:58:54Z</time>
      </trkpt>
      <trkpt lat="37.12511" lon="-8.34694">
        <ele>7.172025</ele>
        <time>2021-07-12T08:59:05Z</time>
      </trkpt>
      <trkpt lat="37.12597" lon="-8.34648">
        <ele>7.547871</ele>
        <time>2021-07-12T08:59:16Z</time>
      </trkpt>
      <trkpt lat="37.12623" lon="-8.3463">
        <ele>10.14434</ele>
        <time>2021-07-12T08:59:27Z</time>
      </trkpt>
      <trkpt lat="37.12616" lon="-8.34603">
        <ele>10.60081</ele>
        <time>2021-07-12T08:59:38Z</time>
      </trkpt>
      <trkpt lat="37.12511" lon="-8.34528">
        <ele>12.58132</ele>
        <time>2021-07-12T08:59:49Z</time>
      </trkpt>
      <trkpt lat="37.12424" lon="-8.34456">
        <ele>20.18446</ele>
        <time>2021-07-12T09:00:00Z</time>
      </trkpt>
      <trkpt lat="37.12365" lon="-8.3437">
        <ele>26.05524</ele>
        <time>2021-07-12T09:00:11Z</time>
      </trkpt>
      <trkpt lat="37.12324" lon="-8.34192">
        <ele>37.19382</ele>
        <time>2021-07-12T09:00:22Z</time>
      </trkpt>
      <trkpt lat="37.12352" lon="-8.34015">
        <ele>43.07637</ele>
        <time>2021-07-12T09:00:33Z</time>
      </trkpt>
      <trkpt lat="37.12379" lon="-8.33847">
        <ele>45.65306</ele>
        <time>2021-07-12T09:00:44Z</time>
      </trkpt>
      <trkpt lat="37.12404" lon="-8.33706">
        <ele>45.54208</ele>
        <time>2021-07-12T09:00:55Z</time>
      </trkpt>
      <trkpt lat="37.12415" lon="-8.33616">
        <ele>45.45559</ele>
        <time>2021-07-12T09:01:06Z</time>
      </trkpt>
      <trkpt lat="37.12411" lon="-8.33486">
        <ele>46.99706</ele>
        <time>2021-07-12T09:01:17Z</time>
      </trkpt>
      <trkpt lat="37.12411" lon="-8.33316">
        <ele>47.08788</ele>
        <time>2021-07-12T09:01:28Z</time>
      </trkpt>
      <trkpt lat="37.12411" lon="-8.33132">
        <ele>49.5321</ele>
        <time>2021-07-12T09:01:39Z</time>
      </trkpt>
      <trkpt lat="37.12415" lon="-8.32913">
        <ele>49.34059</ele>
        <time>2021-07-12T09:01:50Z</time>
      </trkpt>
      <trkpt lat="37.12419" lon="-8.3268">
        <ele>47.07082</ele>
        <time>2021-07-12T09:02:01Z</time>
      </trkpt>
      <trkpt lat="37.12419" lon="-8.32474">
        <ele>49.18181</ele>
        <time>2021-07-12T09:02:12Z</time>
      </trkpt>
      <trkpt lat="37.12422" lon="-8.32277">
        <ele>46.0203</ele>
        <time>2021-07-12T09:02:23Z</time>
      </trkpt>
      <trkpt lat="37.12424" lon="-8.32105">
        <ele>42.07864</ele>
        <time>2021-07-12T09:02:34Z</time>
      </trkpt>
      <trkpt lat="37.12426" lon="-8.31912">
        <ele>34.02417</ele>
        <time>2021-07-12T09:02:45Z</time>
      </trkpt>
      <trkpt lat="37.12497" lon="-8.31751">
        <ele>26.72312</ele>
        <time>2021-07-12T09:02:56Z</time>
      </trkpt>
      <trkpt lat="37.12637" lon="-8.31662">
        <ele>26.65034</ele>
        <time>2021-07-12T09:03:07Z</time>
      </trkpt>
      <trkpt lat="37.12732" lon="-8.31594">
        <ele>25.2625</ele>
        <time>2021-07-12T09:03:18Z</time>
      </trkpt>
      <trkpt lat="37.12757" lon="-8.31443">
        <ele>22.18867</ele>
        <time>2021-07-12T09:03:29Z</time>
      </trkpt>
      <trkpt lat="37.12734" lon="-8.31233">
        <ele>26.65051</ele>
        <time>2021-07-12T09:03:40Z</time>
      </trkpt>
      <trkpt lat="37.12747" lon="-8.31025">
        <ele>31.86303</ele>
        <time>2021-07-12T09:03:51Z</time>
      </trkpt>
      <trkpt lat="37.12787" lon="-8.30816">
        <ele>33.78043</ele>
        <time>2021-07-12T09:04:02Z</time>
      </trkpt>
      <trkpt lat="37.12826" lon="-8.30611">
        <ele>33.48075</ele>
        <time>2021-07-12T09:04:13Z</time>
      </trkpt>
      <trkpt lat="37.1282" lon="-8.30436">
        <ele>38.10112</ele>
        <time>2021-07-12T09:04:24Z</time>
      </trkpt>
      <trkpt lat="37.12813" lon="-8.30262">
        <ele>42.51286</ele>
        <time>2021-07-12T09:04:35Z</time>
      </trkpt>
      <trkpt lat="37.12807" lon="-8.30145">
        <ele>43.52811</ele>
        <time>2021-07-12T09:04:46Z</time>
      </trkpt>
      <trkpt lat="37.12803" lon="-8.30117">
        <ele>42.87228</ele>
        <time>2021-07-12T09:04:57Z</time>
      </trkpt>
      <trkpt lat="37.12804" lon="-8.30024">
        <ele>44.74274</ele>
        <time>2021-07-12T09:05:08Z</time>
      </trkpt>
      <trkpt lat="37.12799" lon="-8.2984">
        <ele>46.25615</ele>
        <time>2021-07-12T09:05:19Z</time>
      </trkpt>
      <trkpt lat="37.12789" lon="-8.29658">
        <ele>47.43326</ele>
        <time>2021-07-12T09:05:30Z</time>
      </trkpt>
      <trkpt lat="37.12779" lon="-8.29416">
        <ele>48.69194</ele>
        <time>2021-07-12T09:05:41Z</time>
      </trkpt>
      <trkpt lat="37.12769" lon="-8.29146">
        <ele>55.91028</ele>
        <time>2021-07-12T09:05:52Z</time>
      </trkpt>
      <trkpt lat="37.12788" lon="-8.28857">
        <ele>62.6272</ele>
        <time>2021-07-12T09:06:03Z</time>
      </trkpt>
      <trkpt lat="37.12838" lon="-8.28581">
        <ele>74.00549</ele>
        <time>2021-07-12T09:06:14Z</time>
      </trkpt>
      <trkpt lat="37.1288" lon="-8.28366">
        <ele>83.54237</ele>
        <time>2021-07-12T09:06:25Z</time>
      </trkpt>
      <trkpt lat="37.1288" lon="-8.28217">
        <ele>87.08998</ele>
        <time>2021-07-12T09:06:36Z</time>
      </trkpt>
      <trkpt lat="37.12873" lon="-8.27986">
        <ele>89.10234</ele>
        <time>2021-07-12T09:06:47Z</time>
      </trkpt>
      <trkpt lat="37.12873" lon="-8.27754">
        <ele>93.40768</ele>
        <time>2021-07-12T09:06:58Z</time>
      </trkpt>
      <trkpt lat="37.12868" lon="-8.275">
        <ele>94.99938</ele>
        <time>2021-07-12T09:07:09Z</time>
      </trkpt>
      <trkpt lat="37.12863" lon="-8.27241">
        <ele>85.6457</ele>
        <time>2021-07-12T09:07:20Z</time>
      </trkpt>
      <trkpt lat="37.12859" lon="-8.26999">
        <ele>81.65388</ele>
        <time>2021-07-12T09:07:31Z</time>
      </trkpt>
      <trkpt lat="37.12853" lon="-8.26798">
        <ele>77.08221</ele>
        <time>2021-07-12T09:07:42Z</time>
      </trkpt>
      <trkpt lat="37.12847" lon="-8.26581">
        <ele>77.69393</ele>
        <time>2021-07-12T09:07:53Z</time>
      </trkpt>
      <trkpt lat="37.12843" lon="-8.26364">
        <ele>76.07241</ele>
        <time>2021-07-12T09:08:04Z</time>
      </trkpt>
      <trkpt lat="37.12839" lon="-8.26139">
        <ele>73.31929</ele>
        <time>2021-07-12T09:08:15Z</time>
      </trkpt>
      <trkpt lat="37.12826" lon="-8.25905">
        <ele>75.2698</ele>
        <time>2021-07-12T09:08:26Z</time>
      </trkpt>
      <trkpt lat="37.12745" lon="-8.25682">
        <ele>76.69626</ele>
        <time>2021-07-12T09:08:37Z</time>
      </trkpt>
      <trkpt lat="37.12637" lon="-8.25631">
        <ele>76.2957</ele>
        <time>2021-07-12T09:08:48Z</time>
      </trkpt>
      <trkpt lat="37.1274" lon="-8.25762">
        <ele>81.38112</ele>
        <time>2021-07-12T09:08:59Z</time>
      </trkpt>
      <trkpt lat="37.1295" lon="-8.2576">
        <ele>81.32196</ele>
        <time>2021-07-12T09:09:10Z</time>
      </trkpt>
      <trkpt lat="37.13169" lon="-8.25684">
        <ele>85.05571</ele>
        <time>2021-07-12T09:09:21Z</time>
      </trkpt>
      <trkpt lat="37.13388" lon="-8.25605">
        <ele>90.17083</ele>
        <time>2021-07-12T09:09:32Z</time>
      </trkpt>
      <trkpt lat="37.13609" lon="-8.25522">
        <ele>92.04102</ele>
        <time>2021-07-12T09:09:43Z</time>
      </trkpt>
      <trkpt lat="37.13834" lon="-8.25442">
        <ele>87.3152</ele>
        <time>2021-07-12T09:09:54Z</time>
      </trkpt>
      <trkpt lat="37.14051" lon="-8.25348">
        <ele>87.59809</ele>
        <time>2021-07-12T09:10:05Z</time>
      </trkpt>
      <trkpt lat="37.14269" lon="-8.25231">
        <ele>90.07648</ele>
        <time>2021-07-12T09:10:16Z</time>
      </trkpt>
      <trkpt lat="37.14486" lon="-8.25116">
        <ele>90.55761</ele>
        <time>2021-07-12T09:10:27Z</time>
      </trkpt>
      <trkpt lat="37.14701" lon="-8.25001">
        <ele>84.81934</ele>
        <time>2021-07-12T09:10:38Z</time>
      </trkpt>
      <trkpt lat="37.14923" lon="-8.24923">
        <ele>80.42945</ele>
        <time>2021-07-12T09:10:49Z</time>
      </trkpt>
      <trkpt lat="37.15152" lon="-8.24939">
        <ele>73.99342</ele>
        <time>2021-07-12T09:11:00Z</time>
      </trkpt>
      <trkpt lat="37.15384" lon="-8.24978">
        <ele>66.77396</ele>
        <time>2021-07-12T09:11:11Z</time>
      </trkpt>
      <trkpt lat="37.15611" lon="-8.25048">
        <ele>67.89162</ele>
        <time>2021-07-12T09:11:22Z</time>
      </trkpt>
      <trkpt lat="37.15839" lon="-8.25105">
        <ele>77.80268</ele>
        <time>2021-07-12T09:11:33Z</time>
      </trkpt>
      <trkpt lat="37.16048" lon="-8.25116">
        <ele>79.72748</ele>
        <time>2021-07-12T09:11:44Z</time>
      </trkpt>
      <trkpt lat="37.16268" lon="-8.25187">
        <ele>74.9311</ele>
        <time>2021-07-12T09:11:55Z</time>
      </trkpt>
      <trkpt lat="37.1649" lon="-8.25273">
        <ele>76.15389</ele>
        <time>2021-07-12T09:12:06Z</time>
      </trkpt>
      <trkpt lat="37.16703" lon="-8.25376">
        <ele>81.87636</ele>
        <time>2021-07-12T09:12:17Z</time>
      </trkpt>
      <trkpt lat="37.16905" lon="-8.25533">
        <ele>78.72717</ele>
        <time>2021-07-12T09:12:28Z</time>
      </trkpt>
      <trkpt lat="37.17103" lon="-8.2569">
        <ele>72.39216</ele>
        <time>2021-07-12T09:12:39Z</time>
      </trkpt>
      <trkpt lat="37.17297" lon="-8.25844">
        <ele>66.81109</ele>
        <time>2021-07-12T09:12:50Z</time>
      </trkpt>
      <trkpt lat="37.17489" lon="-8.26013">
        <ele>65.4625</ele>
        <time>2021-07-12T09:13:01Z</time>
      </trkpt>
      <trkpt lat="37.17671" lon="-8.26198">
        <ele>69.82408</ele>
        <time>2021-07-12T09:13:12Z</time>
      </trkpt>
      <trkpt lat="37.17884" lon="-8.26319">
        <ele>75.21772</ele>
        <time>2021-07-12T09:13:23Z</time>
      </trkpt>
      <trkpt lat="37.18115" lon="-8.26318">
        <ele>81.31039</ele>
        <time>2021-07-12T09:13:34Z</time>
      </trkpt>
      <trkpt lat="37.18335" lon="-8.26231">
        <ele>84.05062</ele>
        <time>2021-07-12T09:13:45Z</time>
      </trkpt>
      <trkpt lat="37.18566" lon="-8.26129">
        <ele>87.6503</ele>
        <time>2021-07-12T09:13:56Z</time>
      </trkpt>
      <trkpt lat="37.18804" lon="-8.26088">
        <ele>86.54439</ele>
        <time>2021-07-12T09:14:07Z</time>
      </trkpt>
      <trkpt lat="37.1905" lon="-8.26102">
        <ele>88.64125</ele>
        <time>2021-07-12T09:14:18Z</time>
      </trkpt>
      <trkpt lat="37.19296" lon="-8.26118">
        <ele>91.93139</ele>
        <time>2021-07-12T09:14:29Z</time>
      </trkpt>
      <trkpt lat="37.19547" lon="-8.26133">
        <ele>97.95189</ele>
        <time>2021-07-12T09:14:40Z</time>
      </trkpt>
      <trkpt lat="37.19798" lon="-8.26148">
        <ele>104.5319</ele>
        <time>2021-07-12T09:14:51Z</time>
      </trkpt>
      <trkpt lat="37.20041" lon="-8.26108">
        <ele>105.6661</ele>
        <time>2021-07-12T09:15:02Z</time>
      </trkpt>
      <trkpt lat="37.20272" lon="-8.25992">
        <ele>96.70032</ele>
        <time>2021-07-12T09:15:13Z</time>
      </trkpt>
      <trkpt lat="37.20498" lon="-8.25874">
        <ele>83.98377</ele>
        <time>2021-07-12T09:15:24Z</time>
      </trkpt>
      <trkpt lat="37.20733" lon="-8.25762">
        <ele>73.6607</ele>
        <time>2021-07-12T09:15:35Z</time>
      </trkpt>
      <trkpt lat="37.20977" lon="-8.25715">
        <ele>71.0173</ele>
        <time>2021-07-12T09:15:46Z</time>
      </trkpt>
      <trkpt lat="37.21222" lon="-8.25695">
        <ele>73.98893</ele>
        <time>2021-07-12T09:15:57Z</time>
      </trkpt>
      <trkpt lat="37.21468" lon="-8.25677">
        <ele>81.4328</ele>
        <time>2021-07-12T09:16:08Z</time>
      </trkpt>
      <trkpt lat="37.21717" lon="-8.25656">
        <ele>88.79698</ele>
        <time>2021-07-12T09:16:19Z</time>
      </trkpt>
      <trkpt lat="37.21963" lon="-8.257">
        <ele>86.6048</ele>
        <time>2021-07-12T09:16:30Z</time>
      </trkpt>
      <trkpt lat="37.22198" lon="-8.25802">
        <ele>86.27734</ele>
        <time>2021-07-12T09:16:41Z</time>
      </trkpt>
      <trkpt lat="37.22423" lon="-8.25904">
        <ele>97.37865</ele>
        <time>2021-07-12T09:16:52Z</time>
      </trkpt>
      <trkpt lat="37.22628" lon="-8.26055">
        <ele>109.042</ele>
        <time>2021-07-12T09:17:03Z</time>
      </trkpt>
      <trkpt lat="37.22799" lon="-8.26269">
        <ele>114.7561</ele>
        <time>2021-07-12T09:17:14Z</time>
      </trkpt>
      <trkpt lat="37.22972" lon="-8.26486">
        <ele>115.666</ele>
        <time>2021-07-12T09:17:25Z</time>
      </trkpt>
      <trkpt lat="37.23139" lon="-8.26706">
        <ele>115.7214</ele>
        <time>2021-07-12T09:17:36Z</time>
      </trkpt>
      <trkpt lat="37.23311" lon="-8.26924">
        <ele>120.948</ele>
        <time>2021-07-12T09:17:47Z</time>
      </trkpt>
      <trkpt lat="37.23486" lon="-8.27131">
        <ele>124.7959</ele>
        <time>2021-07-12T09:17:58Z</time>
      </trkpt>
      <trkpt lat="37.23688" lon="-8.27292">
        <ele>127.4011</ele>
        <time>2021-07-12T09:18:09Z</time>
      </trkpt>
      <trkpt lat="37.23896" lon="-8.2744">
        <ele>130.7289</ele>
        <time>2021-07-12T09:18:20Z</time>
      </trkpt>
      <trkpt lat="37.24107" lon="-8.27588">
        <ele>131.6467</ele>
        <time>2021-07-12T09:18:31Z</time>
      </trkpt>
      <trkpt lat="37.24343" lon="-8.27648">
        <ele>129.8458</ele>
        <time>2021-07-12T09:18:42Z</time>
      </trkpt>
      <trkpt lat="37.24571" lon="-8.27548">
        <ele>119.1802</ele>
        <time>2021-07-12T09:18:53Z</time>
      </trkpt>
      <trkpt lat="37.24754" lon="-8.27369">
        <ele>104.771</ele>
        <time>2021-07-12T09:19:04Z</time>
      </trkpt>
      <trkpt lat="37.24944" lon="-8.27223">
        <ele>106.3814</ele>
        <time>2021-07-12T09:19:15Z</time>
      </trkpt>
      <trkpt lat="37.2507" lon="-8.27041">
        <ele>107.4468</ele>
        <time>2021-07-12T09:19:26Z</time>
      </trkpt>
      <trkpt lat="37.25118" lon="-8.26749">
        <ele>109.3335</ele>
        <time>2021-07-12T09:19:37Z</time>
      </trkpt>
      <trkpt lat="37.25151" lon="-8.26456">
        <ele>111.898</ele>
        <time>2021-07-12T09:19:48Z</time>
      </trkpt>
      <trkpt lat="37.25237" lon="-8.26301">
        <ele>111.0626</ele>
        <time>2021-07-12T09:19:59Z</time>
      </trkpt>
      <trkpt lat="37.25294" lon="-8.26438">
        <ele>108.4193</ele>
        <time>2021-07-12T09:20:10Z</time>
      </trkpt>
      <trkpt lat="37.25408" lon="-8.26683">
        <ele>111.5187</ele>
        <time>2021-07-12T09:20:21Z</time>
      </trkpt>
      <trkpt lat="37.25524" lon="-8.26936">
        <ele>115.5175</ele>
        <time>2021-07-12T09:20:32Z</time>
      </trkpt>
      <trkpt lat="37.25584" lon="-8.27144">
        <ele>114.051</ele>
        <time>2021-07-12T09:20:43Z</time>
      </trkpt>
      <trkpt lat="37.25592" lon="-8.27267">
        <ele>113.2576</ele>
        <time>2021-07-12T09:20:54Z</time>
      </trkpt>
      <trkpt lat="37.25672" lon="-8.2715">
        <ele>121.3045</ele>
        <time>2021-07-12T09:21:05Z</time>
      </trkpt>
      <trkpt lat="37.2585" lon="-8.27083">
        <ele>129.3981</ele>
        <time>2021-07-12T09:21:16Z</time>
      </trkpt>
      <trkpt lat="37.26024" lon="-8.27002">
        <ele>136.4262</ele>
        <time>2021-07-12T09:21:27Z</time>
      </trkpt>
      <trkpt lat="37.26218" lon="-8.26987">
        <ele>140.4546</ele>
        <time>2021-07-12T09:21:38Z</time>
      </trkpt>
      <trkpt lat="37.26356" lon="-8.26978">
        <ele>137.3911</ele>
        <time>2021-07-12T09:21:49Z</time>
      </trkpt>
      <trkpt lat="37.2649" lon="-8.27065">
        <ele>132.226</ele>
        <time>2021-07-12T09:22:00Z</time>
      </trkpt>
      <trkpt lat="37.26642" lon="-8.27083">
        <ele>132.1216</ele>
        <time>2021-07-12T09:22:11Z</time>
      </trkpt>
      <trkpt lat="37.26862" lon="-8.2703">
        <ele>133.5651</ele>
        <time>2021-07-12T09:22:22Z</time>
      </trkpt>
      <trkpt lat="37.27062" lon="-8.26997">
        <ele>127.7068</ele>
        <time>2021-07-12T09:22:33Z</time>
      </trkpt>
      <trkpt lat="37.2723" lon="-8.26834">
        <ele>129.0378</ele>
        <time>2021-07-12T09:22:44Z</time>
      </trkpt>
      <trkpt lat="37.27457" lon="-8.26728">
        <ele>134.2772</ele>
        <time>2021-07-12T09:22:55Z</time>
      </trkpt>
      <trkpt lat="37.27595" lon="-8.26608">
        <ele>140.6444</ele>
        <time>2021-07-12T09:23:06Z</time>
      </trkpt>
      <trkpt lat="37.27701" lon="-8.2636">
        <ele>156.2933</ele>
        <time>2021-07-12T09:23:17Z</time>
      </trkpt>
      <trkpt lat="37.27808" lon="-8.26135">
        <ele>159.2382</ele>
        <time>2021-07-12T09:23:28Z</time>
      </trkpt>
      <trkpt lat="37.27918" lon="-8.26041">
        <ele>149.2305</ele>
        <time>2021-07-12T09:23:39Z</time>
      </trkpt>
      <trkpt lat="37.28116" lon="-8.26079">
        <ele>143.6002</ele>
        <time>2021-07-12T09:23:50Z</time>
      </trkpt>
      <trkpt lat="37.28277" lon="-8.26147">
        <ele>141.3133</ele>
        <time>2021-07-12T09:24:01Z</time>
      </trkpt>
      <trkpt lat="37.28442" lon="-8.26193">
        <ele>138.1685</ele>
        <time>2021-07-12T09:24:12Z</time>
      </trkpt>
      <trkpt lat="37.28626" lon="-8.26167">
        <ele>133.5954</ele>
        <time>2021-07-12T09:24:23Z</time>
      </trkpt>
      <trkpt lat="37.28787" lon="-8.26171">
        <ele>131.1477</ele>
        <time>2021-07-12T09:24:34Z</time>
      </trkpt>
      <trkpt lat="37.28862" lon="-8.26093">
        <ele>126.5822</ele>
        <time>2021-07-12T09:24:45Z</time>
      </trkpt>
      <trkpt lat="37.28957" lon="-8.26009">
        <ele>124.5366</ele>
        <time>2021-07-12T09:24:56Z</time>
      </trkpt>
      <trkpt lat="37.28967" lon="-8.25819">
        <ele>129.8045</ele>
        <time>2021-07-12T09:25:07Z</time>
      </trkpt>
      <trkpt lat="37.28898" lon="-8.25598">
        <ele>132.1354</ele>
        <time>2021-07-12T09:25:18Z</time>
      </trkpt>
      <trkpt lat="37.2885" lon="-8.25373">
        <ele>136.8457</ele>
        <time>2021-07-12T09:25:29Z</time>
      </trkpt>
      <trkpt lat="37.28957" lon="-8.25158">
        <ele>142.2247</ele>
        <time>2021-07-12T09:25:40Z</time>
      </trkpt>
      <trkpt lat="37.29092" lon="-8.24986">
        <ele>143.0875</ele>
        <time>2021-07-12T09:25:51Z</time>
      </trkpt>
      <trkpt lat="37.29205" lon="-8.24823">
        <ele>144.8976</ele>
        <time>2021-07-12T09:26:02Z</time>
      </trkpt>
      <trkpt lat="37.29324" lon="-8.24658">
        <ele>153.2247</ele>
        <time>2021-07-12T09:26:13Z</time>
      </trkpt>
      <trkpt lat="37.2952" lon="-8.24535">
        <ele>159.9554</ele>
        <time>2021-07-12T09:26:24Z</time>
      </trkpt>
      <trkpt lat="37.29695" lon="-8.24501">
        <ele>160.9077</ele>
        <time>2021-07-12T09:26:35Z</time>
      </trkpt>
      <trkpt lat="37.29893" lon="-8.24598">
        <ele>154.247</ele>
        <time>2021-07-12T09:26:46Z</time>
      </trkpt>
      <trkpt lat="37.30073" lon="-8.24768">
        <ele>145.2842</ele>
        <time>2021-07-12T09:26:57Z</time>
      </trkpt>
      <trkpt lat="37.30201" lon="-8.24849">
        <ele>143.0024</ele>
        <time>2021-07-12T09:27:08Z</time>
      </trkpt>
      <trkpt lat="37.30265" lon="-8.24679">
        <ele>133.9894</ele>
        <time>2021-07-12T09:27:19Z</time>
      </trkpt>
      <trkpt lat="37.30445" lon="-8.24586">
        <ele>135.0655</ele>
        <time>2021-07-12T09:27:30Z</time>
      </trkpt>
      <trkpt lat="37.30589" lon="-8.24481">
        <ele>137.4717</ele>
        <time>2021-07-12T09:27:41Z</time>
      </trkpt>
      <trkpt lat="37.30693" lon="-8.24297">
        <ele>141.3636</ele>
        <time>2021-07-12T09:27:52Z</time>
      </trkpt>
      <trkpt lat="37.30635" lon="-8.24135">
        <ele>135.1388</ele>
        <time>2021-07-12T09:28:03Z</time>
      </trkpt>
      <trkpt lat="37.30662" lon="-8.23976">
        <ele>125.3103</ele>
        <time>2021-07-12T09:28:14Z</time>
      </trkpt>
      <trkpt lat="37.30695" lon="-8.23855">
        <ele>124.5828</ele>
        <time>2021-07-12T09:28:25Z</time>
      </trkpt>
      <trkpt lat="37.30662" lon="-8.23768">
        <ele>135.631</ele>
        <time>2021-07-12T09:28:36Z</time>
      </trkpt>
      <trkpt lat="37.30611" lon="-8.2367">
        <ele>154.58</ele>
        <time>2021-07-12T09:28:47Z</time>
      </trkpt>
      <trkpt lat="37.30564" lon="-8.23562">
        <ele>174.4996</ele>
        <time>2021-07-12T09:28:58Z</time>
      </trkpt>
      <trkpt lat="37.30502" lon="-8.23522">
        <ele>192.8408</ele>
        <time>2021-07-12T09:29:09Z</time>
      </trkpt>
      <trkpt lat="37.30476" lon="-8.23425">
        <ele>205.0211</ele>
        <time>2021-07-12T09:29:20Z</time>
      </trkpt>
      <trkpt lat="37.30396" lon="-8.23348">
        <ele>209.4853</ele>
        <time>2021-07-12T09:29:31Z</time>
      </trkpt>
      <trkpt lat="37.3037" lon="-8.23311">
        <ele>210.0334</ele>
        <time>2021-07-12T09:29:42Z</time>
      </trkpt>
      <trkpt lat="37.30291" lon="-8.23353">
        <ele>210.1648</ele>
        <time>2021-07-12T09:29:53Z</time>
      </trkpt>
      <trkpt lat="37.30286" lon="-8.23353">
        <ele>213.1885</ele>
        <time>2021-07-12T09:30:05Z</time>
      </trkpt>
      <trkpt lat="37.30289" lon="-8.2335">
        <ele>215.2936</ele>
        <time>2021-07-12T09:30:23Z</time>
      </trkpt>
      <trkpt lat="37.30367" lon="-8.23339">
        <ele>222.695</ele>
        <time>2021-07-12T09:30:34Z</time>
      </trkpt>
      <trkpt lat="37.30384" lon="-8.23334">
        <ele>224.057</ele>
        <time>2021-07-12T09:30:45Z</time>
      </trkpt>
      <trkpt lat="37.30379" lon="-8.23307">
        <ele>219.594</ele>
        <time>2021-07-12T09:30:56Z</time>
      </trkpt>
      <trkpt lat="37.30367" lon="-8.23194">
        <ele>233.5678</ele>
        <time>2021-07-12T09:31:08Z</time>
      </trkpt>
      <trkpt lat="37.304" lon="-8.23101">
        <ele>255.8968</ele>
        <time>2021-07-12T09:31:19Z</time>
      </trkpt>
      <trkpt lat="37.30414" lon="-8.23026">
        <ele>257.2302</ele>
        <time>2021-07-12T09:31:30Z</time>
      </trkpt>
      <trkpt lat="37.30438" lon="-8.22927">
        <ele>268.4107</ele>
        <time>2021-07-12T09:31:41Z</time>
      </trkpt>
      <trkpt lat="37.30396" lon="-8.22814">
        <ele>276.5771</ele>
        <time>2021-07-12T09:31:52Z</time>
      </trkpt>
      <trkpt lat="37.30367" lon="-8.22718">
        <ele>277.202</ele>
        <time>2021-07-12T09:32:03Z</time>
      </trkpt>
      <trkpt lat="37.30388" lon="-8.22621">
        <ele>282.63</ele>
        <time>2021-07-12T09:32:14Z</time>
      </trkpt>
      <trkpt lat="37.30407" lon="-8.22542">
        <ele>278.1056</ele>
        <time>2021-07-12T09:32:25Z</time>
      </trkpt>
      <trkpt lat="37.30387" lon="-8.22497">
        <ele>273.065</ele>
        <time>2021-07-12T09:32:36Z</time>
      </trkpt>
      <trkpt lat="37.30372" lon="-8.22466">
        <ele>267.5397</ele>
        <time>2021-07-12T09:32:47Z</time>
      </trkpt>
      <trkpt lat="37.30383" lon="-8.22438">
        <ele>259.9316</ele>
        <time>2021-07-12T09:32:58Z</time>
      </trkpt>
      <trkpt lat="37.30395" lon="-8.22403">
        <ele>247.3252</ele>
        <time>2021-07-12T09:33:09Z</time>
      </trkpt>
      <trkpt lat="37.30404" lon="-8.22366">
        <ele>234.6844</ele>
        <time>2021-07-12T09:33:20Z</time>
      </trkpt>
      <trkpt lat="37.3041" lon="-8.22331">
        <ele>230.9749</ele>
        <time>2021-07-12T09:33:31Z</time>
      </trkpt>
      <trkpt lat="37.3041" lon="-8.22328">
        <ele>232.008</ele>
        <time>2021-07-12T09:34:31Z</time>
      </trkpt>
      <trkpt lat="37.30411" lon="-8.22323">
        <ele>230.8845</ele>
        <time>2021-07-12T09:35:08Z</time>
      </trkpt>
      <trkpt lat="37.30388" lon="-8.22285">
        <ele>230.3479</ele>
        <time>2021-07-12T09:35:19Z</time>
      </trkpt>
      <trkpt lat="37.30327" lon="-8.22225">
        <ele>235.4199</ele>
        <time>2021-07-12T09:35:30Z</time>
      </trkpt>
      <trkpt lat="37.30323" lon="-8.22136">
        <ele>230.3551</ele>
        <time>2021-07-12T09:35:41Z</time>
      </trkpt>
      <trkpt lat="37.30316" lon="-8.22053">
        <ele>240.8077</ele>
        <time>2021-07-12T09:35:52Z</time>
      </trkpt>
      <trkpt lat="37.30254" lon="-8.21973">
        <ele>249.973</ele>
        <time>2021-07-12T09:36:03Z</time>
      </trkpt>
      <trkpt lat="37.30198" lon="-8.21928">
        <ele>244.7984</ele>
        <time>2021-07-12T09:36:14Z</time>
      </trkpt>
      <trkpt lat="37.3013" lon="-8.21912">
        <ele>248.5688</ele>
        <time>2021-07-12T09:36:25Z</time>
      </trkpt>
      <trkpt lat="37.30091" lon="-8.21851">
        <ele>245.358</ele>
        <time>2021-07-12T09:36:36Z</time>
      </trkpt>
      <trkpt lat="37.30059" lon="-8.21766">
        <ele>254.535</ele>
        <time>2021-07-12T09:36:47Z</time>
      </trkpt>
      <trkpt lat="37.30016" lon="-8.21706">
        <ele>270.3267</ele>
        <time>2021-07-12T09:36:58Z</time>
      </trkpt>
      <trkpt lat="37.29974" lon="-8.21642">
        <ele>278.6448</ele>
        <time>2021-07-12T09:37:09Z</time>
      </trkpt>
      <trkpt lat="37.29899" lon="-8.21625">
        <ele>285.2541</ele>
        <time>2021-07-12T09:37:20Z</time>
      </trkpt>
      <trkpt lat="37.29838" lon="-8.21572">
        <ele>284.9801</ele>
        <time>2021-07-12T09:37:31Z</time>
      </trkpt>
      <trkpt lat="37.29783" lon="-8.21534">
        <ele>287.4448</ele>
        <time>2021-07-12T09:37:42Z</time>
      </trkpt>
      <trkpt lat="37.29788" lon="-8.21453">
        <ele>279.9443</ele>
        <time>2021-07-12T09:37:53Z</time>
      </trkpt>
      <trkpt lat="37.29794" lon="-8.21427">
        <ele>277.1666</ele>
        <time>2021-07-12T09:38:04Z</time>
      </trkpt>
      <trkpt lat="37.2981" lon="-8.21358">
        <ele>277.3916</ele>
        <time>2021-07-12T09:38:15Z</time>
      </trkpt>
      <trkpt lat="37.29808" lon="-8.21281">
        <ele>288.5458</ele>
        <time>2021-07-12T09:38:26Z</time>
      </trkpt>
      <trkpt lat="37.2975" lon="-8.21209">
        <ele>289.1952</ele>
        <time>2021-07-12T09:38:37Z</time>
      </trkpt>
      <trkpt lat="37.29724" lon="-8.21141">
        <ele>296.6497</ele>
        <time>2021-07-12T09:38:48Z</time>
      </trkpt>
      <trkpt lat="37.29731" lon="-8.21113">
        <ele>293.2549</ele>
        <time>2021-07-12T09:38:59Z</time>
      </trkpt>
      <trkpt lat="37.29733" lon="-8.21097">
        <ele>286.2885</ele>
        <time>2021-07-12T09:39:10Z</time>
      </trkpt>
      <trkpt lat="37.29741" lon="-8.21074">
        <ele>273.5214</ele>
        <time>2021-07-12T09:39:21Z</time>
      </trkpt>
      <trkpt lat="37.29751" lon="-8.21055">
        <ele>266.9766</ele>
        <time>2021-07-12T09:39:32Z</time>
      </trkpt>
      <trkpt lat="37.29759" lon="-8.21025">
        <ele>260.464</ele>
        <time>2021-07-12T09:39:43Z</time>
      </trkpt>
      <trkpt lat="37.29758" lon="-8.20976">
        <ele>252.2474</ele>
        <time>2021-07-12T09:39:54Z</time>
      </trkpt>
      <trkpt lat="37.29748" lon="-8.20908">
        <ele>253.2469</ele>
        <time>2021-07-12T09:40:05Z</time>
      </trkpt>
      <trkpt lat="37.29796" lon="-8.20878">
        <ele>256.8889</ele>
        <time>2021-07-12T09:40:16Z</time>
      </trkpt>
      <trkpt lat="37.29793" lon="-8.20821">
        <ele>251.8248</ele>
        <time>2021-07-12T09:40:27Z</time>
      </trkpt>
      <trkpt lat="37.29813" lon="-8.20781">
        <ele>257.1813</ele>
        <time>2021-07-12T09:40:38Z</time>
      </trkpt>
      <trkpt lat="37.29826" lon="-8.2073">
        <ele>262.6886</ele>
        <time>2021-07-12T09:40:49Z</time>
      </trkpt>
      <trkpt lat="37.29808" lon="-8.20595">
        <ele>277.3016</ele>
        <time>2021-07-12T09:41:00Z</time>
      </trkpt>
      <trkpt lat="37.29772" lon="-8.20436">
        <ele>272.4429</ele>
        <time>2021-07-12T09:41:11Z</time>
      </trkpt>
      <trkpt lat="37.29818" lon="-8.20354">
        <ele>282.547</ele>
        <time>2021-07-12T09:41:22Z</time>
      </trkpt>
      <trkpt lat="37.29816" lon="-8.20262">
        <ele>293.8014</ele>
        <time>2021-07-12T09:41:33Z</time>
      </trkpt>
      <trkpt lat="37.29738" lon="-8.20195">
        <ele>307.1936</ele>
        <time>2021-07-12T09:41:44Z</time>
      </trkpt>
      <trkpt lat="37.2966" lon="-8.20136">
        <ele>322.3171</ele>
        <time>2021-07-12T09:41:55Z</time>
      </trkpt>
      <trkpt lat="37.29607" lon="-8.20131">
        <ele>316.7014</ele>
        <time>2021-07-12T09:42:06Z</time>
      </trkpt>
      <trkpt lat="37.29529" lon="-8.20073">
        <ele>318.8566</ele>
        <time>2021-07-12T09:42:17Z</time>
      </trkpt>
      <trkpt lat="37.2947" lon="-8.20013">
        <ele>332.025</ele>
        <time>2021-07-12T09:42:28Z</time>
      </trkpt>
      <trkpt lat="37.29413" lon="-8.1994">
        <ele>319.4155</ele>
        <time>2021-07-12T09:42:39Z</time>
      </trkpt>
      <trkpt lat="37.29326" lon="-8.19857">
        <ele>326.3869</ele>
        <time>2021-07-12T09:42:50Z</time>
      </trkpt>
      <trkpt lat="37.29256" lon="-8.19763">
        <ele>334.5975</ele>
        <time>2021-07-12T09:43:01Z</time>
      </trkpt>
      <trkpt lat="37.29246" lon="-8.19709">
        <ele>334.2728</ele>
        <time>2021-07-12T09:43:12Z</time>
      </trkpt>
      <trkpt lat="37.29265" lon="-8.19668">
        <ele>332.7854</ele>
        <time>2021-07-12T09:43:23Z</time>
      </trkpt>
      <trkpt lat="37.29281" lon="-8.19632">
        <ele>322.9891</ele>
        <time>2021-07-12T09:43:34Z</time>
      </trkpt>
      <trkpt lat="37.29296" lon="-8.19592">
        <ele>307.8013</ele>
        <time>2021-07-12T09:43:45Z</time>
      </trkpt>
      <trkpt lat="37.29346" lon="-8.19521">
        <ele>301.1189</ele>
        <time>2021-07-12T09:43:56Z</time>
      </trkpt>
      <trkpt lat="37.2938" lon="-8.19453">
        <ele>287.5461</ele>
        <time>2021-07-12T09:44:07Z</time>
      </trkpt>
      <trkpt lat="37.29372" lon="-8.19388">
        <ele>281.1111</ele>
        <time>2021-07-12T09:44:18Z</time>
      </trkpt>
      <trkpt lat="37.29351" lon="-8.19324">
        <ele>271.3384</ele>
        <time>2021-07-12T09:44:29Z</time>
      </trkpt>
      <trkpt lat="37.2935" lon="-8.19308">
        <ele>269.9951</ele>
        <time>2021-07-12T09:44:40Z</time>
      </trkpt>
      <trkpt lat="37.29347" lon="-8.19282">
        <ele>265.555</ele>
        <time>2021-07-12T09:44:51Z</time>
      </trkpt>
      <trkpt lat="37.29342" lon="-8.19257">
        <ele>258.4567</ele>
        <time>2021-07-12T09:45:02Z</time>
      </trkpt>
      <trkpt lat="37.29333" lon="-8.19227">
        <ele>251.9859</ele>
        <time>2021-07-12T09:45:13Z</time>
      </trkpt>
      <trkpt lat="37.29317" lon="-8.19186">
        <ele>241.3831</ele>
        <time>2021-07-12T09:45:24Z</time>
      </trkpt>
      <trkpt lat="37.29296" lon="-8.19156">
        <ele>233.505</ele>
        <time>2021-07-12T09:45:35Z</time>
      </trkpt>
      <trkpt lat="37.29291" lon="-8.19146">
        <ele>233.996</ele>
        <time>2021-07-12T09:45:46Z</time>
      </trkpt>
      <trkpt lat="37.29253" lon="-8.19116">
        <ele>239.8798</ele>
        <time>2021-07-12T09:45:57Z</time>
      </trkpt>
      <trkpt lat="37.29142" lon="-8.19039">
        <ele>243.3046</ele>
        <time>2021-07-12T09:46:08Z</time>
      </trkpt>
      <trkpt lat="37.29081" lon="-8.1899">
        <ele>247.2224</ele>
        <time>2021-07-12T09:46:19Z</time>
      </trkpt>
      <trkpt lat="37.28964" lon="-8.18983">
        <ele>261.1153</ele>
        <time>2021-07-12T09:46:30Z</time>
      </trkpt>
      <trkpt lat="37.2888" lon="-8.18916">
        <ele>265.8932</ele>
        <time>2021-07-12T09:46:41Z</time>
      </trkpt>
      <trkpt lat="37.28855" lon="-8.18787">
        <ele>255.1485</ele>
        <time>2021-07-12T09:46:52Z</time>
      </trkpt>
      <trkpt lat="37.28752" lon="-8.18744">
        <ele>253.7526</ele>
        <time>2021-07-12T09:47:03Z</time>
      </trkpt>
      <trkpt lat="37.28659" lon="-8.18723">
        <ele>241.4562</ele>
        <time>2021-07-12T09:47:14Z</time>
      </trkpt>
      <trkpt lat="37.28597" lon="-8.18693">
        <ele>209.336</ele>
        <time>2021-07-12T09:47:25Z</time>
      </trkpt>
      <trkpt lat="37.2855" lon="-8.18591">
        <ele>215.0318</ele>
        <time>2021-07-12T09:47:36Z</time>
      </trkpt>
      <trkpt lat="37.28519" lon="-8.18379">
        <ele>229.1523</ele>
        <time>2021-07-12T09:47:47Z</time>
      </trkpt>
      <trkpt lat="37.28502" lon="-8.18191">
        <ele>238.4283</ele>
        <time>2021-07-12T09:47:58Z</time>
      </trkpt>
      <trkpt lat="37.28508" lon="-8.18102">
        <ele>237.7923</ele>
        <time>2021-07-12T09:48:09Z</time>
      </trkpt>
      <trkpt lat="37.28484" lon="-8.18045">
        <ele>241.855</ele>
        <time>2021-07-12T09:48:20Z</time>
      </trkpt>
      <trkpt lat="37.28442" lon="-8.17942">
        <ele>245.5159</ele>
        <time>2021-07-12T09:48:31Z</time>
      </trkpt>
      <trkpt lat="37.28404" lon="-8.1795">
        <ele>247.043</ele>
        <time>2021-07-12T09:48:42Z</time>
      </trkpt>
      <trkpt lat="37.28384" lon="-8.18073">
        <ele>253.8479</ele>
        <time>2021-07-12T09:48:53Z</time>
      </trkpt>
      <trkpt lat="37.28344" lon="-8.18171">
        <ele>268.213</ele>
        <time>2021-07-12T09:49:04Z</time>
      </trkpt>
      <trkpt lat="37.28326" lon="-8.18295">
        <ele>278.7154</ele>
        <time>2021-07-12T09:49:15Z</time>
      </trkpt>
      <trkpt lat="37.28279" lon="-8.18241">
        <ele>293.6434</ele>
        <time>2021-07-12T09:49:26Z</time>
      </trkpt>
      <trkpt lat="37.2821" lon="-8.18171">
        <ele>312.5598</ele>
        <time>2021-07-12T09:49:37Z</time>
      </trkpt>
      <trkpt lat="37.28149" lon="-8.18111">
        <ele>332.1425</ele>
        <time>2021-07-12T09:49:48Z</time>
      </trkpt>
      <trkpt lat="37.28166" lon="-8.17998">
        <ele>326.2553</ele>
        <time>2021-07-12T09:49:59Z</time>
      </trkpt>
      <trkpt lat="37.28139" lon="-8.1789">
        <ele>340.3854</ele>
        <time>2021-07-12T09:50:10Z</time>
      </trkpt>
      <trkpt lat="37.28163" lon="-8.17771">
        <ele>348.0463</ele>
        <time>2021-07-12T09:50:21Z</time>
      </trkpt>
      <trkpt lat="37.28198" lon="-8.17632">
        <ele>341.9116</ele>
        <time>2021-07-12T09:50:32Z</time>
      </trkpt>
      <trkpt lat="37.28201" lon="-8.17487">
        <ele>370.9954</ele>
        <time>2021-07-12T09:50:43Z</time>
      </trkpt>
      <trkpt lat="37.28222" lon="-8.17427">
        <ele>380.557</ele>
        <time>2021-07-12T09:50:54Z</time>
      </trkpt>
      <trkpt lat="37.28202" lon="-8.17344">
        <ele>379.8075</ele>
        <time>2021-07-12T09:51:05Z</time>
      </trkpt>
      <trkpt lat="37.282" lon="-8.17335">
        <ele>380.4088</ele>
        <time>2021-07-12T09:51:16Z</time>
      </trkpt>
      <trkpt lat="37.28202" lon="-8.17327">
        <ele>380.4746</ele>
        <time>2021-07-12T09:51:54Z</time>
      </trkpt>
      <trkpt lat="37.28236" lon="-8.17283">
        <ele>367.0039</ele>
        <time>2021-07-12T09:52:05Z</time>
      </trkpt>
      <trkpt lat="37.28267" lon="-8.17238">
        <ele>354.9285</ele>
        <time>2021-07-12T09:52:16Z</time>
      </trkpt>
      <trkpt lat="37.28319" lon="-8.1718">
        <ele>346.3796</ele>
        <time>2021-07-12T09:52:27Z</time>
      </trkpt>
      <trkpt lat="37.28309" lon="-8.17027">
        <ele>345.767</ele>
        <time>2021-07-12T09:52:38Z</time>
      </trkpt>
      <trkpt lat="37.2829" lon="-8.16914">
        <ele>363.8711</ele>
        <time>2021-07-12T09:52:49Z</time>
      </trkpt>
      <trkpt lat="37.28282" lon="-8.16851">
        <ele>360.4496</ele>
        <time>2021-07-12T09:53:00Z</time>
      </trkpt>
      <trkpt lat="37.2825" lon="-8.16783">
        <ele>357.4437</ele>
        <time>2021-07-12T09:53:11Z</time>
      </trkpt>
      <trkpt lat="37.28211" lon="-8.16684">
        <ele>386.0716</ele>
        <time>2021-07-12T09:53:22Z</time>
      </trkpt>
      <trkpt lat="37.28239" lon="-8.16638">
        <ele>374.8332</ele>
        <time>2021-07-12T09:53:33Z</time>
      </trkpt>
      <trkpt lat="37.28249" lon="-8.16595">
        <ele>365.8584</ele>
        <time>2021-07-12T09:53:44Z</time>
      </trkpt>
      <trkpt lat="37.28263" lon="-8.16552">
        <ele>351.8606</ele>
        <time>2021-07-12T09:53:55Z</time>
      </trkpt>
      <trkpt lat="37.28272" lon="-8.16452">
        <ele>352.43</ele>
        <time>2021-07-12T09:54:06Z</time>
      </trkpt>
      <trkpt lat="37.2823" lon="-8.16354">
        <ele>363.6909</ele>
        <time>2021-07-12T09:54:17Z</time>
      </trkpt>
      <trkpt lat="37.28152" lon="-8.16253">
        <ele>371.5733</ele>
        <time>2021-07-12T09:54:28Z</time>
      </trkpt>
      <trkpt lat="37.28151" lon="-8.16194">
        <ele>364.1063</ele>
        <time>2021-07-12T09:54:39Z</time>
      </trkpt>
      <trkpt lat="37.28175" lon="-8.16086">
        <ele>348.0868</ele>
        <time>2021-07-12T09:54:50Z</time>
      </trkpt>
      <trkpt lat="37.28145" lon="-8.16">
        <ele>337.579</ele>
        <time>2021-07-12T09:55:01Z</time>
      </trkpt>
      <trkpt lat="37.28029" lon="-8.15955">
        <ele>352.9694</ele>
        <time>2021-07-12T09:55:12Z</time>
      </trkpt>
      <trkpt lat="37.2798" lon="-8.15887">
        <ele>348.2283</ele>
        <time>2021-07-12T09:55:23Z</time>
      </trkpt>
      <trkpt lat="37.28023" lon="-8.15836">
        <ele>332.8578</ele>
        <time>2021-07-12T09:55:34Z</time>
      </trkpt>
      <trkpt lat="37.28043" lon="-8.15778">
        <ele>319.2568</ele>
        <time>2021-07-12T09:55:45Z</time>
      </trkpt>
      <trkpt lat="37.28066" lon="-8.15722">
        <ele>304.3448</ele>
        <time>2021-07-12T09:55:56Z</time>
      </trkpt>
      <trkpt lat="37.28083" lon="-8.15694">
        <ele>296.4849</ele>
        <time>2021-07-12T09:56:07Z</time>
      </trkpt>
      <trkpt lat="37.28056" lon="-8.15708">
        <ele>301.4402</ele>
        <time>2021-07-12T09:56:18Z</time>
      </trkpt>
      <trkpt lat="37.28013" lon="-8.15692">
        <ele>301.0261</ele>
        <time>2021-07-12T09:56:29Z</time>
      </trkpt>
      <trkpt lat="37.28057" lon="-8.15655">
        <ele>313.5673</ele>
        <time>2021-07-12T09:56:40Z</time>
      </trkpt>
      <trkpt lat="37.28031" lon="-8.15578">
        <ele>328.989</ele>
        <time>2021-07-12T09:56:51Z</time>
      </trkpt>
      <trkpt lat="37.27998" lon="-8.15475">
        <ele>351.1299</ele>
        <time>2021-07-12T09:57:02Z</time>
      </trkpt>
      <trkpt lat="37.27986" lon="-8.15369">
        <ele>356.7755</ele>
        <time>2021-07-12T09:57:13Z</time>
      </trkpt>
      <trkpt lat="37.27953" lon="-8.15271">
        <ele>364.0768</ele>
        <time>2021-07-12T09:57:24Z</time>
      </trkpt>
      <trkpt lat="37.27946" lon="-8.15198">
        <ele>373.7315</ele>
        <time>2021-07-12T09:57:35Z</time>
      </trkpt>
      <trkpt lat="37.27954" lon="-8.1512">
        <ele>363.1201</ele>
        <time>2021-07-12T09:57:46Z</time>
      </trkpt>
      <trkpt lat="37.27937" lon="-8.15029">
        <ele>359.0771</ele>
        <time>2021-07-12T09:57:57Z</time>
      </trkpt>
      <trkpt lat="37.27936" lon="-8.14893">
        <ele>371.1906</ele>
        <time>2021-07-12T09:58:08Z</time>
      </trkpt>
      <trkpt lat="37.2795" lon="-8.1478">
        <ele>388.3439</ele>
        <time>2021-07-12T09:58:19Z</time>
      </trkpt>
      <trkpt lat="37.27912" lon="-8.14663">
        <ele>401.1136</ele>
        <time>2021-07-12T09:58:30Z</time>
      </trkpt>
      <trkpt lat="37.27872" lon="-8.14543">
        <ele>408.1345</ele>
        <time>2021-07-12T09:58:41Z</time>
      </trkpt>
      <trkpt lat="37.27866" lon="-8.14396">
        <ele>413.4644</ele>
        <time>2021-07-12T09:58:52Z</time>
      </trkpt>
      <trkpt lat="37.27877" lon="-8.14317">
        <ele>407.5922</ele>
        <time>2021-07-12T09:59:03Z</time>
      </trkpt>
      <trkpt lat="37.27901" lon="-8.14184">
        <ele>409.7432</ele>
        <time>2021-07-12T09:59:14Z</time>
      </trkpt>
      <trkpt lat="37.27873" lon="-8.14087">
        <ele>424.5277</ele>
        <time>2021-07-12T09:59:25Z</time>
      </trkpt>
      <trkpt lat="37.27829" lon="-8.13989">
        <ele>414.4793</ele>
        <time>2021-07-12T09:59:36Z</time>
      </trkpt>
      <trkpt lat="37.27751" lon="-8.13867">
        <ele>411.6184</ele>
        <time>2021-07-12T09:59:47Z</time>
      </trkpt>
      <trkpt lat="37.27722" lon="-8.13751">
        <ele>410.1339</ele>
        <time>2021-07-12T09:59:58Z</time>
      </trkpt>
      <trkpt lat="37.27739" lon="-8.13696">
        <ele>403.9364</ele>
        <time>2021-07-12T10:00:09Z</time>
      </trkpt>
      <trkpt lat="37.27769" lon="-8.13649">
        <ele>386.481</ele>
        <time>2021-07-12T10:00:20Z</time>
      </trkpt>
      <trkpt lat="37.27797" lon="-8.13586">
        <ele>366.5285</ele>
        <time>2021-07-12T10:00:31Z</time>
      </trkpt>
      <trkpt lat="37.27813" lon="-8.13454">
        <ele>355.1732</ele>
        <time>2021-07-12T10:00:42Z</time>
      </trkpt>
      <trkpt lat="37.27794" lon="-8.13324">
        <ele>367.0999</ele>
        <time>2021-07-12T10:00:53Z</time>
      </trkpt>
      <trkpt lat="37.2779" lon="-8.13233">
        <ele>367.1584</ele>
        <time>2021-07-12T10:01:04Z</time>
      </trkpt>
      <trkpt lat="37.27764" lon="-8.13136">
        <ele>371.9728</ele>
        <time>2021-07-12T10:01:15Z</time>
      </trkpt>
      <trkpt lat="37.27708" lon="-8.13103">
        <ele>375.6012</ele>
        <time>2021-07-12T10:01:26Z</time>
      </trkpt>
      <trkpt lat="37.27703" lon="-8.13">
        <ele>346.2587</ele>
        <time>2021-07-12T10:01:37Z</time>
      </trkpt>
      <trkpt lat="37.2765" lon="-8.12899">
        <ele>338.7866</ele>
        <time>2021-07-12T10:01:48Z</time>
      </trkpt>
      <trkpt lat="37.27638" lon="-8.12819">
        <ele>328.5925</ele>
        <time>2021-07-12T10:01:59Z</time>
      </trkpt>
      <trkpt lat="37.27614" lon="-8.1275">
        <ele>315.7038</ele>
        <time>2021-07-12T10:02:10Z</time>
      </trkpt>
      <trkpt lat="37.27572" lon="-8.12711">
        <ele>305.0908</ele>
        <time>2021-07-12T10:02:21Z</time>
      </trkpt>
      <trkpt lat="37.27599" lon="-8.127">
        <ele>310.3143</ele>
        <time>2021-07-12T10:02:32Z</time>
      </trkpt>
      <trkpt lat="37.27735" lon="-8.12709">
        <ele>303.8189</ele>
        <time>2021-07-12T10:02:43Z</time>
      </trkpt>
      <trkpt lat="37.27894" lon="-8.1277">
        <ele>282.9382</ele>
        <time>2021-07-12T10:02:54Z</time>
      </trkpt>
      <trkpt lat="37.28035" lon="-8.12697">
        <ele>263.5692</ele>
        <time>2021-07-12T10:03:05Z</time>
      </trkpt>
      <trkpt lat="37.28069" lon="-8.12667">
        <ele>259.3126</ele>
        <time>2021-07-12T10:03:16Z</time>
      </trkpt>
      <trkpt lat="37.28055" lon="-8.12645">
        <ele>259.9148</ele>
        <time>2021-07-12T10:03:27Z</time>
      </trkpt>
      <trkpt lat="37.281" lon="-8.12676">
        <ele>256.0046</ele>
        <time>2021-07-12T10:03:38Z</time>
      </trkpt>
      <trkpt lat="37.28204" lon="-8.12612">
        <ele>253.9475</ele>
        <time>2021-07-12T10:03:49Z</time>
      </trkpt>
      <trkpt lat="37.28244" lon="-8.12468">
        <ele>264.4985</ele>
        <time>2021-07-12T10:04:00Z</time>
      </trkpt>
      <trkpt lat="37.28338" lon="-8.12395">
        <ele>275.3672</ele>
        <time>2021-07-12T10:04:11Z</time>
      </trkpt>
      <trkpt lat="37.28372" lon="-8.12339">
        <ele>277.9345</ele>
        <time>2021-07-12T10:04:22Z</time>
      </trkpt>
      <trkpt lat="37.28384" lon="-8.12335">
        <ele>279.6561</ele>
        <time>2021-07-12T10:04:33Z</time>
      </trkpt>
      <trkpt lat="37.28393" lon="-8.12373">
        <ele>279.0367</ele>
        <time>2021-07-12T10:04:44Z</time>
      </trkpt>
      <trkpt lat="37.28426" lon="-8.12452">
        <ele>273.7032</ele>
        <time>2021-07-12T10:04:55Z</time>
      </trkpt>
      <trkpt lat="37.28508" lon="-8.12455">
        <ele>292.9488</ele>
        <time>2021-07-12T10:05:06Z</time>
      </trkpt>
      <trkpt lat="37.28589" lon="-8.12465">
        <ele>300.7157</ele>
        <time>2021-07-12T10:05:17Z</time>
      </trkpt>
      <trkpt lat="37.28635" lon="-8.12529">
        <ele>312.992</ele>
        <time>2021-07-12T10:05:28Z</time>
      </trkpt>
      <trkpt lat="37.28732" lon="-8.12587">
        <ele>327.9234</ele>
        <time>2021-07-12T10:05:39Z</time>
      </trkpt>
      <trkpt lat="37.28777" lon="-8.12555">
        <ele>322.6115</ele>
        <time>2021-07-12T10:05:50Z</time>
      </trkpt>
      <trkpt lat="37.2878" lon="-8.12451">
        <ele>314.2919</ele>
        <time>2021-07-12T10:06:01Z</time>
      </trkpt>
      <trkpt lat="37.28795" lon="-8.12367">
        <ele>306.4415</ele>
        <time>2021-07-12T10:06:12Z</time>
      </trkpt>
      <trkpt lat="37.28848" lon="-8.12422">
        <ele>312.4886</ele>
        <time>2021-07-12T10:06:23Z</time>
      </trkpt>
      <trkpt lat="37.28973" lon="-8.12463">
        <ele>312.121</ele>
        <time>2021-07-12T10:06:34Z</time>
      </trkpt>
      <trkpt lat="37.29075" lon="-8.12529">
        <ele>318.3613</ele>
        <time>2021-07-12T10:06:45Z</time>
      </trkpt>
      <trkpt lat="37.29173" lon="-8.12537">
        <ele>325.1556</ele>
        <time>2021-07-12T10:06:56Z</time>
      </trkpt>
      <trkpt lat="37.29228" lon="-8.12528">
        <ele>319.0767</ele>
        <time>2021-07-12T10:07:07Z</time>
      </trkpt>
      <trkpt lat="37.29269" lon="-8.12598">
        <ele>313.5293</ele>
        <time>2021-07-12T10:07:18Z</time>
      </trkpt>
      <trkpt lat="37.2934" lon="-8.12611">
        <ele>310.2163</ele>
        <time>2021-07-12T10:07:29Z</time>
      </trkpt>
      <trkpt lat="37.29386" lon="-8.12629">
        <ele>315.871</ele>
        <time>2021-07-12T10:07:40Z</time>
      </trkpt>
      <trkpt lat="37.29405" lon="-8.12579">
        <ele>318.9348</ele>
        <time>2021-07-12T10:07:51Z</time>
      </trkpt>
      <trkpt lat="37.29426" lon="-8.12512">
        <ele>319.402</ele>
        <time>2021-07-12T10:08:02Z</time>
      </trkpt>
      <trkpt lat="37.29493" lon="-8.12469">
        <ele>309.4694</ele>
        <time>2021-07-12T10:08:13Z</time>
      </trkpt>
      <trkpt lat="37.29556" lon="-8.12433">
        <ele>295.5108</ele>
        <time>2021-07-12T10:08:24Z</time>
      </trkpt>
      <trkpt lat="37.29576" lon="-8.12349">
        <ele>284.2872</ele>
        <time>2021-07-12T10:08:35Z</time>
      </trkpt>
      <trkpt lat="37.29662" lon="-8.12343">
        <ele>278.7084</ele>
        <time>2021-07-12T10:08:46Z</time>
      </trkpt>
      <trkpt lat="37.29759" lon="-8.12325">
        <ele>272.3921</ele>
        <time>2021-07-12T10:08:57Z</time>
      </trkpt>
      <trkpt lat="37.29856" lon="-8.1226">
        <ele>256.4018</ele>
        <time>2021-07-12T10:09:08Z</time>
      </trkpt>
      <trkpt lat="37.29945" lon="-8.12261">
        <ele>243.7882</ele>
        <time>2021-07-12T10:09:19Z</time>
      </trkpt>
      <trkpt lat="37.30006" lon="-8.12268">
        <ele>227.7855</ele>
        <time>2021-07-12T10:09:30Z</time>
      </trkpt>
      <trkpt lat="37.30022" lon="-8.12252">
        <ele>224.424</ele>
        <time>2021-07-12T10:09:41Z</time>
      </trkpt>
      <trkpt lat="37.29935" lon="-8.12177">
        <ele>232.5289</ele>
        <time>2021-07-12T10:09:52Z</time>
      </trkpt>
      <trkpt lat="37.29839" lon="-8.12174">
        <ele>238.3017</ele>
        <time>2021-07-12T10:10:03Z</time>
      </trkpt>
      <trkpt lat="37.29859" lon="-8.12014">
        <ele>235.8349</ele>
        <time>2021-07-12T10:10:14Z</time>
      </trkpt>
      <trkpt lat="37.29793" lon="-8.11917">
        <ele>238.4719</ele>
        <time>2021-07-12T10:10:25Z</time>
      </trkpt>
      <trkpt lat="37.29769" lon="-8.11795">
        <ele>235.288</ele>
        <time>2021-07-12T10:10:36Z</time>
      </trkpt>
      <trkpt lat="37.29638" lon="-8.11766">
        <ele>236.9128</ele>
        <time>2021-07-12T10:10:47Z</time>
      </trkpt>
      <trkpt lat="37.29501" lon="-8.11711">
        <ele>241.2096</ele>
        <time>2021-07-12T10:10:58Z</time>
      </trkpt>
      <trkpt lat="37.29431" lon="-8.11759">
        <ele>243.8512</ele>
        <time>2021-07-12T10:11:09Z</time>
      </trkpt>
      <trkpt lat="37.29346" lon="-8.11762">
        <ele>248.5963</ele>
        <time>2021-07-12T10:11:20Z</time>
      </trkpt>
      <trkpt lat="37.29315" lon="-8.11746">
        <ele>247.1659</ele>
        <time>2021-07-12T10:11:31Z</time>
      </trkpt>
      <trkpt lat="37.29349" lon="-8.11744">
        <ele>254.8603</ele>
        <time>2021-07-12T10:11:42Z</time>
      </trkpt>
      <trkpt lat="37.29356" lon="-8.11683">
        <ele>266.4005</ele>
        <time>2021-07-12T10:11:53Z</time>
      </trkpt>
      <trkpt lat="37.29407" lon="-8.11618">
        <ele>280.0917</ele>
        <time>2021-07-12T10:12:04Z</time>
      </trkpt>
      <trkpt lat="37.29476" lon="-8.11586">
        <ele>292.1305</ele>
        <time>2021-07-12T10:12:15Z</time>
      </trkpt>
      <trkpt lat="37.2955" lon="-8.11535">
        <ele>303.8189</ele>
        <time>2021-07-12T10:12:26Z</time>
      </trkpt>
      <trkpt lat="37.29632" lon="-8.11535">
        <ele>313.8095</ele>
        <time>2021-07-12T10:12:37Z</time>
      </trkpt>
      <trkpt lat="37.29694" lon="-8.11544">
        <ele>315.7379</ele>
        <time>2021-07-12T10:12:48Z</time>
      </trkpt>
      <trkpt lat="37.29715" lon="-8.1153">
        <ele>311.8942</ele>
        <time>2021-07-12T10:12:59Z</time>
      </trkpt>
      <trkpt lat="37.29772" lon="-8.11466">
        <ele>312.4632</ele>
        <time>2021-07-12T10:13:10Z</time>
      </trkpt>
      <trkpt lat="37.29867" lon="-8.11444">
        <ele>322.569</ele>
        <time>2021-07-12T10:13:21Z</time>
      </trkpt>
      <trkpt lat="37.29932" lon="-8.114">
        <ele>327.8095</ele>
        <time>2021-07-12T10:13:32Z</time>
      </trkpt>
      <trkpt lat="37.3002" lon="-8.1139">
        <ele>331.1594</ele>
        <time>2021-07-12T10:13:43Z</time>
      </trkpt>
      <trkpt lat="37.30105" lon="-8.11377">
        <ele>337.6969</ele>
        <time>2021-07-12T10:13:54Z</time>
      </trkpt>
      <trkpt lat="37.30207" lon="-8.11345">
        <ele>349.8446</ele>
        <time>2021-07-12T10:14:05Z</time>
      </trkpt>
      <trkpt lat="37.30297" lon="-8.1132">
        <ele>361.6965</ele>
        <time>2021-07-12T10:14:16Z</time>
      </trkpt>
      <trkpt lat="37.30362" lon="-8.11243">
        <ele>376.8494</ele>
        <time>2021-07-12T10:14:27Z</time>
      </trkpt>
      <trkpt lat="37.30466" lon="-8.11196">
        <ele>393.6607</ele>
        <time>2021-07-12T10:14:38Z</time>
      </trkpt>
      <trkpt lat="37.30533" lon="-8.1119">
        <ele>394.5418</ele>
        <time>2021-07-12T10:14:49Z</time>
      </trkpt>
      <trkpt lat="37.3056" lon="-8.11297">
        <ele>401.4281</ele>
        <time>2021-07-12T10:15:00Z</time>
      </trkpt>
      <trkpt lat="37.30606" lon="-8.11403">
        <ele>408.2808</ele>
        <time>2021-07-12T10:15:11Z</time>
      </trkpt>
      <trkpt lat="37.30609" lon="-8.11381">
        <ele>413.8575</ele>
        <time>2021-07-12T10:15:22Z</time>
      </trkpt>
      <trkpt lat="37.30602" lon="-8.11304">
        <ele>425.2903</ele>
        <time>2021-07-12T10:15:33Z</time>
      </trkpt>
      <trkpt lat="37.30583" lon="-8.11165">
        <ele>435.3833</ele>
        <time>2021-07-12T10:15:44Z</time>
      </trkpt>
      <trkpt lat="37.30529" lon="-8.1109">
        <ele>438.7044</ele>
        <time>2021-07-12T10:15:55Z</time>
      </trkpt>
      <trkpt lat="37.30571" lon="-8.10979">
        <ele>446.6506</ele>
        <time>2021-07-12T10:16:06Z</time>
      </trkpt>
      <trkpt lat="37.30545" lon="-8.10848">
        <ele>445.9918</ele>
        <time>2021-07-12T10:16:17Z</time>
      </trkpt>
      <trkpt lat="37.30515" lon="-8.10702">
        <ele>449.8099</ele>
        <time>2021-07-12T10:16:28Z</time>
      </trkpt>
      <trkpt lat="37.30423" lon="-8.10561">
        <ele>456.4942</ele>
        <time>2021-07-12T10:16:39Z</time>
      </trkpt>
      <trkpt lat="37.30355" lon="-8.10424">
        <ele>496.8176</ele>
        <time>2021-07-12T10:16:50Z</time>
      </trkpt>
      <trkpt lat="37.30357" lon="-8.10274">
        <ele>514.2006</ele>
        <time>2021-07-12T10:17:01Z</time>
      </trkpt>
      <trkpt lat="37.30358" lon="-8.10204">
        <ele>517.2299</ele>
        <time>2021-07-12T10:17:12Z</time>
      </trkpt>
      <trkpt lat="37.30361" lon="-8.10198">
        <ele>515.0513</ele>
        <time>2021-07-12T10:17:27Z</time>
      </trkpt>
      <trkpt lat="37.30443" lon="-8.1016">
        <ele>520.3382</ele>
        <time>2021-07-12T10:17:38Z</time>
      </trkpt>
      <trkpt lat="37.30516" lon="-8.10152">
        <ele>513.7191</ele>
        <time>2021-07-12T10:17:49Z</time>
      </trkpt>
      <trkpt lat="37.30519" lon="-8.10099">
        <ele>509.9581</ele>
        <time>2021-07-12T10:18:00Z</time>
      </trkpt>
      <trkpt lat="37.30554" lon="-8.10005">
        <ele>493.0398</ele>
        <time>2021-07-12T10:18:11Z</time>
      </trkpt>
      <trkpt lat="37.30527" lon="-8.09915">
        <ele>485.1722</ele>
        <time>2021-07-12T10:18:22Z</time>
      </trkpt>
      <trkpt lat="37.30469" lon="-8.09873">
        <ele>492.8963</ele>
        <time>2021-07-12T10:18:33Z</time>
      </trkpt>
      <trkpt lat="37.30369" lon="-8.09932">
        <ele>498.4372</ele>
        <time>2021-07-12T10:18:44Z</time>
      </trkpt>
      <trkpt lat="37.30194" lon="-8.10011">
        <ele>510.3363</ele>
        <time>2021-07-12T10:18:55Z</time>
      </trkpt>
      <trkpt lat="37.30141" lon="-8.10123">
        <ele>516.2197</ele>
        <time>2021-07-12T10:19:06Z</time>
      </trkpt>
      <trkpt lat="37.30096" lon="-8.10163">
        <ele>505.3498</ele>
        <time>2021-07-12T10:19:17Z</time>
      </trkpt>
      <trkpt lat="37.30042" lon="-8.10208">
        <ele>494.5676</ele>
        <time>2021-07-12T10:19:28Z</time>
      </trkpt>
      <trkpt lat="37.29985" lon="-8.10225">
        <ele>480.2034</ele>
        <time>2021-07-12T10:19:39Z</time>
      </trkpt>
      <trkpt lat="37.29941" lon="-8.10262">
        <ele>471.7203</ele>
        <time>2021-07-12T10:19:50Z</time>
      </trkpt>
      <trkpt lat="37.29893" lon="-8.10258">
        <ele>461.8948</ele>
        <time>2021-07-12T10:20:01Z</time>
      </trkpt>
      <trkpt lat="37.29841" lon="-8.10204">
        <ele>458.0737</ele>
        <time>2021-07-12T10:20:12Z</time>
      </trkpt>
      <trkpt lat="37.29789" lon="-8.10226">
        <ele>445.7916</ele>
        <time>2021-07-12T10:20:23Z</time>
      </trkpt>
      <trkpt lat="37.29719" lon="-8.10259">
        <ele>437.3368</ele>
        <time>2021-07-12T10:20:34Z</time>
      </trkpt>
      <trkpt lat="37.29654" lon="-8.10262">
        <ele>430.4924</ele>
        <time>2021-07-12T10:20:45Z</time>
      </trkpt>
      <trkpt lat="37.29629" lon="-8.10179">
        <ele>427.6266</ele>
        <time>2021-07-12T10:20:56Z</time>
      </trkpt>
      <trkpt lat="37.29569" lon="-8.10194">
        <ele>419.1267</ele>
        <time>2021-07-12T10:21:07Z</time>
      </trkpt>
      <trkpt lat="37.29495" lon="-8.1024">
        <ele>402.7177</ele>
        <time>2021-07-12T10:21:18Z</time>
      </trkpt>
      <trkpt lat="37.29435" lon="-8.10276">
        <ele>372.1504</ele>
        <time>2021-07-12T10:21:29Z</time>
      </trkpt>
      <trkpt lat="37.29377" lon="-8.10291">
        <ele>357.8186</ele>
        <time>2021-07-12T10:21:40Z</time>
      </trkpt>
      <trkpt lat="37.29321" lon="-8.1033">
        <ele>369.7779</ele>
        <time>2021-07-12T10:21:51Z</time>
      </trkpt>
      <trkpt lat="37.29269" lon="-8.1038">
        <ele>360.1849</ele>
        <time>2021-07-12T10:22:02Z</time>
      </trkpt>
      <trkpt lat="37.29199" lon="-8.104">
        <ele>347.9829</ele>
        <time>2021-07-12T10:22:13Z</time>
      </trkpt>
      <trkpt lat="37.29138" lon="-8.10427">
        <ele>335.2722</ele>
        <time>2021-07-12T10:22:24Z</time>
      </trkpt>
      <trkpt lat="37.29078" lon="-8.10411">
        <ele>323.2418</ele>
        <time>2021-07-12T10:22:35Z</time>
      </trkpt>
      <trkpt lat="37.29013" lon="-8.10419">
        <ele>310.5522</ele>
        <time>2021-07-12T10:22:46Z</time>
      </trkpt>
      <trkpt lat="37.28941" lon="-8.10438">
        <ele>296.9983</ele>
        <time>2021-07-12T10:22:57Z</time>
      </trkpt>
      <trkpt lat="37.28863" lon="-8.1043">
        <ele>280.7712</ele>
        <time>2021-07-12T10:23:08Z</time>
      </trkpt>
      <trkpt lat="37.28837" lon="-8.10402">
        <ele>278.343</ele>
        <time>2021-07-12T10:23:19Z</time>
      </trkpt>
      <trkpt lat="37.28693" lon="-8.10347">
        <ele>270.758</ele>
        <time>2021-07-12T10:23:30Z</time>
      </trkpt>
      <trkpt lat="37.28671" lon="-8.10266">
        <ele>267.367</ele>
        <time>2021-07-12T10:23:41Z</time>
      </trkpt>
      <trkpt lat="37.28656" lon="-8.10219">
        <ele>263.7861</ele>
        <time>2021-07-12T10:23:52Z</time>
      </trkpt>
      <trkpt lat="37.28748" lon="-8.10169">
        <ele>267.3035</ele>
        <time>2021-07-12T10:24:03Z</time>
      </trkpt>
      <trkpt lat="37.28777" lon="-8.10052">
        <ele>276.0245</ele>
        <time>2021-07-12T10:24:14Z</time>
      </trkpt>
      <trkpt lat="37.28809" lon="-8.09938">
        <ele>273.2509</ele>
        <time>2021-07-12T10:24:25Z</time>
      </trkpt>
      <trkpt lat="37.28806" lon="-8.09794">
        <ele>283.3036</ele>
        <time>2021-07-12T10:24:36Z</time>
      </trkpt>
      <trkpt lat="37.28818" lon="-8.09656">
        <ele>278.9604</ele>
        <time>2021-07-12T10:24:47Z</time>
      </trkpt>
      <trkpt lat="37.28845" lon="-8.09524">
        <ele>291.0376</ele>
        <time>2021-07-12T10:24:58Z</time>
      </trkpt>
      <trkpt lat="37.28871" lon="-8.09431">
        <ele>295.2536</ele>
        <time>2021-07-12T10:25:09Z</time>
      </trkpt>
      <trkpt lat="37.28929" lon="-8.0939">
        <ele>283.7109</ele>
        <time>2021-07-12T10:25:20Z</time>
      </trkpt>
      <trkpt lat="37.29002" lon="-8.09304">
        <ele>291.7444</ele>
        <time>2021-07-12T10:25:31Z</time>
      </trkpt>
      <trkpt lat="37.29072" lon="-8.09217">
        <ele>299.7228</ele>
        <time>2021-07-12T10:25:42Z</time>
      </trkpt>
      <trkpt lat="37.29133" lon="-8.09121">
        <ele>311.1956</ele>
        <time>2021-07-12T10:25:53Z</time>
      </trkpt>
      <trkpt lat="37.2919" lon="-8.0904">
        <ele>312.9919</ele>
        <time>2021-07-12T10:26:05Z</time>
      </trkpt>
      <trkpt lat="37.29262" lon="-8.08981">
        <ele>315.7265</ele>
        <time>2021-07-12T10:26:16Z</time>
      </trkpt>
      <trkpt lat="37.29294" lon="-8.08874">
        <ele>310.9628</ele>
        <time>2021-07-12T10:26:27Z</time>
      </trkpt>
      <trkpt lat="37.29305" lon="-8.08819">
        <ele>314.342</ele>
        <time>2021-07-12T10:26:38Z</time>
      </trkpt>
      <trkpt lat="37.29217" lon="-8.08713">
        <ele>319.704</ele>
        <time>2021-07-12T10:26:49Z</time>
      </trkpt>
      <trkpt lat="37.29164" lon="-8.08645">
        <ele>313.6961</ele>
        <time>2021-07-12T10:27:00Z</time>
      </trkpt>
      <trkpt lat="37.29081" lon="-8.08596">
        <ele>316.1302</ele>
        <time>2021-07-12T10:27:11Z</time>
      </trkpt>
      <trkpt lat="37.29021" lon="-8.08526">
        <ele>320.5528</ele>
        <time>2021-07-12T10:27:22Z</time>
      </trkpt>
      <trkpt lat="37.28986" lon="-8.08428">
        <ele>326.2852</ele>
        <time>2021-07-12T10:27:33Z</time>
      </trkpt>
      <trkpt lat="37.28991" lon="-8.08332">
        <ele>329.8328</ele>
        <time>2021-07-12T10:27:44Z</time>
      </trkpt>
      <trkpt lat="37.29001" lon="-8.08316">
        <ele>332.4945</ele>
        <time>2021-07-12T10:27:55Z</time>
      </trkpt>
      <trkpt lat="37.29043" lon="-8.08292">
        <ele>341.3762</ele>
        <time>2021-07-12T10:28:06Z</time>
      </trkpt>
      <trkpt lat="37.29079" lon="-8.08342">
        <ele>346.5667</ele>
        <time>2021-07-12T10:28:17Z</time>
      </trkpt>
      <trkpt lat="37.29151" lon="-8.08375">
        <ele>352.7585</ele>
        <time>2021-07-12T10:28:28Z</time>
      </trkpt>
      <trkpt lat="37.29219" lon="-8.08347">
        <ele>353.7383</ele>
        <time>2021-07-12T10:28:39Z</time>
      </trkpt>
      <trkpt lat="37.29218" lon="-8.08435">
        <ele>356.5851</ele>
        <time>2021-07-12T10:28:50Z</time>
      </trkpt>
      <trkpt lat="37.2928" lon="-8.08411">
        <ele>359.7279</ele>
        <time>2021-07-12T10:29:01Z</time>
      </trkpt>
      <trkpt lat="37.29317" lon="-8.08403">
        <ele>362.5261</ele>
        <time>2021-07-12T10:29:12Z</time>
      </trkpt>
      <trkpt lat="37.29338" lon="-8.08468">
        <ele>368.217</ele>
        <time>2021-07-12T10:29:23Z</time>
      </trkpt>
      <trkpt lat="37.29357" lon="-8.08546">
        <ele>375.2251</ele>
        <time>2021-07-12T10:29:34Z</time>
      </trkpt>
      <trkpt lat="37.29401" lon="-8.08483">
        <ele>385.3326</ele>
        <time>2021-07-12T10:29:45Z</time>
      </trkpt>
      <trkpt lat="37.29443" lon="-8.08376">
        <ele>397.6152</ele>
        <time>2021-07-12T10:29:56Z</time>
      </trkpt>
      <trkpt lat="37.29511" lon="-8.08388">
        <ele>401.0717</ele>
        <time>2021-07-12T10:30:07Z</time>
      </trkpt>
      <trkpt lat="37.29593" lon="-8.08375">
        <ele>409.7664</ele>
        <time>2021-07-12T10:30:18Z</time>
      </trkpt>
      <trkpt lat="37.29635" lon="-8.08451">
        <ele>417.3557</ele>
        <time>2021-07-12T10:30:29Z</time>
      </trkpt>
      <trkpt lat="37.29714" lon="-8.08442">
        <ele>427.7332</ele>
        <time>2021-07-12T10:30:40Z</time>
      </trkpt>
      <trkpt lat="37.29745" lon="-8.08515">
        <ele>433.9392</ele>
        <time>2021-07-12T10:30:51Z</time>
      </trkpt>
      <trkpt lat="37.29834" lon="-8.08496">
        <ele>440.0826</ele>
        <time>2021-07-12T10:31:02Z</time>
      </trkpt>
      <trkpt lat="37.29936" lon="-8.0845">
        <ele>449.7734</ele>
        <time>2021-07-12T10:31:13Z</time>
      </trkpt>
      <trkpt lat="37.29995" lon="-8.08484">
        <ele>456.5585</ele>
        <time>2021-07-12T10:31:24Z</time>
      </trkpt>
      <trkpt lat="37.30054" lon="-8.08518">
        <ele>468.8431</ele>
        <time>2021-07-12T10:31:35Z</time>
      </trkpt>
      <trkpt lat="37.30119" lon="-8.08544">
        <ele>469.2133</ele>
        <time>2021-07-12T10:31:46Z</time>
      </trkpt>
      <trkpt lat="37.30195" lon="-8.08567">
        <ele>466.4692</ele>
        <time>2021-07-12T10:31:57Z</time>
      </trkpt>
      <trkpt lat="37.30296" lon="-8.08513">
        <ele>454.9668</ele>
        <time>2021-07-12T10:32:08Z</time>
      </trkpt>
      <trkpt lat="37.30403" lon="-8.08563">
        <ele>453.1806</ele>
        <time>2021-07-12T10:32:19Z</time>
      </trkpt>
      <trkpt lat="37.30467" lon="-8.08598">
        <ele>455.3498</ele>
        <time>2021-07-12T10:32:30Z</time>
      </trkpt>
      <trkpt lat="37.30526" lon="-8.08541">
        <ele>461.6161</ele>
        <time>2021-07-12T10:32:41Z</time>
      </trkpt>
      <trkpt lat="37.30587" lon="-8.08498">
        <ele>472.6283</ele>
        <time>2021-07-12T10:32:52Z</time>
      </trkpt>
      <trkpt lat="37.30628" lon="-8.0839">
        <ele>469.2954</ele>
        <time>2021-07-12T10:33:03Z</time>
      </trkpt>
      <trkpt lat="37.30676" lon="-8.08252">
        <ele>465.05</ele>
        <time>2021-07-12T10:33:14Z</time>
      </trkpt>
      <trkpt lat="37.30706" lon="-8.08128">
        <ele>444.9642</ele>
        <time>2021-07-12T10:33:25Z</time>
      </trkpt>
      <trkpt lat="37.30636" lon="-8.07952">
        <ele>429.8743</ele>
        <time>2021-07-12T10:33:36Z</time>
      </trkpt>
      <trkpt lat="37.30587" lon="-8.07774">
        <ele>424.2225</ele>
        <time>2021-07-12T10:33:47Z</time>
      </trkpt>
      <trkpt lat="37.30555" lon="-8.07689">
        <ele>421.319</ele>
        <time>2021-07-12T10:33:58Z</time>
      </trkpt>
      <trkpt lat="37.30456" lon="-8.07547">
        <ele>433.6559</ele>
        <time>2021-07-12T10:34:09Z</time>
      </trkpt>
      <trkpt lat="37.30305" lon="-8.0742">
        <ele>424.4323</ele>
        <time>2021-07-12T10:34:20Z</time>
      </trkpt>
      <trkpt lat="37.30144" lon="-8.07292">
        <ele>419.4792</ele>
        <time>2021-07-12T10:34:31Z</time>
      </trkpt>
      <trkpt lat="37.29942" lon="-8.07213">
        <ele>422.6226</ele>
        <time>2021-07-12T10:34:42Z</time>
      </trkpt>
      <trkpt lat="37.29827" lon="-8.07032">
        <ele>429.8717</ele>
        <time>2021-07-12T10:34:53Z</time>
      </trkpt>
      <trkpt lat="37.2973" lon="-8.06772">
        <ele>443.3159</ele>
        <time>2021-07-12T10:35:04Z</time>
      </trkpt>
      <trkpt lat="37.29642" lon="-8.06572">
        <ele>460.5547</ele>
        <time>2021-07-12T10:35:15Z</time>
      </trkpt>
      <trkpt lat="37.29519" lon="-8.06454">
        <ele>461.8611</ele>
        <time>2021-07-12T10:35:26Z</time>
      </trkpt>
      <trkpt lat="37.29475" lon="-8.06336">
        <ele>453.9067</ele>
        <time>2021-07-12T10:35:37Z</time>
      </trkpt>
      <trkpt lat="37.29637" lon="-8.06285">
        <ele>447.9781</ele>
        <time>2021-07-12T10:35:48Z</time>
      </trkpt>
      <trkpt lat="37.29814" lon="-8.06187">
        <ele>443.7529</ele>
        <time>2021-07-12T10:35:59Z</time>
      </trkpt>
      <trkpt lat="37.29894" lon="-8.06127">
        <ele>440.6056</ele>
        <time>2021-07-12T10:36:10Z</time>
      </trkpt>
      <trkpt lat="37.29893" lon="-8.06057">
        <ele>439.322</ele>
        <time>2021-07-12T10:36:21Z</time>
      </trkpt>
      <trkpt lat="37.29884" lon="-8.05977">
        <ele>458.0219</ele>
        <time>2021-07-12T10:36:32Z</time>
      </trkpt>
      <trkpt lat="37.29906" lon="-8.05875">
        <ele>475.0249</ele>
        <time>2021-07-12T10:36:43Z</time>
      </trkpt>
      <trkpt lat="37.29983" lon="-8.05792">
        <ele>473.3609</ele>
        <time>2021-07-12T10:36:54Z</time>
      </trkpt>
      <trkpt lat="37.30049" lon="-8.05711">
        <ele>476.3802</ele>
        <time>2021-07-12T10:37:05Z</time>
      </trkpt>
      <trkpt lat="37.30057" lon="-8.05626">
        <ele>479.1778</ele>
        <time>2021-07-12T10:37:16Z</time>
      </trkpt>
      <trkpt lat="37.30064" lon="-8.05535">
        <ele>482.6199</ele>
        <time>2021-07-12T10:37:27Z</time>
      </trkpt>
      <trkpt lat="37.30094" lon="-8.05454">
        <ele>474.5799</ele>
        <time>2021-07-12T10:37:38Z</time>
      </trkpt>
      <trkpt lat="37.30084" lon="-8.05357">
        <ele>480.7657</ele>
        <time>2021-07-12T10:37:49Z</time>
      </trkpt>
      <trkpt lat="37.30044" lon="-8.05278">
        <ele>480.7895</ele>
        <time>2021-07-12T10:38:00Z</time>
      </trkpt>
      <trkpt lat="37.30014" lon="-8.05199">
        <ele>464.1296</ele>
        <time>2021-07-12T10:38:11Z</time>
      </trkpt>
      <trkpt lat="37.3" lon="-8.05102">
        <ele>461.3921</ele>
        <time>2021-07-12T10:38:22Z</time>
      </trkpt>
      <trkpt lat="37.30009" lon="-8.05007">
        <ele>453.8828</ele>
        <time>2021-07-12T10:38:33Z</time>
      </trkpt>
      <trkpt lat="37.29995" lon="-8.04934">
        <ele>446.4956</ele>
        <time>2021-07-12T10:38:44Z</time>
      </trkpt>
      <trkpt lat="37.29989" lon="-8.04868">
        <ele>436.0376</ele>
        <time>2021-07-12T10:38:55Z</time>
      </trkpt>
      <trkpt lat="37.29994" lon="-8.04793">
        <ele>421.7527</ele>
        <time>2021-07-12T10:39:06Z</time>
      </trkpt>
      <trkpt lat="37.3" lon="-8.04735">
        <ele>406.3286</ele>
        <time>2021-07-12T10:39:17Z</time>
      </trkpt>
      <trkpt lat="37.30041" lon="-8.04663">
        <ele>398.1728</ele>
        <time>2021-07-12T10:39:28Z</time>
      </trkpt>
      <trkpt lat="37.30031" lon="-8.04605">
        <ele>396.0443</ele>
        <time>2021-07-12T10:39:39Z</time>
      </trkpt>
      <trkpt lat="37.30016" lon="-8.04495">
        <ele>403.5414</ele>
        <time>2021-07-12T10:39:50Z</time>
      </trkpt>
      <trkpt lat="37.29979" lon="-8.04441">
        <ele>390.5993</ele>
        <time>2021-07-12T10:40:01Z</time>
      </trkpt>
      <trkpt lat="37.29901" lon="-8.0439">
        <ele>419.4936</ele>
        <time>2021-07-12T10:40:12Z</time>
      </trkpt>
      <trkpt lat="37.29858" lon="-8.04359">
        <ele>412.6891</ele>
        <time>2021-07-12T10:40:23Z</time>
      </trkpt>
      <trkpt lat="37.29829" lon="-8.04302">
        <ele>401.1086</ele>
        <time>2021-07-12T10:40:34Z</time>
      </trkpt>
      <trkpt lat="37.29774" lon="-8.04247">
        <ele>394.1727</ele>
        <time>2021-07-12T10:40:45Z</time>
      </trkpt>
      <trkpt lat="37.29713" lon="-8.04195">
        <ele>384.9167</ele>
        <time>2021-07-12T10:40:56Z</time>
      </trkpt>
      <trkpt lat="37.29671" lon="-8.04111">
        <ele>385.064</ele>
        <time>2021-07-12T10:41:07Z</time>
      </trkpt>
      <trkpt lat="37.2963" lon="-8.03998">
        <ele>391.8897</ele>
        <time>2021-07-12T10:41:18Z</time>
      </trkpt>
      <trkpt lat="37.29604" lon="-8.03962">
        <ele>394.5351</ele>
        <time>2021-07-12T10:41:29Z</time>
      </trkpt>
      <trkpt lat="37.29606" lon="-8.03968">
        <ele>394.8746</ele>
        <time>2021-07-12T10:41:50Z</time>
      </trkpt>
      <trkpt lat="37.29614" lon="-8.0397">
        <ele>392.6065</ele>
        <time>2021-07-12T10:42:01Z</time>
      </trkpt>
      <trkpt lat="37.29601" lon="-8.0391">
        <ele>387.9707</ele>
        <time>2021-07-12T10:42:12Z</time>
      </trkpt>
      <trkpt lat="37.29612" lon="-8.03852">
        <ele>381.4288</ele>
        <time>2021-07-12T10:42:23Z</time>
      </trkpt>
      <trkpt lat="37.29628" lon="-8.03757">
        <ele>374.0428</ele>
        <time>2021-07-12T10:42:34Z</time>
      </trkpt>
      <trkpt lat="37.29671" lon="-8.03706">
        <ele>374.925</ele>
        <time>2021-07-12T10:42:45Z</time>
      </trkpt>
      <trkpt lat="37.29729" lon="-8.03621">
        <ele>374.0098</ele>
        <time>2021-07-12T10:42:56Z</time>
      </trkpt>
      <trkpt lat="37.2981" lon="-8.03554">
        <ele>374.3694</ele>
        <time>2021-07-12T10:43:07Z</time>
      </trkpt>
      <trkpt lat="37.29875" lon="-8.03455">
        <ele>371.7473</ele>
        <time>2021-07-12T10:43:18Z</time>
      </trkpt>
      <trkpt lat="37.29936" lon="-8.03402">
        <ele>370.4497</ele>
        <time>2021-07-12T10:43:29Z</time>
      </trkpt>
      <trkpt lat="37.29977" lon="-8.03363">
        <ele>374.9255</ele>
        <time>2021-07-12T10:43:40Z</time>
      </trkpt>
      <trkpt lat="37.29995" lon="-8.03296">
        <ele>370.3238</ele>
        <time>2021-07-12T10:43:51Z</time>
      </trkpt>
      <trkpt lat="37.30028" lon="-8.03226">
        <ele>369.2877</ele>
        <time>2021-07-12T10:44:02Z</time>
      </trkpt>
      <trkpt lat="37.30081" lon="-8.03118">
        <ele>363.4189</ele>
        <time>2021-07-12T10:44:13Z</time>
      </trkpt>
      <trkpt lat="37.30149" lon="-8.03024">
        <ele>365.4475</ele>
        <time>2021-07-12T10:44:24Z</time>
      </trkpt>
      <trkpt lat="37.30227" lon="-8.03005">
        <ele>365.2205</ele>
        <time>2021-07-12T10:44:35Z</time>
      </trkpt>
      <trkpt lat="37.303" lon="-8.0291">
        <ele>360.3384</ele>
        <time>2021-07-12T10:44:46Z</time>
      </trkpt>
      <trkpt lat="37.30324" lon="-8.0279">
        <ele>358.7191</ele>
        <time>2021-07-12T10:44:57Z</time>
      </trkpt>
      <trkpt lat="37.30333" lon="-8.02642">
        <ele>358.5712</ele>
        <time>2021-07-12T10:45:08Z</time>
      </trkpt>
      <trkpt lat="37.30321" lon="-8.0251">
        <ele>352.3188</ele>
        <time>2021-07-12T10:45:19Z</time>
      </trkpt>
      <trkpt lat="37.30296" lon="-8.02408">
        <ele>349.377</ele>
        <time>2021-07-12T10:45:30Z</time>
      </trkpt>
      <trkpt lat="37.30341" lon="-8.02374">
        <ele>353.1567</ele>
        <time>2021-07-12T10:45:41Z</time>
      </trkpt>
      <trkpt lat="37.30472" lon="-8.0232">
        <ele>351.3891</ele>
        <time>2021-07-12T10:45:52Z</time>
      </trkpt>
      <trkpt lat="37.30606" lon="-8.02332">
        <ele>355.4184</ele>
        <time>2021-07-12T10:46:03Z</time>
      </trkpt>
      <trkpt lat="37.30696" lon="-8.02282">
        <ele>348.6827</ele>
        <time>2021-07-12T10:46:14Z</time>
      </trkpt>
      <trkpt lat="37.30736" lon="-8.02165">
        <ele>344.4875</ele>
        <time>2021-07-12T10:46:25Z</time>
      </trkpt>
      <trkpt lat="37.30879" lon="-8.02081">
        <ele>344.6089</ele>
        <time>2021-07-12T10:46:36Z</time>
      </trkpt>
      <trkpt lat="37.3095" lon="-8.01931">
        <ele>346.0356</ele>
        <time>2021-07-12T10:46:47Z</time>
      </trkpt>
      <trkpt lat="37.30957" lon="-8.01738">
        <ele>341.4136</ele>
        <time>2021-07-12T10:46:58Z</time>
      </trkpt>
      <trkpt lat="37.30954" lon="-8.01568">
        <ele>342.46</ele>
        <time>2021-07-12T10:47:09Z</time>
      </trkpt>
      <trkpt lat="37.31095" lon="-8.01504">
        <ele>341.4331</ele>
        <time>2021-07-12T10:47:20Z</time>
      </trkpt>
      <trkpt lat="37.31201" lon="-8.01382">
        <ele>335.0774</ele>
        <time>2021-07-12T10:47:31Z</time>
      </trkpt>
      <trkpt lat="37.31311" lon="-8.01294">
        <ele>339.119</ele>
        <time>2021-07-12T10:47:42Z</time>
      </trkpt>
      <trkpt lat="37.31399" lon="-8.01297">
        <ele>334.5308</ele>
        <time>2021-07-12T10:47:53Z</time>
      </trkpt>
      <trkpt lat="37.31391" lon="-8.01268">
        <ele>336.0084</ele>
        <time>2021-07-12T10:48:04Z</time>
      </trkpt>
      <trkpt lat="37.31327" lon="-8.01162">
        <ele>344.9377</ele>
        <time>2021-07-12T10:48:15Z</time>
      </trkpt>
      <trkpt lat="37.31302" lon="-8.01074">
        <ele>374.7842</ele>
        <time>2021-07-12T10:48:26Z</time>
      </trkpt>
      <trkpt lat="37.31243" lon="-8.00985">
        <ele>383.5661</ele>
        <time>2021-07-12T10:48:37Z</time>
      </trkpt>
      <trkpt lat="37.31226" lon="-8.00893">
        <ele>389.7807</ele>
        <time>2021-07-12T10:48:48Z</time>
      </trkpt>
      <trkpt lat="37.31212" lon="-8.00801">
        <ele>397.8159</ele>
        <time>2021-07-12T10:48:59Z</time>
      </trkpt>
      <trkpt lat="37.31185" lon="-8.00716">
        <ele>408.2616</ele>
        <time>2021-07-12T10:49:10Z</time>
      </trkpt>
      <trkpt lat="37.31111" lon="-8.00646">
        <ele>409.8637</ele>
        <time>2021-07-12T10:49:21Z</time>
      </trkpt>
      <trkpt lat="37.31078" lon="-8.00557">
        <ele>408.7548</ele>
        <time>2021-07-12T10:49:32Z</time>
      </trkpt>
      <trkpt lat="37.3106" lon="-8.00468">
        <ele>417.0218</ele>
        <time>2021-07-12T10:49:43Z</time>
      </trkpt>
      <trkpt lat="37.30982" lon="-8.00461">
        <ele>414.988</ele>
        <time>2021-07-12T10:49:54Z</time>
      </trkpt>
      <trkpt lat="37.30993" lon="-8.00363">
        <ele>410.7302</ele>
        <time>2021-07-12T10:50:05Z</time>
      </trkpt>
      <trkpt lat="37.3095" lon="-8.00301">
        <ele>407.6675</ele>
        <time>2021-07-12T10:50:16Z</time>
      </trkpt>
      <trkpt lat="37.30911" lon="-8.00223">
        <ele>417.3983</ele>
        <time>2021-07-12T10:50:27Z</time>
      </trkpt>
      <trkpt lat="37.30886" lon="-8.00108">
        <ele>420.4189</ele>
        <time>2021-07-12T10:50:38Z</time>
      </trkpt>
      <trkpt lat="37.30858" lon="-8.00019">
        <ele>409.9307</ele>
        <time>2021-07-12T10:50:49Z</time>
      </trkpt>
      <trkpt lat="37.3083" lon="-7.99932">
        <ele>408.4332</ele>
        <time>2021-07-12T10:51:00Z</time>
      </trkpt>
      <trkpt lat="37.30781" lon="-7.99835">
        <ele>418.5617</ele>
        <time>2021-07-12T10:51:11Z</time>
      </trkpt>
      <trkpt lat="37.30731" lon="-7.99789">
        <ele>427.4369</ele>
        <time>2021-07-12T10:51:22Z</time>
      </trkpt>
      <trkpt lat="37.30697" lon="-7.99735">
        <ele>430.6795</ele>
        <time>2021-07-12T10:51:33Z</time>
      </trkpt>
      <trkpt lat="37.30771" lon="-7.99691">
        <ele>432.5594</ele>
        <time>2021-07-12T10:51:44Z</time>
      </trkpt>
      <trkpt lat="37.30824" lon="-7.99641">
        <ele>427.3765</ele>
        <time>2021-07-12T10:51:55Z</time>
      </trkpt>
      <trkpt lat="37.30782" lon="-7.99529">
        <ele>410.0123</ele>
        <time>2021-07-12T10:52:06Z</time>
      </trkpt>
      <trkpt lat="37.30758" lon="-7.99416">
        <ele>395.5302</ele>
        <time>2021-07-12T10:52:17Z</time>
      </trkpt>
      <trkpt lat="37.30719" lon="-7.99272">
        <ele>373.766</ele>
        <time>2021-07-12T10:52:28Z</time>
      </trkpt>
      <trkpt lat="37.3072" lon="-7.99152">
        <ele>358.9958</ele>
        <time>2021-07-12T10:52:39Z</time>
      </trkpt>
      <trkpt lat="37.3065" lon="-7.99114">
        <ele>331.0573</ele>
        <time>2021-07-12T10:52:50Z</time>
      </trkpt>
      <trkpt lat="37.30591" lon="-7.99111">
        <ele>322.5926</ele>
        <time>2021-07-12T10:53:01Z</time>
      </trkpt>
      <trkpt lat="37.3054" lon="-7.99006">
        <ele>340.2313</ele>
        <time>2021-07-12T10:53:12Z</time>
      </trkpt>
      <trkpt lat="37.30526" lon="-7.98864">
        <ele>348.2895</ele>
        <time>2021-07-12T10:53:23Z</time>
      </trkpt>
      <trkpt lat="37.30482" lon="-7.98739">
        <ele>357.9119</ele>
        <time>2021-07-12T10:53:34Z</time>
      </trkpt>
      <trkpt lat="37.30384" lon="-7.98694">
        <ele>357.9267</ele>
        <time>2021-07-12T10:53:45Z</time>
      </trkpt>
      <trkpt lat="37.30275" lon="-7.98595">
        <ele>355.7307</ele>
        <time>2021-07-12T10:53:56Z</time>
      </trkpt>
      <trkpt lat="37.3026" lon="-7.98399">
        <ele>358.9858</ele>
        <time>2021-07-12T10:54:07Z</time>
      </trkpt>
      <trkpt lat="37.30211" lon="-7.98273">
        <ele>356.3102</ele>
        <time>2021-07-12T10:54:18Z</time>
      </trkpt>
      <trkpt lat="37.30169" lon="-7.98154">
        <ele>351.0636</ele>
        <time>2021-07-12T10:54:29Z</time>
      </trkpt>
      <trkpt lat="37.30117" lon="-7.98088">
        <ele>352.714</ele>
        <time>2021-07-12T10:54:40Z</time>
      </trkpt>
      <trkpt lat="37.30072" lon="-7.98064">
        <ele>361.7007</ele>
        <time>2021-07-12T10:54:51Z</time>
      </trkpt>
      <trkpt lat="37.2999" lon="-7.98007">
        <ele>374.7232</ele>
        <time>2021-07-12T10:55:02Z</time>
      </trkpt>
      <trkpt lat="37.29934" lon="-7.97926">
        <ele>388.3397</ele>
        <time>2021-07-12T10:55:13Z</time>
      </trkpt>
      <trkpt lat="37.29883" lon="-7.97835">
        <ele>396.3231</ele>
        <time>2021-07-12T10:55:24Z</time>
      </trkpt>
      <trkpt lat="37.29833" lon="-7.97729">
        <ele>414.5924</ele>
        <time>2021-07-12T10:55:35Z</time>
      </trkpt>
      <trkpt lat="37.29753" lon="-7.97641">
        <ele>419.8584</ele>
        <time>2021-07-12T10:55:46Z</time>
      </trkpt>
      <trkpt lat="37.29675" lon="-7.97705">
        <ele>420.5001</ele>
        <time>2021-07-12T10:55:57Z</time>
      </trkpt>
      <trkpt lat="37.29584" lon="-7.97716">
        <ele>416.6682</ele>
        <time>2021-07-12T10:56:08Z</time>
      </trkpt>
      <trkpt lat="37.29506" lon="-7.97648">
        <ele>423.1522</ele>
        <time>2021-07-12T10:56:19Z</time>
      </trkpt>
      <trkpt lat="37.29426" lon="-7.97737">
        <ele>430.8564</ele>
        <time>2021-07-12T10:56:30Z</time>
      </trkpt>
      <trkpt lat="37.29318" lon="-7.9782">
        <ele>440.0326</ele>
        <time>2021-07-12T10:56:41Z</time>
      </trkpt>
      <trkpt lat="37.29227" lon="-7.97874">
        <ele>445.5901</ele>
        <time>2021-07-12T10:56:52Z</time>
      </trkpt>
      <trkpt lat="37.29212" lon="-7.97942">
        <ele>453.9472</ele>
        <time>2021-07-12T10:57:03Z</time>
      </trkpt>
      <trkpt lat="37.29133" lon="-7.97931">
        <ele>459.0692</ele>
        <time>2021-07-12T10:57:14Z</time>
      </trkpt>
      <trkpt lat="37.29004" lon="-7.97853">
        <ele>472.7177</ele>
        <time>2021-07-12T10:57:25Z</time>
      </trkpt>
      <trkpt lat="37.28906" lon="-7.97762">
        <ele>486.0651</ele>
        <time>2021-07-12T10:57:36Z</time>
      </trkpt>
      <trkpt lat="37.28839" lon="-7.97766">
        <ele>494.0217</ele>
        <time>2021-07-12T10:57:47Z</time>
      </trkpt>
      <trkpt lat="37.28819" lon="-7.97659">
        <ele>500.929</ele>
        <time>2021-07-12T10:57:58Z</time>
      </trkpt>
      <trkpt lat="37.28759" lon="-7.97552">
        <ele>477.1827</ele>
        <time>2021-07-12T10:58:09Z</time>
      </trkpt>
      <trkpt lat="37.287" lon="-7.97469">
        <ele>476.7394</ele>
        <time>2021-07-12T10:58:20Z</time>
      </trkpt>
      <trkpt lat="37.28611" lon="-7.97399">
        <ele>490.5282</ele>
        <time>2021-07-12T10:58:31Z</time>
      </trkpt>
      <trkpt lat="37.28504" lon="-7.97361">
        <ele>498.2865</ele>
        <time>2021-07-12T10:58:42Z</time>
      </trkpt>
      <trkpt lat="37.28402" lon="-7.97374">
        <ele>496.1993</ele>
        <time>2021-07-12T10:58:53Z</time>
      </trkpt>
      <trkpt lat="37.28276" lon="-7.97308">
        <ele>490.5922</ele>
        <time>2021-07-12T10:59:04Z</time>
      </trkpt>
      <trkpt lat="37.28131" lon="-7.9731">
        <ele>481.9729</ele>
        <time>2021-07-12T10:59:15Z</time>
      </trkpt>
      <trkpt lat="37.28104" lon="-7.97162">
        <ele>478.1585</ele>
        <time>2021-07-12T10:59:26Z</time>
      </trkpt>
      <trkpt lat="37.28032" lon="-7.97083">
        <ele>472.8409</ele>
        <time>2021-07-12T10:59:37Z</time>
      </trkpt>
      <trkpt lat="37.27944" lon="-7.97051">
        <ele>476.9346</ele>
        <time>2021-07-12T10:59:48Z</time>
      </trkpt>
      <trkpt lat="37.2784" lon="-7.9701">
        <ele>466.0642</ele>
        <time>2021-07-12T10:59:59Z</time>
      </trkpt>
      <trkpt lat="37.27766" lon="-7.96963">
        <ele>458.6739</ele>
        <time>2021-07-12T11:00:10Z</time>
      </trkpt>
      <trkpt lat="37.27793" lon="-7.96818">
        <ele>459.3963</ele>
        <time>2021-07-12T11:00:21Z</time>
      </trkpt>
      <trkpt lat="37.2774" lon="-7.96708">
        <ele>459.9606</ele>
        <time>2021-07-12T11:00:32Z</time>
      </trkpt>
      <trkpt lat="37.27623" lon="-7.96598">
        <ele>459.7138</ele>
        <time>2021-07-12T11:00:43Z</time>
      </trkpt>
      <trkpt lat="37.27524" lon="-7.96502">
        <ele>465.9678</ele>
        <time>2021-07-12T11:00:54Z</time>
      </trkpt>
      <trkpt lat="37.27403" lon="-7.9639">
        <ele>467.4361</ele>
        <time>2021-07-12T11:01:05Z</time>
      </trkpt>
      <trkpt lat="37.27258" lon="-7.96334">
        <ele>476.8883</ele>
        <time>2021-07-12T11:01:16Z</time>
      </trkpt>
      <trkpt lat="37.27195" lon="-7.96366">
        <ele>480.815</ele>
        <time>2021-07-12T11:01:27Z</time>
      </trkpt>
      <trkpt lat="37.27191" lon="-7.96362">
        <ele>495.6227</ele>
        <time>2021-07-12T11:01:50Z</time>
      </trkpt>
      <trkpt lat="37.27202" lon="-7.96325">
        <ele>499.7133</ele>
        <time>2021-07-12T11:02:01Z</time>
      </trkpt>
      <trkpt lat="37.27205" lon="-7.96313">
        <ele>494.7271</ele>
        <time>2021-07-12T11:02:12Z</time>
      </trkpt>
      <trkpt lat="37.27209" lon="-7.96217">
        <ele>494.7989</ele>
        <time>2021-07-12T11:02:23Z</time>
      </trkpt>
      <trkpt lat="37.27173" lon="-7.96144">
        <ele>500.812</ele>
        <time>2021-07-12T11:02:34Z</time>
      </trkpt>
      <trkpt lat="37.27127" lon="-7.96076">
        <ele>500.1482</ele>
        <time>2021-07-12T11:02:45Z</time>
      </trkpt>
      <trkpt lat="37.27126" lon="-7.96071">
        <ele>503.3167</ele>
        <time>2021-07-12T11:03:01Z</time>
      </trkpt>
      <trkpt lat="37.27101" lon="-7.96049">
        <ele>509.9672</ele>
        <time>2021-07-12T11:03:12Z</time>
      </trkpt>
      <trkpt lat="37.27092" lon="-7.96027">
        <ele>505.8169</ele>
        <time>2021-07-12T11:03:23Z</time>
      </trkpt>
      <trkpt lat="37.27057" lon="-7.95998">
        <ele>501.6407</ele>
        <time>2021-07-12T11:03:34Z</time>
      </trkpt>
      <trkpt lat="37.27021" lon="-7.95958">
        <ele>502.4745</ele>
        <time>2021-07-12T11:03:45Z</time>
      </trkpt>
      <trkpt lat="37.2697" lon="-7.95905">
        <ele>505.9559</ele>
        <time>2021-07-12T11:03:56Z</time>
      </trkpt>
      <trkpt lat="37.26951" lon="-7.95888">
        <ele>506.6889</ele>
        <time>2021-07-12T11:04:07Z</time>
      </trkpt>
      <trkpt lat="37.26888" lon="-7.95808">
        <ele>503.7312</ele>
        <time>2021-07-12T11:04:18Z</time>
      </trkpt>
      <trkpt lat="37.26878" lon="-7.95691">
        <ele>504.4863</ele>
        <time>2021-07-12T11:04:29Z</time>
      </trkpt>
      <trkpt lat="37.26877" lon="-7.95587">
        <ele>503.5214</ele>
        <time>2021-07-12T11:04:40Z</time>
      </trkpt>
      <trkpt lat="37.26836" lon="-7.95555">
        <ele>501.6454</ele>
        <time>2021-07-12T11:04:51Z</time>
      </trkpt>
      <trkpt lat="37.26756" lon="-7.95527">
        <ele>498.5456</ele>
        <time>2021-07-12T11:05:02Z</time>
      </trkpt>
      <trkpt lat="37.26728" lon="-7.95395">
        <ele>499.6597</ele>
        <time>2021-07-12T11:05:13Z</time>
      </trkpt>
      <trkpt lat="37.2671" lon="-7.95214">
        <ele>500.8374</ele>
        <time>2021-07-12T11:05:24Z</time>
      </trkpt>
      <trkpt lat="37.26693" lon="-7.95069">
        <ele>496.5871</ele>
        <time>2021-07-12T11:05:35Z</time>
      </trkpt>
      <trkpt lat="37.26657" lon="-7.94944">
        <ele>485.8106</ele>
        <time>2021-07-12T11:05:46Z</time>
      </trkpt>
      <trkpt lat="37.26648" lon="-7.94811">
        <ele>494.197</ele>
        <time>2021-07-12T11:05:57Z</time>
      </trkpt>
      <trkpt lat="37.2668" lon="-7.94693">
        <ele>485.123</ele>
        <time>2021-07-12T11:06:09Z</time>
      </trkpt>
      <trkpt lat="37.26637" lon="-7.94605">
        <ele>482.2039</ele>
        <time>2021-07-12T11:06:20Z</time>
      </trkpt>
      <trkpt lat="37.26582" lon="-7.94532">
        <ele>485.136</ele>
        <time>2021-07-12T11:06:31Z</time>
      </trkpt>
      <trkpt lat="37.26548" lon="-7.94432">
        <ele>482.6679</ele>
        <time>2021-07-12T11:06:42Z</time>
      </trkpt>
      <trkpt lat="37.26587" lon="-7.94316">
        <ele>489.2448</ele>
        <time>2021-07-12T11:06:53Z</time>
      </trkpt>
      <trkpt lat="37.26624" lon="-7.94186">
        <ele>487.4969</ele>
        <time>2021-07-12T11:07:04Z</time>
      </trkpt>
      <trkpt lat="37.26617" lon="-7.94105">
        <ele>485.0971</ele>
        <time>2021-07-12T11:07:15Z</time>
      </trkpt>
      <trkpt lat="37.26528" lon="-7.94012">
        <ele>486.3806</ele>
        <time>2021-07-12T11:07:26Z</time>
      </trkpt>
      <trkpt lat="37.26462" lon="-7.93958">
        <ele>481.2118</ele>
        <time>2021-07-12T11:07:37Z</time>
      </trkpt>
      <trkpt lat="37.26374" lon="-7.93897">
        <ele>467.0446</ele>
        <time>2021-07-12T11:07:48Z</time>
      </trkpt>
      <trkpt lat="37.26294" lon="-7.93878">
        <ele>458.0005</ele>
        <time>2021-07-12T11:07:59Z</time>
      </trkpt>
      <trkpt lat="37.26179" lon="-7.93857">
        <ele>460.519</ele>
        <time>2021-07-12T11:08:10Z</time>
      </trkpt>
      <trkpt lat="37.26117" lon="-7.93852">
        <ele>449.9493</ele>
        <time>2021-07-12T11:08:21Z</time>
      </trkpt>
      <trkpt lat="37.26083" lon="-7.93841">
        <ele>442.2614</ele>
        <time>2021-07-12T11:08:32Z</time>
      </trkpt>
      <trkpt lat="37.26062" lon="-7.93837">
        <ele>432.5156</ele>
        <time>2021-07-12T11:08:43Z</time>
      </trkpt>
      <trkpt lat="37.26058" lon="-7.93838">
        <ele>434.9117</ele>
        <time>2021-07-12T11:09:00Z</time>
      </trkpt>
      <trkpt lat="37.26058" lon="-7.93838">
        <ele>435.4125</ele>
        <time>2021-07-12T11:09:59Z</time>
      </trkpt>
      <trkpt lat="37.26059" lon="-7.93833">
        <ele>434.5616</ele>
        <time>2021-07-12T11:10:30Z</time>
      </trkpt>
      <trkpt lat="37.26055" lon="-7.93834">
        <ele>432.1395</ele>
        <time>2021-07-12T11:10:43Z</time>
      </trkpt>
      <trkpt lat="37.26031" lon="-7.93821">
        <ele>427.1813</ele>
        <time>2021-07-12T11:10:54Z</time>
      </trkpt>
      <trkpt lat="37.25984" lon="-7.93793">
        <ele>419.8043</ele>
        <time>2021-07-12T11:11:05Z</time>
      </trkpt>
      <trkpt lat="37.25993" lon="-7.93775">
        <ele>420.3981</ele>
        <time>2021-07-12T11:11:16Z</time>
      </trkpt>
      <trkpt lat="37.25997" lon="-7.93769">
        <ele>419.9865</ele>
        <time>2021-07-12T11:12:02Z</time>
      </trkpt>
      <trkpt lat="37.26052" lon="-7.93671">
        <ele>415.612</ele>
        <time>2021-07-12T11:12:13Z</time>
      </trkpt>
      <trkpt lat="37.26108" lon="-7.93561">
        <ele>416.9659</ele>
        <time>2021-07-12T11:12:24Z</time>
      </trkpt>
      <trkpt lat="37.26171" lon="-7.93504">
        <ele>412.0733</ele>
        <time>2021-07-12T11:12:35Z</time>
      </trkpt>
      <trkpt lat="37.2615" lon="-7.93458">
        <ele>411.5983</ele>
        <time>2021-07-12T11:12:46Z</time>
      </trkpt>
      <trkpt lat="37.26091" lon="-7.9342">
        <ele>415.9453</ele>
        <time>2021-07-12T11:12:57Z</time>
      </trkpt>
      <trkpt lat="37.26086" lon="-7.933">
        <ele>411.0213</ele>
        <time>2021-07-12T11:13:08Z</time>
      </trkpt>
      <trkpt lat="37.26139" lon="-7.93223">
        <ele>416.6012</ele>
        <time>2021-07-12T11:13:19Z</time>
      </trkpt>
      <trkpt lat="37.26241" lon="-7.93298">
        <ele>416.5463</ele>
        <time>2021-07-12T11:13:30Z</time>
      </trkpt>
      <trkpt lat="37.26339" lon="-7.93274">
        <ele>412.9638</ele>
        <time>2021-07-12T11:13:41Z</time>
      </trkpt>
      <trkpt lat="37.26408" lon="-7.93211">
        <ele>413.7408</ele>
        <time>2021-07-12T11:13:52Z</time>
      </trkpt>
      <trkpt lat="37.26459" lon="-7.93101">
        <ele>412.7865</ele>
        <time>2021-07-12T11:14:03Z</time>
      </trkpt>
      <trkpt lat="37.26545" lon="-7.93057">
        <ele>418.3811</ele>
        <time>2021-07-12T11:14:14Z</time>
      </trkpt>
      <trkpt lat="37.26602" lon="-7.92973">
        <ele>424.3608</ele>
        <time>2021-07-12T11:14:25Z</time>
      </trkpt>
      <trkpt lat="37.2669" lon="-7.92863">
        <ele>438.4359</ele>
        <time>2021-07-12T11:14:36Z</time>
      </trkpt>
      <trkpt lat="37.26768" lon="-7.92828">
        <ele>450.9752</ele>
        <time>2021-07-12T11:14:47Z</time>
      </trkpt>
      <trkpt lat="37.26739" lon="-7.92735">
        <ele>462.5269</ele>
        <time>2021-07-12T11:14:58Z</time>
      </trkpt>
      <trkpt lat="37.26762" lon="-7.92671">
        <ele>469.7548</ele>
        <time>2021-07-12T11:15:09Z</time>
      </trkpt>
      <trkpt lat="37.26827" lon="-7.92605">
        <ele>481.8613</ele>
        <time>2021-07-12T11:15:20Z</time>
      </trkpt>
      <trkpt lat="37.26811" lon="-7.92505">
        <ele>487.3731</ele>
        <time>2021-07-12T11:15:31Z</time>
      </trkpt>
      <trkpt lat="37.26829" lon="-7.92403">
        <ele>489.1847</ele>
        <time>2021-07-12T11:15:42Z</time>
      </trkpt>
      <trkpt lat="37.26906" lon="-7.92371">
        <ele>500.52</ele>
        <time>2021-07-12T11:15:53Z</time>
      </trkpt>
      <trkpt lat="37.2701" lon="-7.92426">
        <ele>513.6504</ele>
        <time>2021-07-12T11:16:04Z</time>
      </trkpt>
      <trkpt lat="37.27056" lon="-7.92381">
        <ele>519.417</ele>
        <time>2021-07-12T11:16:15Z</time>
      </trkpt>
      <trkpt lat="37.27085" lon="-7.92248">
        <ele>528.9138</ele>
        <time>2021-07-12T11:16:26Z</time>
      </trkpt>
      <trkpt lat="37.27069" lon="-7.9207">
        <ele>527.9218</ele>
        <time>2021-07-12T11:16:37Z</time>
      </trkpt>
      <trkpt lat="37.27031" lon="-7.91893">
        <ele>513.2098</ele>
        <time>2021-07-12T11:16:48Z</time>
      </trkpt>
      <trkpt lat="37.26991" lon="-7.91682">
        <ele>509.6587</ele>
        <time>2021-07-12T11:16:59Z</time>
      </trkpt>
      <trkpt lat="37.26954" lon="-7.91504">
        <ele>506.8521</ele>
        <time>2021-07-12T11:17:10Z</time>
      </trkpt>
      <trkpt lat="37.26926" lon="-7.91315">
        <ele>498.4725</ele>
        <time>2021-07-12T11:17:21Z</time>
      </trkpt>
      <trkpt lat="37.26898" lon="-7.91235">
        <ele>493.3027</ele>
        <time>2021-07-12T11:17:32Z</time>
      </trkpt>
      <trkpt lat="37.26767" lon="-7.91163">
        <ele>485.6563</ele>
        <time>2021-07-12T11:17:43Z</time>
      </trkpt>
      <trkpt lat="37.26744" lon="-7.91065">
        <ele>483.0981</ele>
        <time>2021-07-12T11:17:54Z</time>
      </trkpt>
      <trkpt lat="37.26708" lon="-7.90985">
        <ele>488.7306</ele>
        <time>2021-07-12T11:18:05Z</time>
      </trkpt>
      <trkpt lat="37.26706" lon="-7.90867">
        <ele>494.5315</ele>
        <time>2021-07-12T11:18:16Z</time>
      </trkpt>
      <trkpt lat="37.2676" lon="-7.90778">
        <ele>483.1327</ele>
        <time>2021-07-12T11:18:27Z</time>
      </trkpt>
      <trkpt lat="37.26711" lon="-7.90739">
        <ele>479.1589</ele>
        <time>2021-07-12T11:18:39Z</time>
      </trkpt>
      <trkpt lat="37.26632" lon="-7.90679">
        <ele>486.8503</ele>
        <time>2021-07-12T11:18:50Z</time>
      </trkpt>
      <trkpt lat="37.26676" lon="-7.90632">
        <ele>481.7087</ele>
        <time>2021-07-12T11:19:01Z</time>
      </trkpt>
      <trkpt lat="37.26735" lon="-7.90596">
        <ele>486.9767</ele>
        <time>2021-07-12T11:19:12Z</time>
      </trkpt>
      <trkpt lat="37.26683" lon="-7.9049">
        <ele>481.8521</ele>
        <time>2021-07-12T11:19:23Z</time>
      </trkpt>
      <trkpt lat="37.26701" lon="-7.90407">
        <ele>448.9191</ele>
        <time>2021-07-12T11:19:34Z</time>
      </trkpt>
      <trkpt lat="37.26739" lon="-7.90348">
        <ele>433.0199</ele>
        <time>2021-07-12T11:19:45Z</time>
      </trkpt>
      <trkpt lat="37.26749" lon="-7.9024">
        <ele>469.686</ele>
        <time>2021-07-12T11:19:56Z</time>
      </trkpt>
      <trkpt lat="37.26686" lon="-7.90115">
        <ele>471.3923</ele>
        <time>2021-07-12T11:20:07Z</time>
      </trkpt>
      <trkpt lat="37.26704" lon="-7.89979">
        <ele>466.2524</ele>
        <time>2021-07-12T11:20:18Z</time>
      </trkpt>
      <trkpt lat="37.2669" lon="-7.89836">
        <ele>459.227</ele>
        <time>2021-07-12T11:20:29Z</time>
      </trkpt>
      <trkpt lat="37.2664" lon="-7.89699">
        <ele>442.0036</ele>
        <time>2021-07-12T11:20:40Z</time>
      </trkpt>
      <trkpt lat="37.26615" lon="-7.89573">
        <ele>428.5701</ele>
        <time>2021-07-12T11:20:51Z</time>
      </trkpt>
      <trkpt lat="37.26604" lon="-7.89485">
        <ele>424.7653</ele>
        <time>2021-07-12T11:21:02Z</time>
      </trkpt>
      <trkpt lat="37.26617" lon="-7.89462">
        <ele>439.9041</ele>
        <time>2021-07-12T11:21:13Z</time>
      </trkpt>
      <trkpt lat="37.26643" lon="-7.89414">
        <ele>439.5192</ele>
        <time>2021-07-12T11:21:24Z</time>
      </trkpt>
      <trkpt lat="37.26638" lon="-7.89329">
        <ele>429.5775</ele>
        <time>2021-07-12T11:21:35Z</time>
      </trkpt>
      <trkpt lat="37.26635" lon="-7.89255">
        <ele>408.2388</ele>
        <time>2021-07-12T11:21:46Z</time>
      </trkpt>
      <trkpt lat="37.26649" lon="-7.8921">
        <ele>403.0321</ele>
        <time>2021-07-12T11:21:57Z</time>
      </trkpt>
      <trkpt lat="37.2667" lon="-7.89238">
        <ele>405.1803</ele>
        <time>2021-07-12T11:22:08Z</time>
      </trkpt>
      <trkpt lat="37.26684" lon="-7.89179">
        <ele>391.1826</ele>
        <time>2021-07-12T11:22:19Z</time>
      </trkpt>
      <trkpt lat="37.26674" lon="-7.89134">
        <ele>379.5423</ele>
        <time>2021-07-12T11:22:30Z</time>
      </trkpt>
      <trkpt lat="37.26658" lon="-7.8911">
        <ele>371.8856</ele>
        <time>2021-07-12T11:22:41Z</time>
      </trkpt>
      <trkpt lat="37.26701" lon="-7.89093">
        <ele>368.4064</ele>
        <time>2021-07-12T11:22:52Z</time>
      </trkpt>
      <trkpt lat="37.26736" lon="-7.89134">
        <ele>371.2605</ele>
        <time>2021-07-12T11:23:03Z</time>
      </trkpt>
      <trkpt lat="37.26736" lon="-7.89135">
        <ele>368.8686</ele>
        <time>2021-07-12T11:24:03Z</time>
      </trkpt>
      <trkpt lat="37.26742" lon="-7.89141">
        <ele>369.0745</ele>
        <time>2021-07-12T11:24:50Z</time>
      </trkpt>
      <trkpt lat="37.26758" lon="-7.89211">
        <ele>361.5285</ele>
        <time>2021-07-12T11:25:01Z</time>
      </trkpt>
      <trkpt lat="37.26779" lon="-7.89204">
        <ele>360.1875</ele>
        <time>2021-07-12T11:25:12Z</time>
      </trkpt>
      <trkpt lat="37.26822" lon="-7.89144">
        <ele>361.6322</ele>
        <time>2021-07-12T11:25:23Z</time>
      </trkpt>
      <trkpt lat="37.26809" lon="-7.89069">
        <ele>359.4519</ele>
        <time>2021-07-12T11:25:34Z</time>
      </trkpt>
      <trkpt lat="37.26788" lon="-7.88967">
        <ele>358.4254</ele>
        <time>2021-07-12T11:25:45Z</time>
      </trkpt>
      <trkpt lat="37.26756" lon="-7.88866">
        <ele>356.2857</ele>
        <time>2021-07-12T11:25:56Z</time>
      </trkpt>
      <trkpt lat="37.26726" lon="-7.8877">
        <ele>354.4894</ele>
        <time>2021-07-12T11:26:07Z</time>
      </trkpt>
      <trkpt lat="37.267" lon="-7.88622">
        <ele>340.2873</ele>
        <time>2021-07-12T11:26:18Z</time>
      </trkpt>
      <trkpt lat="37.26628" lon="-7.88542">
        <ele>332.2245</ele>
        <time>2021-07-12T11:26:29Z</time>
      </trkpt>
      <trkpt lat="37.26517" lon="-7.88493">
        <ele>334.9037</ele>
        <time>2021-07-12T11:26:40Z</time>
      </trkpt>
      <trkpt lat="37.26448" lon="-7.88464">
        <ele>348.5366</ele>
        <time>2021-07-12T11:26:51Z</time>
      </trkpt>
      <trkpt lat="37.26474" lon="-7.88395">
        <ele>336.7547</ele>
        <time>2021-07-12T11:27:02Z</time>
      </trkpt>
      <trkpt lat="37.26489" lon="-7.88332">
        <ele>336.7584</ele>
        <time>2021-07-12T11:27:13Z</time>
      </trkpt>
      <trkpt lat="37.26499" lon="-7.88318">
        <ele>339.2304</ele>
        <time>2021-07-12T11:27:24Z</time>
      </trkpt>
      <trkpt lat="37.26469" lon="-7.8822">
        <ele>357.5556</ele>
        <time>2021-07-12T11:27:35Z</time>
      </trkpt>
      <trkpt lat="37.2645" lon="-7.88145">
        <ele>345.5793</ele>
        <time>2021-07-12T11:27:46Z</time>
      </trkpt>
      <trkpt lat="37.26504" lon="-7.88063">
        <ele>340.7979</ele>
        <time>2021-07-12T11:27:57Z</time>
      </trkpt>
      <trkpt lat="37.26487" lon="-7.87963">
        <ele>340.9586</ele>
        <time>2021-07-12T11:28:08Z</time>
      </trkpt>
      <trkpt lat="37.2644" lon="-7.87886">
        <ele>344.1889</ele>
        <time>2021-07-12T11:28:19Z</time>
      </trkpt>
      <trkpt lat="37.26418" lon="-7.87832">
        <ele>356.8166</ele>
        <time>2021-07-12T11:28:30Z</time>
      </trkpt>
      <trkpt lat="37.26411" lon="-7.87795">
        <ele>365.0179</ele>
        <time>2021-07-12T11:28:41Z</time>
      </trkpt>
      <trkpt lat="37.26412" lon="-7.87803">
        <ele>368.1261</ele>
        <time>2021-07-12T11:28:52Z</time>
      </trkpt>
      <trkpt lat="37.26428" lon="-7.87821">
        <ele>376.1143</ele>
        <time>2021-07-12T11:29:03Z</time>
      </trkpt>
      <trkpt lat="37.26437" lon="-7.87827">
        <ele>372.1865</ele>
        <time>2021-07-12T11:29:14Z</time>
      </trkpt>
      <trkpt lat="37.26446" lon="-7.87831">
        <ele>369.0622</ele>
        <time>2021-07-12T11:29:34Z</time>
      </trkpt>
      <trkpt lat="37.265" lon="-7.87887">
        <ele>369.3309</ele>
        <time>2021-07-12T11:29:45Z</time>
      </trkpt>
      <trkpt lat="37.26543" lon="-7.87946">
        <ele>376.9397</ele>
        <time>2021-07-12T11:29:56Z</time>
      </trkpt>
      <trkpt lat="37.26599" lon="-7.87902">
        <ele>390.8832</ele>
        <time>2021-07-12T11:30:07Z</time>
      </trkpt>
      <trkpt lat="37.26657" lon="-7.87918">
        <ele>395.5085</ele>
        <time>2021-07-12T11:30:18Z</time>
      </trkpt>
      <trkpt lat="37.26672" lon="-7.87911">
        <ele>402.2142</ele>
        <time>2021-07-12T11:30:29Z</time>
      </trkpt>
      <trkpt lat="37.26673" lon="-7.87911">
        <ele>401.6936</ele>
        <time>2021-07-12T11:31:29Z</time>
      </trkpt>
      <trkpt lat="37.26673" lon="-7.87911">
        <ele>401.6936</ele>
        <time>2021-07-12T11:32:29Z</time>
      </trkpt>
      <trkpt lat="37.26672" lon="-7.87913">
        <ele>400.3606</ele>
        <time>2021-07-12T11:33:29Z</time>
      </trkpt>
      <trkpt lat="37.26676" lon="-7.87908">
        <ele>398.4246</ele>
        <time>2021-07-12T11:33:45Z</time>
      </trkpt>
      <trkpt lat="37.26692" lon="-7.87878">
        <ele>398.8035</ele>
        <time>2021-07-12T11:33:56Z</time>
      </trkpt>
      <trkpt lat="37.26689" lon="-7.87883">
        <ele>398.9112</ele>
        <time>2021-07-12T11:34:07Z</time>
      </trkpt>
      <trkpt lat="37.26675" lon="-7.87908">
        <ele>399.6596</ele>
        <time>2021-07-12T11:34:18Z</time>
      </trkpt>
      <trkpt lat="37.26674" lon="-7.87904">
        <ele>401.5927</ele>
        <time>2021-07-12T11:34:38Z</time>
      </trkpt>
      <trkpt lat="37.26665" lon="-7.87874">
        <ele>410.5759</ele>
        <time>2021-07-12T11:34:49Z</time>
      </trkpt>
      <trkpt lat="37.26628" lon="-7.8781">
        <ele>424.4037</ele>
        <time>2021-07-12T11:35:00Z</time>
      </trkpt>
      <trkpt lat="37.26621" lon="-7.87737">
        <ele>428.6211</ele>
        <time>2021-07-12T11:35:11Z</time>
      </trkpt>
      <trkpt lat="37.26654" lon="-7.87678">
        <ele>424.6736</ele>
        <time>2021-07-12T11:35:22Z</time>
      </trkpt>
      <trkpt lat="37.26714" lon="-7.87676">
        <ele>435.1624</ele>
        <time>2021-07-12T11:35:33Z</time>
      </trkpt>
      <trkpt lat="37.26758" lon="-7.87736">
        <ele>450.1865</ele>
        <time>2021-07-12T11:35:44Z</time>
      </trkpt>
      <trkpt lat="37.26787" lon="-7.87738">
        <ele>453.361</ele>
        <time>2021-07-12T11:35:55Z</time>
      </trkpt>
      <trkpt lat="37.26816" lon="-7.87731">
        <ele>452.406</ele>
        <time>2021-07-12T11:36:06Z</time>
      </trkpt>
      <trkpt lat="37.26842" lon="-7.87678">
        <ele>458.1283</ele>
        <time>2021-07-12T11:36:17Z</time>
      </trkpt>
      <trkpt lat="37.26837" lon="-7.8758">
        <ele>470.483</ele>
        <time>2021-07-12T11:36:28Z</time>
      </trkpt>
      <trkpt lat="37.26869" lon="-7.87606">
        <ele>480.4299</ele>
        <time>2021-07-12T11:36:39Z</time>
      </trkpt>
      <trkpt lat="37.26912" lon="-7.87688">
        <ele>491.5151</ele>
        <time>2021-07-12T11:36:50Z</time>
      </trkpt>
      <trkpt lat="37.26916" lon="-7.87626">
        <ele>498.0076</ele>
        <time>2021-07-12T11:37:01Z</time>
      </trkpt>
      <trkpt lat="37.26953" lon="-7.87661">
        <ele>504.8425</ele>
        <time>2021-07-12T11:37:12Z</time>
      </trkpt>
      <trkpt lat="37.27021" lon="-7.87653">
        <ele>507.5849</ele>
        <time>2021-07-12T11:37:23Z</time>
      </trkpt>
      <trkpt lat="37.27032" lon="-7.87618">
        <ele>512.0518</ele>
        <time>2021-07-12T11:37:34Z</time>
      </trkpt>
      <trkpt lat="37.2701" lon="-7.87563">
        <ele>507.3423</ele>
        <time>2021-07-12T11:37:45Z</time>
      </trkpt>
      <trkpt lat="37.26999" lon="-7.87537">
        <ele>505.7445</ele>
        <time>2021-07-12T11:37:56Z</time>
      </trkpt>
      <trkpt lat="37.26972" lon="-7.87479">
        <ele>511.9021</ele>
        <time>2021-07-12T11:38:07Z</time>
      </trkpt>
      <trkpt lat="37.26948" lon="-7.87433">
        <ele>511.415</ele>
        <time>2021-07-12T11:38:18Z</time>
      </trkpt>
      <trkpt lat="37.26943" lon="-7.8744">
        <ele>518.4645</ele>
        <time>2021-07-12T11:38:43Z</time>
      </trkpt>
      <trkpt lat="37.26948" lon="-7.87434">
        <ele>507.9802</ele>
        <time>2021-07-12T11:38:54Z</time>
      </trkpt>
      <trkpt lat="37.26948" lon="-7.87428">
        <ele>507.9907</ele>
        <time>2021-07-12T11:39:35Z</time>
      </trkpt>
      <trkpt lat="37.26929" lon="-7.87341">
        <ele>505.307</ele>
        <time>2021-07-12T11:39:46Z</time>
      </trkpt>
      <trkpt lat="37.26867" lon="-7.8727">
        <ele>497.5881</ele>
        <time>2021-07-12T11:39:57Z</time>
      </trkpt>
      <trkpt lat="37.26809" lon="-7.8718">
        <ele>478.8752</ele>
        <time>2021-07-12T11:40:08Z</time>
      </trkpt>
      <trkpt lat="37.26682" lon="-7.87053">
        <ele>491.1484</ele>
        <time>2021-07-12T11:40:19Z</time>
      </trkpt>
      <trkpt lat="37.26619" lon="-7.87002">
        <ele>489.8781</ele>
        <time>2021-07-12T11:40:30Z</time>
      </trkpt>
      <trkpt lat="37.26531" lon="-7.86964">
        <ele>475.0751</ele>
        <time>2021-07-12T11:40:41Z</time>
      </trkpt>
      <trkpt lat="37.26457" lon="-7.86914">
        <ele>466.8156</ele>
        <time>2021-07-12T11:40:52Z</time>
      </trkpt>
      <trkpt lat="37.26422" lon="-7.86908">
        <ele>463.1518</ele>
        <time>2021-07-12T11:41:03Z</time>
      </trkpt>
      <trkpt lat="37.26359" lon="-7.86894">
        <ele>450.3058</ele>
        <time>2021-07-12T11:41:14Z</time>
      </trkpt>
      <trkpt lat="37.26317" lon="-7.86838">
        <ele>434.8459</ele>
        <time>2021-07-12T11:41:25Z</time>
      </trkpt>
      <trkpt lat="37.26262" lon="-7.8683">
        <ele>425.9496</ele>
        <time>2021-07-12T11:41:36Z</time>
      </trkpt>
      <trkpt lat="37.2618" lon="-7.86803">
        <ele>406.5315</ele>
        <time>2021-07-12T11:41:47Z</time>
      </trkpt>
      <trkpt lat="37.2608" lon="-7.86802">
        <ele>398.5396</ele>
        <time>2021-07-12T11:41:58Z</time>
      </trkpt>
      <trkpt lat="37.26041" lon="-7.86827">
        <ele>389.7773</ele>
        <time>2021-07-12T11:42:09Z</time>
      </trkpt>
      <trkpt lat="37.26015" lon="-7.86795">
        <ele>379.1351</ele>
        <time>2021-07-12T11:42:20Z</time>
      </trkpt>
      <trkpt lat="37.25962" lon="-7.86802">
        <ele>366.8299</ele>
        <time>2021-07-12T11:42:31Z</time>
      </trkpt>
      <trkpt lat="37.25909" lon="-7.86776">
        <ele>353.0593</ele>
        <time>2021-07-12T11:42:42Z</time>
      </trkpt>
      <trkpt lat="37.25837" lon="-7.86753">
        <ele>337.6812</ele>
        <time>2021-07-12T11:42:53Z</time>
      </trkpt>
      <trkpt lat="37.25761" lon="-7.86754">
        <ele>322.448</ele>
        <time>2021-07-12T11:43:04Z</time>
      </trkpt>
      <trkpt lat="37.25688" lon="-7.8674">
        <ele>317.6524</ele>
        <time>2021-07-12T11:43:15Z</time>
      </trkpt>
      <trkpt lat="37.25631" lon="-7.86678">
        <ele>320.2934</ele>
        <time>2021-07-12T11:43:26Z</time>
      </trkpt>
      <trkpt lat="37.25599" lon="-7.86554">
        <ele>333.1694</ele>
        <time>2021-07-12T11:43:37Z</time>
      </trkpt>
      <trkpt lat="37.25561" lon="-7.86475">
        <ele>344.145</ele>
        <time>2021-07-12T11:43:48Z</time>
      </trkpt>
      <trkpt lat="37.25529" lon="-7.86435">
        <ele>355.1995</ele>
        <time>2021-07-12T11:43:59Z</time>
      </trkpt>
      <trkpt lat="37.25579" lon="-7.86332">
        <ele>369.9013</ele>
        <time>2021-07-12T11:44:10Z</time>
      </trkpt>
      <trkpt lat="37.25592" lon="-7.86206">
        <ele>374.5963</ele>
        <time>2021-07-12T11:44:21Z</time>
      </trkpt>
      <trkpt lat="37.25532" lon="-7.86078">
        <ele>383.576</ele>
        <time>2021-07-12T11:44:32Z</time>
      </trkpt>
      <trkpt lat="37.25527" lon="-7.85927">
        <ele>396.68</ele>
        <time>2021-07-12T11:44:43Z</time>
      </trkpt>
      <trkpt lat="37.25502" lon="-7.85793">
        <ele>400.5111</ele>
        <time>2021-07-12T11:44:54Z</time>
      </trkpt>
      <trkpt lat="37.25409" lon="-7.85742">
        <ele>403.7494</ele>
        <time>2021-07-12T11:45:05Z</time>
      </trkpt>
      <trkpt lat="37.25287" lon="-7.85777">
        <ele>407.9747</ele>
        <time>2021-07-12T11:45:16Z</time>
      </trkpt>
      <trkpt lat="37.25185" lon="-7.85712">
        <ele>427.8519</ele>
        <time>2021-07-12T11:45:27Z</time>
      </trkpt>
      <trkpt lat="37.25096" lon="-7.85648">
        <ele>433.026</ele>
        <time>2021-07-12T11:45:38Z</time>
      </trkpt>
      <trkpt lat="37.24973" lon="-7.85621">
        <ele>446.3459</ele>
        <time>2021-07-12T11:45:49Z</time>
      </trkpt>
      <trkpt lat="37.24894" lon="-7.85521">
        <ele>465.1984</ele>
        <time>2021-07-12T11:46:00Z</time>
      </trkpt>
      <trkpt lat="37.24854" lon="-7.8545">
        <ele>469.4007</ele>
        <time>2021-07-12T11:46:11Z</time>
      </trkpt>
      <trkpt lat="37.24862" lon="-7.85351">
        <ele>469.4839</ele>
        <time>2021-07-12T11:46:22Z</time>
      </trkpt>
      <trkpt lat="37.24803" lon="-7.853">
        <ele>465.5768</ele>
        <time>2021-07-12T11:46:33Z</time>
      </trkpt>
      <trkpt lat="37.24785" lon="-7.85246">
        <ele>464.8533</ele>
        <time>2021-07-12T11:46:44Z</time>
      </trkpt>
      <trkpt lat="37.24814" lon="-7.85101">
        <ele>461.1898</ele>
        <time>2021-07-12T11:46:55Z</time>
      </trkpt>
      <trkpt lat="37.24796" lon="-7.84905">
        <ele>453.7372</ele>
        <time>2021-07-12T11:47:06Z</time>
      </trkpt>
      <trkpt lat="37.24766" lon="-7.84833">
        <ele>455.1253</ele>
        <time>2021-07-12T11:47:17Z</time>
      </trkpt>
      <trkpt lat="37.2471" lon="-7.84753">
        <ele>463.1852</ele>
        <time>2021-07-12T11:47:28Z</time>
      </trkpt>
      <trkpt lat="37.24639" lon="-7.84704">
        <ele>470.0391</ele>
        <time>2021-07-12T11:47:39Z</time>
      </trkpt>
      <trkpt lat="37.2456" lon="-7.8465">
        <ele>460.0473</ele>
        <time>2021-07-12T11:47:50Z</time>
      </trkpt>
      <trkpt lat="37.2451" lon="-7.84734">
        <ele>462.0131</ele>
        <time>2021-07-12T11:48:01Z</time>
      </trkpt>
      <trkpt lat="37.24532" lon="-7.84831">
        <ele>453.4042</ele>
        <time>2021-07-12T11:48:12Z</time>
      </trkpt>
      <trkpt lat="37.24442" lon="-7.84886">
        <ele>450.0643</ele>
        <time>2021-07-12T11:48:23Z</time>
      </trkpt>
      <trkpt lat="37.24357" lon="-7.84814">
        <ele>446.9582</ele>
        <time>2021-07-12T11:48:34Z</time>
      </trkpt>
      <trkpt lat="37.24264" lon="-7.84766">
        <ele>449.3091</ele>
        <time>2021-07-12T11:48:45Z</time>
      </trkpt>
      <trkpt lat="37.24171" lon="-7.84775">
        <ele>437.9529</ele>
        <time>2021-07-12T11:48:56Z</time>
      </trkpt>
      <trkpt lat="37.24103" lon="-7.8474">
        <ele>428.009</ele>
        <time>2021-07-12T11:49:07Z</time>
      </trkpt>
      <trkpt lat="37.24039" lon="-7.84664">
        <ele>414.3378</ele>
        <time>2021-07-12T11:49:18Z</time>
      </trkpt>
      <trkpt lat="37.23982" lon="-7.84592">
        <ele>399.1501</ele>
        <time>2021-07-12T11:49:29Z</time>
      </trkpt>
      <trkpt lat="37.23933" lon="-7.84522">
        <ele>390.0683</ele>
        <time>2021-07-12T11:49:40Z</time>
      </trkpt>
      <trkpt lat="37.23933" lon="-7.84462">
        <ele>378.5334</ele>
        <time>2021-07-12T11:49:51Z</time>
      </trkpt>
      <trkpt lat="37.239" lon="-7.84421">
        <ele>365.7323</ele>
        <time>2021-07-12T11:50:02Z</time>
      </trkpt>
      <trkpt lat="37.23834" lon="-7.84442">
        <ele>358.6326</ele>
        <time>2021-07-12T11:50:13Z</time>
      </trkpt>
      <trkpt lat="37.23802" lon="-7.84462">
        <ele>351.2773</ele>
        <time>2021-07-12T11:50:24Z</time>
      </trkpt>
      <trkpt lat="37.23815" lon="-7.84369">
        <ele>337.3054</ele>
        <time>2021-07-12T11:50:35Z</time>
      </trkpt>
      <trkpt lat="37.23786" lon="-7.84322">
        <ele>335.5881</ele>
        <time>2021-07-12T11:50:46Z</time>
      </trkpt>
      <trkpt lat="37.23689" lon="-7.84327">
        <ele>343.715</ele>
        <time>2021-07-12T11:50:57Z</time>
      </trkpt>
      <trkpt lat="37.23582" lon="-7.8426">
        <ele>359.1724</ele>
        <time>2021-07-12T11:51:08Z</time>
      </trkpt>
      <trkpt lat="37.23511" lon="-7.843">
        <ele>369.2923</ele>
        <time>2021-07-12T11:51:19Z</time>
      </trkpt>
      <trkpt lat="37.23465" lon="-7.84422">
        <ele>380.0072</ele>
        <time>2021-07-12T11:51:30Z</time>
      </trkpt>
      <trkpt lat="37.23391" lon="-7.84376">
        <ele>378.0407</ele>
        <time>2021-07-12T11:51:41Z</time>
      </trkpt>
      <trkpt lat="37.23323" lon="-7.843">
        <ele>372.9078</ele>
        <time>2021-07-12T11:51:52Z</time>
      </trkpt>
      <trkpt lat="37.23257" lon="-7.84354">
        <ele>365.5577</ele>
        <time>2021-07-12T11:52:03Z</time>
      </trkpt>
      <trkpt lat="37.23238" lon="-7.8446">
        <ele>363.2911</ele>
        <time>2021-07-12T11:52:14Z</time>
      </trkpt>
      <trkpt lat="37.23213" lon="-7.84546">
        <ele>353.5476</ele>
        <time>2021-07-12T11:52:25Z</time>
      </trkpt>
      <trkpt lat="37.23189" lon="-7.8465">
        <ele>355.6097</ele>
        <time>2021-07-12T11:52:36Z</time>
      </trkpt>
      <trkpt lat="37.23156" lon="-7.84657">
        <ele>358.4841</ele>
        <time>2021-07-12T11:52:47Z</time>
      </trkpt>
      <trkpt lat="37.23118" lon="-7.84554">
        <ele>361.3161</ele>
        <time>2021-07-12T11:52:58Z</time>
      </trkpt>
      <trkpt lat="37.23043" lon="-7.84504">
        <ele>371.7033</ele>
        <time>2021-07-12T11:53:09Z</time>
      </trkpt>
      <trkpt lat="37.22949" lon="-7.84475">
        <ele>370.673</ele>
        <time>2021-07-12T11:53:20Z</time>
      </trkpt>
      <trkpt lat="37.22938" lon="-7.84471">
        <ele>366.2201</ele>
        <time>2021-07-12T11:53:31Z</time>
      </trkpt>
      <trkpt lat="37.22934" lon="-7.84474">
        <ele>365.4205</ele>
        <time>2021-07-12T11:54:21Z</time>
      </trkpt>
      <trkpt lat="37.22902" lon="-7.84529">
        <ele>368.7259</ele>
        <time>2021-07-12T11:54:32Z</time>
      </trkpt>
      <trkpt lat="37.2285" lon="-7.84583">
        <ele>371.6112</ele>
        <time>2021-07-12T11:54:43Z</time>
      </trkpt>
      <trkpt lat="37.2281" lon="-7.84552">
        <ele>362.8915</ele>
        <time>2021-07-12T11:54:54Z</time>
      </trkpt>
      <trkpt lat="37.22769" lon="-7.8445">
        <ele>350.9882</ele>
        <time>2021-07-12T11:55:05Z</time>
      </trkpt>
      <trkpt lat="37.2269" lon="-7.84382">
        <ele>341.6961</ele>
        <time>2021-07-12T11:55:16Z</time>
      </trkpt>
      <trkpt lat="37.22705" lon="-7.84356">
        <ele>334.706</ele>
        <time>2021-07-12T11:55:27Z</time>
      </trkpt>
      <trkpt lat="37.22721" lon="-7.84307">
        <ele>325.8641</ele>
        <time>2021-07-12T11:55:38Z</time>
      </trkpt>
      <trkpt lat="37.22651" lon="-7.84239">
        <ele>313.9431</ele>
        <time>2021-07-12T11:55:49Z</time>
      </trkpt>
      <trkpt lat="37.22646" lon="-7.8412">
        <ele>310.6007</ele>
        <time>2021-07-12T11:56:00Z</time>
      </trkpt>
      <trkpt lat="37.22586" lon="-7.84076">
        <ele>317.0496</ele>
        <time>2021-07-12T11:56:11Z</time>
      </trkpt>
      <trkpt lat="37.22513" lon="-7.83986">
        <ele>319.9505</ele>
        <time>2021-07-12T11:56:22Z</time>
      </trkpt>
      <trkpt lat="37.22451" lon="-7.83917">
        <ele>312.7603</ele>
        <time>2021-07-12T11:56:33Z</time>
      </trkpt>
      <trkpt lat="37.22397" lon="-7.83828">
        <ele>311.772</ele>
        <time>2021-07-12T11:56:44Z</time>
      </trkpt>
      <trkpt lat="37.22351" lon="-7.83681">
        <ele>309.3028</ele>
        <time>2021-07-12T11:56:55Z</time>
      </trkpt>
      <trkpt lat="37.22375" lon="-7.83509">
        <ele>306.2129</ele>
        <time>2021-07-12T11:57:06Z</time>
      </trkpt>
      <trkpt lat="37.2237" lon="-7.83429">
        <ele>307.6091</ele>
        <time>2021-07-12T11:57:17Z</time>
      </trkpt>
      <trkpt lat="37.22282" lon="-7.83398">
        <ele>321.1964</ele>
        <time>2021-07-12T11:57:28Z</time>
      </trkpt>
      <trkpt lat="37.22212" lon="-7.83343">
        <ele>335.0323</ele>
        <time>2021-07-12T11:57:39Z</time>
      </trkpt>
      <trkpt lat="37.22174" lon="-7.8332">
        <ele>339.7125</ele>
        <time>2021-07-12T11:57:50Z</time>
      </trkpt>
      <trkpt lat="37.22159" lon="-7.83226">
        <ele>321.8978</ele>
        <time>2021-07-12T11:58:01Z</time>
      </trkpt>
      <trkpt lat="37.22151" lon="-7.83123">
        <ele>310.2171</ele>
        <time>2021-07-12T11:58:12Z</time>
      </trkpt>
      <trkpt lat="37.22073" lon="-7.83016">
        <ele>321.8196</ele>
        <time>2021-07-12T11:58:23Z</time>
      </trkpt>
      <trkpt lat="37.22032" lon="-7.83031">
        <ele>307.1652</ele>
        <time>2021-07-12T11:58:34Z</time>
      </trkpt>
      <trkpt lat="37.21951" lon="-7.82962">
        <ele>338.4643</ele>
        <time>2021-07-12T11:58:45Z</time>
      </trkpt>
      <trkpt lat="37.21899" lon="-7.82923">
        <ele>341.763</ele>
        <time>2021-07-12T11:58:56Z</time>
      </trkpt>
      <trkpt lat="37.21821" lon="-7.82871">
        <ele>356.7219</ele>
        <time>2021-07-12T11:59:07Z</time>
      </trkpt>
      <trkpt lat="37.21788" lon="-7.82856">
        <ele>366.4488</ele>
        <time>2021-07-12T11:59:18Z</time>
      </trkpt>
      <trkpt lat="37.21811" lon="-7.82925">
        <ele>367.3785</ele>
        <time>2021-07-12T11:59:29Z</time>
      </trkpt>
      <trkpt lat="37.21745" lon="-7.82931">
        <ele>374.3309</ele>
        <time>2021-07-12T11:59:40Z</time>
      </trkpt>
      <trkpt lat="37.21722" lon="-7.82991">
        <ele>372.1146</ele>
        <time>2021-07-12T11:59:51Z</time>
      </trkpt>
      <trkpt lat="37.21622" lon="-7.82963">
        <ele>373.3456</ele>
        <time>2021-07-12T12:00:02Z</time>
      </trkpt>
      <trkpt lat="37.2157" lon="-7.83039">
        <ele>379.3839</ele>
        <time>2021-07-12T12:00:13Z</time>
      </trkpt>
      <trkpt lat="37.21514" lon="-7.83119">
        <ele>399.4612</ele>
        <time>2021-07-12T12:00:24Z</time>
      </trkpt>
      <trkpt lat="37.21465" lon="-7.83187">
        <ele>415.0884</ele>
        <time>2021-07-12T12:00:35Z</time>
      </trkpt>
      <trkpt lat="37.21441" lon="-7.83294">
        <ele>427.952</ele>
        <time>2021-07-12T12:00:46Z</time>
      </trkpt>
      <trkpt lat="37.21423" lon="-7.83357">
        <ele>434.8106</ele>
        <time>2021-07-12T12:00:57Z</time>
      </trkpt>
      <trkpt lat="37.21386" lon="-7.83399">
        <ele>444.5009</ele>
        <time>2021-07-12T12:01:08Z</time>
      </trkpt>
      <trkpt lat="37.21375" lon="-7.8348">
        <ele>451.9881</ele>
        <time>2021-07-12T12:01:19Z</time>
      </trkpt>
      <trkpt lat="37.21315" lon="-7.83424">
        <ele>462.6916</ele>
        <time>2021-07-12T12:01:30Z</time>
      </trkpt>
      <trkpt lat="37.2123" lon="-7.83452">
        <ele>467.6339</ele>
        <time>2021-07-12T12:01:41Z</time>
      </trkpt>
      <trkpt lat="37.21157" lon="-7.83497">
        <ele>470.0057</ele>
        <time>2021-07-12T12:01:52Z</time>
      </trkpt>
      <trkpt lat="37.21166" lon="-7.83622">
        <ele>468.1421</ele>
        <time>2021-07-12T12:02:03Z</time>
      </trkpt>
      <trkpt lat="37.21111" lon="-7.83731">
        <ele>463.2842</ele>
        <time>2021-07-12T12:02:14Z</time>
      </trkpt>
      <trkpt lat="37.21054" lon="-7.83843">
        <ele>458.8458</ele>
        <time>2021-07-12T12:02:25Z</time>
      </trkpt>
      <trkpt lat="37.20989" lon="-7.83923">
        <ele>457.629</ele>
        <time>2021-07-12T12:02:36Z</time>
      </trkpt>
      <trkpt lat="37.2102" lon="-7.8407">
        <ele>461.8767</ele>
        <time>2021-07-12T12:02:47Z</time>
      </trkpt>
      <trkpt lat="37.20969" lon="-7.84211">
        <ele>475.6101</ele>
        <time>2021-07-12T12:02:58Z</time>
      </trkpt>
      <trkpt lat="37.20945" lon="-7.8434">
        <ele>468.7811</ele>
        <time>2021-07-12T12:03:09Z</time>
      </trkpt>
      <trkpt lat="37.20891" lon="-7.84421">
        <ele>445.5168</ele>
        <time>2021-07-12T12:03:20Z</time>
      </trkpt>
      <trkpt lat="37.20791" lon="-7.84447">
        <ele>419.3569</ele>
        <time>2021-07-12T12:03:31Z</time>
      </trkpt>
      <trkpt lat="37.20728" lon="-7.84604">
        <ele>409.6653</ele>
        <time>2021-07-12T12:03:42Z</time>
      </trkpt>
      <trkpt lat="37.20681" lon="-7.84763">
        <ele>432.55</ele>
        <time>2021-07-12T12:03:53Z</time>
      </trkpt>
      <trkpt lat="37.20584" lon="-7.84756">
        <ele>425.7239</ele>
        <time>2021-07-12T12:04:04Z</time>
      </trkpt>
      <trkpt lat="37.20486" lon="-7.84787">
        <ele>407.9251</ele>
        <time>2021-07-12T12:04:15Z</time>
      </trkpt>
      <trkpt lat="37.20432" lon="-7.84884">
        <ele>398.6861</ele>
        <time>2021-07-12T12:04:26Z</time>
      </trkpt>
      <trkpt lat="37.2036" lon="-7.84989">
        <ele>404.4887</ele>
        <time>2021-07-12T12:04:37Z</time>
      </trkpt>
      <trkpt lat="37.20266" lon="-7.85117">
        <ele>405.3821</ele>
        <time>2021-07-12T12:04:48Z</time>
      </trkpt>
      <trkpt lat="37.2023" lon="-7.85162">
        <ele>408.5079</ele>
        <time>2021-07-12T12:04:59Z</time>
      </trkpt>
      <trkpt lat="37.2026" lon="-7.85075">
        <ele>413.8397</ele>
        <time>2021-07-12T12:05:10Z</time>
      </trkpt>
      <trkpt lat="37.20245" lon="-7.85013">
        <ele>421.3396</ele>
        <time>2021-07-12T12:05:21Z</time>
      </trkpt>
      <trkpt lat="37.20175" lon="-7.84962">
        <ele>440.1706</ele>
        <time>2021-07-12T12:05:32Z</time>
      </trkpt>
      <trkpt lat="37.20119" lon="-7.84912">
        <ele>447.8577</ele>
        <time>2021-07-12T12:05:43Z</time>
      </trkpt>
      <trkpt lat="37.20028" lon="-7.84899">
        <ele>451.0184</ele>
        <time>2021-07-12T12:05:54Z</time>
      </trkpt>
      <trkpt lat="37.19981" lon="-7.84825">
        <ele>453.923</ele>
        <time>2021-07-12T12:06:05Z</time>
      </trkpt>
      <trkpt lat="37.19873" lon="-7.8478">
        <ele>452.0449</ele>
        <time>2021-07-12T12:06:16Z</time>
      </trkpt>
      <trkpt lat="37.19859" lon="-7.84753">
        <ele>454.0905</ele>
        <time>2021-07-12T12:06:27Z</time>
      </trkpt>
      <trkpt lat="37.19858" lon="-7.84747">
        <ele>454.7847</ele>
        <time>2021-07-12T12:06:38Z</time>
      </trkpt>
      <trkpt lat="37.19861" lon="-7.84751">
        <ele>455.0656</ele>
        <time>2021-07-12T12:07:01Z</time>
      </trkpt>
      <trkpt lat="37.19857" lon="-7.84753">
        <ele>455.0267</ele>
        <time>2021-07-12T12:07:13Z</time>
      </trkpt>
      <trkpt lat="37.19853" lon="-7.84748">
        <ele>453.7001</ele>
        <time>2021-07-12T12:07:24Z</time>
      </trkpt>
      <trkpt lat="37.19856" lon="-7.8475">
        <ele>452.16</ele>
        <time>2021-07-12T12:07:57Z</time>
      </trkpt>
      <trkpt lat="37.1986" lon="-7.84748">
        <ele>455.1861</ele>
        <time>2021-07-12T12:08:09Z</time>
      </trkpt>
      <trkpt lat="37.19861" lon="-7.84747">
        <ele>454.4598</ele>
        <time>2021-07-12T12:08:36Z</time>
      </trkpt>
      <trkpt lat="37.19858" lon="-7.8475">
        <ele>455.5238</ele>
        <time>2021-07-12T12:08:47Z</time>
      </trkpt>
      <trkpt lat="37.1986" lon="-7.84746">
        <ele>454.4234</ele>
        <time>2021-07-12T12:09:19Z</time>
      </trkpt>
      <trkpt lat="37.19865" lon="-7.8474">
        <ele>455.2306</ele>
        <time>2021-07-12T12:09:44Z</time>
      </trkpt>
      <trkpt lat="37.19853" lon="-7.84662">
        <ele>452.8284</ele>
        <time>2021-07-12T12:09:55Z</time>
      </trkpt>
      <trkpt lat="37.19878" lon="-7.84566">
        <ele>453.0567</ele>
        <time>2021-07-12T12:10:06Z</time>
      </trkpt>
      <trkpt lat="37.19893" lon="-7.84472">
        <ele>442.381</ele>
        <time>2021-07-12T12:10:17Z</time>
      </trkpt>
      <trkpt lat="37.19982" lon="-7.84403">
        <ele>438.376</ele>
        <time>2021-07-12T12:10:28Z</time>
      </trkpt>
      <trkpt lat="37.19991" lon="-7.84303">
        <ele>443.2746</ele>
        <time>2021-07-12T12:10:39Z</time>
      </trkpt>
      <trkpt lat="37.19989" lon="-7.84216">
        <ele>427.7319</ele>
        <time>2021-07-12T12:10:50Z</time>
      </trkpt>
      <trkpt lat="37.19976" lon="-7.84131">
        <ele>425.2552</ele>
        <time>2021-07-12T12:11:01Z</time>
      </trkpt>
      <trkpt lat="37.19944" lon="-7.84021">
        <ele>438.5494</ele>
        <time>2021-07-12T12:11:12Z</time>
      </trkpt>
      <trkpt lat="37.19998" lon="-7.83916">
        <ele>447.5321</ele>
        <time>2021-07-12T12:11:23Z</time>
      </trkpt>
      <trkpt lat="37.20037" lon="-7.83792">
        <ele>462.4715</ele>
        <time>2021-07-12T12:11:34Z</time>
      </trkpt>
      <trkpt lat="37.20008" lon="-7.83667">
        <ele>446.5756</ele>
        <time>2021-07-12T12:11:45Z</time>
      </trkpt>
      <trkpt lat="37.20042" lon="-7.83541">
        <ele>448.2746</ele>
        <time>2021-07-12T12:11:56Z</time>
      </trkpt>
      <trkpt lat="37.20086" lon="-7.83439">
        <ele>448.6483</ele>
        <time>2021-07-12T12:12:07Z</time>
      </trkpt>
      <trkpt lat="37.20146" lon="-7.83364">
        <ele>460.4832</ele>
        <time>2021-07-12T12:12:18Z</time>
      </trkpt>
      <trkpt lat="37.20146" lon="-7.83219">
        <ele>453.2958</ele>
        <time>2021-07-12T12:12:29Z</time>
      </trkpt>
      <trkpt lat="37.20152" lon="-7.83097">
        <ele>446.9242</ele>
        <time>2021-07-12T12:12:40Z</time>
      </trkpt>
      <trkpt lat="37.20137" lon="-7.8296">
        <ele>442.9228</ele>
        <time>2021-07-12T12:12:51Z</time>
      </trkpt>
      <trkpt lat="37.20113" lon="-7.82846">
        <ele>456.3538</ele>
        <time>2021-07-12T12:13:02Z</time>
      </trkpt>
      <trkpt lat="37.20167" lon="-7.82801">
        <ele>461.8144</ele>
        <time>2021-07-12T12:13:13Z</time>
      </trkpt>
      <trkpt lat="37.20186" lon="-7.82758">
        <ele>470.1833</ele>
        <time>2021-07-12T12:13:24Z</time>
      </trkpt>
      <trkpt lat="37.20273" lon="-7.82799">
        <ele>482.5268</ele>
        <time>2021-07-12T12:13:35Z</time>
      </trkpt>
      <trkpt lat="37.20296" lon="-7.827">
        <ele>473.6544</ele>
        <time>2021-07-12T12:13:46Z</time>
      </trkpt>
      <trkpt lat="37.20337" lon="-7.82591">
        <ele>487.0153</ele>
        <time>2021-07-12T12:13:57Z</time>
      </trkpt>
      <trkpt lat="37.20386" lon="-7.82516">
        <ele>480.8469</ele>
        <time>2021-07-12T12:14:08Z</time>
      </trkpt>
      <trkpt lat="37.20431" lon="-7.82458">
        <ele>474.5741</ele>
        <time>2021-07-12T12:14:19Z</time>
      </trkpt>
      <trkpt lat="37.20444" lon="-7.82358">
        <ele>470.9044</ele>
        <time>2021-07-12T12:14:30Z</time>
      </trkpt>
      <trkpt lat="37.20405" lon="-7.82253">
        <ele>468.1348</ele>
        <time>2021-07-12T12:14:41Z</time>
      </trkpt>
      <trkpt lat="37.20373" lon="-7.82139">
        <ele>455.1168</ele>
        <time>2021-07-12T12:14:52Z</time>
      </trkpt>
      <trkpt lat="37.20395" lon="-7.82043">
        <ele>461.9209</ele>
        <time>2021-07-12T12:15:03Z</time>
      </trkpt>
      <trkpt lat="37.20441" lon="-7.81974">
        <ele>478.6595</ele>
        <time>2021-07-12T12:15:14Z</time>
      </trkpt>
      <trkpt lat="37.20455" lon="-7.8186">
        <ele>500.3327</ele>
        <time>2021-07-12T12:15:25Z</time>
      </trkpt>
      <trkpt lat="37.20465" lon="-7.81838">
        <ele>500.9112</ele>
        <time>2021-07-12T12:15:36Z</time>
      </trkpt>
      <trkpt lat="37.20465" lon="-7.81833">
        <ele>501.1229</ele>
        <time>2021-07-12T12:15:49Z</time>
      </trkpt>
      <trkpt lat="37.2042" lon="-7.81779">
        <ele>494.0083</ele>
        <time>2021-07-12T12:16:00Z</time>
      </trkpt>
      <trkpt lat="37.20385" lon="-7.81676">
        <ele>480.099</ele>
        <time>2021-07-12T12:16:11Z</time>
      </trkpt>
      <trkpt lat="37.20362" lon="-7.81564">
        <ele>475.6838</ele>
        <time>2021-07-12T12:16:22Z</time>
      </trkpt>
      <trkpt lat="37.20367" lon="-7.81506">
        <ele>470.156</ele>
        <time>2021-07-12T12:16:33Z</time>
      </trkpt>
      <trkpt lat="37.20337" lon="-7.81522">
        <ele>465.0577</ele>
        <time>2021-07-12T12:16:44Z</time>
      </trkpt>
      <trkpt lat="37.20287" lon="-7.81544">
        <ele>460.7189</ele>
        <time>2021-07-12T12:16:55Z</time>
      </trkpt>
      <trkpt lat="37.2022" lon="-7.81513">
        <ele>451.1425</ele>
        <time>2021-07-12T12:17:06Z</time>
      </trkpt>
      <trkpt lat="37.20195" lon="-7.81552">
        <ele>442.7619</ele>
        <time>2021-07-12T12:17:17Z</time>
      </trkpt>
      <trkpt lat="37.20177" lon="-7.8162">
        <ele>439.922</ele>
        <time>2021-07-12T12:17:28Z</time>
      </trkpt>
      <trkpt lat="37.20143" lon="-7.81718">
        <ele>425.8235</ele>
        <time>2021-07-12T12:17:39Z</time>
      </trkpt>
      <trkpt lat="37.20117" lon="-7.81778">
        <ele>412.3137</ele>
        <time>2021-07-12T12:17:50Z</time>
      </trkpt>
      <trkpt lat="37.20078" lon="-7.81809">
        <ele>399.7415</ele>
        <time>2021-07-12T12:18:01Z</time>
      </trkpt>
      <trkpt lat="37.20028" lon="-7.81836">
        <ele>386.7115</ele>
        <time>2021-07-12T12:18:12Z</time>
      </trkpt>
      <trkpt lat="37.19994" lon="-7.81827">
        <ele>378.9945</ele>
        <time>2021-07-12T12:18:23Z</time>
      </trkpt>
      <trkpt lat="37.19992" lon="-7.81828">
        <ele>378.1695</ele>
        <time>2021-07-12T12:19:22Z</time>
      </trkpt>
      <trkpt lat="37.19976" lon="-7.81846">
        <ele>372.0153</ele>
        <time>2021-07-12T12:19:33Z</time>
      </trkpt>
      <trkpt lat="37.19971" lon="-7.81819">
        <ele>368.3802</ele>
        <time>2021-07-12T12:19:44Z</time>
      </trkpt>
      <trkpt lat="37.19993" lon="-7.81782">
        <ele>366.4009</ele>
        <time>2021-07-12T12:19:55Z</time>
      </trkpt>
      <trkpt lat="37.19997" lon="-7.81765">
        <ele>363.6406</ele>
        <time>2021-07-12T12:20:06Z</time>
      </trkpt>
      <trkpt lat="37.20024" lon="-7.81722">
        <ele>358.6157</ele>
        <time>2021-07-12T12:20:17Z</time>
      </trkpt>
      <trkpt lat="37.20047" lon="-7.81644">
        <ele>366.2075</ele>
        <time>2021-07-12T12:20:28Z</time>
      </trkpt>
      <trkpt lat="37.20003" lon="-7.81666">
        <ele>362.7707</ele>
        <time>2021-07-12T12:20:39Z</time>
      </trkpt>
      <trkpt lat="37.19941" lon="-7.81657">
        <ele>336.7685</ele>
        <time>2021-07-12T12:20:50Z</time>
      </trkpt>
      <trkpt lat="37.19896" lon="-7.81604">
        <ele>338.0907</ele>
        <time>2021-07-12T12:21:01Z</time>
      </trkpt>
      <trkpt lat="37.19856" lon="-7.81642">
        <ele>335.3259</ele>
        <time>2021-07-12T12:21:12Z</time>
      </trkpt>
      <trkpt lat="37.1976" lon="-7.81616">
        <ele>336.9559</ele>
        <time>2021-07-12T12:21:23Z</time>
      </trkpt>
      <trkpt lat="37.1976" lon="-7.81524">
        <ele>348.6933</ele>
        <time>2021-07-12T12:21:34Z</time>
      </trkpt>
      <trkpt lat="37.19747" lon="-7.81462">
        <ele>357.0536</ele>
        <time>2021-07-12T12:21:45Z</time>
      </trkpt>
      <trkpt lat="37.19833" lon="-7.81435">
        <ele>375.0663</ele>
        <time>2021-07-12T12:21:56Z</time>
      </trkpt>
      <trkpt lat="37.19861" lon="-7.81359">
        <ele>384.4153</ele>
        <time>2021-07-12T12:22:07Z</time>
      </trkpt>
      <trkpt lat="37.19937" lon="-7.8129">
        <ele>395.6511</ele>
        <time>2021-07-12T12:22:18Z</time>
      </trkpt>
      <trkpt lat="37.19934" lon="-7.81219">
        <ele>400.522</ele>
        <time>2021-07-12T12:22:29Z</time>
      </trkpt>
      <trkpt lat="37.19887" lon="-7.81154">
        <ele>405.9616</ele>
        <time>2021-07-12T12:22:40Z</time>
      </trkpt>
      <trkpt lat="37.19864" lon="-7.81075">
        <ele>415.1843</ele>
        <time>2021-07-12T12:22:51Z</time>
      </trkpt>
      <trkpt lat="37.19855" lon="-7.81074">
        <ele>411.4048</ele>
        <time>2021-07-12T12:23:02Z</time>
      </trkpt>
      <trkpt lat="37.19851" lon="-7.81072">
        <ele>411.4779</ele>
        <time>2021-07-12T12:23:35Z</time>
      </trkpt>
      <trkpt lat="37.19854" lon="-7.81076">
        <ele>410.4077</ele>
        <time>2021-07-12T12:24:04Z</time>
      </trkpt>
      <trkpt lat="37.19862" lon="-7.81074">
        <ele>412.5433</ele>
        <time>2021-07-12T12:24:15Z</time>
      </trkpt>
      <trkpt lat="37.19857" lon="-7.81075">
        <ele>412.3242</ele>
        <time>2021-07-12T12:24:26Z</time>
      </trkpt>
      <trkpt lat="37.19854" lon="-7.81073">
        <ele>412.3001</ele>
        <time>2021-07-12T12:25:25Z</time>
      </trkpt>
      <trkpt lat="37.1986" lon="-7.81073">
        <ele>413.1984</ele>
        <time>2021-07-12T12:26:14Z</time>
      </trkpt>
      <trkpt lat="37.19917" lon="-7.81063">
        <ele>416.5064</ele>
        <time>2021-07-12T12:26:25Z</time>
      </trkpt>
      <trkpt lat="37.19974" lon="-7.81">
        <ele>411.3584</ele>
        <time>2021-07-12T12:26:36Z</time>
      </trkpt>
      <trkpt lat="37.20051" lon="-7.80986">
        <ele>415.2392</ele>
        <time>2021-07-12T12:26:47Z</time>
      </trkpt>
      <trkpt lat="37.20063" lon="-7.80976">
        <ele>416.5863</ele>
        <time>2021-07-12T12:26:58Z</time>
      </trkpt>
      <trkpt lat="37.2003" lon="-7.8089">
        <ele>417.0927</ele>
        <time>2021-07-12T12:27:09Z</time>
      </trkpt>
      <trkpt lat="37.20054" lon="-7.80796">
        <ele>410.0197</ele>
        <time>2021-07-12T12:27:20Z</time>
      </trkpt>
      <trkpt lat="37.20023" lon="-7.80741">
        <ele>402.1595</ele>
        <time>2021-07-12T12:27:31Z</time>
      </trkpt>
      <trkpt lat="37.19968" lon="-7.80682">
        <ele>393.6569</ele>
        <time>2021-07-12T12:27:42Z</time>
      </trkpt>
      <trkpt lat="37.19846" lon="-7.80546">
        <ele>392.5748</ele>
        <time>2021-07-12T12:27:53Z</time>
      </trkpt>
      <trkpt lat="37.19801" lon="-7.80444">
        <ele>372.7289</ele>
        <time>2021-07-12T12:28:04Z</time>
      </trkpt>
      <trkpt lat="37.19872" lon="-7.80448">
        <ele>371.3007</ele>
        <time>2021-07-12T12:28:15Z</time>
      </trkpt>
      <trkpt lat="37.19952" lon="-7.80511">
        <ele>364.0175</ele>
        <time>2021-07-12T12:28:26Z</time>
      </trkpt>
      <trkpt lat="37.19985" lon="-7.80448">
        <ele>365.5126</ele>
        <time>2021-07-12T12:28:37Z</time>
      </trkpt>
      <trkpt lat="37.20055" lon="-7.80423">
        <ele>364.9211</ele>
        <time>2021-07-12T12:28:48Z</time>
      </trkpt>
      <trkpt lat="37.20122" lon="-7.80446">
        <ele>362.6579</ele>
        <time>2021-07-12T12:28:59Z</time>
      </trkpt>
      <trkpt lat="37.20183" lon="-7.80478">
        <ele>353.8477</ele>
        <time>2021-07-12T12:29:10Z</time>
      </trkpt>
      <trkpt lat="37.20193" lon="-7.80423">
        <ele>351.8225</ele>
        <time>2021-07-12T12:29:21Z</time>
      </trkpt>
      <trkpt lat="37.20215" lon="-7.80333">
        <ele>366.2088</ele>
        <time>2021-07-12T12:29:32Z</time>
      </trkpt>
      <trkpt lat="37.20184" lon="-7.80287">
        <ele>369.0591</ele>
        <time>2021-07-12T12:29:43Z</time>
      </trkpt>
      <trkpt lat="37.2013" lon="-7.8025">
        <ele>367.0275</ele>
        <time>2021-07-12T12:29:54Z</time>
      </trkpt>
      <trkpt lat="37.20086" lon="-7.802">
        <ele>371.666</ele>
        <time>2021-07-12T12:30:05Z</time>
      </trkpt>
      <trkpt lat="37.20034" lon="-7.80161">
        <ele>380.5327</ele>
        <time>2021-07-12T12:30:16Z</time>
      </trkpt>
      <trkpt lat="37.20072" lon="-7.8008">
        <ele>392.8366</ele>
        <time>2021-07-12T12:30:27Z</time>
      </trkpt>
      <trkpt lat="37.20049" lon="-7.80056">
        <ele>395.4415</ele>
        <time>2021-07-12T12:30:39Z</time>
      </trkpt>
      <trkpt lat="37.20019" lon="-7.8">
        <ele>386.4558</ele>
        <time>2021-07-12T12:30:50Z</time>
      </trkpt>
      <trkpt lat="37.20094" lon="-7.79977">
        <ele>381.0941</ele>
        <time>2021-07-12T12:31:01Z</time>
      </trkpt>
      <trkpt lat="37.20138" lon="-7.79975">
        <ele>391.2469</ele>
        <time>2021-07-12T12:31:12Z</time>
      </trkpt>
      <trkpt lat="37.20103" lon="-7.79907">
        <ele>382.6133</ele>
        <time>2021-07-12T12:31:23Z</time>
      </trkpt>
      <trkpt lat="37.20183" lon="-7.79842">
        <ele>374.4868</ele>
        <time>2021-07-12T12:31:34Z</time>
      </trkpt>
      <trkpt lat="37.20249" lon="-7.798">
        <ele>376.2211</ele>
        <time>2021-07-12T12:31:45Z</time>
      </trkpt>
      <trkpt lat="37.20279" lon="-7.79739">
        <ele>372.9822</ele>
        <time>2021-07-12T12:31:56Z</time>
      </trkpt>
      <trkpt lat="37.20152" lon="-7.79699">
        <ele>374.1427</ele>
        <time>2021-07-12T12:32:07Z</time>
      </trkpt>
      <trkpt lat="37.20076" lon="-7.79659">
        <ele>369.3844</ele>
        <time>2021-07-12T12:32:18Z</time>
      </trkpt>
      <trkpt lat="37.20026" lon="-7.79632">
        <ele>366.3628</ele>
        <time>2021-07-12T12:32:29Z</time>
      </trkpt>
      <trkpt lat="37.19962" lon="-7.79635">
        <ele>365.7597</ele>
        <time>2021-07-12T12:32:40Z</time>
      </trkpt>
      <trkpt lat="37.19933" lon="-7.79562">
        <ele>365.0326</ele>
        <time>2021-07-12T12:32:51Z</time>
      </trkpt>
      <trkpt lat="37.19901" lon="-7.79497">
        <ele>368.3357</ele>
        <time>2021-07-12T12:33:02Z</time>
      </trkpt>
      <trkpt lat="37.19918" lon="-7.79393">
        <ele>365.8321</ele>
        <time>2021-07-12T12:33:13Z</time>
      </trkpt>
      <trkpt lat="37.19972" lon="-7.79325">
        <ele>366.7877</ele>
        <time>2021-07-12T12:33:24Z</time>
      </trkpt>
      <trkpt lat="37.19903" lon="-7.79303">
        <ele>373.9758</ele>
        <time>2021-07-12T12:33:35Z</time>
      </trkpt>
      <trkpt lat="37.19956" lon="-7.79269">
        <ele>380.8669</ele>
        <time>2021-07-12T12:33:46Z</time>
      </trkpt>
      <trkpt lat="37.20086" lon="-7.79233">
        <ele>376.8664</ele>
        <time>2021-07-12T12:33:57Z</time>
      </trkpt>
      <trkpt lat="37.20108" lon="-7.79226">
        <ele>407.2676</ele>
        <time>2021-07-12T12:34:08Z</time>
      </trkpt>
      <trkpt lat="37.20124" lon="-7.79163">
        <ele>429.3028</ele>
        <time>2021-07-12T12:34:19Z</time>
      </trkpt>
      <trkpt lat="37.20039" lon="-7.79104">
        <ele>420.5641</ele>
        <time>2021-07-12T12:34:30Z</time>
      </trkpt>
      <trkpt lat="37.19969" lon="-7.79035">
        <ele>412.0298</ele>
        <time>2021-07-12T12:34:41Z</time>
      </trkpt>
      <trkpt lat="37.19891" lon="-7.78989">
        <ele>394.1593</ele>
        <time>2021-07-12T12:34:52Z</time>
      </trkpt>
      <trkpt lat="37.19803" lon="-7.78946">
        <ele>376.9156</ele>
        <time>2021-07-12T12:35:03Z</time>
      </trkpt>
      <trkpt lat="37.19708" lon="-7.78865">
        <ele>368.5778</ele>
        <time>2021-07-12T12:35:14Z</time>
      </trkpt>
      <trkpt lat="37.19611" lon="-7.78833">
        <ele>370.3453</ele>
        <time>2021-07-12T12:35:25Z</time>
      </trkpt>
      <trkpt lat="37.19519" lon="-7.78739">
        <ele>371.1717</ele>
        <time>2021-07-12T12:35:36Z</time>
      </trkpt>
      <trkpt lat="37.19462" lon="-7.78666">
        <ele>357.1317</ele>
        <time>2021-07-12T12:35:47Z</time>
      </trkpt>
      <trkpt lat="37.19406" lon="-7.78597">
        <ele>326.9165</ele>
        <time>2021-07-12T12:35:58Z</time>
      </trkpt>
      <trkpt lat="37.19324" lon="-7.78538">
        <ele>280.7486</ele>
        <time>2021-07-12T12:36:09Z</time>
      </trkpt>
      <trkpt lat="37.19231" lon="-7.78387">
        <ele>298.9988</ele>
        <time>2021-07-12T12:36:20Z</time>
      </trkpt>
      <trkpt lat="37.19199" lon="-7.78223">
        <ele>303.8715</ele>
        <time>2021-07-12T12:36:31Z</time>
      </trkpt>
      <trkpt lat="37.19189" lon="-7.78052">
        <ele>310.9002</ele>
        <time>2021-07-12T12:36:42Z</time>
      </trkpt>
      <trkpt lat="37.19166" lon="-7.77963">
        <ele>310.6132</ele>
        <time>2021-07-12T12:36:53Z</time>
      </trkpt>
      <trkpt lat="37.19205" lon="-7.7782">
        <ele>318.4117</ele>
        <time>2021-07-12T12:37:04Z</time>
      </trkpt>
      <trkpt lat="37.19221" lon="-7.77704">
        <ele>306.3305</ele>
        <time>2021-07-12T12:37:15Z</time>
      </trkpt>
      <trkpt lat="37.19154" lon="-7.77538">
        <ele>288.221</ele>
        <time>2021-07-12T12:37:26Z</time>
      </trkpt>
      <trkpt lat="37.19145" lon="-7.7737">
        <ele>303.404</ele>
        <time>2021-07-12T12:37:37Z</time>
      </trkpt>
      <trkpt lat="37.19202" lon="-7.7728">
        <ele>301.3557</ele>
        <time>2021-07-12T12:37:48Z</time>
      </trkpt>
      <trkpt lat="37.19157" lon="-7.77172">
        <ele>287.0759</ele>
        <time>2021-07-12T12:37:59Z</time>
      </trkpt>
      <trkpt lat="37.19097" lon="-7.77075">
        <ele>273.4263</ele>
        <time>2021-07-12T12:38:10Z</time>
      </trkpt>
      <trkpt lat="37.19085" lon="-7.76928">
        <ele>247.6881</ele>
        <time>2021-07-12T12:38:21Z</time>
      </trkpt>
      <trkpt lat="37.19059" lon="-7.76808">
        <ele>247.9891</ele>
        <time>2021-07-12T12:38:32Z</time>
      </trkpt>
      <trkpt lat="37.18996" lon="-7.76845">
        <ele>257.6263</ele>
        <time>2021-07-12T12:38:43Z</time>
      </trkpt>
      <trkpt lat="37.18942" lon="-7.76701">
        <ele>257.5201</ele>
        <time>2021-07-12T12:38:54Z</time>
      </trkpt>
      <trkpt lat="37.18872" lon="-7.76611">
        <ele>251.4895</ele>
        <time>2021-07-12T12:39:05Z</time>
      </trkpt>
      <trkpt lat="37.18784" lon="-7.76633">
        <ele>250.4134</ele>
        <time>2021-07-12T12:39:16Z</time>
      </trkpt>
      <trkpt lat="37.18789" lon="-7.76632">
        <ele>250.5908</ele>
        <time>2021-07-12T12:39:31Z</time>
      </trkpt>
      <trkpt lat="37.18873" lon="-7.76608">
        <ele>245.7022</ele>
        <time>2021-07-12T12:39:42Z</time>
      </trkpt>
      <trkpt lat="37.18875" lon="-7.76597">
        <ele>243.8094</ele>
        <time>2021-07-12T12:39:53Z</time>
      </trkpt>
      <trkpt lat="37.18808" lon="-7.76553">
        <ele>220.1881</ele>
        <time>2021-07-12T12:40:04Z</time>
      </trkpt>
      <trkpt lat="37.18749" lon="-7.76465">
        <ele>208.76</ele>
        <time>2021-07-12T12:40:15Z</time>
      </trkpt>
      <trkpt lat="37.18726" lon="-7.76351">
        <ele>195.0819</ele>
        <time>2021-07-12T12:40:26Z</time>
      </trkpt>
      <trkpt lat="37.18695" lon="-7.76241">
        <ele>184.2183</ele>
        <time>2021-07-12T12:40:37Z</time>
      </trkpt>
      <trkpt lat="37.1868" lon="-7.76157">
        <ele>172.9361</ele>
        <time>2021-07-12T12:40:48Z</time>
      </trkpt>
      <trkpt lat="37.18609" lon="-7.76117">
        <ele>161.9862</ele>
        <time>2021-07-12T12:40:59Z</time>
      </trkpt>
      <trkpt lat="37.18565" lon="-7.7611">
        <ele>151.4529</ele>
        <time>2021-07-12T12:41:10Z</time>
      </trkpt>
      <trkpt lat="37.18608" lon="-7.76186">
        <ele>145.8555</ele>
        <time>2021-07-12T12:41:21Z</time>
      </trkpt>
      <trkpt lat="37.18536" lon="-7.76198">
        <ele>144.2005</ele>
        <time>2021-07-12T12:41:32Z</time>
      </trkpt>
      <trkpt lat="37.18548" lon="-7.76011">
        <ele>142.0222</ele>
        <time>2021-07-12T12:41:43Z</time>
      </trkpt>
      <trkpt lat="37.18514" lon="-7.75888">
        <ele>138.3763</ele>
        <time>2021-07-12T12:41:54Z</time>
      </trkpt>
      <trkpt lat="37.18482" lon="-7.75808">
        <ele>141.6735</ele>
        <time>2021-07-12T12:42:05Z</time>
      </trkpt>
      <trkpt lat="37.1855" lon="-7.75822">
        <ele>134.7468</ele>
        <time>2021-07-12T12:42:16Z</time>
      </trkpt>
      <trkpt lat="37.18645" lon="-7.75847">
        <ele>130.1785</ele>
        <time>2021-07-12T12:42:27Z</time>
      </trkpt>
      <trkpt lat="37.18721" lon="-7.75794">
        <ele>117.8729</ele>
        <time>2021-07-12T12:42:38Z</time>
      </trkpt>
      <trkpt lat="37.18781" lon="-7.75801">
        <ele>108.8909</ele>
        <time>2021-07-12T12:42:49Z</time>
      </trkpt>
      <trkpt lat="37.18767" lon="-7.7575">
        <ele>104.523</ele>
        <time>2021-07-12T12:43:00Z</time>
      </trkpt>
      <trkpt lat="37.18736" lon="-7.75683">
        <ele>102.8927</ele>
        <time>2021-07-12T12:43:11Z</time>
      </trkpt>
      <trkpt lat="37.18732" lon="-7.75674">
        <ele>104.4762</ele>
        <time>2021-07-12T12:43:22Z</time>
      </trkpt>
      <trkpt lat="37.18708" lon="-7.75696">
        <ele>115.5577</ele>
        <time>2021-07-12T12:43:33Z</time>
      </trkpt>
      <trkpt lat="37.18678" lon="-7.7576">
        <ele>111.2509</ele>
        <time>2021-07-12T12:43:44Z</time>
      </trkpt>
      <trkpt lat="37.18613" lon="-7.75745">
        <ele>108.2391</ele>
        <time>2021-07-12T12:43:55Z</time>
      </trkpt>
      <trkpt lat="37.18581" lon="-7.75682">
        <ele>96.07107</ele>
        <time>2021-07-12T12:44:06Z</time>
      </trkpt>
      <trkpt lat="37.18558" lon="-7.75615">
        <ele>105.9212</ele>
        <time>2021-07-12T12:44:17Z</time>
      </trkpt>
      <trkpt lat="37.1851" lon="-7.75585">
        <ele>106.4756</ele>
        <time>2021-07-12T12:44:28Z</time>
      </trkpt>
      <trkpt lat="37.18454" lon="-7.75576">
        <ele>107.1525</ele>
        <time>2021-07-12T12:44:39Z</time>
      </trkpt>
      <trkpt lat="37.18429" lon="-7.7559">
        <ele>107.2585</ele>
        <time>2021-07-12T12:44:50Z</time>
      </trkpt>
      <trkpt lat="37.18387" lon="-7.75595">
        <ele>109.1491</ele>
        <time>2021-07-12T12:45:01Z</time>
      </trkpt>
      <trkpt lat="37.18408" lon="-7.75589">
        <ele>107.7123</ele>
        <time>2021-07-12T12:45:12Z</time>
      </trkpt>
      <trkpt lat="37.18418" lon="-7.75587">
        <ele>106.3364</ele>
        <time>2021-07-12T12:45:26Z</time>
      </trkpt>
      <trkpt lat="37.18516" lon="-7.75514">
        <ele>109.6215</ele>
        <time>2021-07-12T12:45:37Z</time>
      </trkpt>
      <trkpt lat="37.18602" lon="-7.75621">
        <ele>113.2116</ele>
        <time>2021-07-12T12:45:48Z</time>
      </trkpt>
      <trkpt lat="37.18662" lon="-7.75512">
        <ele>121.3388</ele>
        <time>2021-07-12T12:45:59Z</time>
      </trkpt>
      <trkpt lat="37.18636" lon="-7.75338">
        <ele>132.4632</ele>
        <time>2021-07-12T12:46:10Z</time>
      </trkpt>
      <trkpt lat="37.18685" lon="-7.75174">
        <ele>137.4371</ele>
        <time>2021-07-12T12:46:21Z</time>
      </trkpt>
      <trkpt lat="37.18762" lon="-7.75073">
        <ele>141.6312</ele>
        <time>2021-07-12T12:46:32Z</time>
      </trkpt>
      <trkpt lat="37.18682" lon="-7.74999">
        <ele>139.2104</ele>
        <time>2021-07-12T12:46:43Z</time>
      </trkpt>
      <trkpt lat="37.18741" lon="-7.74881">
        <ele>143.5895</ele>
        <time>2021-07-12T12:46:54Z</time>
      </trkpt>
      <trkpt lat="37.18702" lon="-7.74711">
        <ele>129.0548</ele>
        <time>2021-07-12T12:47:05Z</time>
      </trkpt>
      <trkpt lat="37.18661" lon="-7.74551">
        <ele>111.3351</ele>
        <time>2021-07-12T12:47:16Z</time>
      </trkpt>
      <trkpt lat="37.18686" lon="-7.74485">
        <ele>100.3442</ele>
        <time>2021-07-12T12:47:27Z</time>
      </trkpt>
      <trkpt lat="37.18748" lon="-7.74453">
        <ele>99.04902</ele>
        <time>2021-07-12T12:47:38Z</time>
      </trkpt>
      <trkpt lat="37.18734" lon="-7.7446">
        <ele>97.48091</ele>
        <time>2021-07-12T12:47:49Z</time>
      </trkpt>
      <trkpt lat="37.1865" lon="-7.74437">
        <ele>105.3761</ele>
        <time>2021-07-12T12:48:00Z</time>
      </trkpt>
      <trkpt lat="37.1859" lon="-7.74287">
        <ele>107.2386</ele>
        <time>2021-07-12T12:48:11Z</time>
      </trkpt>
      <trkpt lat="37.1852" lon="-7.74137">
        <ele>106.5648</ele>
        <time>2021-07-12T12:48:22Z</time>
      </trkpt>
      <trkpt lat="37.18478" lon="-7.74159">
        <ele>109.8156</ele>
        <time>2021-07-12T12:48:33Z</time>
      </trkpt>
      <trkpt lat="37.18471" lon="-7.74165">
        <ele>110.9425</ele>
        <time>2021-07-12T12:48:44Z</time>
      </trkpt>
      <trkpt lat="37.18476" lon="-7.74159">
        <ele>111.7763</ele>
        <time>2021-07-12T12:49:01Z</time>
      </trkpt>
      <trkpt lat="37.18524" lon="-7.74141">
        <ele>107.3248</ele>
        <time>2021-07-12T12:49:12Z</time>
      </trkpt>
      <trkpt lat="37.18616" lon="-7.74315">
        <ele>108.3656</ele>
        <time>2021-07-12T12:49:23Z</time>
      </trkpt>
      <trkpt lat="37.18662" lon="-7.74471">
        <ele>102.1166</ele>
        <time>2021-07-12T12:49:34Z</time>
      </trkpt>
      <trkpt lat="37.1877" lon="-7.74451">
        <ele>97.83116</ele>
        <time>2021-07-12T12:49:45Z</time>
      </trkpt>
      <trkpt lat="37.18923" lon="-7.74489">
        <ele>111.4753</ele>
        <time>2021-07-12T12:49:56Z</time>
      </trkpt>
      <trkpt lat="37.19058" lon="-7.7451">
        <ele>120.9756</ele>
        <time>2021-07-12T12:50:07Z</time>
      </trkpt>
      <trkpt lat="37.19177" lon="-7.74547">
        <ele>128.7519</ele>
        <time>2021-07-12T12:50:18Z</time>
      </trkpt>
      <trkpt lat="37.19304" lon="-7.74615">
        <ele>146.4758</ele>
        <time>2021-07-12T12:50:29Z</time>
      </trkpt>
      <trkpt lat="37.19442" lon="-7.74661">
        <ele>163.2073</ele>
        <time>2021-07-12T12:50:40Z</time>
      </trkpt>
      <trkpt lat="37.1957" lon="-7.74611">
        <ele>183.2174</ele>
        <time>2021-07-12T12:50:51Z</time>
      </trkpt>
      <trkpt lat="37.19642" lon="-7.74471">
        <ele>186.8824</ele>
        <time>2021-07-12T12:51:02Z</time>
      </trkpt>
      <trkpt lat="37.19718" lon="-7.7439">
        <ele>176.1873</ele>
        <time>2021-07-12T12:51:13Z</time>
      </trkpt>
      <trkpt lat="37.19766" lon="-7.74336">
        <ele>180.7167</ele>
        <time>2021-07-12T12:51:24Z</time>
      </trkpt>
      <trkpt lat="37.19787" lon="-7.7435">
        <ele>175.5568</ele>
        <time>2021-07-12T12:51:35Z</time>
      </trkpt>
      <trkpt lat="37.19844" lon="-7.74465">
        <ele>165.5598</ele>
        <time>2021-07-12T12:51:46Z</time>
      </trkpt>
      <trkpt lat="37.19947" lon="-7.74648">
        <ele>174.9181</ele>
        <time>2021-07-12T12:51:57Z</time>
      </trkpt>
      <trkpt lat="37.20035" lon="-7.74796">
        <ele>171.7089</ele>
        <time>2021-07-12T12:52:08Z</time>
      </trkpt>
      <trkpt lat="37.20096" lon="-7.7491">
        <ele>157.0626</ele>
        <time>2021-07-12T12:52:19Z</time>
      </trkpt>
      <trkpt lat="37.20151" lon="-7.74972">
        <ele>153.4341</ele>
        <time>2021-07-12T12:52:30Z</time>
      </trkpt>
      <trkpt lat="37.20159" lon="-7.75124">
        <ele>158.0546</ele>
        <time>2021-07-12T12:52:41Z</time>
      </trkpt>
      <trkpt lat="37.20192" lon="-7.75283">
        <ele>164.1499</ele>
        <time>2021-07-12T12:52:52Z</time>
      </trkpt>
      <trkpt lat="37.2016" lon="-7.75434">
        <ele>151.6636</ele>
        <time>2021-07-12T12:53:03Z</time>
      </trkpt>
      <trkpt lat="37.20196" lon="-7.75552">
        <ele>149.8228</ele>
        <time>2021-07-12T12:53:14Z</time>
      </trkpt>
      <trkpt lat="37.20221" lon="-7.75668">
        <ele>149.1076</ele>
        <time>2021-07-12T12:53:25Z</time>
      </trkpt>
      <trkpt lat="37.20317" lon="-7.75669">
        <ele>156.1044</ele>
        <time>2021-07-12T12:53:36Z</time>
      </trkpt>
      <trkpt lat="37.20426" lon="-7.75665">
        <ele>163.2482</ele>
        <time>2021-07-12T12:53:47Z</time>
      </trkpt>
      <trkpt lat="37.20507" lon="-7.75739">
        <ele>171.3164</ele>
        <time>2021-07-12T12:53:58Z</time>
      </trkpt>
      <trkpt lat="37.2051" lon="-7.75835">
        <ele>144.0825</ele>
        <time>2021-07-12T12:54:09Z</time>
      </trkpt>
      <trkpt lat="37.20445" lon="-7.75958">
        <ele>184.5338</ele>
        <time>2021-07-12T12:54:20Z</time>
      </trkpt>
      <trkpt lat="37.20416" lon="-7.76089">
        <ele>194.7967</ele>
        <time>2021-07-12T12:54:31Z</time>
      </trkpt>
      <trkpt lat="37.20356" lon="-7.76188">
        <ele>193.8541</ele>
        <time>2021-07-12T12:54:42Z</time>
      </trkpt>
      <trkpt lat="37.20336" lon="-7.76271">
        <ele>197.7759</ele>
        <time>2021-07-12T12:54:53Z</time>
      </trkpt>
      <trkpt lat="37.20336" lon="-7.76279">
        <ele>194.6605</ele>
        <time>2021-07-12T12:55:04Z</time>
      </trkpt>
      <trkpt lat="37.20335" lon="-7.76284">
        <ele>197.5439</ele>
        <time>2021-07-12T12:55:47Z</time>
      </trkpt>
      <trkpt lat="37.20358" lon="-7.76436">
        <ele>198.2364</ele>
        <time>2021-07-12T12:55:58Z</time>
      </trkpt>
      <trkpt lat="37.20417" lon="-7.76518">
        <ele>192.111</ele>
        <time>2021-07-12T12:56:09Z</time>
      </trkpt>
      <trkpt lat="37.20437" lon="-7.7661">
        <ele>188.7871</ele>
        <time>2021-07-12T12:56:20Z</time>
      </trkpt>
      <trkpt lat="37.20515" lon="-7.76591">
        <ele>194.6617</ele>
        <time>2021-07-12T12:56:31Z</time>
      </trkpt>
      <trkpt lat="37.20592" lon="-7.76718">
        <ele>192.3581</ele>
        <time>2021-07-12T12:56:42Z</time>
      </trkpt>
      <trkpt lat="37.20627" lon="-7.7682">
        <ele>202.344</ele>
        <time>2021-07-12T12:56:53Z</time>
      </trkpt>
      <trkpt lat="37.20722" lon="-7.76922">
        <ele>216.2709</ele>
        <time>2021-07-12T12:57:04Z</time>
      </trkpt>
      <trkpt lat="37.20782" lon="-7.77049">
        <ele>228.8527</ele>
        <time>2021-07-12T12:57:15Z</time>
      </trkpt>
      <trkpt lat="37.20789" lon="-7.7716">
        <ele>240.7077</ele>
        <time>2021-07-12T12:57:26Z</time>
      </trkpt>
      <trkpt lat="37.20765" lon="-7.77227">
        <ele>240.6738</ele>
        <time>2021-07-12T12:57:37Z</time>
      </trkpt>
      <trkpt lat="37.20732" lon="-7.77319">
        <ele>236.3842</ele>
        <time>2021-07-12T12:57:48Z</time>
      </trkpt>
      <trkpt lat="37.2073" lon="-7.77453">
        <ele>224.2099</ele>
        <time>2021-07-12T12:57:59Z</time>
      </trkpt>
      <trkpt lat="37.20786" lon="-7.77556">
        <ele>219.8526</ele>
        <time>2021-07-12T12:58:10Z</time>
      </trkpt>
      <trkpt lat="37.20735" lon="-7.77602">
        <ele>212.8328</ele>
        <time>2021-07-12T12:58:21Z</time>
      </trkpt>
      <trkpt lat="37.20823" lon="-7.77684">
        <ele>216.7743</ele>
        <time>2021-07-12T12:58:32Z</time>
      </trkpt>
      <trkpt lat="37.20873" lon="-7.77842">
        <ele>211.4647</ele>
        <time>2021-07-12T12:58:43Z</time>
      </trkpt>
      <trkpt lat="37.20975" lon="-7.77893">
        <ele>209.1564</ele>
        <time>2021-07-12T12:58:54Z</time>
      </trkpt>
      <trkpt lat="37.21033" lon="-7.77997">
        <ele>202.0618</ele>
        <time>2021-07-12T12:59:05Z</time>
      </trkpt>
      <trkpt lat="37.21094" lon="-7.78172">
        <ele>197.5015</ele>
        <time>2021-07-12T12:59:16Z</time>
      </trkpt>
      <trkpt lat="37.21132" lon="-7.78212">
        <ele>196.0946</ele>
        <time>2021-07-12T12:59:27Z</time>
      </trkpt>
      <trkpt lat="37.21193" lon="-7.78202">
        <ele>204.2907</ele>
        <time>2021-07-12T12:59:38Z</time>
      </trkpt>
      <trkpt lat="37.21178" lon="-7.78202">
        <ele>204.091</ele>
        <time>2021-07-12T12:59:49Z</time>
      </trkpt>
      <trkpt lat="37.21122" lon="-7.78219">
        <ele>204.0351</ele>
        <time>2021-07-12T13:00:00Z</time>
      </trkpt>
      <trkpt lat="37.21131" lon="-7.78249">
        <ele>208.8198</ele>
        <time>2021-07-12T13:00:11Z</time>
      </trkpt>
      <trkpt lat="37.21183" lon="-7.7831">
        <ele>214.3339</ele>
        <time>2021-07-12T13:00:22Z</time>
      </trkpt>
      <trkpt lat="37.21198" lon="-7.78357">
        <ele>221.0008</ele>
        <time>2021-07-12T13:00:33Z</time>
      </trkpt>
      <trkpt lat="37.21216" lon="-7.78499">
        <ele>214.7893</ele>
        <time>2021-07-12T13:00:44Z</time>
      </trkpt>
      <trkpt lat="37.21229" lon="-7.78574">
        <ele>213.5228</ele>
        <time>2021-07-12T13:00:55Z</time>
      </trkpt>
      <trkpt lat="37.21228" lon="-7.78574">
        <ele>205.2382</ele>
        <time>2021-07-12T13:01:55Z</time>
      </trkpt>
      <trkpt lat="37.21225" lon="-7.78572">
        <ele>204.5792</ele>
        <time>2021-07-12T13:02:54Z</time>
      </trkpt>
      <trkpt lat="37.21221" lon="-7.78575">
        <ele>203.3907</ele>
        <time>2021-07-12T13:03:07Z</time>
      </trkpt>
      <trkpt lat="37.21225" lon="-7.78574">
        <ele>204.7658</ele>
        <time>2021-07-12T13:03:18Z</time>
      </trkpt>
      <trkpt lat="37.21227" lon="-7.78574">
        <ele>205.6421</ele>
        <time>2021-07-12T13:04:18Z</time>
      </trkpt>
      <trkpt lat="37.21227" lon="-7.78574">
        <ele>205.6421</ele>
        <time>2021-07-12T13:05:18Z</time>
      </trkpt>
      <trkpt lat="37.21227" lon="-7.78571">
        <ele>212.9998</ele>
        <time>2021-07-12T13:06:18Z</time>
      </trkpt>
      <trkpt lat="37.21227" lon="-7.78571">
        <ele>212.9998</ele>
        <time>2021-07-12T13:07:18Z</time>
      </trkpt>
      <trkpt lat="37.21227" lon="-7.78571">
        <ele>212.9998</ele>
        <time>2021-07-12T13:08:18Z</time>
      </trkpt>
      <trkpt lat="37.21227" lon="-7.78571">
        <ele>212.9998</ele>
        <time>2021-07-12T13:09:18Z</time>
      </trkpt>
      <trkpt lat="37.21227" lon="-7.78571">
        <ele>212.9998</ele>
        <time>2021-07-12T13:10:18Z</time>
      </trkpt>
      <trkpt lat="37.21227" lon="-7.78571">
        <ele>212.9998</ele>
        <time>2021-07-12T13:11:18Z</time>
      </trkpt>
      <trkpt lat="37.21227" lon="-7.78571">
        <ele>212.9998</ele>
        <time>2021-07-12T13:12:18Z</time>
      </trkpt>
      <trkpt lat="37.21227" lon="-7.78571">
        <ele>212.9998</ele>
        <time>2021-07-12T13:13:18Z</time>
      </trkpt>
      <trkpt lat="37.21227" lon="-7.78571">
        <ele>212.9998</ele>
        <time>2021-07-12T13:14:18Z</time>
      </trkpt>
      <trkpt lat="37.21227" lon="-7.78571">
        <ele>212.9998</ele>
        <time>2021-07-12T13:15:18Z</time>
      </trkpt>
      <trkpt lat="37.21227" lon="-7.78571">
        <ele>212.9998</ele>
        <time>2021-07-12T13:16:18Z</time>
      </trkpt>
      <trkpt lat="37.21229" lon="-7.78573">
        <ele>208.1734</ele>
        <time>2021-07-12T13:17:18Z</time>
      </trkpt>
      <trkpt lat="37.21226" lon="-7.78573">
        <ele>212.1184</ele>
        <time>2021-07-12T13:18:18Z</time>
      </trkpt>
      <trkpt lat="37.21226" lon="-7.7857">
        <ele>213.5853</ele>
        <time>2021-07-12T13:19:17Z</time>
      </trkpt>
      <trkpt lat="37.21227" lon="-7.78572">
        <ele>207.467</ele>
        <time>2021-07-12T13:20:16Z</time>
      </trkpt>
      <trkpt lat="37.21225" lon="-7.78571">
        <ele>208.3589</ele>
        <time>2021-07-12T13:21:15Z</time>
      </trkpt>
      <trkpt lat="37.21226" lon="-7.7857">
        <ele>209.5913</ele>
        <time>2021-07-12T13:22:14Z</time>
      </trkpt>
      <trkpt lat="37.21228" lon="-7.7857">
        <ele>213.4722</ele>
        <time>2021-07-12T13:23:13Z</time>
      </trkpt>
      <trkpt lat="37.21226" lon="-7.78571">
        <ele>208.9217</ele>
        <time>2021-07-12T13:24:12Z</time>
      </trkpt>
      <trkpt lat="37.21225" lon="-7.78576">
        <ele>212.1301</ele>
        <time>2021-07-12T13:24:39Z</time>
      </trkpt>
      <trkpt lat="37.21238" lon="-7.78669">
        <ele>209.4882</ele>
        <time>2021-07-12T13:24:50Z</time>
      </trkpt>
      <trkpt lat="37.21308" lon="-7.78774">
        <ele>223.0199</ele>
        <time>2021-07-12T13:25:01Z</time>
      </trkpt>
      <trkpt lat="37.21336" lon="-7.78878">
        <ele>242.4411</ele>
        <time>2021-07-12T13:25:12Z</time>
      </trkpt>
      <trkpt lat="37.21341" lon="-7.79039">
        <ele>259.0984</ele>
        <time>2021-07-12T13:25:23Z</time>
      </trkpt>
      <trkpt lat="37.2134" lon="-7.79161">
        <ele>272.9081</ele>
        <time>2021-07-12T13:25:34Z</time>
      </trkpt>
      <trkpt lat="37.2137" lon="-7.79265">
        <ele>289.091</ele>
        <time>2021-07-12T13:25:45Z</time>
      </trkpt>
      <trkpt lat="37.21298" lon="-7.79285">
        <ele>302.7555</ele>
        <time>2021-07-12T13:25:56Z</time>
      </trkpt>
      <trkpt lat="37.21172" lon="-7.79172">
        <ele>316.8311</ele>
        <time>2021-07-12T13:26:07Z</time>
      </trkpt>
      <trkpt lat="37.21118" lon="-7.792">
        <ele>328.3435</ele>
        <time>2021-07-12T13:26:18Z</time>
      </trkpt>
      <trkpt lat="37.21201" lon="-7.79385">
        <ele>346.3427</ele>
        <time>2021-07-12T13:26:29Z</time>
      </trkpt>
      <trkpt lat="37.21209" lon="-7.79535">
        <ele>357.6844</ele>
        <time>2021-07-12T13:26:40Z</time>
      </trkpt>
      <trkpt lat="37.21269" lon="-7.7971">
        <ele>361.811</ele>
        <time>2021-07-12T13:26:51Z</time>
      </trkpt>
      <trkpt lat="37.21375" lon="-7.79766">
        <ele>370.0904</ele>
        <time>2021-07-12T13:27:02Z</time>
      </trkpt>
      <trkpt lat="37.21477" lon="-7.79751">
        <ele>373.937</ele>
        <time>2021-07-12T13:27:13Z</time>
      </trkpt>
      <trkpt lat="37.21516" lon="-7.7983">
        <ele>379.5356</ele>
        <time>2021-07-12T13:27:24Z</time>
      </trkpt>
      <trkpt lat="37.21577" lon="-7.79922">
        <ele>383.1159</ele>
        <time>2021-07-12T13:27:35Z</time>
      </trkpt>
      <trkpt lat="37.21579" lon="-7.80023">
        <ele>389.7238</ele>
        <time>2021-07-12T13:27:46Z</time>
      </trkpt>
      <trkpt lat="37.21589" lon="-7.79986">
        <ele>391.9222</ele>
        <time>2021-07-12T13:27:57Z</time>
      </trkpt>
      <trkpt lat="37.21624" lon="-7.79837">
        <ele>413.1828</ele>
        <time>2021-07-12T13:28:08Z</time>
      </trkpt>
      <trkpt lat="37.21747" lon="-7.79796">
        <ele>431.5109</ele>
        <time>2021-07-12T13:28:19Z</time>
      </trkpt>
      <trkpt lat="37.21872" lon="-7.79791">
        <ele>420.4255</ele>
        <time>2021-07-12T13:28:30Z</time>
      </trkpt>
      <trkpt lat="37.22012" lon="-7.79709">
        <ele>409.7229</ele>
        <time>2021-07-12T13:28:41Z</time>
      </trkpt>
      <trkpt lat="37.22158" lon="-7.79588">
        <ele>401.6412</ele>
        <time>2021-07-12T13:28:52Z</time>
      </trkpt>
      <trkpt lat="37.22301" lon="-7.79562">
        <ele>404.9545</ele>
        <time>2021-07-12T13:29:03Z</time>
      </trkpt>
      <trkpt lat="37.2242" lon="-7.79601">
        <ele>413.8739</ele>
        <time>2021-07-12T13:29:14Z</time>
      </trkpt>
      <trkpt lat="37.2253" lon="-7.79504">
        <ele>431.8666</ele>
        <time>2021-07-12T13:29:25Z</time>
      </trkpt>
      <trkpt lat="37.22543" lon="-7.79316">
        <ele>438.7219</ele>
        <time>2021-07-12T13:29:36Z</time>
      </trkpt>
      <trkpt lat="37.22673" lon="-7.79157">
        <ele>436.5236</ele>
        <time>2021-07-12T13:29:47Z</time>
      </trkpt>
      <trkpt lat="37.22816" lon="-7.79109">
        <ele>437.3558</ele>
        <time>2021-07-12T13:29:58Z</time>
      </trkpt>
      <trkpt lat="37.22948" lon="-7.78945">
        <ele>431.8356</ele>
        <time>2021-07-12T13:30:09Z</time>
      </trkpt>
      <trkpt lat="37.2302" lon="-7.78718">
        <ele>423.253</ele>
        <time>2021-07-12T13:30:20Z</time>
      </trkpt>
      <trkpt lat="37.23111" lon="-7.78468">
        <ele>420.3047</ele>
        <time>2021-07-12T13:30:31Z</time>
      </trkpt>
      <trkpt lat="37.2327" lon="-7.78297">
        <ele>427.6779</ele>
        <time>2021-07-12T13:30:42Z</time>
      </trkpt>
      <trkpt lat="37.23339" lon="-7.78076">
        <ele>431.0907</ele>
        <time>2021-07-12T13:30:53Z</time>
      </trkpt>
      <trkpt lat="37.2337" lon="-7.78003">
        <ele>433.6559</ele>
        <time>2021-07-12T13:31:04Z</time>
      </trkpt>
      <trkpt lat="37.2342" lon="-7.78067">
        <ele>433.9226</ele>
        <time>2021-07-12T13:31:15Z</time>
      </trkpt>
      <trkpt lat="37.23496" lon="-7.78091">
        <ele>438.1285</ele>
        <time>2021-07-12T13:31:26Z</time>
      </trkpt>
      <trkpt lat="37.23568" lon="-7.78119">
        <ele>445.6496</ele>
        <time>2021-07-12T13:31:37Z</time>
      </trkpt>
      <trkpt lat="37.23625" lon="-7.78111">
        <ele>451.7058</ele>
        <time>2021-07-12T13:31:48Z</time>
      </trkpt>
      <trkpt lat="37.23666" lon="-7.78083">
        <ele>455.5228</ele>
        <time>2021-07-12T13:31:59Z</time>
      </trkpt>
      <trkpt lat="37.23759" lon="-7.78058">
        <ele>451.1485</ele>
        <time>2021-07-12T13:32:10Z</time>
      </trkpt>
      <trkpt lat="37.2388" lon="-7.78046">
        <ele>457.3807</ele>
        <time>2021-07-12T13:32:21Z</time>
      </trkpt>
      <trkpt lat="37.23961" lon="-7.78108">
        <ele>452.6746</ele>
        <time>2021-07-12T13:32:32Z</time>
      </trkpt>
      <trkpt lat="37.23984" lon="-7.78236">
        <ele>453.728</ele>
        <time>2021-07-12T13:32:43Z</time>
      </trkpt>
      <trkpt lat="37.24087" lon="-7.78296">
        <ele>457.3666</ele>
        <time>2021-07-12T13:32:54Z</time>
      </trkpt>
      <trkpt lat="37.2421" lon="-7.78187">
        <ele>453.7997</ele>
        <time>2021-07-12T13:33:05Z</time>
      </trkpt>
      <trkpt lat="37.24297" lon="-7.7809">
        <ele>458.2531</ele>
        <time>2021-07-12T13:33:16Z</time>
      </trkpt>
      <trkpt lat="37.24408" lon="-7.77976">
        <ele>457.5917</ele>
        <time>2021-07-12T13:33:27Z</time>
      </trkpt>
      <trkpt lat="37.24498" lon="-7.7795">
        <ele>457.2712</ele>
        <time>2021-07-12T13:33:38Z</time>
      </trkpt>
      <trkpt lat="37.24619" lon="-7.77883">
        <ele>449.7693</ele>
        <time>2021-07-12T13:33:49Z</time>
      </trkpt>
      <trkpt lat="37.24699" lon="-7.77814">
        <ele>446.3382</ele>
        <time>2021-07-12T13:34:00Z</time>
      </trkpt>
      <trkpt lat="37.24745" lon="-7.77699">
        <ele>435.2528</ele>
        <time>2021-07-12T13:34:11Z</time>
      </trkpt>
      <trkpt lat="37.24773" lon="-7.77616">
        <ele>425.9849</ele>
        <time>2021-07-12T13:34:22Z</time>
      </trkpt>
      <trkpt lat="37.24825" lon="-7.77545">
        <ele>416.909</ele>
        <time>2021-07-12T13:34:33Z</time>
      </trkpt>
      <trkpt lat="37.24867" lon="-7.77439">
        <ele>403.9579</ele>
        <time>2021-07-12T13:34:44Z</time>
      </trkpt>
      <trkpt lat="37.24962" lon="-7.77391">
        <ele>383.5457</ele>
        <time>2021-07-12T13:34:55Z</time>
      </trkpt>
      <trkpt lat="37.25046" lon="-7.77277">
        <ele>381.56</ele>
        <time>2021-07-12T13:35:06Z</time>
      </trkpt>
      <trkpt lat="37.25145" lon="-7.77239">
        <ele>371.4355</ele>
        <time>2021-07-12T13:35:17Z</time>
      </trkpt>
      <trkpt lat="37.2524" lon="-7.77175">
        <ele>362.3861</ele>
        <time>2021-07-12T13:35:28Z</time>
      </trkpt>
      <trkpt lat="37.25331" lon="-7.77106">
        <ele>369.118</ele>
        <time>2021-07-12T13:35:39Z</time>
      </trkpt>
      <trkpt lat="37.25449" lon="-7.77123">
        <ele>358.1253</ele>
        <time>2021-07-12T13:35:50Z</time>
      </trkpt>
      <trkpt lat="37.25544" lon="-7.7713">
        <ele>395.088</ele>
        <time>2021-07-12T13:36:01Z</time>
      </trkpt>
      <trkpt lat="37.25638" lon="-7.77105">
        <ele>404.7652</ele>
        <time>2021-07-12T13:36:12Z</time>
      </trkpt>
      <trkpt lat="37.25712" lon="-7.7717">
        <ele>414.3498</ele>
        <time>2021-07-12T13:36:23Z</time>
      </trkpt>
      <trkpt lat="37.258" lon="-7.77191">
        <ele>404.9471</ele>
        <time>2021-07-12T13:36:34Z</time>
      </trkpt>
      <trkpt lat="37.25855" lon="-7.77172">
        <ele>395.2939</ele>
        <time>2021-07-12T13:36:45Z</time>
      </trkpt>
      <trkpt lat="37.25784" lon="-7.77137">
        <ele>389.0602</ele>
        <time>2021-07-12T13:36:56Z</time>
      </trkpt>
      <trkpt lat="37.25795" lon="-7.77">
        <ele>376.2531</ele>
        <time>2021-07-12T13:37:07Z</time>
      </trkpt>
      <trkpt lat="37.25819" lon="-7.7687">
        <ele>360.8594</ele>
        <time>2021-07-12T13:37:18Z</time>
      </trkpt>
      <trkpt lat="37.25808" lon="-7.7669">
        <ele>346.0639</ele>
        <time>2021-07-12T13:37:29Z</time>
      </trkpt>
      <trkpt lat="37.25769" lon="-7.76563">
        <ele>331.2154</ele>
        <time>2021-07-12T13:37:40Z</time>
      </trkpt>
      <trkpt lat="37.25728" lon="-7.76478">
        <ele>322.522</ele>
        <time>2021-07-12T13:37:51Z</time>
      </trkpt>
      <trkpt lat="37.25702" lon="-7.76383">
        <ele>312.2057</ele>
        <time>2021-07-12T13:38:02Z</time>
      </trkpt>
      <trkpt lat="37.25689" lon="-7.7634">
        <ele>301.8021</ele>
        <time>2021-07-12T13:38:13Z</time>
      </trkpt>
      <trkpt lat="37.25635" lon="-7.76367">
        <ele>292.9171</ele>
        <time>2021-07-12T13:38:24Z</time>
      </trkpt>
      <trkpt lat="37.25647" lon="-7.76301">
        <ele>285.6796</ele>
        <time>2021-07-12T13:38:35Z</time>
      </trkpt>
      <trkpt lat="37.25658" lon="-7.76214">
        <ele>276.8029</ele>
        <time>2021-07-12T13:38:46Z</time>
      </trkpt>
      <trkpt lat="37.25726" lon="-7.76193">
        <ele>272.3636</ele>
        <time>2021-07-12T13:38:57Z</time>
      </trkpt>
      <trkpt lat="37.25724" lon="-7.76163">
        <ele>262.2974</ele>
        <time>2021-07-12T13:39:08Z</time>
      </trkpt>
      <trkpt lat="37.25674" lon="-7.76104">
        <ele>236.4889</ele>
        <time>2021-07-12T13:39:19Z</time>
      </trkpt>
      <trkpt lat="37.25761" lon="-7.76096">
        <ele>242.0476</ele>
        <time>2021-07-12T13:39:30Z</time>
      </trkpt>
      <trkpt lat="37.25791" lon="-7.76014">
        <ele>261.8978</ele>
        <time>2021-07-12T13:39:41Z</time>
      </trkpt>
      <trkpt lat="37.25795" lon="-7.75896">
        <ele>273.769</ele>
        <time>2021-07-12T13:39:52Z</time>
      </trkpt>
      <trkpt lat="37.25799" lon="-7.75736">
        <ele>304.9556</ele>
        <time>2021-07-12T13:40:03Z</time>
      </trkpt>
      <trkpt lat="37.25775" lon="-7.75655">
        <ele>319.4358</ele>
        <time>2021-07-12T13:40:14Z</time>
      </trkpt>
      <trkpt lat="37.25723" lon="-7.75576">
        <ele>324.772</ele>
        <time>2021-07-12T13:40:25Z</time>
      </trkpt>
      <trkpt lat="37.25775" lon="-7.75541">
        <ele>333.2921</ele>
        <time>2021-07-12T13:40:36Z</time>
      </trkpt>
      <trkpt lat="37.25779" lon="-7.75417">
        <ele>347.6596</ele>
        <time>2021-07-12T13:40:47Z</time>
      </trkpt>
      <trkpt lat="37.25739" lon="-7.75299">
        <ele>360.1666</ele>
        <time>2021-07-12T13:40:58Z</time>
      </trkpt>
      <trkpt lat="37.25622" lon="-7.752">
        <ele>372.3783</ele>
        <time>2021-07-12T13:41:09Z</time>
      </trkpt>
      <trkpt lat="37.25602" lon="-7.75078">
        <ele>379.5811</ele>
        <time>2021-07-12T13:41:20Z</time>
      </trkpt>
      <trkpt lat="37.25591" lon="-7.74966">
        <ele>385.0279</ele>
        <time>2021-07-12T13:41:31Z</time>
      </trkpt>
      <trkpt lat="37.25597" lon="-7.74866">
        <ele>388.3541</ele>
        <time>2021-07-12T13:41:42Z</time>
      </trkpt>
      <trkpt lat="37.25683" lon="-7.74879">
        <ele>397.3061</ele>
        <time>2021-07-12T13:41:53Z</time>
      </trkpt>
      <trkpt lat="37.25777" lon="-7.74839">
        <ele>400.1264</ele>
        <time>2021-07-12T13:42:04Z</time>
      </trkpt>
      <trkpt lat="37.25856" lon="-7.74779">
        <ele>400.4787</ele>
        <time>2021-07-12T13:42:15Z</time>
      </trkpt>
      <trkpt lat="37.25949" lon="-7.74692">
        <ele>393.8294</ele>
        <time>2021-07-12T13:42:26Z</time>
      </trkpt>
      <trkpt lat="37.26074" lon="-7.74652">
        <ele>378.9884</ele>
        <time>2021-07-12T13:42:37Z</time>
      </trkpt>
      <trkpt lat="37.26177" lon="-7.74655">
        <ele>364.0329</ele>
        <time>2021-07-12T13:42:48Z</time>
      </trkpt>
      <trkpt lat="37.26266" lon="-7.74639">
        <ele>353.2376</ele>
        <time>2021-07-12T13:42:59Z</time>
      </trkpt>
      <trkpt lat="37.2636" lon="-7.74597">
        <ele>335.5257</ele>
        <time>2021-07-12T13:43:10Z</time>
      </trkpt>
      <trkpt lat="37.26403" lon="-7.74461">
        <ele>319.0665</ele>
        <time>2021-07-12T13:43:21Z</time>
      </trkpt>
      <trkpt lat="37.26437" lon="-7.74331">
        <ele>301.2324</ele>
        <time>2021-07-12T13:43:32Z</time>
      </trkpt>
      <trkpt lat="37.2648" lon="-7.74257">
        <ele>287.4117</ele>
        <time>2021-07-12T13:43:43Z</time>
      </trkpt>
      <trkpt lat="37.265" lon="-7.74347">
        <ele>302.8634</ele>
        <time>2021-07-12T13:43:54Z</time>
      </trkpt>
      <trkpt lat="37.26548" lon="-7.74431">
        <ele>319.6856</ele>
        <time>2021-07-12T13:44:05Z</time>
      </trkpt>
      <trkpt lat="37.2659" lon="-7.74517">
        <ele>333.2909</ele>
        <time>2021-07-12T13:44:16Z</time>
      </trkpt>
      <trkpt lat="37.26593" lon="-7.74659">
        <ele>343.9783</ele>
        <time>2021-07-12T13:44:27Z</time>
      </trkpt>
      <trkpt lat="37.26616" lon="-7.74795">
        <ele>357.0628</ele>
        <time>2021-07-12T13:44:38Z</time>
      </trkpt>
      <trkpt lat="37.26644" lon="-7.74684">
        <ele>360.7333</ele>
        <time>2021-07-12T13:44:49Z</time>
      </trkpt>
      <trkpt lat="37.26689" lon="-7.74505">
        <ele>371.0222</ele>
        <time>2021-07-12T13:45:00Z</time>
      </trkpt>
      <trkpt lat="37.26796" lon="-7.74374">
        <ele>388.2824</ele>
        <time>2021-07-12T13:45:11Z</time>
      </trkpt>
      <trkpt lat="37.26868" lon="-7.74222">
        <ele>382.4481</ele>
        <time>2021-07-12T13:45:22Z</time>
      </trkpt>
      <trkpt lat="37.26977" lon="-7.74083">
        <ele>379.1053</ele>
        <time>2021-07-12T13:45:33Z</time>
      </trkpt>
      <trkpt lat="37.27073" lon="-7.73957">
        <ele>378.7924</ele>
        <time>2021-07-12T13:45:45Z</time>
      </trkpt>
      <trkpt lat="37.27143" lon="-7.73821">
        <ele>390.0417</ele>
        <time>2021-07-12T13:45:56Z</time>
      </trkpt>
      <trkpt lat="37.27186" lon="-7.73658">
        <ele>405.2568</ele>
        <time>2021-07-12T13:46:07Z</time>
      </trkpt>
      <trkpt lat="37.27219" lon="-7.73492">
        <ele>420.3363</ele>
        <time>2021-07-12T13:46:18Z</time>
      </trkpt>
      <trkpt lat="37.27218" lon="-7.73413">
        <ele>424.6614</ele>
        <time>2021-07-12T13:46:29Z</time>
      </trkpt>
      <trkpt lat="37.2722" lon="-7.73291">
        <ele>427.6949</ele>
        <time>2021-07-12T13:46:40Z</time>
      </trkpt>
      <trkpt lat="37.27245" lon="-7.73251">
        <ele>427.2671</ele>
        <time>2021-07-12T13:46:51Z</time>
      </trkpt>
      <trkpt lat="37.2724" lon="-7.73173">
        <ele>422.5352</ele>
        <time>2021-07-12T13:47:02Z</time>
      </trkpt>
      <trkpt lat="37.27276" lon="-7.73055">
        <ele>415.3506</ele>
        <time>2021-07-12T13:47:13Z</time>
      </trkpt>
      <trkpt lat="37.27297" lon="-7.72916">
        <ele>407.746</ele>
        <time>2021-07-12T13:47:24Z</time>
      </trkpt>
      <trkpt lat="37.27371" lon="-7.72847">
        <ele>404.1471</ele>
        <time>2021-07-12T13:47:35Z</time>
      </trkpt>
      <trkpt lat="37.27387" lon="-7.72827">
        <ele>399.9559</ele>
        <time>2021-07-12T13:47:46Z</time>
      </trkpt>
      <trkpt lat="37.27356" lon="-7.72783">
        <ele>394.011</ele>
        <time>2021-07-12T13:47:57Z</time>
      </trkpt>
      <trkpt lat="37.27322" lon="-7.72739">
        <ele>389.8995</ele>
        <time>2021-07-12T13:48:08Z</time>
      </trkpt>
      <trkpt lat="37.27384" lon="-7.72588">
        <ele>386.6998</ele>
        <time>2021-07-12T13:48:19Z</time>
      </trkpt>
      <trkpt lat="37.27481" lon="-7.72429">
        <ele>381.0849</ele>
        <time>2021-07-12T13:48:30Z</time>
      </trkpt>
      <trkpt lat="37.27614" lon="-7.72326">
        <ele>376.2008</ele>
        <time>2021-07-12T13:48:41Z</time>
      </trkpt>
      <trkpt lat="37.27661" lon="-7.72184">
        <ele>371.803</ele>
        <time>2021-07-12T13:48:52Z</time>
      </trkpt>
      <trkpt lat="37.27699" lon="-7.72054">
        <ele>364.3704</ele>
        <time>2021-07-12T13:49:03Z</time>
      </trkpt>
      <trkpt lat="37.2765" lon="-7.71997">
        <ele>358.697</ele>
        <time>2021-07-12T13:49:14Z</time>
      </trkpt>
      <trkpt lat="37.27593" lon="-7.71927">
        <ele>350.3378</ele>
        <time>2021-07-12T13:49:25Z</time>
      </trkpt>
      <trkpt lat="37.27548" lon="-7.71808">
        <ele>333.8933</ele>
        <time>2021-07-12T13:49:36Z</time>
      </trkpt>
      <trkpt lat="37.27481" lon="-7.71729">
        <ele>324.5247</ele>
        <time>2021-07-12T13:49:47Z</time>
      </trkpt>
      <trkpt lat="37.27401" lon="-7.71666">
        <ele>316.3833</ele>
        <time>2021-07-12T13:49:58Z</time>
      </trkpt>
      <trkpt lat="37.27356" lon="-7.71563">
        <ele>302.428</ele>
        <time>2021-07-12T13:50:09Z</time>
      </trkpt>
      <trkpt lat="37.27342" lon="-7.71473">
        <ele>287.6203</ele>
        <time>2021-07-12T13:50:20Z</time>
      </trkpt>
      <trkpt lat="37.27275" lon="-7.71408">
        <ele>262.2633</ele>
        <time>2021-07-12T13:50:31Z</time>
      </trkpt>
      <trkpt lat="37.27271" lon="-7.71289">
        <ele>276.1878</ele>
        <time>2021-07-12T13:50:42Z</time>
      </trkpt>
      <trkpt lat="37.27257" lon="-7.71171">
        <ele>296.5324</ele>
        <time>2021-07-12T13:50:53Z</time>
      </trkpt>
      <trkpt lat="37.27198" lon="-7.71154">
        <ele>311.9136</ele>
        <time>2021-07-12T13:51:04Z</time>
      </trkpt>
      <trkpt lat="37.27222" lon="-7.711">
        <ele>320.56</ele>
        <time>2021-07-12T13:51:15Z</time>
      </trkpt>
      <trkpt lat="37.27314" lon="-7.71129">
        <ele>332.1787</ele>
        <time>2021-07-12T13:51:26Z</time>
      </trkpt>
      <trkpt lat="37.27333" lon="-7.71107">
        <ele>334.3891</ele>
        <time>2021-07-12T13:51:37Z</time>
      </trkpt>
      <trkpt lat="37.27309" lon="-7.70978">
        <ele>345.7226</ele>
        <time>2021-07-12T13:51:48Z</time>
      </trkpt>
      <trkpt lat="37.27218" lon="-7.70899">
        <ele>357.4244</ele>
        <time>2021-07-12T13:51:59Z</time>
      </trkpt>
      <trkpt lat="37.27156" lon="-7.7084">
        <ele>369.5298</ele>
        <time>2021-07-12T13:52:10Z</time>
      </trkpt>
      <trkpt lat="37.27084" lon="-7.70886">
        <ele>382.7187</ele>
        <time>2021-07-12T13:52:21Z</time>
      </trkpt>
      <trkpt lat="37.2696" lon="-7.70868">
        <ele>394.7788</ele>
        <time>2021-07-12T13:52:32Z</time>
      </trkpt>
      <trkpt lat="37.26776" lon="-7.70814">
        <ele>379.9788</ele>
        <time>2021-07-12T13:52:43Z</time>
      </trkpt>
      <trkpt lat="37.26642" lon="-7.708">
        <ele>418.3289</ele>
        <time>2021-07-12T13:52:54Z</time>
      </trkpt>
      <trkpt lat="37.26507" lon="-7.70807">
        <ele>426.4959</ele>
        <time>2021-07-12T13:53:05Z</time>
      </trkpt>
      <trkpt lat="37.26412" lon="-7.70763">
        <ele>439.0241</ele>
        <time>2021-07-12T13:53:16Z</time>
      </trkpt>
      <trkpt lat="37.26408" lon="-7.70763">
        <ele>440.5152</ele>
        <time>2021-07-12T13:53:27Z</time>
      </trkpt>
      <trkpt lat="37.26409" lon="-7.70763">
        <ele>441.4877</ele>
        <time>2021-07-12T13:54:27Z</time>
      </trkpt>
      <trkpt lat="37.26403" lon="-7.70763">
        <ele>443.1549</ele>
        <time>2021-07-12T13:54:52Z</time>
      </trkpt>
      <trkpt lat="37.26307" lon="-7.70789">
        <ele>447.9891</ele>
        <time>2021-07-12T13:55:03Z</time>
      </trkpt>
      <trkpt lat="37.26216" lon="-7.70708">
        <ele>448.0824</ele>
        <time>2021-07-12T13:55:14Z</time>
      </trkpt>
      <trkpt lat="37.26178" lon="-7.70599">
        <ele>441.671</ele>
        <time>2021-07-12T13:55:25Z</time>
      </trkpt>
      <trkpt lat="37.2619" lon="-7.70465">
        <ele>430.9712</ele>
        <time>2021-07-12T13:55:36Z</time>
      </trkpt>
      <trkpt lat="37.26199" lon="-7.7033">
        <ele>417.4872</ele>
        <time>2021-07-12T13:55:47Z</time>
      </trkpt>
      <trkpt lat="37.2626" lon="-7.70196">
        <ele>413.1696</ele>
        <time>2021-07-12T13:55:58Z</time>
      </trkpt>
      <trkpt lat="37.26338" lon="-7.70103">
        <ele>403.4075</ele>
        <time>2021-07-12T13:56:09Z</time>
      </trkpt>
      <trkpt lat="37.26329" lon="-7.69965">
        <ele>386.2089</ele>
        <time>2021-07-12T13:56:20Z</time>
      </trkpt>
      <trkpt lat="37.26357" lon="-7.69781">
        <ele>395.1165</ele>
        <time>2021-07-12T13:56:31Z</time>
      </trkpt>
      <trkpt lat="37.26448" lon="-7.69695">
        <ele>393.4813</ele>
        <time>2021-07-12T13:56:42Z</time>
      </trkpt>
      <trkpt lat="37.26452" lon="-7.69622">
        <ele>403.7934</ele>
        <time>2021-07-12T13:56:53Z</time>
      </trkpt>
      <trkpt lat="37.26392" lon="-7.69521">
        <ele>407.3585</ele>
        <time>2021-07-12T13:57:04Z</time>
      </trkpt>
      <trkpt lat="37.26399" lon="-7.69365">
        <ele>403.1678</ele>
        <time>2021-07-12T13:57:15Z</time>
      </trkpt>
      <trkpt lat="37.2642" lon="-7.69232">
        <ele>398.8698</ele>
        <time>2021-07-12T13:57:26Z</time>
      </trkpt>
      <trkpt lat="37.26525" lon="-7.69229">
        <ele>410.465</ele>
        <time>2021-07-12T13:57:37Z</time>
      </trkpt>
      <trkpt lat="37.2654" lon="-7.69188">
        <ele>405.9121</ele>
        <time>2021-07-12T13:57:48Z</time>
      </trkpt>
      <trkpt lat="37.26529" lon="-7.69068">
        <ele>397.0016</ele>
        <time>2021-07-12T13:57:59Z</time>
      </trkpt>
      <trkpt lat="37.26544" lon="-7.69007">
        <ele>391.9292</ele>
        <time>2021-07-12T13:58:10Z</time>
      </trkpt>
      <trkpt lat="37.26546" lon="-7.68992">
        <ele>392.2377</ele>
        <time>2021-07-12T13:58:21Z</time>
      </trkpt>
      <trkpt lat="37.26567" lon="-7.68992">
        <ele>385.3358</ele>
        <time>2021-07-12T13:58:32Z</time>
      </trkpt>
      <trkpt lat="37.26623" lon="-7.69012">
        <ele>373.0832</ele>
        <time>2021-07-12T13:58:43Z</time>
      </trkpt>
      <trkpt lat="37.26662" lon="-7.69018">
        <ele>361.5405</ele>
        <time>2021-07-12T13:58:54Z</time>
      </trkpt>
      <trkpt lat="37.26701" lon="-7.68933">
        <ele>366.7795</ele>
        <time>2021-07-12T13:59:05Z</time>
      </trkpt>
      <trkpt lat="37.26755" lon="-7.68888">
        <ele>370.8275</ele>
        <time>2021-07-12T13:59:16Z</time>
      </trkpt>
      <trkpt lat="37.26832" lon="-7.68936">
        <ele>369.9006</ele>
        <time>2021-07-12T13:59:27Z</time>
      </trkpt>
      <trkpt lat="37.26869" lon="-7.68883">
        <ele>373.1849</ele>
        <time>2021-07-12T13:59:38Z</time>
      </trkpt>
      <trkpt lat="37.26896" lon="-7.68813">
        <ele>380.4755</ele>
        <time>2021-07-12T13:59:49Z</time>
      </trkpt>
      <trkpt lat="37.26967" lon="-7.6877">
        <ele>383.9833</ele>
        <time>2021-07-12T14:00:00Z</time>
      </trkpt>
      <trkpt lat="37.26985" lon="-7.68703">
        <ele>392.9741</ele>
        <time>2021-07-12T14:00:11Z</time>
      </trkpt>
      <trkpt lat="37.26914" lon="-7.6865">
        <ele>396.6116</ele>
        <time>2021-07-12T14:00:22Z</time>
      </trkpt>
      <trkpt lat="37.26861" lon="-7.68563">
        <ele>393.1683</ele>
        <time>2021-07-12T14:00:33Z</time>
      </trkpt>
      <trkpt lat="37.26861" lon="-7.68425">
        <ele>374.7875</ele>
        <time>2021-07-12T14:00:44Z</time>
      </trkpt>
      <trkpt lat="37.26817" lon="-7.68268">
        <ele>387.0644</ele>
        <time>2021-07-12T14:00:55Z</time>
      </trkpt>
      <trkpt lat="37.26882" lon="-7.68163">
        <ele>384.5254</ele>
        <time>2021-07-12T14:01:06Z</time>
      </trkpt>
      <trkpt lat="37.26899" lon="-7.68032">
        <ele>373.5029</ele>
        <time>2021-07-12T14:01:17Z</time>
      </trkpt>
      <trkpt lat="37.26939" lon="-7.67887">
        <ele>363.1942</ele>
        <time>2021-07-12T14:01:28Z</time>
      </trkpt>
      <trkpt lat="37.27018" lon="-7.67762">
        <ele>358.5432</ele>
        <time>2021-07-12T14:01:39Z</time>
      </trkpt>
      <trkpt lat="37.2702" lon="-7.67645">
        <ele>351.1336</ele>
        <time>2021-07-12T14:01:50Z</time>
      </trkpt>
      <trkpt lat="37.27024" lon="-7.67585">
        <ele>348.6871</ele>
        <time>2021-07-12T14:02:01Z</time>
      </trkpt>
      <trkpt lat="37.27115" lon="-7.6757">
        <ele>336.9567</ele>
        <time>2021-07-12T14:02:12Z</time>
      </trkpt>
      <trkpt lat="37.27165" lon="-7.67493">
        <ele>324.6587</ele>
        <time>2021-07-12T14:02:23Z</time>
      </trkpt>
      <trkpt lat="37.27231" lon="-7.67357">
        <ele>335.1421</ele>
        <time>2021-07-12T14:02:34Z</time>
      </trkpt>
      <trkpt lat="37.2721" lon="-7.6722">
        <ele>335.9137</ele>
        <time>2021-07-12T14:02:45Z</time>
      </trkpt>
      <trkpt lat="37.27252" lon="-7.67144">
        <ele>342.521</ele>
        <time>2021-07-12T14:02:56Z</time>
      </trkpt>
      <trkpt lat="37.27268" lon="-7.67064">
        <ele>339.7585</ele>
        <time>2021-07-12T14:03:07Z</time>
      </trkpt>
      <trkpt lat="37.27364" lon="-7.67005">
        <ele>334.347</ele>
        <time>2021-07-12T14:03:18Z</time>
      </trkpt>
      <trkpt lat="37.27473" lon="-7.66961">
        <ele>343.1033</ele>
        <time>2021-07-12T14:03:29Z</time>
      </trkpt>
      <trkpt lat="37.27593" lon="-7.66897">
        <ele>349.7795</ele>
        <time>2021-07-12T14:03:40Z</time>
      </trkpt>
      <trkpt lat="37.27692" lon="-7.66961">
        <ele>342.3542</ele>
        <time>2021-07-12T14:03:51Z</time>
      </trkpt>
      <trkpt lat="37.27705" lon="-7.67077">
        <ele>330.0423</ele>
        <time>2021-07-12T14:04:02Z</time>
      </trkpt>
      <trkpt lat="37.27792" lon="-7.67123">
        <ele>300.7222</ele>
        <time>2021-07-12T14:04:13Z</time>
      </trkpt>
      <trkpt lat="37.27912" lon="-7.67131">
        <ele>307.6185</ele>
        <time>2021-07-12T14:04:24Z</time>
      </trkpt>
      <trkpt lat="37.27962" lon="-7.67231">
        <ele>304.0686</ele>
        <time>2021-07-12T14:04:35Z</time>
      </trkpt>
      <trkpt lat="37.28074" lon="-7.67287">
        <ele>319.3365</ele>
        <time>2021-07-12T14:04:46Z</time>
      </trkpt>
      <trkpt lat="37.28162" lon="-7.67226">
        <ele>312.9864</ele>
        <time>2021-07-12T14:04:57Z</time>
      </trkpt>
      <trkpt lat="37.28287" lon="-7.67197">
        <ele>307.3554</ele>
        <time>2021-07-12T14:05:08Z</time>
      </trkpt>
      <trkpt lat="37.28425" lon="-7.67135">
        <ele>322.5647</ele>
        <time>2021-07-12T14:05:19Z</time>
      </trkpt>
      <trkpt lat="37.28521" lon="-7.67038">
        <ele>315.1709</ele>
        <time>2021-07-12T14:05:30Z</time>
      </trkpt>
      <trkpt lat="37.28584" lon="-7.66912">
        <ele>318.5859</ele>
        <time>2021-07-12T14:05:41Z</time>
      </trkpt>
      <trkpt lat="37.28652" lon="-7.66795">
        <ele>321.9723</ele>
        <time>2021-07-12T14:05:52Z</time>
      </trkpt>
      <trkpt lat="37.28739" lon="-7.66666">
        <ele>330.1355</ele>
        <time>2021-07-12T14:06:03Z</time>
      </trkpt>
      <trkpt lat="37.28823" lon="-7.66572">
        <ele>306.7996</ele>
        <time>2021-07-12T14:06:14Z</time>
      </trkpt>
      <trkpt lat="37.28823" lon="-7.6654">
        <ele>306.8009</ele>
        <time>2021-07-12T14:06:25Z</time>
      </trkpt>
      <trkpt lat="37.28821" lon="-7.66544">
        <ele>326.8832</ele>
        <time>2021-07-12T14:06:41Z</time>
      </trkpt>
      <trkpt lat="37.28825" lon="-7.6655">
        <ele>334.8694</ele>
        <time>2021-07-12T14:06:52Z</time>
      </trkpt>
      <trkpt lat="37.28891" lon="-7.66531">
        <ele>323.2381</ele>
        <time>2021-07-12T14:07:03Z</time>
      </trkpt>
      <trkpt lat="37.28904" lon="-7.66485">
        <ele>306.7301</ele>
        <time>2021-07-12T14:07:14Z</time>
      </trkpt>
      <trkpt lat="37.2878" lon="-7.6644">
        <ele>308.0906</ele>
        <time>2021-07-12T14:07:25Z</time>
      </trkpt>
      <trkpt lat="37.28706" lon="-7.66325">
        <ele>311.2026</ele>
        <time>2021-07-12T14:07:36Z</time>
      </trkpt>
      <trkpt lat="37.28734" lon="-7.66163">
        <ele>318.0226</ele>
        <time>2021-07-12T14:07:47Z</time>
      </trkpt>
      <trkpt lat="37.28781" lon="-7.66027">
        <ele>299.653</ele>
        <time>2021-07-12T14:07:58Z</time>
      </trkpt>
      <trkpt lat="37.28834" lon="-7.65876">
        <ele>288.7434</ele>
        <time>2021-07-12T14:08:09Z</time>
      </trkpt>
      <trkpt lat="37.28791" lon="-7.65749">
        <ele>275.766</ele>
        <time>2021-07-12T14:08:20Z</time>
      </trkpt>
      <trkpt lat="37.28773" lon="-7.65676">
        <ele>271.5984</ele>
        <time>2021-07-12T14:08:31Z</time>
      </trkpt>
      <trkpt lat="37.28711" lon="-7.65616">
        <ele>269.4082</ele>
        <time>2021-07-12T14:08:42Z</time>
      </trkpt>
      <trkpt lat="37.28734" lon="-7.65516">
        <ele>262.3655</ele>
        <time>2021-07-12T14:08:53Z</time>
      </trkpt>
      <trkpt lat="37.28769" lon="-7.65437">
        <ele>246.624</ele>
        <time>2021-07-12T14:09:04Z</time>
      </trkpt>
      <trkpt lat="37.28784" lon="-7.65347">
        <ele>245.1693</ele>
        <time>2021-07-12T14:09:15Z</time>
      </trkpt>
      <trkpt lat="37.28766" lon="-7.65246">
        <ele>238.6914</ele>
        <time>2021-07-12T14:09:26Z</time>
      </trkpt>
      <trkpt lat="37.28813" lon="-7.65141">
        <ele>233.9771</ele>
        <time>2021-07-12T14:09:37Z</time>
      </trkpt>
      <trkpt lat="37.28892" lon="-7.65126">
        <ele>229.8702</ele>
        <time>2021-07-12T14:09:48Z</time>
      </trkpt>
      <trkpt lat="37.28954" lon="-7.65132">
        <ele>227.6208</ele>
        <time>2021-07-12T14:09:59Z</time>
      </trkpt>
      <trkpt lat="37.29017" lon="-7.65055">
        <ele>211.45</ele>
        <time>2021-07-12T14:10:10Z</time>
      </trkpt>
      <trkpt lat="37.29055" lon="-7.6493">
        <ele>205.8067</ele>
        <time>2021-07-12T14:10:21Z</time>
      </trkpt>
      <trkpt lat="37.29046" lon="-7.64816">
        <ele>200.4028</ele>
        <time>2021-07-12T14:10:32Z</time>
      </trkpt>
      <trkpt lat="37.29066" lon="-7.64737">
        <ele>193.3624</ele>
        <time>2021-07-12T14:10:43Z</time>
      </trkpt>
      <trkpt lat="37.29102" lon="-7.64691">
        <ele>188.7352</ele>
        <time>2021-07-12T14:10:54Z</time>
      </trkpt>
      <trkpt lat="37.29121" lon="-7.64613">
        <ele>186.0891</ele>
        <time>2021-07-12T14:11:05Z</time>
      </trkpt>
      <trkpt lat="37.29094" lon="-7.64468">
        <ele>161.1403</ele>
        <time>2021-07-12T14:11:16Z</time>
      </trkpt>
      <trkpt lat="37.29028" lon="-7.64398">
        <ele>167.48</ele>
        <time>2021-07-12T14:11:27Z</time>
      </trkpt>
      <trkpt lat="37.28984" lon="-7.64324">
        <ele>178.8061</ele>
        <time>2021-07-12T14:11:38Z</time>
      </trkpt>
      <trkpt lat="37.29011" lon="-7.64234">
        <ele>186.3568</ele>
        <time>2021-07-12T14:11:49Z</time>
      </trkpt>
      <trkpt lat="37.28997" lon="-7.64194">
        <ele>186.7536</ele>
        <time>2021-07-12T14:12:00Z</time>
      </trkpt>
      <trkpt lat="37.28964" lon="-7.64221">
        <ele>195.3064</ele>
        <time>2021-07-12T14:12:11Z</time>
      </trkpt>
      <trkpt lat="37.28915" lon="-7.64298">
        <ele>206.8468</ele>
        <time>2021-07-12T14:12:22Z</time>
      </trkpt>
      <trkpt lat="37.28794" lon="-7.64359">
        <ele>216.6475</ele>
        <time>2021-07-12T14:12:33Z</time>
      </trkpt>
      <trkpt lat="37.28665" lon="-7.64399">
        <ele>219.7515</ele>
        <time>2021-07-12T14:12:44Z</time>
      </trkpt>
      <trkpt lat="37.28563" lon="-7.64398">
        <ele>234.0695</ele>
        <time>2021-07-12T14:12:55Z</time>
      </trkpt>
      <trkpt lat="37.2846" lon="-7.64415">
        <ele>250.4305</ele>
        <time>2021-07-12T14:13:06Z</time>
      </trkpt>
      <trkpt lat="37.28374" lon="-7.64372">
        <ele>265.997</ele>
        <time>2021-07-12T14:13:17Z</time>
      </trkpt>
      <trkpt lat="37.28272" lon="-7.64326">
        <ele>275.9354</ele>
        <time>2021-07-12T14:13:28Z</time>
      </trkpt>
      <trkpt lat="37.28188" lon="-7.64353">
        <ele>277.075</ele>
        <time>2021-07-12T14:13:39Z</time>
      </trkpt>
      <trkpt lat="37.2807" lon="-7.64417">
        <ele>286.7135</ele>
        <time>2021-07-12T14:13:50Z</time>
      </trkpt>
      <trkpt lat="37.27949" lon="-7.64422">
        <ele>293.4306</ele>
        <time>2021-07-12T14:14:01Z</time>
      </trkpt>
      <trkpt lat="37.2786" lon="-7.64477">
        <ele>300.3025</ele>
        <time>2021-07-12T14:14:12Z</time>
      </trkpt>
      <trkpt lat="37.2776" lon="-7.64491">
        <ele>304.3455</ele>
        <time>2021-07-12T14:14:23Z</time>
      </trkpt>
      <trkpt lat="37.27735" lon="-7.64461">
        <ele>310.1209</ele>
        <time>2021-07-12T14:14:34Z</time>
      </trkpt>
      <trkpt lat="37.27786" lon="-7.64404">
        <ele>314.8994</ele>
        <time>2021-07-12T14:14:45Z</time>
      </trkpt>
      <trkpt lat="37.27792" lon="-7.64294">
        <ele>304.9116</ele>
        <time>2021-07-12T14:14:56Z</time>
      </trkpt>
      <trkpt lat="37.27845" lon="-7.6415">
        <ele>285.5507</ele>
        <time>2021-07-12T14:15:07Z</time>
      </trkpt>
      <trkpt lat="37.27881" lon="-7.64016">
        <ele>286.2458</ele>
        <time>2021-07-12T14:15:18Z</time>
      </trkpt>
      <trkpt lat="37.27875" lon="-7.63851">
        <ele>278.0932</ele>
        <time>2021-07-12T14:15:29Z</time>
      </trkpt>
      <trkpt lat="37.27885" lon="-7.63714">
        <ele>280.1157</ele>
        <time>2021-07-12T14:15:40Z</time>
      </trkpt>
      <trkpt lat="37.27948" lon="-7.63573">
        <ele>266.4785</ele>
        <time>2021-07-12T14:15:51Z</time>
      </trkpt>
      <trkpt lat="37.28027" lon="-7.63504">
        <ele>266.3471</ele>
        <time>2021-07-12T14:16:02Z</time>
      </trkpt>
      <trkpt lat="37.28087" lon="-7.63391">
        <ele>262.0562</ele>
        <time>2021-07-12T14:16:13Z</time>
      </trkpt>
      <trkpt lat="37.28032" lon="-7.63293">
        <ele>247.4444</ele>
        <time>2021-07-12T14:16:24Z</time>
      </trkpt>
      <trkpt lat="37.27958" lon="-7.63165">
        <ele>235.2382</ele>
        <time>2021-07-12T14:16:35Z</time>
      </trkpt>
      <trkpt lat="37.27889" lon="-7.63078">
        <ele>221.9072</ele>
        <time>2021-07-12T14:16:46Z</time>
      </trkpt>
      <trkpt lat="37.27927" lon="-7.62957">
        <ele>216.3583</ele>
        <time>2021-07-12T14:16:57Z</time>
      </trkpt>
      <trkpt lat="37.27986" lon="-7.62815">
        <ele>210.7736</ele>
        <time>2021-07-12T14:17:08Z</time>
      </trkpt>
      <trkpt lat="37.28016" lon="-7.62725">
        <ele>201.2216</ele>
        <time>2021-07-12T14:17:19Z</time>
      </trkpt>
      <trkpt lat="37.2793" lon="-7.62647">
        <ele>177.299</ele>
        <time>2021-07-12T14:17:30Z</time>
      </trkpt>
      <trkpt lat="37.27885" lon="-7.62654">
        <ele>167.4494</ele>
        <time>2021-07-12T14:17:41Z</time>
      </trkpt>
      <trkpt lat="37.27843" lon="-7.62608">
        <ele>174.1997</ele>
        <time>2021-07-12T14:17:52Z</time>
      </trkpt>
      <trkpt lat="37.27757" lon="-7.62529">
        <ele>176.2285</ele>
        <time>2021-07-12T14:18:03Z</time>
      </trkpt>
      <trkpt lat="37.27713" lon="-7.62451">
        <ele>172.7815</ele>
        <time>2021-07-12T14:18:14Z</time>
      </trkpt>
      <trkpt lat="37.27642" lon="-7.62458">
        <ele>170.5427</ele>
        <time>2021-07-12T14:18:25Z</time>
      </trkpt>
      <trkpt lat="37.27621" lon="-7.6245">
        <ele>171.2674</ele>
        <time>2021-07-12T14:18:36Z</time>
      </trkpt>
      <trkpt lat="37.27636" lon="-7.62326">
        <ele>172.0848</ele>
        <time>2021-07-12T14:18:47Z</time>
      </trkpt>
      <trkpt lat="37.27631" lon="-7.62301">
        <ele>172.1155</ele>
        <time>2021-07-12T14:18:58Z</time>
      </trkpt>
      <trkpt lat="37.27629" lon="-7.62299">
        <ele>165.9088</ele>
        <time>2021-07-12T14:19:58Z</time>
      </trkpt>
      <trkpt lat="37.27628" lon="-7.62288">
        <ele>166.5732</ele>
        <time>2021-07-12T14:20:11Z</time>
      </trkpt>
      <trkpt lat="37.27566" lon="-7.62224">
        <ele>159.1667</ele>
        <time>2021-07-12T14:20:22Z</time>
      </trkpt>
      <trkpt lat="37.27619" lon="-7.62182">
        <ele>147.3849</ele>
        <time>2021-07-12T14:20:33Z</time>
      </trkpt>
      <trkpt lat="37.27681" lon="-7.62092">
        <ele>160.8452</ele>
        <time>2021-07-12T14:20:44Z</time>
      </trkpt>
      <trkpt lat="37.27629" lon="-7.61992">
        <ele>173.1625</ele>
        <time>2021-07-12T14:20:55Z</time>
      </trkpt>
      <trkpt lat="37.27536" lon="-7.61831">
        <ele>187.7697</ele>
        <time>2021-07-12T14:21:06Z</time>
      </trkpt>
      <trkpt lat="37.2736" lon="-7.61818">
        <ele>208.9323</ele>
        <time>2021-07-12T14:21:17Z</time>
      </trkpt>
      <trkpt lat="37.27179" lon="-7.61754">
        <ele>228.5493</ele>
        <time>2021-07-12T14:21:28Z</time>
      </trkpt>
      <trkpt lat="37.26958" lon="-7.61784">
        <ele>247.9464</ele>
        <time>2021-07-12T14:21:39Z</time>
      </trkpt>
      <trkpt lat="37.26757" lon="-7.61764">
        <ele>267.4862</ele>
        <time>2021-07-12T14:21:50Z</time>
      </trkpt>
      <trkpt lat="37.26576" lon="-7.61674">
        <ele>279.8196</ele>
        <time>2021-07-12T14:22:01Z</time>
      </trkpt>
      <trkpt lat="37.26399" lon="-7.616">
        <ele>286.232</ele>
        <time>2021-07-12T14:22:12Z</time>
      </trkpt>
      <trkpt lat="37.26392" lon="-7.61408">
        <ele>292.1096</ele>
        <time>2021-07-12T14:22:23Z</time>
      </trkpt>
      <trkpt lat="37.26248" lon="-7.61409">
        <ele>297.7125</ele>
        <time>2021-07-12T14:22:34Z</time>
      </trkpt>
      <trkpt lat="37.26041" lon="-7.61495">
        <ele>294.2775</ele>
        <time>2021-07-12T14:22:45Z</time>
      </trkpt>
      <trkpt lat="37.25862" lon="-7.61502">
        <ele>295.4983</ele>
        <time>2021-07-12T14:22:56Z</time>
      </trkpt>
      <trkpt lat="37.25719" lon="-7.61417">
        <ele>300.0346</ele>
        <time>2021-07-12T14:23:07Z</time>
      </trkpt>
      <trkpt lat="37.25585" lon="-7.61344">
        <ele>302.4269</ele>
        <time>2021-07-12T14:23:18Z</time>
      </trkpt>
      <trkpt lat="37.25433" lon="-7.61221">
        <ele>315.0364</ele>
        <time>2021-07-12T14:23:29Z</time>
      </trkpt>
      <trkpt lat="37.25283" lon="-7.61139">
        <ele>333.856</ele>
        <time>2021-07-12T14:23:40Z</time>
      </trkpt>
      <trkpt lat="37.25107" lon="-7.61095">
        <ele>346.3853</ele>
        <time>2021-07-12T14:23:51Z</time>
      </trkpt>
      <trkpt lat="37.24947" lon="-7.61006">
        <ele>336.7326</ele>
        <time>2021-07-12T14:24:02Z</time>
      </trkpt>
      <trkpt lat="37.24797" lon="-7.60925">
        <ele>327.2458</ele>
        <time>2021-07-12T14:24:13Z</time>
      </trkpt>
      <trkpt lat="37.24664" lon="-7.60767">
        <ele>328.427</ele>
        <time>2021-07-12T14:24:24Z</time>
      </trkpt>
      <trkpt lat="37.24615" lon="-7.60598">
        <ele>315.2649</ele>
        <time>2021-07-12T14:24:35Z</time>
      </trkpt>
      <trkpt lat="37.24709" lon="-7.60417">
        <ele>301.0735</ele>
        <time>2021-07-12T14:24:46Z</time>
      </trkpt>
      <trkpt lat="37.24801" lon="-7.60208">
        <ele>276.3307</ele>
        <time>2021-07-12T14:24:57Z</time>
      </trkpt>
      <trkpt lat="37.24772" lon="-7.59987">
        <ele>268.7276</ele>
        <time>2021-07-12T14:25:08Z</time>
      </trkpt>
      <trkpt lat="37.24841" lon="-7.59797">
        <ele>260.1436</ele>
        <time>2021-07-12T14:25:19Z</time>
      </trkpt>
      <trkpt lat="37.24884" lon="-7.5963">
        <ele>260.5639</ele>
        <time>2021-07-12T14:25:30Z</time>
      </trkpt>
      <trkpt lat="37.24788" lon="-7.59491">
        <ele>260.5565</ele>
        <time>2021-07-12T14:25:41Z</time>
      </trkpt>
      <trkpt lat="37.24776" lon="-7.59467">
        <ele>261.4404</ele>
        <time>2021-07-12T14:25:52Z</time>
      </trkpt>
      <trkpt lat="37.24848" lon="-7.59579">
        <ele>262.6232</ele>
        <time>2021-07-12T14:26:03Z</time>
      </trkpt>
      <trkpt lat="37.24916" lon="-7.59567">
        <ele>265.3934</ele>
        <time>2021-07-12T14:26:14Z</time>
      </trkpt>
      <trkpt lat="37.24967" lon="-7.59462">
        <ele>265.0359</ele>
        <time>2021-07-12T14:26:25Z</time>
      </trkpt>
      <trkpt lat="37.24968" lon="-7.59283">
        <ele>251.6687</ele>
        <time>2021-07-12T14:26:36Z</time>
      </trkpt>
      <trkpt lat="37.25022" lon="-7.59228">
        <ele>268.0184</ele>
        <time>2021-07-12T14:26:47Z</time>
      </trkpt>
      <trkpt lat="37.25111" lon="-7.59128">
        <ele>269.1132</ele>
        <time>2021-07-12T14:26:58Z</time>
      </trkpt>
      <trkpt lat="37.25136" lon="-7.5896">
        <ele>279.8606</ele>
        <time>2021-07-12T14:27:09Z</time>
      </trkpt>
      <trkpt lat="37.25107" lon="-7.58912">
        <ele>274.7394</ele>
        <time>2021-07-12T14:27:20Z</time>
      </trkpt>
      <trkpt lat="37.25073" lon="-7.58813">
        <ele>269.8971</ele>
        <time>2021-07-12T14:27:31Z</time>
      </trkpt>
      <trkpt lat="37.25012" lon="-7.58691">
        <ele>256.6402</ele>
        <time>2021-07-12T14:27:42Z</time>
      </trkpt>
      <trkpt lat="37.25023" lon="-7.58567">
        <ele>237.393</ele>
        <time>2021-07-12T14:27:53Z</time>
      </trkpt>
      <trkpt lat="37.24935" lon="-7.58526">
        <ele>245.1442</ele>
        <time>2021-07-12T14:28:04Z</time>
      </trkpt>
      <trkpt lat="37.24848" lon="-7.58564">
        <ele>249.3929</ele>
        <time>2021-07-12T14:28:15Z</time>
      </trkpt>
      <trkpt lat="37.24755" lon="-7.58579">
        <ele>250.5158</ele>
        <time>2021-07-12T14:28:26Z</time>
      </trkpt>
      <trkpt lat="37.24652" lon="-7.5863">
        <ele>241.1266</ele>
        <time>2021-07-12T14:28:37Z</time>
      </trkpt>
      <trkpt lat="37.24613" lon="-7.58652">
        <ele>225.4457</ele>
        <time>2021-07-12T14:28:48Z</time>
      </trkpt>
      <trkpt lat="37.24542" lon="-7.58683">
        <ele>217.9341</ele>
        <time>2021-07-12T14:28:59Z</time>
      </trkpt>
      <trkpt lat="37.24482" lon="-7.58755">
        <ele>202.6192</ele>
        <time>2021-07-12T14:29:10Z</time>
      </trkpt>
      <trkpt lat="37.24463" lon="-7.58823">
        <ele>208.3632</ele>
        <time>2021-07-12T14:29:21Z</time>
      </trkpt>
      <trkpt lat="37.24481" lon="-7.58905">
        <ele>219.833</ele>
        <time>2021-07-12T14:29:32Z</time>
      </trkpt>
      <trkpt lat="37.24412" lon="-7.58894">
        <ele>230.1898</ele>
        <time>2021-07-12T14:29:43Z</time>
      </trkpt>
      <trkpt lat="37.24318" lon="-7.5889">
        <ele>238.2759</ele>
        <time>2021-07-12T14:29:54Z</time>
      </trkpt>
      <trkpt lat="37.24225" lon="-7.58861">
        <ele>243.8371</ele>
        <time>2021-07-12T14:30:05Z</time>
      </trkpt>
      <trkpt lat="37.24141" lon="-7.58894">
        <ele>233.3223</ele>
        <time>2021-07-12T14:30:16Z</time>
      </trkpt>
      <trkpt lat="37.24052" lon="-7.5885">
        <ele>233.747</ele>
        <time>2021-07-12T14:30:27Z</time>
      </trkpt>
      <trkpt lat="37.24025" lon="-7.58771">
        <ele>238.5735</ele>
        <time>2021-07-12T14:30:38Z</time>
      </trkpt>
      <trkpt lat="37.24064" lon="-7.58626">
        <ele>231.1737</ele>
        <time>2021-07-12T14:30:49Z</time>
      </trkpt>
      <trkpt lat="37.24093" lon="-7.58444">
        <ele>219.9063</ele>
        <time>2021-07-12T14:31:00Z</time>
      </trkpt>
      <trkpt lat="37.2411" lon="-7.58321">
        <ele>204.5044</ele>
        <time>2021-07-12T14:31:11Z</time>
      </trkpt>
      <trkpt lat="37.24104" lon="-7.58228">
        <ele>200.1514</ele>
        <time>2021-07-12T14:31:22Z</time>
      </trkpt>
      <trkpt lat="37.24041" lon="-7.58131">
        <ele>189.8704</ele>
        <time>2021-07-12T14:31:33Z</time>
      </trkpt>
      <trkpt lat="37.23999" lon="-7.58117">
        <ele>193.1585</ele>
        <time>2021-07-12T14:31:44Z</time>
      </trkpt>
      <trkpt lat="37.23925" lon="-7.58073">
        <ele>185.8165</ele>
        <time>2021-07-12T14:31:55Z</time>
      </trkpt>
      <trkpt lat="37.23842" lon="-7.58009">
        <ele>171.7151</ele>
        <time>2021-07-12T14:32:06Z</time>
      </trkpt>
      <trkpt lat="37.23767" lon="-7.57909">
        <ele>152.992</ele>
        <time>2021-07-12T14:32:17Z</time>
      </trkpt>
      <trkpt lat="37.2367" lon="-7.57877">
        <ele>144.049</ele>
        <time>2021-07-12T14:32:28Z</time>
      </trkpt>
      <trkpt lat="37.23557" lon="-7.57854">
        <ele>144.2853</ele>
        <time>2021-07-12T14:32:39Z</time>
      </trkpt>
      <trkpt lat="37.23498" lon="-7.57741">
        <ele>147.2867</ele>
        <time>2021-07-12T14:32:50Z</time>
      </trkpt>
      <trkpt lat="37.23406" lon="-7.57622">
        <ele>159.7003</ele>
        <time>2021-07-12T14:33:01Z</time>
      </trkpt>
      <trkpt lat="37.23294" lon="-7.5758">
        <ele>174.0408</ele>
        <time>2021-07-12T14:33:12Z</time>
      </trkpt>
      <trkpt lat="37.23163" lon="-7.57543">
        <ele>174.8673</ele>
        <time>2021-07-12T14:33:23Z</time>
      </trkpt>
      <trkpt lat="37.23044" lon="-7.57514">
        <ele>183.6555</ele>
        <time>2021-07-12T14:33:34Z</time>
      </trkpt>
      <trkpt lat="37.22952" lon="-7.57425">
        <ele>182.6564</ele>
        <time>2021-07-12T14:33:45Z</time>
      </trkpt>
      <trkpt lat="37.22917" lon="-7.57287">
        <ele>179.8447</ele>
        <time>2021-07-12T14:33:56Z</time>
      </trkpt>
      <trkpt lat="37.2286" lon="-7.57219">
        <ele>179.8624</ele>
        <time>2021-07-12T14:34:07Z</time>
      </trkpt>
      <trkpt lat="37.22769" lon="-7.57168">
        <ele>177.3119</ele>
        <time>2021-07-12T14:34:18Z</time>
      </trkpt>
      <trkpt lat="37.22703" lon="-7.57117">
        <ele>171.1102</ele>
        <time>2021-07-12T14:34:29Z</time>
      </trkpt>
      <trkpt lat="37.22586" lon="-7.57094">
        <ele>175.7609</ele>
        <time>2021-07-12T14:34:40Z</time>
      </trkpt>
      <trkpt lat="37.22466" lon="-7.57059">
        <ele>165.051</ele>
        <time>2021-07-12T14:34:51Z</time>
      </trkpt>
      <trkpt lat="37.22395" lon="-7.57087">
        <ele>170.4458</ele>
        <time>2021-07-12T14:35:02Z</time>
      </trkpt>
      <trkpt lat="37.22389" lon="-7.57084">
        <ele>168.3316</ele>
        <time>2021-07-12T14:35:13Z</time>
      </trkpt>
      <trkpt lat="37.22356" lon="-7.5708">
        <ele>171.7676</ele>
        <time>2021-07-12T14:35:24Z</time>
      </trkpt>
      <trkpt lat="37.22256" lon="-7.57087">
        <ele>164.9716</ele>
        <time>2021-07-12T14:35:35Z</time>
      </trkpt>
      <trkpt lat="37.2212" lon="-7.57021">
        <ele>156.801</ele>
        <time>2021-07-12T14:35:46Z</time>
      </trkpt>
      <trkpt lat="37.2204" lon="-7.5696">
        <ele>151.1536</ele>
        <time>2021-07-12T14:35:57Z</time>
      </trkpt>
      <trkpt lat="37.21912" lon="-7.56898">
        <ele>142.5057</ele>
        <time>2021-07-12T14:36:08Z</time>
      </trkpt>
      <trkpt lat="37.21825" lon="-7.56863">
        <ele>120.9765</ele>
        <time>2021-07-12T14:36:19Z</time>
      </trkpt>
      <trkpt lat="37.21757" lon="-7.56797">
        <ele>137.2737</ele>
        <time>2021-07-12T14:36:30Z</time>
      </trkpt>
      <trkpt lat="37.21677" lon="-7.56709">
        <ele>150.2296</ele>
        <time>2021-07-12T14:36:41Z</time>
      </trkpt>
      <trkpt lat="37.21598" lon="-7.56659">
        <ele>139.1462</ele>
        <time>2021-07-12T14:36:52Z</time>
      </trkpt>
      <trkpt lat="37.21492" lon="-7.56644">
        <ele>131.6154</ele>
        <time>2021-07-12T14:37:03Z</time>
      </trkpt>
      <trkpt lat="37.21387" lon="-7.56631">
        <ele>122.5197</ele>
        <time>2021-07-12T14:37:14Z</time>
      </trkpt>
      <trkpt lat="37.21287" lon="-7.56619">
        <ele>122.0847</ele>
        <time>2021-07-12T14:37:25Z</time>
      </trkpt>
      <trkpt lat="37.21173" lon="-7.56532">
        <ele>132.9661</ele>
        <time>2021-07-12T14:37:36Z</time>
      </trkpt>
      <trkpt lat="37.21102" lon="-7.56529">
        <ele>134.5209</ele>
        <time>2021-07-12T14:37:47Z</time>
      </trkpt>
      <trkpt lat="37.21072" lon="-7.566">
        <ele>140.5293</ele>
        <time>2021-07-12T14:37:58Z</time>
      </trkpt>
      <trkpt lat="37.21077" lon="-7.5673">
        <ele>136.3016</ele>
        <time>2021-07-12T14:38:09Z</time>
      </trkpt>
      <trkpt lat="37.21032" lon="-7.56824">
        <ele>128.8656</ele>
        <time>2021-07-12T14:38:20Z</time>
      </trkpt>
      <trkpt lat="37.20975" lon="-7.56742">
        <ele>136.4231</ele>
        <time>2021-07-12T14:38:31Z</time>
      </trkpt>
      <trkpt lat="37.2091" lon="-7.5662">
        <ele>140.7456</ele>
        <time>2021-07-12T14:38:42Z</time>
      </trkpt>
      <trkpt lat="37.20919" lon="-7.56626">
        <ele>141.5917</ele>
        <time>2021-07-12T14:38:53Z</time>
      </trkpt>
      <trkpt lat="37.20978" lon="-7.56745">
        <ele>141.9481</ele>
        <time>2021-07-12T14:39:04Z</time>
      </trkpt>
      <trkpt lat="37.20878" lon="-7.56765">
        <ele>123.3582</ele>
        <time>2021-07-12T14:39:15Z</time>
      </trkpt>
      <trkpt lat="37.20789" lon="-7.56778">
        <ele>75.77267</ele>
        <time>2021-07-12T14:39:26Z</time>
      </trkpt>
      <trkpt lat="37.20732" lon="-7.56696">
        <ele>22.16249</ele>
        <time>2021-07-12T14:39:37Z</time>
      </trkpt>
      <trkpt lat="37.20624" lon="-7.56673">
        <ele>41.11005</ele>
        <time>2021-07-12T14:39:48Z</time>
      </trkpt>
      <trkpt lat="37.20533" lon="-7.56721">
        <ele>87.26483</ele>
        <time>2021-07-12T14:39:59Z</time>
      </trkpt>
      <trkpt lat="37.20435" lon="-7.56704">
        <ele>104.4736</ele>
        <time>2021-07-12T14:40:10Z</time>
      </trkpt>
      <trkpt lat="37.20355" lon="-7.56722">
        <ele>104.8657</ele>
        <time>2021-07-12T14:40:21Z</time>
      </trkpt>
      <trkpt lat="37.20273" lon="-7.56795">
        <ele>110.1038</ele>
        <time>2021-07-12T14:40:32Z</time>
      </trkpt>
      <trkpt lat="37.20193" lon="-7.56832">
        <ele>110.2034</ele>
        <time>2021-07-12T14:40:43Z</time>
      </trkpt>
      <trkpt lat="37.20133" lon="-7.56803">
        <ele>112.5399</ele>
        <time>2021-07-12T14:40:54Z</time>
      </trkpt>
      <trkpt lat="37.20042" lon="-7.56875">
        <ele>117.8158</ele>
        <time>2021-07-12T14:41:05Z</time>
      </trkpt>
      <trkpt lat="37.19959" lon="-7.56893">
        <ele>109.91</ele>
        <time>2021-07-12T14:41:16Z</time>
      </trkpt>
      <trkpt lat="37.19947" lon="-7.56822">
        <ele>109.7722</ele>
        <time>2021-07-12T14:41:27Z</time>
      </trkpt>
      <trkpt lat="37.19966" lon="-7.56682">
        <ele>122.4291</ele>
        <time>2021-07-12T14:41:38Z</time>
      </trkpt>
      <trkpt lat="37.20041" lon="-7.56653">
        <ele>118.5242</ele>
        <time>2021-07-12T14:41:49Z</time>
      </trkpt>
      <trkpt lat="37.20046" lon="-7.56569">
        <ele>106.7491</ele>
        <time>2021-07-12T14:42:00Z</time>
      </trkpt>
      <trkpt lat="37.20131" lon="-7.56447">
        <ele>102.5945</ele>
        <time>2021-07-12T14:42:11Z</time>
      </trkpt>
      <trkpt lat="37.20234" lon="-7.5633">
        <ele>108.5498</ele>
        <time>2021-07-12T14:42:22Z</time>
      </trkpt>
      <trkpt lat="37.20237" lon="-7.56195">
        <ele>112.218</ele>
        <time>2021-07-12T14:42:33Z</time>
      </trkpt>
      <trkpt lat="37.20271" lon="-7.56065">
        <ele>111.7279</ele>
        <time>2021-07-12T14:42:44Z</time>
      </trkpt>
      <trkpt lat="37.2024" lon="-7.55946">
        <ele>110.5422</ele>
        <time>2021-07-12T14:42:55Z</time>
      </trkpt>
      <trkpt lat="37.20297" lon="-7.55855">
        <ele>111.0342</ele>
        <time>2021-07-12T14:43:06Z</time>
      </trkpt>
      <trkpt lat="37.20351" lon="-7.55739">
        <ele>109.729</ele>
        <time>2021-07-12T14:43:17Z</time>
      </trkpt>
      <trkpt lat="37.20356" lon="-7.55738">
        <ele>109.7054</ele>
        <time>2021-07-12T14:43:28Z</time>
      </trkpt>
      <trkpt lat="37.20354" lon="-7.55738">
        <ele>110.6082</ele>
        <time>2021-07-12T14:44:28Z</time>
      </trkpt>
      <trkpt lat="37.20354" lon="-7.55728">
        <ele>110.9915</ele>
        <time>2021-07-12T14:44:41Z</time>
      </trkpt>
      <trkpt lat="37.20381" lon="-7.55555">
        <ele>112.4068</ele>
        <time>2021-07-12T14:44:52Z</time>
      </trkpt>
      <trkpt lat="37.20361" lon="-7.55418">
        <ele>112.6921</ele>
        <time>2021-07-12T14:45:03Z</time>
      </trkpt>
      <trkpt lat="37.20189" lon="-7.55327">
        <ele>105.9516</ele>
        <time>2021-07-12T14:45:14Z</time>
      </trkpt>
      <trkpt lat="37.20152" lon="-7.55138">
        <ele>116.6944</ele>
        <time>2021-07-12T14:45:25Z</time>
      </trkpt>
      <trkpt lat="37.20007" lon="-7.5512">
        <ele>113.2317</ele>
        <time>2021-07-12T14:45:36Z</time>
      </trkpt>
      <trkpt lat="37.19829" lon="-7.55104">
        <ele>98.06576</ele>
        <time>2021-07-12T14:45:47Z</time>
      </trkpt>
      <trkpt lat="37.19677" lon="-7.5497">
        <ele>84.45123</ele>
        <time>2021-07-12T14:45:58Z</time>
      </trkpt>
      <trkpt lat="37.19652" lon="-7.54759">
        <ele>93.93389</ele>
        <time>2021-07-12T14:46:09Z</time>
      </trkpt>
      <trkpt lat="37.19488" lon="-7.5466">
        <ele>86.65775</ele>
        <time>2021-07-12T14:46:20Z</time>
      </trkpt>
      <trkpt lat="37.19283" lon="-7.54607">
        <ele>81.2138</ele>
        <time>2021-07-12T14:46:31Z</time>
      </trkpt>
      <trkpt lat="37.19122" lon="-7.5445">
        <ele>79.03643</ele>
        <time>2021-07-12T14:46:42Z</time>
      </trkpt>
      <trkpt lat="37.18956" lon="-7.54335">
        <ele>71.50464</ele>
        <time>2021-07-12T14:46:53Z</time>
      </trkpt>
      <trkpt lat="37.18784" lon="-7.54252">
        <ele>61.81143</ele>
        <time>2021-07-12T14:47:04Z</time>
      </trkpt>
      <trkpt lat="37.18626" lon="-7.54184">
        <ele>66.23311</ele>
        <time>2021-07-12T14:47:15Z</time>
      </trkpt>
      <trkpt lat="37.18483" lon="-7.54146">
        <ele>61.4922</ele>
        <time>2021-07-12T14:47:26Z</time>
      </trkpt>
      <trkpt lat="37.18319" lon="-7.54099">
        <ele>55.75934</ele>
        <time>2021-07-12T14:47:37Z</time>
      </trkpt>
      <trkpt lat="37.18157" lon="-7.54054">
        <ele>48.69237</ele>
        <time>2021-07-12T14:47:48Z</time>
      </trkpt>
      <trkpt lat="37.1811" lon="-7.53939">
        <ele>46.09602</ele>
        <time>2021-07-12T14:47:59Z</time>
      </trkpt>
      <trkpt lat="37.18013" lon="-7.53881">
        <ele>44.74069</ele>
        <time>2021-07-12T14:48:10Z</time>
      </trkpt>
      <trkpt lat="37.17939" lon="-7.53842">
        <ele>43.28801</ele>
        <time>2021-07-12T14:48:21Z</time>
      </trkpt>
      <trkpt lat="37.17855" lon="-7.53797">
        <ele>40.19652</ele>
        <time>2021-07-12T14:48:32Z</time>
      </trkpt>
      <trkpt lat="37.17779" lon="-7.53754">
        <ele>38.287</ele>
        <time>2021-07-12T14:48:43Z</time>
      </trkpt>
      <trkpt lat="37.17703" lon="-7.53709">
        <ele>36.30124</ele>
        <time>2021-07-12T14:48:54Z</time>
      </trkpt>
      <trkpt lat="37.17754" lon="-7.53685">
        <ele>42.79156</ele>
        <time>2021-07-12T14:49:05Z</time>
      </trkpt>
      <trkpt lat="37.17797" lon="-7.53626">
        <ele>37.39233</ele>
        <time>2021-07-12T14:49:16Z</time>
      </trkpt>
      <trkpt lat="37.17761" lon="-7.53495">
        <ele>38.33108</ele>
        <time>2021-07-12T14:49:27Z</time>
      </trkpt>
      <trkpt lat="37.17688" lon="-7.53482">
        <ele>32.38829</ele>
        <time>2021-07-12T14:49:38Z</time>
      </trkpt>
      <trkpt lat="37.17644" lon="-7.53422">
        <ele>32.30892</ele>
        <time>2021-07-12T14:49:49Z</time>
      </trkpt>
      <trkpt lat="37.17589" lon="-7.53364">
        <ele>30.86561</ele>
        <time>2021-07-12T14:50:00Z</time>
      </trkpt>
      <trkpt lat="37.17552" lon="-7.53318">
        <ele>33.00768</ele>
        <time>2021-07-12T14:50:11Z</time>
      </trkpt>
      <trkpt lat="37.17508" lon="-7.53278">
        <ele>29.94142</ele>
        <time>2021-07-12T14:50:22Z</time>
      </trkpt>
      <trkpt lat="37.17454" lon="-7.53225">
        <ele>21.872</ele>
        <time>2021-07-12T14:50:33Z</time>
      </trkpt>
      <trkpt lat="37.17406" lon="-7.53171">
        <ele>20.42712</ele>
        <time>2021-07-12T14:50:44Z</time>
      </trkpt>
      <trkpt lat="37.17397" lon="-7.53159">
        <ele>22.21259</ele>
        <time>2021-07-12T14:50:55Z</time>
      </trkpt>
      <trkpt lat="37.1739" lon="-7.5315">
        <ele>25.81299</ele>
        <time>2021-07-12T14:51:06Z</time>
      </trkpt>
      <trkpt lat="37.17361" lon="-7.53125">
        <ele>24.59754</ele>
        <time>2021-07-12T14:51:17Z</time>
      </trkpt>
      <trkpt lat="37.17397" lon="-7.53048">
        <ele>25.44296</ele>
        <time>2021-07-12T14:51:28Z</time>
      </trkpt>
      <trkpt lat="37.17468" lon="-7.52932">
        <ele>25.47246</ele>
        <time>2021-07-12T14:51:39Z</time>
      </trkpt>
      <trkpt lat="37.17432" lon="-7.52846">
        <ele>23.79603</ele>
        <time>2021-07-12T14:51:50Z</time>
      </trkpt>
      <trkpt lat="37.17376" lon="-7.52836">
        <ele>25.95656</ele>
        <time>2021-07-12T14:52:01Z</time>
      </trkpt>
      <trkpt lat="37.17299" lon="-7.52746">
        <ele>22.85955</ele>
        <time>2021-07-12T14:52:12Z</time>
      </trkpt>
      <trkpt lat="37.17213" lon="-7.5265">
        <ele>19.24467</ele>
        <time>2021-07-12T14:52:23Z</time>
      </trkpt>
      <trkpt lat="37.1714" lon="-7.52575">
        <ele>16.65456</ele>
        <time>2021-07-12T14:52:34Z</time>
      </trkpt>
      <trkpt lat="37.17067" lon="-7.52522">
        <ele>16.56139</ele>
        <time>2021-07-12T14:52:45Z</time>
      </trkpt>
      <trkpt lat="37.17002" lon="-7.52463">
        <ele>11.15407</ele>
        <time>2021-07-12T14:52:56Z</time>
      </trkpt>
      <trkpt lat="37.16935" lon="-7.52394">
        <ele>9.062982</ele>
        <time>2021-07-12T14:53:07Z</time>
      </trkpt>
      <trkpt lat="37.16862" lon="-7.5232">
        <ele>7.558455</ele>
        <time>2021-07-12T14:53:18Z</time>
      </trkpt>
      <trkpt lat="37.16798" lon="-7.52248">
        <ele>8.049588</ele>
        <time>2021-07-12T14:53:29Z</time>
      </trkpt>
      <trkpt lat="37.16762" lon="-7.52204">
        <ele>6.419688</ele>
        <time>2021-07-12T14:53:40Z</time>
      </trkpt>
      <trkpt lat="37.16778" lon="-7.52108">
        <ele>8.57295</ele>
        <time>2021-07-12T14:53:51Z</time>
      </trkpt>
      <trkpt lat="37.16829" lon="-7.51978">
        <ele>10.02119</ele>
        <time>2021-07-12T14:54:02Z</time>
      </trkpt>
      <trkpt lat="37.16853" lon="-7.51897">
        <ele>7.446542</ele>
        <time>2021-07-12T14:54:13Z</time>
      </trkpt>
      <trkpt lat="37.16813" lon="-7.51798">
        <ele>7.506728</ele>
        <time>2021-07-12T14:54:24Z</time>
      </trkpt>
      <trkpt lat="37.16732" lon="-7.51755">
        <ele>8.037835</ele>
        <time>2021-07-12T14:54:35Z</time>
      </trkpt>
      <trkpt lat="37.16653" lon="-7.51719">
        <ele>10.44474</ele>
        <time>2021-07-12T14:54:46Z</time>
      </trkpt>
      <trkpt lat="37.16625" lon="-7.51736">
        <ele>5.480432</ele>
        <time>2021-07-12T14:54:57Z</time>
      </trkpt>
      <trkpt lat="37.1661" lon="-7.5176">
        <ele>4.250176</ele>
        <time>2021-07-12T14:55:08Z</time>
      </trkpt>
      <trkpt lat="37.16609" lon="-7.51755">
        <ele>3.762816</ele>
        <time>2021-07-12T14:55:19Z</time>
      </trkpt>
      <trkpt lat="37.1661" lon="-7.51759">
        <ele>-0.339711</ele>
        <time>2021-07-12T14:56:19Z</time>
      </trkpt>
      <trkpt lat="37.16609" lon="-7.51753">
        <ele>1.106922</ele>
        <time>2021-07-12T14:56:35Z</time>
      </trkpt>
      <trkpt lat="37.16608" lon="-7.51755">
        <ele>1.12733</ele>
        <time>2021-07-12T14:57:34Z</time>
      </trkpt>
      <trkpt lat="37.16612" lon="-7.51756">
        <ele>-1.339666</ele>
        <time>2021-07-12T14:58:04Z</time>
      </trkpt>
      <trkpt lat="37.16608" lon="-7.51757">
        <ele>5.008116</ele>
        <time>2021-07-12T14:58:36Z</time>
      </trkpt>
      <trkpt lat="37.16612" lon="-7.51758">
        <ele>4.289935</ele>
        <time>2021-07-12T14:59:24Z</time>
      </trkpt>
      <trkpt lat="37.16608" lon="-7.51756">
        <ele>4.519018</ele>
        <time>2021-07-12T14:59:38Z</time>
      </trkpt>
      <trkpt lat="37.16611" lon="-7.51757">
        <ele>4.321224</ele>
        <time>2021-07-12T15:00:00Z</time>
      </trkpt>
      <trkpt lat="37.16615" lon="-7.51758">
        <ele>4.135815</ele>
        <time>2021-07-12T15:00:50Z</time>
      </trkpt>
      <trkpt lat="37.16611" lon="-7.51757">
        <ele>4.010375</ele>
        <time>2021-07-12T15:01:42Z</time>
      </trkpt>
      <trkpt lat="37.16616" lon="-7.51761">
        <ele>3.073686</ele>
        <time>2021-07-12T15:02:04Z</time>
      </trkpt>
      <trkpt lat="37.16613" lon="-7.51757">
        <ele>4.126532</ele>
        <time>2021-07-12T15:02:20Z</time>
      </trkpt>
      <trkpt lat="37.16614" lon="-7.51758">
        <ele>4.38239</ele>
        <time>2021-07-12T15:03:20Z</time>
      </trkpt>
      <trkpt lat="37.16613" lon="-7.51757">
        <ele>4.329496</ele>
        <time>2021-07-12T15:04:20Z</time>
      </trkpt>
      <trkpt lat="37.16616" lon="-7.51755">
        <ele>3.693684</ele>
        <time>2021-07-12T15:04:47Z</time>
      </trkpt>
      <trkpt lat="37.16614" lon="-7.51759">
        <ele>4.098284</ele>
        <time>2021-07-12T15:05:06Z</time>
      </trkpt>
      <trkpt lat="37.16613" lon="-7.51758">
        <ele>3.729329</ele>
        <time>2021-07-12T15:06:06Z</time>
      </trkpt>
      <trkpt lat="37.1661" lon="-7.51759">
        <ele>2.741822</ele>
        <time>2021-07-12T15:07:06Z</time>
      </trkpt>
      <trkpt lat="37.16611" lon="-7.51761">
        <ele>4.374664</ele>
        <time>2021-07-12T15:11:49Z</time>
      </trkpt>
      <trkpt lat="37.16607" lon="-7.51762">
        <ele>4.341782</ele>
        <time>2021-07-12T15:12:14Z</time>
      </trkpt>
      <trkpt lat="37.16607" lon="-7.51758">
        <ele>4.048794</ele>
        <time>2021-07-12T15:12:53Z</time>
      </trkpt>
      <trkpt lat="37.16605" lon="-7.51753">
        <ele>3.860254</ele>
        <time>2021-07-12T15:13:17Z</time>
      </trkpt>
      <trkpt lat="37.16606" lon="-7.51752">
        <ele>4.184263</ele>
        <time>2021-07-12T15:14:17Z</time>
      </trkpt>
      <trkpt lat="37.16606" lon="-7.51756">
        <ele>5.650557</ele>
        <time>2021-07-12T15:14:39Z</time>
      </trkpt>
      <trkpt lat="37.16607" lon="-7.51757">
        <ele>4.09811</ele>
        <time>2021-07-12T15:15:37Z</time>
      </trkpt>
      <trkpt lat="37.16606" lon="-7.51757">
        <ele>4.566398</ele>
        <time>2021-07-12T15:16:36Z</time>
      </trkpt>
      <trkpt lat="37.16606" lon="-7.51757">
        <ele>3.711226</ele>
        <time>2021-07-12T15:17:34Z</time>
      </trkpt>
      <trkpt lat="37.16607" lon="-7.51757">
        <ele>3.639469</ele>
        <time>2021-07-12T15:18:32Z</time>
      </trkpt>
      <trkpt lat="37.16608" lon="-7.51757">
        <ele>5.428766</ele>
        <time>2021-07-12T15:19:31Z</time>
      </trkpt>
      <trkpt lat="37.16608" lon="-7.51761">
        <ele>6.644304</ele>
        <time>2021-07-12T15:19:47Z</time>
      </trkpt>
      <trkpt lat="37.16611" lon="-7.51758">
        <ele>4.169733</ele>
        <time>2021-07-12T15:20:10Z</time>
      </trkpt>
      <trkpt lat="37.16611" lon="-7.51753">
        <ele>4.076595</ele>
        <time>2021-07-12T15:21:07Z</time>
      </trkpt>
      <trkpt lat="37.16614" lon="-7.51752">
        <ele>4.949328</ele>
        <time>2021-07-12T15:21:42Z</time>
      </trkpt>
      <trkpt lat="37.16613" lon="-7.51757">
        <ele>4.159868</ele>
        <time>2021-07-12T15:22:00Z</time>
      </trkpt>
      <trkpt lat="37.16612" lon="-7.51761">
        <ele>4.498909</ele>
        <time>2021-07-12T15:22:16Z</time>
      </trkpt>
      <trkpt lat="37.1661" lon="-7.51756">
        <ele>3.248146</ele>
        <time>2021-07-12T15:23:13Z</time>
      </trkpt>
      <trkpt lat="37.1661" lon="-7.5176">
        <ele>3.626265</ele>
        <time>2021-07-12T15:24:11Z</time>
      </trkpt>
      <trkpt lat="37.16613" lon="-7.51756">
        <ele>3.790165</ele>
        <time>2021-07-12T15:24:28Z</time>
      </trkpt>
      <trkpt lat="37.16609" lon="-7.51757">
        <ele>3.711923</ele>
        <time>2021-07-12T15:25:03Z</time>
      </trkpt>
      <trkpt lat="37.16613" lon="-7.51758">
        <ele>4.635282</ele>
        <time>2021-07-12T15:25:41Z</time>
      </trkpt>
      <trkpt lat="37.16612" lon="-7.51757">
        <ele>3.971058</ele>
        <time>2021-07-12T15:26:41Z</time>
      </trkpt>
      <trkpt lat="37.16614" lon="-7.51758">
        <ele>4.714979</ele>
        <time>2021-07-12T15:27:41Z</time>
      </trkpt>
      <trkpt lat="37.1661" lon="-7.51757">
        <ele>4.293785</ele>
        <time>2021-07-12T15:28:00Z</time>
      </trkpt>
      <trkpt lat="37.16608" lon="-7.51759">
        <ele>4.206393</ele>
        <time>2021-07-12T15:29:00Z</time>
      </trkpt>
      <trkpt lat="37.16608" lon="-7.51756">
        <ele>4.630258</ele>
        <time>2021-07-12T15:29:59Z</time>
      </trkpt>
      <trkpt lat="37.16604" lon="-7.51758">
        <ele>4.226007</ele>
        <time>2021-07-12T15:30:43Z</time>
      </trkpt>
      <trkpt lat="37.16607" lon="-7.51755">
        <ele>6.904251</ele>
        <time>2021-07-12T15:31:05Z</time>
      </trkpt>
      <trkpt lat="37.16608" lon="-7.51749">
        <ele>4.363029</ele>
        <time>2021-07-12T15:31:16Z</time>
      </trkpt>
      <trkpt lat="37.16629" lon="-7.51713">
        <ele>5.312332</ele>
        <time>2021-07-12T15:31:27Z</time>
      </trkpt>
      <trkpt lat="37.16696" lon="-7.51742">
        <ele>9.69686</ele>
        <time>2021-07-12T15:31:38Z</time>
      </trkpt>
      <trkpt lat="37.16746" lon="-7.51762">
        <ele>10.73827</ele>
        <time>2021-07-12T15:31:49Z</time>
      </trkpt>
      <trkpt lat="37.16751" lon="-7.51766">
        <ele>13.34404</ele>
        <time>2021-07-12T15:32:16Z</time>
      </trkpt>
      <trkpt lat="37.16817" lon="-7.51807">
        <ele>11.99551</ele>
        <time>2021-07-12T15:32:27Z</time>
      </trkpt>
      <trkpt lat="37.16852" lon="-7.51889">
        <ele>11.99406</ele>
        <time>2021-07-12T15:32:38Z</time>
      </trkpt>
      <trkpt lat="37.16879" lon="-7.51904">
        <ele>11.53796</ele>
        <time>2021-07-12T15:32:49Z</time>
      </trkpt>
      <trkpt lat="37.1696" lon="-7.51823">
        <ele>14.06891</ele>
        <time>2021-07-12T15:33:00Z</time>
      </trkpt>
      <trkpt lat="37.17021" lon="-7.51773">
        <ele>14.94523</ele>
        <time>2021-07-12T15:33:11Z</time>
      </trkpt>
      <trkpt lat="37.17131" lon="-7.51851">
        <ele>15.72931</ele>
        <time>2021-07-12T15:33:22Z</time>
      </trkpt>
      <trkpt lat="37.17243" lon="-7.51913">
        <ele>17.21032</ele>
        <time>2021-07-12T15:33:33Z</time>
      </trkpt>
      <trkpt lat="37.17311" lon="-7.51948">
        <ele>17.61975</ele>
        <time>2021-07-12T15:33:44Z</time>
      </trkpt>
      <trkpt lat="37.17444" lon="-7.51994">
        <ele>18.44762</ele>
        <time>2021-07-12T15:33:55Z</time>
      </trkpt>
      <trkpt lat="37.17605" lon="-7.52037">
        <ele>20.34409</ele>
        <time>2021-07-12T15:34:06Z</time>
      </trkpt>
      <trkpt lat="37.17716" lon="-7.52021">
        <ele>19.61263</ele>
        <time>2021-07-12T15:34:17Z</time>
      </trkpt>
      <trkpt lat="37.17793" lon="-7.51983">
        <ele>19.74805</ele>
        <time>2021-07-12T15:34:28Z</time>
      </trkpt>
      <trkpt lat="37.17867" lon="-7.5192">
        <ele>20.30077</ele>
        <time>2021-07-12T15:34:39Z</time>
      </trkpt>
      <trkpt lat="37.17901" lon="-7.5189">
        <ele>21.32139</ele>
        <time>2021-07-12T15:34:50Z</time>
      </trkpt>
      <trkpt lat="37.17901" lon="-7.51885">
        <ele>21.10274</ele>
        <time>2021-07-12T15:35:03Z</time>
      </trkpt>
      <trkpt lat="37.179" lon="-7.51881">
        <ele>20.83023</ele>
        <time>2021-07-12T15:36:02Z</time>
      </trkpt>
      <trkpt lat="37.179" lon="-7.51877">
        <ele>20.29559</ele>
        <time>2021-07-12T15:36:31Z</time>
      </trkpt>
      <trkpt lat="37.17904" lon="-7.51877">
        <ele>23.18574</ele>
        <time>2021-07-12T15:36:45Z</time>
      </trkpt>
      <trkpt lat="37.17928" lon="-7.51755">
        <ele>19.76875</ele>
        <time>2021-07-12T15:36:56Z</time>
      </trkpt>
      <trkpt lat="37.17946" lon="-7.51587">
        <ele>16.79251</ele>
        <time>2021-07-12T15:37:07Z</time>
      </trkpt>
      <trkpt lat="37.17966" lon="-7.51386">
        <ele>14.1257</ele>
        <time>2021-07-12T15:37:18Z</time>
      </trkpt>
      <trkpt lat="37.1799" lon="-7.51163">
        <ele>10.22132</ele>
        <time>2021-07-12T15:37:29Z</time>
      </trkpt>
      <trkpt lat="37.18014" lon="-7.5094">
        <ele>9.071899</ele>
        <time>2021-07-12T15:37:40Z</time>
      </trkpt>
      <trkpt lat="37.18018" lon="-7.50805">
        <ele>9.909865</ele>
        <time>2021-07-12T15:37:51Z</time>
      </trkpt>
      <trkpt lat="37.18047" lon="-7.50637">
        <ele>14.10399</ele>
        <time>2021-07-12T15:38:02Z</time>
      </trkpt>
      <trkpt lat="37.18061" lon="-7.50501">
        <ele>15.51801</ele>
        <time>2021-07-12T15:38:13Z</time>
      </trkpt>
      <trkpt lat="37.18073" lon="-7.50422">
        <ele>17.12569</ele>
        <time>2021-07-12T15:38:24Z</time>
      </trkpt>
      <trkpt lat="37.1808" lon="-7.50323">
        <ele>16.75563</ele>
        <time>2021-07-12T15:38:35Z</time>
      </trkpt>
      <trkpt lat="37.18099" lon="-7.50139">
        <ele>12.84844</ele>
        <time>2021-07-12T15:38:46Z</time>
      </trkpt>
      <trkpt lat="37.18122" lon="-7.49954">
        <ele>7.589362</ele>
        <time>2021-07-12T15:38:57Z</time>
      </trkpt>
      <trkpt lat="37.18129" lon="-7.49867">
        <ele>8.762853</ele>
        <time>2021-07-12T15:39:08Z</time>
      </trkpt>
      <trkpt lat="37.18129" lon="-7.49801">
        <ele>8.725008</ele>
        <time>2021-07-12T15:39:19Z</time>
      </trkpt>
      <trkpt lat="37.18148" lon="-7.49679">
        <ele>8.051219</ele>
        <time>2021-07-12T15:39:30Z</time>
      </trkpt>
      <trkpt lat="37.18162" lon="-7.49552">
        <ele>7.002022</ele>
        <time>2021-07-12T15:39:41Z</time>
      </trkpt>
      <trkpt lat="37.18161" lon="-7.49487">
        <ele>5.557402</ele>
        <time>2021-07-12T15:39:52Z</time>
      </trkpt>
      <trkpt lat="37.18182" lon="-7.49369">
        <ele>9.333662</ele>
        <time>2021-07-12T15:40:03Z</time>
      </trkpt>
      <trkpt lat="37.18195" lon="-7.49232">
        <ele>9.563225</ele>
        <time>2021-07-12T15:40:14Z</time>
      </trkpt>
      <trkpt lat="37.18203" lon="-7.49174">
        <ele>10.14162</ele>
        <time>2021-07-12T15:40:25Z</time>
      </trkpt>
      <trkpt lat="37.18214" lon="-7.49066">
        <ele>12.65151</ele>
        <time>2021-07-12T15:40:36Z</time>
      </trkpt>
      <trkpt lat="37.18239" lon="-7.48909">
        <ele>18.9056</ele>
        <time>2021-07-12T15:40:47Z</time>
      </trkpt>
      <trkpt lat="37.1828" lon="-7.48732">
        <ele>21.10503</ele>
        <time>2021-07-12T15:40:58Z</time>
      </trkpt>
      <trkpt lat="37.18347" lon="-7.48535">
        <ele>20.22236</ele>
        <time>2021-07-12T15:41:09Z</time>
      </trkpt>
      <trkpt lat="37.18393" lon="-7.48393">
        <ele>20.40268</ele>
        <time>2021-07-12T15:41:20Z</time>
      </trkpt>
      <trkpt lat="37.18258" lon="-7.48335">
        <ele>35.5714</ele>
        <time>2021-07-12T15:41:31Z</time>
      </trkpt>
      <trkpt lat="37.18165" lon="-7.48333">
        <ele>35.86317</ele>
        <time>2021-07-12T15:41:42Z</time>
      </trkpt>
      <trkpt lat="37.18026" lon="-7.48405">
        <ele>35.5596</ele>
        <time>2021-07-12T15:41:53Z</time>
      </trkpt>
      <trkpt lat="37.17883" lon="-7.48372">
        <ele>33.05525</ele>
        <time>2021-07-12T15:42:04Z</time>
      </trkpt>
      <trkpt lat="37.17749" lon="-7.48327">
        <ele>24.80623</ele>
        <time>2021-07-12T15:42:15Z</time>
      </trkpt>
      <trkpt lat="37.17648" lon="-7.48248">
        <ele>18.28117</ele>
        <time>2021-07-12T15:42:26Z</time>
      </trkpt>
      <trkpt lat="37.17582" lon="-7.48215">
        <ele>23.28863</ele>
        <time>2021-07-12T15:42:37Z</time>
      </trkpt>
      <trkpt lat="37.17555" lon="-7.48216">
        <ele>25.1022</ele>
        <time>2021-07-12T15:42:48Z</time>
      </trkpt>
      <trkpt lat="37.17546" lon="-7.48214">
        <ele>26.69357</ele>
        <time>2021-07-12T15:42:59Z</time>
      </trkpt>
      <trkpt lat="37.17541" lon="-7.48211">
        <ele>30.07967</ele>
        <time>2021-07-12T15:43:10Z</time>
      </trkpt>
      <trkpt lat="37.17538" lon="-7.48213">
        <ele>27.3423</ele>
        <time>2021-07-12T15:43:25Z</time>
      </trkpt>
      <trkpt lat="37.1754" lon="-7.48218">
        <ele>24.31602</ele>
        <time>2021-07-12T15:43:36Z</time>
      </trkpt>
      <trkpt lat="37.17537" lon="-7.48221">
        <ele>23.76213</ele>
        <time>2021-07-12T15:44:20Z</time>
      </trkpt>
      <trkpt lat="37.17542" lon="-7.48216">
        <ele>23.61246</ele>
        <time>2021-07-12T15:44:31Z</time>
      </trkpt>
      <trkpt lat="37.17546" lon="-7.48213">
        <ele>24.82817</ele>
        <time>2021-07-12T15:44:49Z</time>
      </trkpt>
      <trkpt lat="37.1755" lon="-7.48206">
        <ele>22.92901</ele>
        <time>2021-07-12T15:45:00Z</time>
      </trkpt>
      <trkpt lat="37.17546" lon="-7.48221">
        <ele>20.31668</ele>
        <time>2021-07-12T15:45:11Z</time>
      </trkpt>
      <trkpt lat="37.17552" lon="-7.48224">
        <ele>24.52115</ele>
        <time>2021-07-12T15:45:22Z</time>
      </trkpt>
      <trkpt lat="37.17549" lon="-7.48219">
        <ele>22.5641</ele>
        <time>2021-07-12T15:45:35Z</time>
      </trkpt>
      <trkpt lat="37.17554" lon="-7.48218">
        <ele>23.7486</ele>
        <time>2021-07-12T15:45:46Z</time>
      </trkpt>
      <trkpt lat="37.17554" lon="-7.48225">
        <ele>24.22231</ele>
        <time>2021-07-12T15:46:02Z</time>
      </trkpt>
      <trkpt lat="37.17542" lon="-7.48209">
        <ele>23.66495</ele>
        <time>2021-07-12T15:46:13Z</time>
      </trkpt>
      <trkpt lat="37.17544" lon="-7.48214">
        <ele>23.76896</ele>
        <time>2021-07-12T15:46:28Z</time>
      </trkpt>
      <trkpt lat="37.17555" lon="-7.48208">
        <ele>23.79934</ele>
        <time>2021-07-12T15:46:39Z</time>
      </trkpt>
      <trkpt lat="37.17545" lon="-7.48209">
        <ele>24.35736</ele>
        <time>2021-07-12T15:46:50Z</time>
      </trkpt>
      <trkpt lat="37.17539" lon="-7.48204">
        <ele>24.9925</ele>
        <time>2021-07-12T15:47:01Z</time>
      </trkpt>
      <trkpt lat="37.17541" lon="-7.48213">
        <ele>23.59622</ele>
        <time>2021-07-12T15:47:12Z</time>
      </trkpt>
      <trkpt lat="37.17532" lon="-7.48209">
        <ele>23.58023</ele>
        <time>2021-07-12T15:47:23Z</time>
      </trkpt>
      <trkpt lat="37.17548" lon="-7.48213">
        <ele>23.06505</ele>
        <time>2021-07-12T15:47:34Z</time>
      </trkpt>
      <trkpt lat="37.17546" lon="-7.48219">
        <ele>23.82394</ele>
        <time>2021-07-12T15:47:45Z</time>
      </trkpt>
      <trkpt lat="37.17543" lon="-7.48218">
        <ele>24.71044</ele>
        <time>2021-07-12T15:47:56Z</time>
      </trkpt>
      <trkpt lat="37.17541" lon="-7.48214">
        <ele>20.57189</ele>
        <time>2021-07-12T15:48:11Z</time>
      </trkpt>
      <trkpt lat="37.17538" lon="-7.48205">
        <ele>21.02795</ele>
        <time>2021-07-12T15:48:22Z</time>
      </trkpt>
      <trkpt lat="37.1754" lon="-7.48213">
        <ele>23.70214</ele>
        <time>2021-07-12T15:48:33Z</time>
      </trkpt>
      <trkpt lat="37.17547" lon="-7.48222">
        <ele>23.98799</ele>
        <time>2021-07-12T15:48:44Z</time>
      </trkpt>
      <trkpt lat="37.17543" lon="-7.4821">
        <ele>24.07044</ele>
        <time>2021-07-12T15:48:55Z</time>
      </trkpt>
      <trkpt lat="37.17545" lon="-7.48206">
        <ele>23.36478</ele>
        <time>2021-07-12T15:49:06Z</time>
      </trkpt>
      <trkpt lat="37.17542" lon="-7.48196">
        <ele>24.22675</ele>
        <time>2021-07-12T15:49:17Z</time>
      </trkpt>
      <trkpt lat="37.17544" lon="-7.48203">
        <ele>25.10165</ele>
        <time>2021-07-12T15:49:28Z</time>
      </trkpt>
      <trkpt lat="37.17541" lon="-7.48181">
        <ele>24.37115</ele>
        <time>2021-07-12T15:49:39Z</time>
      </trkpt>
      <trkpt lat="37.17548" lon="-7.4821">
        <ele>24.29401</ele>
        <time>2021-07-12T15:49:50Z</time>
      </trkpt>
      <trkpt lat="37.17552" lon="-7.4822">
        <ele>25.29311</ele>
        <time>2021-07-12T15:50:01Z</time>
      </trkpt>
      <trkpt lat="37.17555" lon="-7.48223">
        <ele>22.43162</ele>
        <time>2021-07-12T15:50:12Z</time>
      </trkpt>
      <trkpt lat="37.17546" lon="-7.48223">
        <ele>23.75345</ele>
        <time>2021-07-12T15:50:23Z</time>
      </trkpt>
      <trkpt lat="37.17542" lon="-7.48221">
        <ele>24.16314</ele>
        <time>2021-07-12T15:50:34Z</time>
      </trkpt>
      <trkpt lat="37.17539" lon="-7.48216">
        <ele>23.34578</ele>
        <time>2021-07-12T15:50:45Z</time>
      </trkpt>
      <trkpt lat="37.17539" lon="-7.48223">
        <ele>23.65048</ele>
        <time>2021-07-12T15:50:56Z</time>
      </trkpt>
      <trkpt lat="37.17535" lon="-7.48225">
        <ele>21.89348</ele>
        <time>2021-07-12T15:51:09Z</time>
      </trkpt>
      <trkpt lat="37.1754" lon="-7.4822">
        <ele>22.52298</ele>
        <time>2021-07-12T15:51:20Z</time>
      </trkpt>
      <trkpt lat="37.1754" lon="-7.48225">
        <ele>23.89534</ele>
        <time>2021-07-12T15:52:02Z</time>
      </trkpt>
      <trkpt lat="37.17544" lon="-7.48226">
        <ele>24.20008</ele>
        <time>2021-07-12T15:52:13Z</time>
      </trkpt>
      <trkpt lat="37.17549" lon="-7.4822">
        <ele>24.94303</ele>
        <time>2021-07-12T15:52:24Z</time>
      </trkpt>
      <trkpt lat="37.17547" lon="-7.48226">
        <ele>24.50951</ele>
        <time>2021-07-12T15:52:35Z</time>
      </trkpt>
      <trkpt lat="37.17544" lon="-7.48223">
        <ele>23.34305</ele>
        <time>2021-07-12T15:52:46Z</time>
      </trkpt>
      <trkpt lat="37.17541" lon="-7.48221">
        <ele>24.84727</ele>
        <time>2021-07-12T15:53:10Z</time>
      </trkpt>
      <trkpt lat="37.17544" lon="-7.48224">
        <ele>24.17184</ele>
        <time>2021-07-12T15:53:57Z</time>
      </trkpt>
      <trkpt lat="37.17543" lon="-7.48219">
        <ele>23.43286</ele>
        <time>2021-07-12T15:54:08Z</time>
      </trkpt>
      <trkpt lat="37.17542" lon="-7.48224">
        <ele>24.44384</ele>
        <time>2021-07-12T15:54:32Z</time>
      </trkpt>
      <trkpt lat="37.17541" lon="-7.48219">
        <ele>24.53174</ele>
        <time>2021-07-12T15:54:48Z</time>
      </trkpt>
      <trkpt lat="37.17544" lon="-7.48216">
        <ele>23.88121</ele>
        <time>2021-07-12T15:55:41Z</time>
      </trkpt>
      <trkpt lat="37.17542" lon="-7.48213">
        <ele>24.44532</ele>
        <time>2021-07-12T15:55:52Z</time>
      </trkpt>
      <trkpt lat="37.1754" lon="-7.48218">
        <ele>24.35975</ele>
        <time>2021-07-12T15:56:03Z</time>
      </trkpt>
      <trkpt lat="37.17541" lon="-7.48223">
        <ele>24.07218</ele>
        <time>2021-07-12T15:56:14Z</time>
      </trkpt>
      <trkpt lat="37.17537" lon="-7.48222">
        <ele>23.58638</ele>
        <time>2021-07-12T15:56:25Z</time>
      </trkpt>
      <trkpt lat="37.1753" lon="-7.48214">
        <ele>23.59097</ele>
        <time>2021-07-12T15:56:36Z</time>
      </trkpt>
      <trkpt lat="37.17535" lon="-7.48214">
        <ele>23.47007</ele>
        <time>2021-07-12T15:56:55Z</time>
      </trkpt>
      <trkpt lat="37.17542" lon="-7.48219">
        <ele>23.13231</ele>
        <time>2021-07-12T15:57:06Z</time>
      </trkpt>
      <trkpt lat="37.17546" lon="-7.48213">
        <ele>24.6793</ele>
        <time>2021-07-12T15:57:17Z</time>
      </trkpt>
      <trkpt lat="37.17541" lon="-7.48207">
        <ele>23.64509</ele>
        <time>2021-07-12T15:57:28Z</time>
      </trkpt>
      <trkpt lat="37.17539" lon="-7.48222">
        <ele>22.616</ele>
        <time>2021-07-12T15:57:39Z</time>
      </trkpt>
      <trkpt lat="37.17541" lon="-7.48223">
        <ele>24.22675</ele>
        <time>2021-07-12T15:58:38Z</time>
      </trkpt>
      <trkpt lat="37.17541" lon="-7.48218">
        <ele>23.86052</ele>
        <time>2021-07-12T15:58:51Z</time>
      </trkpt>
      <trkpt lat="37.17545" lon="-7.48219">
        <ele>24.12299</ele>
        <time>2021-07-12T15:59:11Z</time>
      </trkpt>
      <trkpt lat="37.1754" lon="-7.48219">
        <ele>23.36661</ele>
        <time>2021-07-12T15:59:44Z</time>
      </trkpt>
      <trkpt lat="37.17544" lon="-7.4822">
        <ele>24.62334</ele>
        <time>2021-07-12T16:00:42Z</time>
      </trkpt>
      <trkpt lat="37.17544" lon="-7.4822">
        <ele>24.29854</ele>
        <time>2021-07-12T16:01:40Z</time>
      </trkpt>
      <trkpt lat="37.17548" lon="-7.4822">
        <ele>26.7558</ele>
        <time>2021-07-12T16:01:55Z</time>
      </trkpt>
      <trkpt lat="37.17542" lon="-7.48225">
        <ele>24.77958</ele>
        <time>2021-07-12T16:02:06Z</time>
      </trkpt>
      <trkpt lat="37.1753" lon="-7.48193">
        <ele>22.625</ele>
        <time>2021-07-12T16:02:18Z</time>
      </trkpt>
      <trkpt lat="37.17569" lon="-7.48138">
        <ele>22.6343</ele>
        <time>2021-07-12T16:02:29Z</time>
      </trkpt>
      <trkpt lat="37.17518" lon="-7.48086">
        <ele>17.64523</ele>
        <time>2021-07-12T16:02:40Z</time>
      </trkpt>
      <trkpt lat="37.17477" lon="-7.48033">
        <ele>11.41386</ele>
        <time>2021-07-12T16:02:51Z</time>
      </trkpt>
      <trkpt lat="37.17474" lon="-7.48023">
        <ele>10.49904</ele>
        <time>2021-07-12T16:03:02Z</time>
      </trkpt>
      <trkpt lat="37.1747" lon="-7.4802">
        <ele>10.51554</ele>
        <time>2021-07-12T16:03:13Z</time>
      </trkpt>
      <trkpt lat="37.1747" lon="-7.48025">
        <ele>13.07058</ele>
        <time>2021-07-12T16:03:27Z</time>
      </trkpt>
      <trkpt lat="37.17466" lon="-7.48026">
        <ele>8.580484</ele>
        <time>2021-07-12T16:03:42Z</time>
      </trkpt>
      <trkpt lat="37.17469" lon="-7.48024">
        <ele>10.38892</ele>
        <time>2021-07-12T16:04:04Z</time>
      </trkpt>
      <trkpt lat="37.17469" lon="-7.48023">
        <ele>9.368269</ele>
        <time>2021-07-12T16:05:04Z</time>
      </trkpt>
      <trkpt lat="37.17469" lon="-7.48023">
        <ele>10.74726</ele>
        <time>2021-07-12T16:06:02Z</time>
      </trkpt>
      <trkpt lat="37.17469" lon="-7.48012">
        <ele>11.67295</ele>
        <time>2021-07-12T16:06:13Z</time>
      </trkpt>
      <trkpt lat="37.17468" lon="-7.48003">
        <ele>9.323092</ele>
        <time>2021-07-12T16:06:24Z</time>
      </trkpt>
      <trkpt lat="37.17468" lon="-7.47998">
        <ele>10.02956</ele>
        <time>2021-07-12T16:06:37Z</time>
      </trkpt>
      <trkpt lat="37.17457" lon="-7.47994">
        <ele>8.550958</ele>
        <time>2021-07-12T16:06:48Z</time>
      </trkpt>
      <trkpt lat="37.17457" lon="-7.4799">
        <ele>8.632566</ele>
        <time>2021-07-12T16:07:02Z</time>
      </trkpt>
      <trkpt lat="37.17452" lon="-7.47987">
        <ele>7.070439</ele>
        <time>2021-07-12T16:07:33Z</time>
      </trkpt>
      <trkpt lat="37.17455" lon="-7.47989">
        <ele>8.979145</ele>
        <time>2021-07-12T16:08:06Z</time>
      </trkpt>
      <trkpt lat="37.17454" lon="-7.4799">
        <ele>8.248553</ele>
        <time>2021-07-12T16:09:06Z</time>
      </trkpt>
      <trkpt lat="37.17455" lon="-7.4799">
        <ele>9.162655</ele>
        <time>2021-07-12T16:10:06Z</time>
      </trkpt>
      <trkpt lat="37.17457" lon="-7.47988">
        <ele>8.335331</ele>
        <time>2021-07-12T16:11:06Z</time>
      </trkpt>
      <trkpt lat="37.17459" lon="-7.47991">
        <ele>8.946105</ele>
        <time>2021-07-12T16:12:04Z</time>
      </trkpt>
      <trkpt lat="37.17454" lon="-7.47988">
        <ele>8.668378</ele>
        <time>2021-07-12T16:12:20Z</time>
      </trkpt>
      <trkpt lat="37.17456" lon="-7.47991">
        <ele>8.681247</ele>
        <time>2021-07-12T16:13:08Z</time>
      </trkpt>
      <trkpt lat="37.17456" lon="-7.47989">
        <ele>9.308988</ele>
        <time>2021-07-12T16:14:06Z</time>
      </trkpt>
      <trkpt lat="37.17455" lon="-7.47988">
        <ele>8.925718</ele>
        <time>2021-07-12T16:15:06Z</time>
      </trkpt>
      <trkpt lat="37.17454" lon="-7.47989">
        <ele>8.996711</ele>
        <time>2021-07-12T16:16:04Z</time>
      </trkpt>
      <trkpt lat="37.17455" lon="-7.47991">
        <ele>9.267586</ele>
        <time>2021-07-12T16:17:03Z</time>
      </trkpt>
      <trkpt lat="37.17454" lon="-7.4799">
        <ele>8.584136</ele>
        <time>2021-07-12T16:18:02Z</time>
      </trkpt>
      <trkpt lat="37.17455" lon="-7.4799">
        <ele>8.387678</ele>
        <time>2021-07-12T16:19:01Z</time>
      </trkpt>
      <trkpt lat="37.17454" lon="-7.4799">
        <ele>8.915981</ele>
        <time>2021-07-12T16:20:00Z</time>
      </trkpt>
      <trkpt lat="37.17456" lon="-7.47988">
        <ele>9.003571</ele>
        <time>2021-07-12T16:20:59Z</time>
      </trkpt>
      <trkpt lat="37.17455" lon="-7.47988">
        <ele>8.597962</ele>
        <time>2021-07-12T16:21:57Z</time>
      </trkpt>
      <trkpt lat="37.17456" lon="-7.47989">
        <ele>8.123592</ele>
        <time>2021-07-12T16:22:56Z</time>
      </trkpt>
      <trkpt lat="37.1743" lon="-7.47993">
        <ele>38.11183</ele>
        <time>2021-07-12T16:42:57Z</time>
      </trkpt>
      <trkpt lat="37.17453" lon="-7.47987">
        <ele>7.991258</ele>
        <time>2021-07-12T16:43:03Z</time>
      </trkpt>
      <trkpt lat="37.17456" lon="-7.47988">
        <ele>8.586839</ele>
        <time>2021-07-12T16:43:23Z</time>
      </trkpt>
      <trkpt lat="37.17455" lon="-7.4799">
        <ele>8.961834</ele>
        <time>2021-07-12T16:44:22Z</time>
      </trkpt>
      <trkpt lat="37.17455" lon="-7.47991">
        <ele>8.9101</ele>
        <time>2021-07-12T16:45:22Z</time>
      </trkpt>
      <trkpt lat="37.17455" lon="-7.4799">
        <ele>9.518789</ele>
        <time>2021-07-12T16:46:21Z</time>
      </trkpt>
      <trkpt lat="37.17453" lon="-7.47989">
        <ele>8.570693</ele>
        <time>2021-07-12T16:47:19Z</time>
      </trkpt>
      <trkpt lat="37.17454" lon="-7.47987">
        <ele>6.460314</ele>
        <time>2021-07-12T16:48:18Z</time>
      </trkpt>
      <trkpt lat="37.17456" lon="-7.4799">
        <ele>7.957359</ele>
        <time>2021-07-12T16:48:46Z</time>
      </trkpt>
      <trkpt lat="37.17461" lon="-7.47993">
        <ele>6.786611</ele>
        <time>2021-07-12T16:48:56Z</time>
      </trkpt>
      <trkpt lat="37.17465" lon="-7.47998">
        <ele>14.219</ele>
        <time>2021-07-12T16:49:02Z</time>
      </trkpt>
      <trkpt lat="37.17466" lon="-7.48006">
        <ele>10.65546</ele>
        <time>2021-07-12T16:49:08Z</time>
      </trkpt>
      <trkpt lat="37.17468" lon="-7.48015">
        <ele>10.93731</ele>
        <time>2021-07-12T16:49:14Z</time>
      </trkpt>
      <trkpt lat="37.17468" lon="-7.48021">
        <ele>11.4234</ele>
        <time>2021-07-12T16:49:20Z</time>
      </trkpt>
      <trkpt lat="37.17468" lon="-7.48027">
        <ele>10.74676</ele>
        <time>2021-07-12T16:49:26Z</time>
      </trkpt>
      <trkpt lat="37.1747" lon="-7.48022">
        <ele>9.79063</ele>
        <time>2021-07-12T16:50:20Z</time>
      </trkpt>
      <trkpt lat="37.17468" lon="-7.48023">
        <ele>11.05611</ele>
        <time>2021-07-12T16:51:19Z</time>
      </trkpt>
      <trkpt lat="37.1747" lon="-7.48024">
        <ele>10.86548</ele>
        <time>2021-07-12T16:52:17Z</time>
      </trkpt>
      <trkpt lat="37.17466" lon="-7.48023">
        <ele>10.16513</ele>
        <time>2021-07-12T16:53:15Z</time>
      </trkpt>
      <trkpt lat="37.17467" lon="-7.48028">
        <ele>8.595507</ele>
        <time>2021-07-12T16:53:46Z</time>
      </trkpt>
      <trkpt lat="37.17467" lon="-7.48022">
        <ele>11.12696</ele>
        <time>2021-07-12T16:53:58Z</time>
      </trkpt>
      <trkpt lat="37.17475" lon="-7.48028">
        <ele>10.84931</ele>
        <time>2021-07-12T16:54:08Z</time>
      </trkpt>
      <trkpt lat="37.17509" lon="-7.4807">
        <ele>17.11251</ele>
        <time>2021-07-12T16:54:14Z</time>
      </trkpt>
      <trkpt lat="37.1753" lon="-7.48099">
        <ele>20.33487</ele>
        <time>2021-07-12T16:54:20Z</time>
      </trkpt>
      <trkpt lat="37.17557" lon="-7.48129">
        <ele>23.87578</ele>
        <time>2021-07-12T16:54:26Z</time>
      </trkpt>
      <trkpt lat="37.17564" lon="-7.48142">
        <ele>24.19152</ele>
        <time>2021-07-12T16:54:32Z</time>
      </trkpt>
      <trkpt lat="37.17559" lon="-7.48153">
        <ele>24.67701</ele>
        <time>2021-07-12T16:54:38Z</time>
      </trkpt>
      <trkpt lat="37.17533" lon="-7.48194">
        <ele>23.4948</ele>
        <time>2021-07-12T16:54:44Z</time>
      </trkpt>
      <trkpt lat="37.1753" lon="-7.48227">
        <ele>25.20429</ele>
        <time>2021-07-12T16:54:50Z</time>
      </trkpt>
      <trkpt lat="37.17552" lon="-7.48228">
        <ele>24.62562</ele>
        <time>2021-07-12T16:54:56Z</time>
      </trkpt>
      <trkpt lat="37.17575" lon="-7.48205">
        <ele>24.28193</ele>
        <time>2021-07-12T16:55:02Z</time>
      </trkpt>
      <trkpt lat="37.17581" lon="-7.48204">
        <ele>25.11726</ele>
        <time>2021-07-12T16:55:20Z</time>
      </trkpt>
      <trkpt lat="37.17618" lon="-7.48229">
        <ele>22.12255</ele>
        <time>2021-07-12T16:55:26Z</time>
      </trkpt>
      <trkpt lat="37.17664" lon="-7.48273">
        <ele>19.97682</ele>
        <time>2021-07-12T16:55:32Z</time>
      </trkpt>
      <trkpt lat="37.17709" lon="-7.48318">
        <ele>21.7498</ele>
        <time>2021-07-12T16:55:38Z</time>
      </trkpt>
      <trkpt lat="37.17761" lon="-7.48337">
        <ele>24.02912</ele>
        <time>2021-07-12T16:55:44Z</time>
      </trkpt>
      <trkpt lat="37.17838" lon="-7.48365">
        <ele>28.10183</ele>
        <time>2021-07-12T16:55:50Z</time>
      </trkpt>
      <trkpt lat="37.17922" lon="-7.48383">
        <ele>31.12345</ele>
        <time>2021-07-12T16:55:56Z</time>
      </trkpt>
      <trkpt lat="37.18004" lon="-7.48401">
        <ele>32.41172</ele>
        <time>2021-07-12T16:56:02Z</time>
      </trkpt>
      <trkpt lat="37.18089" lon="-7.48387">
        <ele>35.12734</ele>
        <time>2021-07-12T16:56:08Z</time>
      </trkpt>
      <trkpt lat="37.18153" lon="-7.48335">
        <ele>37.52183</ele>
        <time>2021-07-12T16:56:14Z</time>
      </trkpt>
      <trkpt lat="37.18208" lon="-7.48328">
        <ele>37.30853</ele>
        <time>2021-07-12T16:56:20Z</time>
      </trkpt>
      <trkpt lat="37.18281" lon="-7.48329">
        <ele>35.66617</ele>
        <time>2021-07-12T16:56:26Z</time>
      </trkpt>
      <trkpt lat="37.18352" lon="-7.48343">
        <ele>30.3386</ele>
        <time>2021-07-12T16:56:32Z</time>
      </trkpt>
      <trkpt lat="37.18395" lon="-7.48369">
        <ele>23.79042</ele>
        <time>2021-07-12T16:56:38Z</time>
      </trkpt>
      <trkpt lat="37.18404" lon="-7.48375">
        <ele>22.19605</ele>
        <time>2021-07-12T16:56:44Z</time>
      </trkpt>
      <trkpt lat="37.18412" lon="-7.48358">
        <ele>21.77151</ele>
        <time>2021-07-12T16:56:53Z</time>
      </trkpt>
      <trkpt lat="37.18441" lon="-7.4828">
        <ele>22.13238</ele>
        <time>2021-07-12T16:56:59Z</time>
      </trkpt>
      <trkpt lat="37.18482" lon="-7.48158">
        <ele>19.34628</ele>
        <time>2021-07-12T16:57:05Z</time>
      </trkpt>
      <trkpt lat="37.18506" lon="-7.48035">
        <ele>17.24052</ele>
        <time>2021-07-12T16:57:11Z</time>
      </trkpt>
      <trkpt lat="37.18512" lon="-7.47908">
        <ele>13.06233</ele>
        <time>2021-07-12T16:57:17Z</time>
      </trkpt>
      <trkpt lat="37.18505" lon="-7.47783">
        <ele>9.739793</ele>
        <time>2021-07-12T16:57:23Z</time>
      </trkpt>
      <trkpt lat="37.18487" lon="-7.47669">
        <ele>9.885576</ele>
        <time>2021-07-12T16:57:29Z</time>
      </trkpt>
      <trkpt lat="37.18467" lon="-7.47544">
        <ele>10.18023</ele>
        <time>2021-07-12T16:57:35Z</time>
      </trkpt>
      <trkpt lat="37.18442" lon="-7.47422">
        <ele>8.060815</ele>
        <time>2021-07-12T16:57:41Z</time>
      </trkpt>
      <trkpt lat="37.18425" lon="-7.47325">
        <ele>7.860451</ele>
        <time>2021-07-12T16:57:47Z</time>
      </trkpt>
      <trkpt lat="37.18405" lon="-7.47238">
        <ele>5.019453</ele>
        <time>2021-07-12T16:57:53Z</time>
      </trkpt>
      <trkpt lat="37.18393" lon="-7.47178">
        <ele>4.035494</ele>
        <time>2021-07-12T16:57:59Z</time>
      </trkpt>
      <trkpt lat="37.18373" lon="-7.47135">
        <ele>3.879428</ele>
        <time>2021-07-12T16:58:05Z</time>
      </trkpt>
      <trkpt lat="37.1838" lon="-7.47075">
        <ele>4.026998</ele>
        <time>2021-07-12T16:58:11Z</time>
      </trkpt>
      <trkpt lat="37.18374" lon="-7.47038">
        <ele>3.8511</ele>
        <time>2021-07-12T16:58:17Z</time>
      </trkpt>
      <trkpt lat="37.18376" lon="-7.47016">
        <ele>3.259536</ele>
        <time>2021-07-12T16:58:23Z</time>
      </trkpt>
      <trkpt lat="37.18358" lon="-7.46963">
        <ele>4.237774</ele>
        <time>2021-07-12T16:58:29Z</time>
      </trkpt>
      <trkpt lat="37.18343" lon="-7.46872">
        <ele>5.214594</ele>
        <time>2021-07-12T16:58:35Z</time>
      </trkpt>
      <trkpt lat="37.18338" lon="-7.46771">
        <ele>4.762705</ele>
        <time>2021-07-12T16:58:41Z</time>
      </trkpt>
      <trkpt lat="37.18355" lon="-7.46679">
        <ele>4.035502</ele>
        <time>2021-07-12T16:58:47Z</time>
      </trkpt>
      <trkpt lat="37.18373" lon="-7.46597">
        <ele>3.31199</ele>
        <time>2021-07-12T16:58:53Z</time>
      </trkpt>
      <trkpt lat="37.18389" lon="-7.46524">
        <ele>3.749024</ele>
        <time>2021-07-12T16:58:59Z</time>
      </trkpt>
      <trkpt lat="37.18408" lon="-7.46457">
        <ele>4.282503</ele>
        <time>2021-07-12T16:59:05Z</time>
      </trkpt>
      <trkpt lat="37.18423" lon="-7.46374">
        <ele>3.843519</ele>
        <time>2021-07-12T16:59:11Z</time>
      </trkpt>
      <trkpt lat="37.18442" lon="-7.46285">
        <ele>3.1308</ele>
        <time>2021-07-12T16:59:17Z</time>
      </trkpt>
      <trkpt lat="37.18462" lon="-7.46194">
        <ele>3.671635</ele>
        <time>2021-07-12T16:59:23Z</time>
      </trkpt>
      <trkpt lat="37.18483" lon="-7.46101">
        <ele>4.919566</ele>
        <time>2021-07-12T16:59:29Z</time>
      </trkpt>
      <trkpt lat="37.18503" lon="-7.46009">
        <ele>4.095495</ele>
        <time>2021-07-12T16:59:35Z</time>
      </trkpt>
      <trkpt lat="37.18522" lon="-7.45925">
        <ele>3.229955</ele>
        <time>2021-07-12T16:59:41Z</time>
      </trkpt>
      <trkpt lat="37.18543" lon="-7.45832">
        <ele>2.738168</ele>
        <time>2021-07-12T16:59:47Z</time>
      </trkpt>
      <trkpt lat="37.18562" lon="-7.45748">
        <ele>2.613266</ele>
        <time>2021-07-12T16:59:53Z</time>
      </trkpt>
      <trkpt lat="37.18583" lon="-7.45652">
        <ele>3.257004</ele>
        <time>2021-07-12T16:59:59Z</time>
      </trkpt>
      <trkpt lat="37.18604" lon="-7.45558">
        <ele>2.360839</ele>
        <time>2021-07-12T17:00:05Z</time>
      </trkpt>
      <trkpt lat="37.18623" lon="-7.4547">
        <ele>2.435178</ele>
        <time>2021-07-12T17:00:11Z</time>
      </trkpt>
      <trkpt lat="37.18643" lon="-7.45379">
        <ele>2.126848</ele>
        <time>2021-07-12T17:00:17Z</time>
      </trkpt>
      <trkpt lat="37.18665" lon="-7.45297">
        <ele>3.65757</ele>
        <time>2021-07-12T17:00:23Z</time>
      </trkpt>
      <trkpt lat="37.18688" lon="-7.45209">
        <ele>5.801849</ele>
        <time>2021-07-12T17:00:29Z</time>
      </trkpt>
      <trkpt lat="37.18709" lon="-7.4513">
        <ele>5.654061</ele>
        <time>2021-07-12T17:00:35Z</time>
      </trkpt>
      <trkpt lat="37.18653" lon="-7.4512">
        <ele>5.683993</ele>
        <time>2021-07-12T17:00:41Z</time>
      </trkpt>
      <trkpt lat="37.18585" lon="-7.45142">
        <ele>5.59709</ele>
        <time>2021-07-12T17:00:47Z</time>
      </trkpt>
      <trkpt lat="37.18542" lon="-7.45152">
        <ele>5.915084</ele>
        <time>2021-07-12T17:00:53Z</time>
      </trkpt>
      <trkpt lat="37.18503" lon="-7.45162">
        <ele>6.743364</ele>
        <time>2021-07-12T17:00:59Z</time>
      </trkpt>
      <trkpt lat="37.18458" lon="-7.45173">
        <ele>7.621474</ele>
        <time>2021-07-12T17:01:05Z</time>
      </trkpt>
      <trkpt lat="37.18422" lon="-7.45182">
        <ele>7.251968</ele>
        <time>2021-07-12T17:01:11Z</time>
      </trkpt>
      <trkpt lat="37.18392" lon="-7.45188">
        <ele>7.977796</ele>
        <time>2021-07-12T17:01:17Z</time>
      </trkpt>
      <trkpt lat="37.18358" lon="-7.45197">
        <ele>8.869416</ele>
        <time>2021-07-12T17:01:23Z</time>
      </trkpt>
      <trkpt lat="37.18304" lon="-7.45197">
        <ele>8.429465</ele>
        <time>2021-07-12T17:01:29Z</time>
      </trkpt>
      <trkpt lat="37.18265" lon="-7.45189">
        <ele>7.893853</ele>
        <time>2021-07-12T17:01:35Z</time>
      </trkpt>
      <trkpt lat="37.1823" lon="-7.45178">
        <ele>6.908573</ele>
        <time>2021-07-12T17:01:41Z</time>
      </trkpt>
      <trkpt lat="37.18245" lon="-7.45155">
        <ele>7.901248</ele>
        <time>2021-07-12T17:01:47Z</time>
      </trkpt>
      <trkpt lat="37.18235" lon="-7.45115">
        <ele>8.733722</ele>
        <time>2021-07-12T17:01:53Z</time>
      </trkpt>
      <trkpt lat="37.18225" lon="-7.45072">
        <ele>8.583705</ele>
        <time>2021-07-12T17:01:59Z</time>
      </trkpt>
      <trkpt lat="37.18221" lon="-7.45012">
        <ele>8.501242</ele>
        <time>2021-07-12T17:02:05Z</time>
      </trkpt>
      <trkpt lat="37.18227" lon="-7.44933">
        <ele>7.035276</ele>
        <time>2021-07-12T17:02:11Z</time>
      </trkpt>
      <trkpt lat="37.18226" lon="-7.44882">
        <ele>5.815083</ele>
        <time>2021-07-12T17:02:17Z</time>
      </trkpt>
      <trkpt lat="37.18226" lon="-7.44825">
        <ele>6.948355</ele>
        <time>2021-07-12T17:02:23Z</time>
      </trkpt>
      <trkpt lat="37.18226" lon="-7.44774">
        <ele>8.017355</ele>
        <time>2021-07-12T17:02:29Z</time>
      </trkpt>
      <trkpt lat="37.18226" lon="-7.44749">
        <ele>8.673895</ele>
        <time>2021-07-12T17:02:35Z</time>
      </trkpt>
      <trkpt lat="37.18225" lon="-7.44723">
        <ele>8.811503</ele>
        <time>2021-07-12T17:02:41Z</time>
      </trkpt>
      <trkpt lat="37.18201" lon="-7.44706">
        <ele>9.028632</ele>
        <time>2021-07-12T17:02:47Z</time>
      </trkpt>
      <trkpt lat="37.18179" lon="-7.44709">
        <ele>9.258526</ele>
        <time>2021-07-12T17:02:53Z</time>
      </trkpt>
      <trkpt lat="37.18136" lon="-7.44711">
        <ele>9.420295</ele>
        <time>2021-07-12T17:02:59Z</time>
      </trkpt>
      <trkpt lat="37.18114" lon="-7.44715">
        <ele>9.245062</ele>
        <time>2021-07-12T17:03:05Z</time>
      </trkpt>
      <trkpt lat="37.1809" lon="-7.44686">
        <ele>9.229894</ele>
        <time>2021-07-12T17:03:11Z</time>
      </trkpt>
      <trkpt lat="37.18088" lon="-7.44638">
        <ele>9.033859</ele>
        <time>2021-07-12T17:03:17Z</time>
      </trkpt>
      <trkpt lat="37.18087" lon="-7.44617">
        <ele>8.970797</ele>
        <time>2021-07-12T17:03:23Z</time>
      </trkpt>
      <trkpt lat="37.18084" lon="-7.44578">
        <ele>8.307533</ele>
        <time>2021-07-12T17:03:29Z</time>
      </trkpt>
      <trkpt lat="37.18082" lon="-7.4454">
        <ele>7.38629</ele>
        <time>2021-07-12T17:03:35Z</time>
      </trkpt>
      <trkpt lat="37.18069" lon="-7.44519">
        <ele>7.182531</ele>
        <time>2021-07-12T17:03:41Z</time>
      </trkpt>
      <trkpt lat="37.18041" lon="-7.44503">
        <ele>7.074936</ele>
        <time>2021-07-12T17:03:47Z</time>
      </trkpt>
      <trkpt lat="37.18014" lon="-7.44487">
        <ele>7.010327</ele>
        <time>2021-07-12T17:03:53Z</time>
      </trkpt>
      <trkpt lat="37.17983" lon="-7.4447">
        <ele>6.453444</ele>
        <time>2021-07-12T17:03:59Z</time>
      </trkpt>
      <trkpt lat="37.17956" lon="-7.44453">
        <ele>6.251948</ele>
        <time>2021-07-12T17:04:05Z</time>
      </trkpt>
      <trkpt lat="37.17949" lon="-7.44448">
        <ele>5.6614</ele>
        <time>2021-07-12T17:04:11Z</time>
      </trkpt>
      <trkpt lat="37.17926" lon="-7.44441">
        <ele>5.921541</ele>
        <time>2021-07-12T17:04:17Z</time>
      </trkpt>
      <trkpt lat="37.1792" lon="-7.44472">
        <ele>6.359795</ele>
        <time>2021-07-12T17:04:23Z</time>
      </trkpt>
      <trkpt lat="37.17917" lon="-7.44482">
        <ele>6.766401</ele>
        <time>2021-07-12T17:04:29Z</time>
      </trkpt>
      <trkpt lat="37.17918" lon="-7.44507">
        <ele>7.192242</ele>
        <time>2021-07-12T17:04:35Z</time>
      </trkpt>
      <trkpt lat="37.1792" lon="-7.44548">
        <ele>7.709402</ele>
        <time>2021-07-12T17:04:41Z</time>
      </trkpt>
      <trkpt lat="37.17924" lon="-7.4461">
        <ele>7.635915</ele>
        <time>2021-07-12T17:04:47Z</time>
      </trkpt>
      <trkpt lat="37.17929" lon="-7.4468">
        <ele>7.128932</ele>
        <time>2021-07-12T17:04:53Z</time>
      </trkpt>
      <trkpt lat="37.17931" lon="-7.4473">
        <ele>7.12768</ele>
        <time>2021-07-12T17:04:59Z</time>
      </trkpt>
      <trkpt lat="37.17932" lon="-7.44782">
        <ele>7.392364</ele>
        <time>2021-07-12T17:05:05Z</time>
      </trkpt>
      <trkpt lat="37.17935" lon="-7.44827">
        <ele>7.299584</ele>
        <time>2021-07-12T17:05:11Z</time>
      </trkpt>
      <trkpt lat="37.17938" lon="-7.44856">
        <ele>7.249805</ele>
        <time>2021-07-12T17:05:17Z</time>
      </trkpt>
      <trkpt lat="37.17931" lon="-7.44862">
        <ele>7.344568</ele>
        <time>2021-07-12T17:05:23Z</time>
      </trkpt>
      <trkpt lat="37.17906" lon="-7.44817">
        <ele>8.046518</ele>
        <time>2021-07-12T17:05:29Z</time>
      </trkpt>
      <trkpt lat="37.17906" lon="-7.44821">
        <ele>8.2278</ele>
        <time>2021-07-12T17:05:50Z</time>
      </trkpt>
      <trkpt lat="37.17905" lon="-7.44826">
        <ele>7.972698</ele>
        <time>2021-07-12T17:06:43Z</time>
      </trkpt>
      <trkpt lat="37.17909" lon="-7.44822">
        <ele>8.158397</ele>
        <time>2021-07-12T17:07:09Z</time>
      </trkpt>
      <trkpt lat="37.1794" lon="-7.44833">
        <ele>7.776832</ele>
        <time>2021-07-12T17:07:15Z</time>
      </trkpt>
      <trkpt lat="37.17944" lon="-7.44832">
        <ele>7.073291</ele>
        <time>2021-07-12T17:07:30Z</time>
      </trkpt>
      <trkpt lat="37.1794" lon="-7.44832">
        <ele>8.090254</ele>
        <time>2021-07-12T17:07:44Z</time>
      </trkpt>
      <trkpt lat="37.17937" lon="-7.44834">
        <ele>7.597805</ele>
        <time>2021-07-12T17:07:50Z</time>
      </trkpt>
      <trkpt lat="37.17934" lon="-7.44831">
        <ele>8.249345</ele>
        <time>2021-07-12T17:08:13Z</time>
      </trkpt>
      <trkpt lat="37.17928" lon="-7.44829">
        <ele>7.749853</ele>
        <time>2021-07-12T17:08:19Z</time>
      </trkpt>
      <trkpt lat="37.17926" lon="-7.44825">
        <ele>7.049881</ele>
        <time>2021-07-12T17:08:26Z</time>
      </trkpt>
      <trkpt lat="37.17927" lon="-7.4482">
        <ele>7.728575</ele>
        <time>2021-07-12T17:08:33Z</time>
      </trkpt>
      <trkpt lat="37.17918" lon="-7.44829">
        <ele>7.489995</ele>
        <time>2021-07-12T17:09:07Z</time>
      </trkpt>
      <trkpt lat="37.17918" lon="-7.44828">
        <ele>7.489995</ele>
        <time>2021-07-12T17:10:02Z</time>
      </trkpt>
      <trkpt lat="37.17909" lon="-7.44834">
        <ele>7.489995</ele>
        <time>2021-07-12T17:10:25Z</time>
      </trkpt>
      <trkpt lat="37.17918" lon="-7.44829">
        <ele>7.489995</ele>
        <time>2021-07-12T17:10:39Z</time>
      </trkpt>
      <trkpt lat="37.17912" lon="-7.4483">
        <ele>7.489995</ele>
        <time>2021-07-12T17:10:48Z</time>
      </trkpt>
      <trkpt lat="37.17918" lon="-7.44828">
        <ele>7.181192</ele>
        <time>2021-07-12T17:10:54Z</time>
      </trkpt>
      <trkpt lat="37.17926" lon="-7.44824">
        <ele>6.878018</ele>
        <time>2021-07-12T17:11:01Z</time>
      </trkpt>
      <trkpt lat="37.17918" lon="-7.44829">
        <ele>7.489995</ele>
        <time>2021-07-12T17:11:34Z</time>
      </trkpt>
      <trkpt lat="37.17911" lon="-7.4483">
        <ele>7.489995</ele>
        <time>2021-07-12T17:12:25Z</time>
      </trkpt>
      <trkpt lat="37.17917" lon="-7.44829">
        <ele>7.489995</ele>
        <time>2021-07-12T17:12:48Z</time>
      </trkpt>
      <trkpt lat="37.17918" lon="-7.44829">
        <ele>9.519995</ele>
        <time>2021-07-12T17:13:48Z</time>
      </trkpt>
      <trkpt lat="37.17917" lon="-7.44834">
        <ele>9.519995</ele>
        <time>2021-07-12T17:14:03Z</time>
      </trkpt>
      <trkpt lat="37.17918" lon="-7.44829">
        <ele>9.519995</ele>
        <time>2021-07-12T17:14:16Z</time>
      </trkpt>
      <trkpt lat="37.17917" lon="-7.44834">
        <ele>9.519995</ele>
        <time>2021-07-12T17:14:47Z</time>
      </trkpt>
      <trkpt lat="37.17925" lon="-7.44844">
        <ele>9.519995</ele>
        <time>2021-07-12T17:15:06Z</time>
      </trkpt>
      <trkpt lat="37.17922" lon="-7.44843">
        <ele>9.519995</ele>
        <time>2021-07-12T17:15:12Z</time>
      </trkpt>
      <trkpt lat="37.17917" lon="-7.44848">
        <ele>9.519995</ele>
        <time>2021-07-12T17:15:18Z</time>
      </trkpt>
      <trkpt lat="37.17918" lon="-7.44832">
        <ele>9.519995</ele>
        <time>2021-07-12T17:15:30Z</time>
      </trkpt>
      <trkpt lat="37.17917" lon="-7.44838">
        <ele>9.519995</ele>
        <time>2021-07-12T17:15:56Z</time>
      </trkpt>
      <trkpt lat="37.17915" lon="-7.44848">
        <ele>9.519995</ele>
        <time>2021-07-12T17:16:26Z</time>
      </trkpt>
      <trkpt lat="37.17917" lon="-7.44839">
        <ele>9.519995</ele>
        <time>2021-07-12T17:16:32Z</time>
      </trkpt>
      <trkpt lat="37.17918" lon="-7.44829">
        <ele>9.519995</ele>
        <time>2021-07-12T17:16:44Z</time>
      </trkpt>
      <trkpt lat="37.17917" lon="-7.44836">
        <ele>9.519995</ele>
        <time>2021-07-12T17:16:50Z</time>
      </trkpt>
      <trkpt lat="37.1792" lon="-7.44844">
        <ele>9.519995</ele>
        <time>2021-07-12T17:17:02Z</time>
      </trkpt>
      <trkpt lat="37.17916" lon="-7.4485">
        <ele>9.519995</ele>
        <time>2021-07-12T17:17:08Z</time>
      </trkpt>
      <trkpt lat="37.17918" lon="-7.4483">
        <ele>9.519995</ele>
        <time>2021-07-12T17:17:14Z</time>
      </trkpt>
      <trkpt lat="37.17926" lon="-7.44838">
        <ele>9.519995</ele>
        <time>2021-07-12T17:17:20Z</time>
      </trkpt>
      <trkpt lat="37.17933" lon="-7.44845">
        <ele>9.519995</ele>
        <time>2021-07-12T17:17:26Z</time>
      </trkpt>
      <trkpt lat="37.17924" lon="-7.44844">
        <ele>9.519995</ele>
        <time>2021-07-12T17:17:32Z</time>
      </trkpt>
      <trkpt lat="37.17917" lon="-7.44848">
        <ele>9.519995</ele>
        <time>2021-07-12T17:17:38Z</time>
      </trkpt>
      <trkpt lat="37.17924" lon="-7.44843">
        <ele>9.519995</ele>
        <time>2021-07-12T17:17:44Z</time>
      </trkpt>
      <trkpt lat="37.17919" lon="-7.44831">
        <ele>9.519995</ele>
        <time>2021-07-12T17:17:50Z</time>
      </trkpt>
      <trkpt lat="37.17917" lon="-7.44835">
        <ele>9.519995</ele>
        <time>2021-07-12T17:18:08Z</time>
      </trkpt>
      <trkpt lat="37.17918" lon="-7.44842">
        <ele>9.519995</ele>
        <time>2021-07-12T17:18:14Z</time>
      </trkpt>
      <trkpt lat="37.17952" lon="-7.4482">
        <ele>7.45195</ele>
        <time>2021-07-12T17:18:24Z</time>
      </trkpt>
      <trkpt lat="37.17957" lon="-7.44835">
        <ele>7.296029</ele>
        <time>2021-07-12T17:18:30Z</time>
      </trkpt>
      <trkpt lat="37.17943" lon="-7.44825">
        <ele>7.01296</ele>
        <time>2021-07-12T17:18:36Z</time>
      </trkpt>
      <trkpt lat="37.1794" lon="-7.44814">
        <ele>7.316199</ele>
        <time>2021-07-12T17:18:43Z</time>
      </trkpt>
      <trkpt lat="37.17925" lon="-7.44824">
        <ele>7.702138</ele>
        <time>2021-07-12T17:18:49Z</time>
      </trkpt>
      <trkpt lat="37.1792" lon="-7.44832">
        <ele>7.504263</ele>
        <time>2021-07-12T17:18:55Z</time>
      </trkpt>
      <trkpt lat="37.17929" lon="-7.44826">
        <ele>7.611477</ele>
        <time>2021-07-12T17:19:01Z</time>
      </trkpt>
      <trkpt lat="37.17924" lon="-7.44826">
        <ele>7.390318</ele>
        <time>2021-07-12T17:19:11Z</time>
      </trkpt>
      <trkpt lat="37.17919" lon="-7.44827">
        <ele>7.456808</ele>
        <time>2021-07-12T17:19:17Z</time>
      </trkpt>
      <trkpt lat="37.17924" lon="-7.44824">
        <ele>7.077361</ele>
        <time>2021-07-12T17:19:23Z</time>
      </trkpt>
      <trkpt lat="37.17928" lon="-7.44823">
        <ele>7.376236</ele>
        <time>2021-07-12T17:19:33Z</time>
      </trkpt>
      <trkpt lat="37.17921" lon="-7.44824">
        <ele>7.670597</ele>
        <time>2021-07-12T17:19:51Z</time>
      </trkpt>
      <trkpt lat="37.17917" lon="-7.44824">
        <ele>7.464137</ele>
        <time>2021-07-12T17:19:58Z</time>
      </trkpt>
      <trkpt lat="37.17921" lon="-7.44825">
        <ele>8.782581</ele>
        <time>2021-07-12T17:20:05Z</time>
      </trkpt>
      <trkpt lat="37.17917" lon="-7.44824">
        <ele>6.457927</ele>
        <time>2021-07-12T17:20:16Z</time>
      </trkpt>
      <trkpt lat="37.17918" lon="-7.4482">
        <ele>8.033079</ele>
        <time>2021-07-12T17:20:27Z</time>
      </trkpt>
      <trkpt lat="37.17922" lon="-7.44819">
        <ele>7.739838</ele>
        <time>2021-07-12T17:20:35Z</time>
      </trkpt>
      <trkpt lat="37.17928" lon="-7.44818">
        <ele>8.065148</ele>
        <time>2021-07-12T17:20:41Z</time>
      </trkpt>
      <trkpt lat="37.17931" lon="-7.4482">
        <ele>8.355429</ele>
        <time>2021-07-12T17:21:01Z</time>
      </trkpt>
      <trkpt lat="37.17929" lon="-7.44823">
        <ele>7.289083</ele>
        <time>2021-07-12T17:21:16Z</time>
      </trkpt>
      <trkpt lat="37.17925" lon="-7.44819">
        <ele>6.837718</ele>
        <time>2021-07-12T17:21:26Z</time>
      </trkpt>
      <trkpt lat="37.17929" lon="-7.4482">
        <ele>7.906524</ele>
        <time>2021-07-12T17:22:13Z</time>
      </trkpt>
      <trkpt lat="37.17929" lon="-7.44825">
        <ele>8.807251</ele>
        <time>2021-07-12T17:22:39Z</time>
      </trkpt>
      <trkpt lat="37.17932" lon="-7.44828">
        <ele>7.474943</ele>
        <time>2021-07-12T17:22:54Z</time>
      </trkpt>
      <trkpt lat="37.17931" lon="-7.44822">
        <ele>8.015621</ele>
        <time>2021-07-12T17:23:05Z</time>
      </trkpt>
      <trkpt lat="37.17934" lon="-7.44818">
        <ele>8.139961</ele>
        <time>2021-07-12T17:23:44Z</time>
      </trkpt>
      <trkpt lat="37.17933" lon="-7.44814">
        <ele>6.760709</ele>
        <time>2021-07-12T17:24:44Z</time>
      </trkpt>
      <trkpt lat="37.17933" lon="-7.44814">
        <ele>7.859973</ele>
        <time>2021-07-12T17:25:44Z</time>
      </trkpt>
      <trkpt lat="37.17933" lon="-7.44805">
        <ele>7.476604</ele>
        <time>2021-07-12T17:26:14Z</time>
      </trkpt>
      <trkpt lat="37.17924" lon="-7.44656">
        <ele>7.313527</ele>
        <time>2021-07-12T17:26:25Z</time>
      </trkpt>
      <trkpt lat="37.17917" lon="-7.44513">
        <ele>7.477564</ele>
        <time>2021-07-12T17:26:36Z</time>
      </trkpt>
      <trkpt lat="37.17922" lon="-7.44417">
        <ele>6.573452</ele>
        <time>2021-07-12T17:26:47Z</time>
      </trkpt>
      <trkpt lat="37.17938" lon="-7.44306">
        <ele>5.664099</ele>
        <time>2021-07-12T17:26:58Z</time>
      </trkpt>
      <trkpt lat="37.17972" lon="-7.44186">
        <ele>7.011444</ele>
        <time>2021-07-12T17:27:09Z</time>
      </trkpt>
      <trkpt lat="37.18007" lon="-7.44065">
        <ele>5.28921</ele>
        <time>2021-07-12T17:27:20Z</time>
      </trkpt>
      <trkpt lat="37.18061" lon="-7.43886">
        <ele>7.540917</ele>
        <time>2021-07-12T17:27:31Z</time>
      </trkpt>
      <trkpt lat="37.1812" lon="-7.43686">
        <ele>9.0827</ele>
        <time>2021-07-12T17:27:42Z</time>
      </trkpt>
      <trkpt lat="37.18182" lon="-7.43479">
        <ele>10.11311</ele>
        <time>2021-07-12T17:27:53Z</time>
      </trkpt>
      <trkpt lat="37.18252" lon="-7.43243">
        <ele>12.07546</ele>
        <time>2021-07-12T17:28:04Z</time>
      </trkpt>
      <trkpt lat="37.18323" lon="-7.43006">
        <ele>7.028394</ele>
        <time>2021-07-12T17:28:15Z</time>
      </trkpt>
      <trkpt lat="37.18388" lon="-7.42792">
        <ele>6.623512</ele>
        <time>2021-07-12T17:28:26Z</time>
      </trkpt>
      <trkpt lat="37.18456" lon="-7.4256">
        <ele>7.517417</ele>
        <time>2021-07-12T17:28:37Z</time>
      </trkpt>
      <trkpt lat="37.18518" lon="-7.42356">
        <ele>12.5314</ele>
        <time>2021-07-12T17:28:48Z</time>
      </trkpt>
      <trkpt lat="37.18566" lon="-7.42195">
        <ele>11.60388</ele>
        <time>2021-07-12T17:28:59Z</time>
      </trkpt>
      <trkpt lat="37.18603" lon="-7.42155">
        <ele>7.274999</ele>
        <time>2021-07-12T17:29:10Z</time>
      </trkpt>
      <trkpt lat="37.18751" lon="-7.42233">
        <ele>9.531082</ele>
        <time>2021-07-12T17:29:21Z</time>
      </trkpt>
      <trkpt lat="37.189" lon="-7.42304">
        <ele>5.07022</ele>
        <time>2021-07-12T17:29:32Z</time>
      </trkpt>
      <trkpt lat="37.19059" lon="-7.42382">
        <ele>7.119137</ele>
        <time>2021-07-12T17:29:43Z</time>
      </trkpt>
      <trkpt lat="37.19162" lon="-7.42424">
        <ele>3.838437</ele>
        <time>2021-07-12T17:29:54Z</time>
      </trkpt>
      <trkpt lat="37.19245" lon="-7.42451">
        <ele>2.674387</ele>
        <time>2021-07-12T17:30:05Z</time>
      </trkpt>
      <trkpt lat="37.19268" lon="-7.42452">
        <ele>4.393815</ele>
        <time>2021-07-12T17:30:16Z</time>
      </trkpt>
      <trkpt lat="37.19294" lon="-7.42436">
        <ele>7.155124</ele>
        <time>2021-07-12T17:30:27Z</time>
      </trkpt>
      <trkpt lat="37.19336" lon="-7.42482">
        <ele>6.128845</ele>
        <time>2021-07-12T17:30:38Z</time>
      </trkpt>
      <trkpt lat="37.19418" lon="-7.42534">
        <ele>5.529064</ele>
        <time>2021-07-12T17:30:49Z</time>
      </trkpt>
      <trkpt lat="37.19521" lon="-7.42594">
        <ele>3.890778</ele>
        <time>2021-07-12T17:31:00Z</time>
      </trkpt>
      <trkpt lat="37.19635" lon="-7.42659">
        <ele>2.962892</ele>
        <time>2021-07-12T17:31:11Z</time>
      </trkpt>
      <trkpt lat="37.19713" lon="-7.42704">
        <ele>2.439755</ele>
        <time>2021-07-12T17:31:22Z</time>
      </trkpt>
      <trkpt lat="37.19769" lon="-7.42735">
        <ele>3.012179</ele>
        <time>2021-07-12T17:31:33Z</time>
      </trkpt>
      <trkpt lat="37.19925" lon="-7.42836">
        <ele>3.760776</ele>
        <time>2021-07-12T17:31:44Z</time>
      </trkpt>
      <trkpt lat="37.20107" lon="-7.42979">
        <ele>3.166706</ele>
        <time>2021-07-12T17:31:55Z</time>
      </trkpt>
      <trkpt lat="37.20279" lon="-7.43127">
        <ele>2.463749</ele>
        <time>2021-07-12T17:32:06Z</time>
      </trkpt>
      <trkpt lat="37.20441" lon="-7.43265">
        <ele>3.335126</ele>
        <time>2021-07-12T17:32:17Z</time>
      </trkpt>
      <trkpt lat="37.20622" lon="-7.4342">
        <ele>4.572442</ele>
        <time>2021-07-12T17:32:28Z</time>
      </trkpt>
      <trkpt lat="37.20812" lon="-7.43582">
        <ele>3.698484</ele>
        <time>2021-07-12T17:32:39Z</time>
      </trkpt>
      <trkpt lat="37.21002" lon="-7.43724">
        <ele>4.281922</ele>
        <time>2021-07-12T17:32:50Z</time>
      </trkpt>
      <trkpt lat="37.21205" lon="-7.43814">
        <ele>3.929294</ele>
        <time>2021-07-12T17:33:01Z</time>
      </trkpt>
      <trkpt lat="37.21392" lon="-7.43843">
        <ele>3.442181</ele>
        <time>2021-07-12T17:33:12Z</time>
      </trkpt>
      <trkpt lat="37.21618" lon="-7.43838">
        <ele>4.336944</ele>
        <time>2021-07-12T17:33:23Z</time>
      </trkpt>
      <trkpt lat="37.21843" lon="-7.43798">
        <ele>2.924668</ele>
        <time>2021-07-12T17:33:34Z</time>
      </trkpt>
      <trkpt lat="37.21964" lon="-7.43965">
        <ele>4.756488</ele>
        <time>2021-07-12T17:33:45Z</time>
      </trkpt>
      <trkpt lat="37.22018" lon="-7.44227">
        <ele>4.393255</ele>
        <time>2021-07-12T17:33:56Z</time>
      </trkpt>
      <trkpt lat="37.22099" lon="-7.44414">
        <ele>3.082535</ele>
        <time>2021-07-12T17:34:07Z</time>
      </trkpt>
      <trkpt lat="37.22251" lon="-7.44474">
        <ele>2.407045</ele>
        <time>2021-07-12T17:34:18Z</time>
      </trkpt>
      <trkpt lat="37.22429" lon="-7.4454">
        <ele>4.38657</ele>
        <time>2021-07-12T17:34:29Z</time>
      </trkpt>
      <trkpt lat="37.22601" lon="-7.44641">
        <ele>7.697893</ele>
        <time>2021-07-12T17:34:40Z</time>
      </trkpt>
      <trkpt lat="37.22779" lon="-7.44747">
        <ele>17.07048</ele>
        <time>2021-07-12T17:34:51Z</time>
      </trkpt>
      <trkpt lat="37.22963" lon="-7.44829">
        <ele>21.84756</ele>
        <time>2021-07-12T17:35:02Z</time>
      </trkpt>
      <trkpt lat="37.23153" lon="-7.44693">
        <ele>19.33138</ele>
        <time>2021-07-12T17:35:13Z</time>
      </trkpt>
      <trkpt lat="37.23359" lon="-7.44471">
        <ele>7.402358</ele>
        <time>2021-07-12T17:35:24Z</time>
      </trkpt>
      <trkpt lat="37.2352" lon="-7.44238">
        <ele>8.698876</ele>
        <time>2021-07-12T17:35:35Z</time>
      </trkpt>
      <trkpt lat="37.23596" lon="-7.43955">
        <ele>12.97141</ele>
        <time>2021-07-12T17:35:46Z</time>
      </trkpt>
      <trkpt lat="37.23659" lon="-7.43666">
        <ele>14.41439</ele>
        <time>2021-07-12T17:35:57Z</time>
      </trkpt>
      <trkpt lat="37.23725" lon="-7.43369">
        <ele>16.83272</ele>
        <time>2021-07-12T17:36:08Z</time>
      </trkpt>
      <trkpt lat="37.23761" lon="-7.43059">
        <ele>15.60084</ele>
        <time>2021-07-12T17:36:19Z</time>
      </trkpt>
      <trkpt lat="37.23763" lon="-7.42749">
        <ele>12.65545</ele>
        <time>2021-07-12T17:36:30Z</time>
      </trkpt>
      <trkpt lat="37.23763" lon="-7.42447">
        <ele>15.46678</ele>
        <time>2021-07-12T17:36:41Z</time>
      </trkpt>
      <trkpt lat="37.23762" lon="-7.42219">
        <ele>25.28354</ele>
        <time>2021-07-12T17:36:52Z</time>
      </trkpt>
      <trkpt lat="37.23761" lon="-7.41976">
        <ele>27.63593</ele>
        <time>2021-07-12T17:37:03Z</time>
      </trkpt>
      <trkpt lat="37.23759" lon="-7.4172">
        <ele>22.87219</ele>
        <time>2021-07-12T17:37:14Z</time>
      </trkpt>
      <trkpt lat="37.23764" lon="-7.41456">
        <ele>13.19687</ele>
        <time>2021-07-12T17:37:25Z</time>
      </trkpt>
      <trkpt lat="37.23821" lon="-7.41182">
        <ele>10.13497</ele>
        <time>2021-07-12T17:37:36Z</time>
      </trkpt>
      <trkpt lat="37.23882" lon="-7.40905">
        <ele>12.60215</ele>
        <time>2021-07-12T17:37:47Z</time>
      </trkpt>
      <trkpt lat="37.23872" lon="-7.40639">
        <ele>10.83943</ele>
        <time>2021-07-12T17:37:58Z</time>
      </trkpt>
      <trkpt lat="37.23831" lon="-7.4049">
        <ele>5.710406</ele>
        <time>2021-07-12T17:38:09Z</time>
      </trkpt>
      <trkpt lat="37.2368" lon="-7.40408">
        <ele>4.030917</ele>
        <time>2021-07-12T17:38:20Z</time>
      </trkpt>
      <trkpt lat="37.2358" lon="-7.40399">
        <ele>0.088936</ele>
        <time>2021-07-12T17:38:31Z</time>
      </trkpt>
      <trkpt lat="37.23572" lon="-7.40397">
        <ele>4.010281</ele>
        <time>2021-07-12T17:38:44Z</time>
      </trkpt>
      <trkpt lat="37.23393" lon="-7.40388">
        <ele>5.433099</ele>
        <time>2021-07-12T17:38:55Z</time>
      </trkpt>
      <trkpt lat="37.23217" lon="-7.40315">
        <ele>3.85818</ele>
        <time>2021-07-12T17:39:06Z</time>
      </trkpt>
      <trkpt lat="37.23132" lon="-7.40231">
        <ele>6.847499</ele>
        <time>2021-07-12T17:39:17Z</time>
      </trkpt>
      <trkpt lat="37.23189" lon="-7.40139">
        <ele>3.715122</ele>
        <time>2021-07-12T17:39:28Z</time>
      </trkpt>
      <trkpt lat="37.23238" lon="-7.39943">
        <ele>2.971504</ele>
        <time>2021-07-12T17:39:39Z</time>
      </trkpt>
      <trkpt lat="37.23156" lon="-7.3985">
        <ele>8.42063</ele>
        <time>2021-07-12T17:39:50Z</time>
      </trkpt>
      <trkpt lat="37.23039" lon="-7.3978">
        <ele>16.75134</ele>
        <time>2021-07-12T17:40:01Z</time>
      </trkpt>
      <trkpt lat="37.23065" lon="-7.39675">
        <ele>20.61211</ele>
        <time>2021-07-12T17:40:12Z</time>
      </trkpt>
      <trkpt lat="37.23065" lon="-7.39677">
        <ele>30.33538</ele>
        <time>2021-07-12T17:41:12Z</time>
      </trkpt>
      <trkpt lat="37.23067" lon="-7.39674">
        <ele>35.52146</ele>
        <time>2021-07-12T17:41:27Z</time>
      </trkpt>
      <trkpt lat="37.23067" lon="-7.39674">
        <ele>36.62949</ele>
        <time>2021-07-12T17:42:27Z</time>
      </trkpt>
      <trkpt lat="37.23066" lon="-7.3968">
        <ele>35.36618</ele>
        <time>2021-07-12T17:43:02Z</time>
      </trkpt>
      <trkpt lat="37.23071" lon="-7.39795">
        <ele>28.96044</ele>
        <time>2021-07-12T17:43:13Z</time>
      </trkpt>
      <trkpt lat="37.23219" lon="-7.39876">
        <ele>15.6477</ele>
        <time>2021-07-12T17:43:24Z</time>
      </trkpt>
      <trkpt lat="37.23247" lon="-7.39931">
        <ele>11.08048</ele>
        <time>2021-07-12T17:43:35Z</time>
      </trkpt>
      <trkpt lat="37.23177" lon="-7.40182">
        <ele>9.440035</ele>
        <time>2021-07-12T17:43:46Z</time>
      </trkpt>
      <trkpt lat="37.2317" lon="-7.40198">
        <ele>10.89679</ele>
        <time>2021-07-12T17:43:57Z</time>
      </trkpt>
      <trkpt lat="37.23149" lon="-7.40234">
        <ele>10.54267</ele>
        <time>2021-07-12T17:44:08Z</time>
      </trkpt>
      <trkpt lat="37.23043" lon="-7.40106">
        <ele>16.31305</ele>
        <time>2021-07-12T17:44:19Z</time>
      </trkpt>
      <trkpt lat="37.22826" lon="-7.40133">
        <ele>30.52463</ele>
        <time>2021-07-12T17:44:30Z</time>
      </trkpt>
      <trkpt lat="37.22687" lon="-7.40299">
        <ele>42.65016</ele>
        <time>2021-07-12T17:44:41Z</time>
      </trkpt>
      <trkpt lat="37.22617" lon="-7.40355">
        <ele>44.68954</ele>
        <time>2021-07-12T17:44:52Z</time>
      </trkpt>
      <trkpt lat="37.22577" lon="-7.40372">
        <ele>47.35529</ele>
        <time>2021-07-12T17:45:03Z</time>
      </trkpt>
      <trkpt lat="37.22493" lon="-7.40299">
        <ele>46.93292</ele>
        <time>2021-07-12T17:45:14Z</time>
      </trkpt>
      <trkpt lat="37.22397" lon="-7.40212">
        <ele>44.93233</ele>
        <time>2021-07-12T17:45:25Z</time>
      </trkpt>
      <trkpt lat="37.22316" lon="-7.40153">
        <ele>40.5693</ele>
        <time>2021-07-12T17:45:36Z</time>
      </trkpt>
      <trkpt lat="37.22262" lon="-7.4013">
        <ele>38.51762</ele>
        <time>2021-07-12T17:45:47Z</time>
      </trkpt>
      <trkpt lat="37.2229" lon="-7.40121">
        <ele>40.51032</ele>
        <time>2021-07-12T17:45:58Z</time>
      </trkpt>
      <trkpt lat="37.22293" lon="-7.40124">
        <ele>38.40319</ele>
        <time>2021-07-12T17:46:12Z</time>
      </trkpt>
      <trkpt lat="37.22296" lon="-7.40127">
        <ele>41.62205</ele>
        <time>2021-07-12T17:46:29Z</time>
      </trkpt>
      <trkpt lat="37.22293" lon="-7.40136">
        <ele>41.87096</ele>
        <time>2021-07-12T17:46:44Z</time>
      </trkpt>
      <trkpt lat="37.22294" lon="-7.40128">
        <ele>40.64162</ele>
        <time>2021-07-12T17:46:55Z</time>
      </trkpt>
      <trkpt lat="37.22291" lon="-7.40126">
        <ele>37.6374</ele>
        <time>2021-07-12T17:47:24Z</time>
      </trkpt>
      <trkpt lat="37.22292" lon="-7.40123">
        <ele>41.1295</ele>
        <time>2021-07-12T17:48:24Z</time>
      </trkpt>
      <trkpt lat="37.22292" lon="-7.40128">
        <ele>35.08789</ele>
        <time>2021-07-12T17:48:49Z</time>
      </trkpt>
      <trkpt lat="37.22296" lon="-7.40129">
        <ele>31.26449</ele>
        <time>2021-07-12T17:49:00Z</time>
      </trkpt>
      <trkpt lat="37.22294" lon="-7.40123">
        <ele>32.21861</ele>
        <time>2021-07-12T17:49:11Z</time>
      </trkpt>
      <trkpt lat="37.22293" lon="-7.40116">
        <ele>31.08468</ele>
        <time>2021-07-12T17:49:27Z</time>
      </trkpt>
      <trkpt lat="37.22289" lon="-7.40121">
        <ele>32.25738</ele>
        <time>2021-07-12T17:49:48Z</time>
      </trkpt>
      <trkpt lat="37.22291" lon="-7.40116">
        <ele>38.39903</ele>
        <time>2021-07-12T17:50:30Z</time>
      </trkpt>
      <trkpt lat="37.22296" lon="-7.40117">
        <ele>40.63825</ele>
        <time>2021-07-12T17:50:45Z</time>
      </trkpt>
      <trkpt lat="37.22298" lon="-7.40121">
        <ele>41.62845</ele>
        <time>2021-07-12T17:50:56Z</time>
      </trkpt>
      <trkpt lat="37.22297" lon="-7.40126">
        <ele>43.45441</ele>
        <time>2021-07-12T17:51:28Z</time>
      </trkpt>
      <trkpt lat="37.22301" lon="-7.40124">
        <ele>42.74173</ele>
        <time>2021-07-12T17:51:41Z</time>
      </trkpt>
      <trkpt lat="37.22298" lon="-7.40128">
        <ele>44.37048</ele>
        <time>2021-07-12T17:51:52Z</time>
      </trkpt>
      <trkpt lat="37.22302" lon="-7.40129">
        <ele>44.24023</ele>
        <time>2021-07-12T17:52:12Z</time>
      </trkpt>
      <trkpt lat="37.22306" lon="-7.4012">
        <ele>40.9799</ele>
        <time>2021-07-12T17:52:23Z</time>
      </trkpt>
      <trkpt lat="37.22302" lon="-7.40123">
        <ele>37.6589</ele>
        <time>2021-07-12T17:52:34Z</time>
      </trkpt>
      <trkpt lat="37.22298" lon="-7.40125">
        <ele>41.75609</ele>
        <time>2021-07-12T17:53:18Z</time>
      </trkpt>
      <trkpt lat="37.22294" lon="-7.40128">
        <ele>40.59683</ele>
        <time>2021-07-12T17:53:29Z</time>
      </trkpt>
      <trkpt lat="37.22298" lon="-7.40126">
        <ele>36.65211</ele>
        <time>2021-07-12T17:53:56Z</time>
      </trkpt>
      <trkpt lat="37.22295" lon="-7.40134">
        <ele>47.29222</ele>
        <time>2021-07-12T17:54:07Z</time>
      </trkpt>
      <trkpt lat="37.22355" lon="-7.4017">
        <ele>47.84019</ele>
        <time>2021-07-12T17:54:18Z</time>
      </trkpt>
      <trkpt lat="37.22478" lon="-7.40278">
        <ele>51.77366</ele>
        <time>2021-07-12T17:54:29Z</time>
      </trkpt>
      <trkpt lat="37.22571" lon="-7.40341">
        <ele>51.87956</ele>
        <time>2021-07-12T17:54:40Z</time>
      </trkpt>
      <trkpt lat="37.22711" lon="-7.40272">
        <ele>44.54049</ele>
        <time>2021-07-12T17:54:51Z</time>
      </trkpt>
      <trkpt lat="37.22853" lon="-7.40111">
        <ele>31.54548</ele>
        <time>2021-07-12T17:55:02Z</time>
      </trkpt>
      <trkpt lat="37.23044" lon="-7.40102">
        <ele>16.82191</ele>
        <time>2021-07-12T17:55:13Z</time>
      </trkpt>
      <trkpt lat="37.23155" lon="-7.40185">
        <ele>5.476193</ele>
        <time>2021-07-12T17:55:24Z</time>
      </trkpt>
      <trkpt lat="37.2323" lon="-7.40324">
        <ele>-0.238794</ele>
        <time>2021-07-12T17:55:35Z</time>
      </trkpt>
      <trkpt lat="37.23407" lon="-7.40387">
        <ele>1.945552</ele>
        <time>2021-07-12T17:55:46Z</time>
      </trkpt>
      <trkpt lat="37.23584" lon="-7.40397">
        <ele>3.683422</ele>
        <time>2021-07-12T17:55:57Z</time>
      </trkpt>
      <trkpt lat="37.23667" lon="-7.40363">
        <ele>3.673305</ele>
        <time>2021-07-12T17:56:08Z</time>
      </trkpt>
      <trkpt lat="37.23682" lon="-7.40299">
        <ele>5.008166</ele>
        <time>2021-07-12T17:56:14Z</time>
      </trkpt>
      <trkpt lat="37.23691" lon="-7.40172">
        <ele>8.827057</ele>
        <time>2021-07-12T17:56:25Z</time>
      </trkpt>
      <trkpt lat="37.23673" lon="-7.40018">
        <ele>5.814098</ele>
        <time>2021-07-12T17:56:36Z</time>
      </trkpt>
      <trkpt lat="37.23704" lon="-7.39823">
        <ele>4.599289</ele>
        <time>2021-07-12T17:56:47Z</time>
      </trkpt>
      <trkpt lat="37.2369" lon="-7.39597">
        <ele>4.218943</ele>
        <time>2021-07-12T17:56:58Z</time>
      </trkpt>
      <trkpt lat="37.23676" lon="-7.39456">
        <ele>2.066814</ele>
        <time>2021-07-12T17:57:09Z</time>
      </trkpt>
      <trkpt lat="37.23677" lon="-7.39364">
        <ele>5.654406</ele>
        <time>2021-07-12T17:57:20Z</time>
      </trkpt>
      <trkpt lat="37.23815" lon="-7.39308">
        <ele>9.843278</ele>
        <time>2021-07-12T17:57:31Z</time>
      </trkpt>
      <trkpt lat="37.23834" lon="-7.39161">
        <ele>8.692696</ele>
        <time>2021-07-12T17:57:42Z</time>
      </trkpt>
      <trkpt lat="37.23866" lon="-7.3908">
        <ele>8.400378</ele>
        <time>2021-07-12T17:57:53Z</time>
      </trkpt>
      <trkpt lat="37.23911" lon="-7.39">
        <ele>8.777295</ele>
        <time>2021-07-12T17:58:04Z</time>
      </trkpt>
      <trkpt lat="37.23968" lon="-7.38826">
        <ele>15.92095</ele>
        <time>2021-07-12T17:58:15Z</time>
      </trkpt>
      <trkpt lat="37.24035" lon="-7.38653">
        <ele>18.61517</ele>
        <time>2021-07-12T17:58:26Z</time>
      </trkpt>
      <trkpt lat="37.24101" lon="-7.38487">
        <ele>24.17325</ele>
        <time>2021-07-12T17:58:37Z</time>
      </trkpt>
      <trkpt lat="37.24257" lon="-7.3837">
        <ele>28.9241</ele>
        <time>2021-07-12T17:58:48Z</time>
      </trkpt>
      <trkpt lat="37.24407" lon="-7.38294">
        <ele>40.60003</ele>
        <time>2021-07-12T17:58:59Z</time>
      </trkpt>
      <trkpt lat="37.24543" lon="-7.38262">
        <ele>53.96688</ele>
        <time>2021-07-12T17:59:10Z</time>
      </trkpt>
      <trkpt lat="37.24688" lon="-7.38218">
        <ele>61.89046</ele>
        <time>2021-07-12T17:59:21Z</time>
      </trkpt>
      <trkpt lat="37.24797" lon="-7.38149">
        <ele>56.83629</ele>
        <time>2021-07-12T17:59:32Z</time>
      </trkpt>
      <trkpt lat="37.24919" lon="-7.38137">
        <ele>46.21135</ele>
        <time>2021-07-12T17:59:43Z</time>
      </trkpt>
      <trkpt lat="37.25079" lon="-7.38183">
        <ele>36.3877</ele>
        <time>2021-07-12T17:59:54Z</time>
      </trkpt>
      <trkpt lat="37.25191" lon="-7.38172">
        <ele>30.10435</ele>
        <time>2021-07-12T18:00:05Z</time>
      </trkpt>
      <trkpt lat="37.25318" lon="-7.38136">
        <ele>14.5257</ele>
        <time>2021-07-12T18:00:16Z</time>
      </trkpt>
      <trkpt lat="37.2542" lon="-7.38121">
        <ele>8.152863</ele>
        <time>2021-07-12T18:00:27Z</time>
      </trkpt>
      <trkpt lat="37.2553" lon="-7.38086">
        <ele>-8.326582</ele>
        <time>2021-07-12T18:00:38Z</time>
      </trkpt>
      <trkpt lat="37.25629" lon="-7.38062">
        <ele>-16.85505</ele>
        <time>2021-07-12T18:00:49Z</time>
      </trkpt>
      <trkpt lat="37.25697" lon="-7.37988">
        <ele>9.826237</ele>
        <time>2021-07-12T18:01:00Z</time>
      </trkpt>
      <trkpt lat="37.25673" lon="-7.3802">
        <ele>8.348908</ele>
        <time>2021-07-12T18:01:11Z</time>
      </trkpt>
      <trkpt lat="37.25583" lon="-7.38047">
        <ele>11.37988</ele>
        <time>2021-07-12T18:01:22Z</time>
      </trkpt>
      <trkpt lat="37.25479" lon="-7.38101">
        <ele>5.34376</ele>
        <time>2021-07-12T18:01:33Z</time>
      </trkpt>
      <trkpt lat="37.25412" lon="-7.38128">
        <ele>6.619646</ele>
        <time>2021-07-12T18:01:44Z</time>
      </trkpt>
      <trkpt lat="37.25407" lon="-7.38129">
        <ele>7.487246</ele>
        <time>2021-07-12T18:01:55Z</time>
      </trkpt>
      <trkpt lat="37.25408" lon="-7.38125">
        <ele>8.887979</ele>
        <time>2021-07-12T18:02:06Z</time>
      </trkpt>
      <trkpt lat="37.25422" lon="-7.38115">
        <ele>7.036681</ele>
        <time>2021-07-12T18:02:17Z</time>
      </trkpt>
      <trkpt lat="37.25508" lon="-7.38092">
        <ele>5.048561</ele>
        <time>2021-07-12T18:02:28Z</time>
      </trkpt>
      <trkpt lat="37.25514" lon="-7.38089">
        <ele>4.101481</ele>
        <time>2021-07-12T18:03:25Z</time>
      </trkpt>
      <trkpt lat="37.25586" lon="-7.38045">
        <ele>10.35755</ele>
        <time>2021-07-12T18:03:36Z</time>
      </trkpt>
      <trkpt lat="37.25667" lon="-7.38029">
        <ele>6.666443</ele>
        <time>2021-07-12T18:03:47Z</time>
      </trkpt>
      <trkpt lat="37.25767" lon="-7.37934">
        <ele>10.13617</ele>
        <time>2021-07-12T18:03:58Z</time>
      </trkpt>
      <trkpt lat="37.25901" lon="-7.3789">
        <ele>13.73509</ele>
        <time>2021-07-12T18:04:09Z</time>
      </trkpt>
      <trkpt lat="37.26063" lon="-7.37835">
        <ele>14.27897</ele>
        <time>2021-07-12T18:04:20Z</time>
      </trkpt>
      <trkpt lat="37.26228" lon="-7.37833">
        <ele>17.7467</ele>
        <time>2021-07-12T18:04:31Z</time>
      </trkpt>
      <trkpt lat="37.26378" lon="-7.37877">
        <ele>20.14967</ele>
        <time>2021-07-12T18:04:42Z</time>
      </trkpt>
      <trkpt lat="37.26511" lon="-7.37809">
        <ele>26.494</ele>
        <time>2021-07-12T18:04:53Z</time>
      </trkpt>
      <trkpt lat="37.26641" lon="-7.37776">
        <ele>34.9553</ele>
        <time>2021-07-12T18:05:04Z</time>
      </trkpt>
      <trkpt lat="37.26814" lon="-7.37763">
        <ele>39.46176</ele>
        <time>2021-07-12T18:05:15Z</time>
      </trkpt>
      <trkpt lat="37.27004" lon="-7.37768">
        <ele>42.15552</ele>
        <time>2021-07-12T18:05:26Z</time>
      </trkpt>
      <trkpt lat="37.27193" lon="-7.37737">
        <ele>43.20514</ele>
        <time>2021-07-12T18:05:37Z</time>
      </trkpt>
      <trkpt lat="37.27349" lon="-7.37666">
        <ele>47.16354</ele>
        <time>2021-07-12T18:05:48Z</time>
      </trkpt>
      <trkpt lat="37.27492" lon="-7.37662">
        <ele>53.59125</ele>
        <time>2021-07-12T18:05:59Z</time>
      </trkpt>
      <trkpt lat="37.27637" lon="-7.37593">
        <ele>53.0083</ele>
        <time>2021-07-12T18:06:10Z</time>
      </trkpt>
      <trkpt lat="37.27784" lon="-7.37525">
        <ele>53.35128</ele>
        <time>2021-07-12T18:06:21Z</time>
      </trkpt>
      <trkpt lat="37.2795" lon="-7.374">
        <ele>56.72222</ele>
        <time>2021-07-12T18:06:32Z</time>
      </trkpt>
      <trkpt lat="37.28061" lon="-7.37256">
        <ele>64.47029</ele>
        <time>2021-07-12T18:06:43Z</time>
      </trkpt>
      <trkpt lat="37.28177" lon="-7.37224">
        <ele>69.58418</ele>
        <time>2021-07-12T18:06:54Z</time>
      </trkpt>
      <trkpt lat="37.2824" lon="-7.3737">
        <ele>63.89177</ele>
        <time>2021-07-12T18:07:05Z</time>
      </trkpt>
      <trkpt lat="37.28318" lon="-7.37539">
        <ele>68.32765</ele>
        <time>2021-07-12T18:07:16Z</time>
      </trkpt>
      <trkpt lat="37.28386" lon="-7.37695">
        <ele>71.48744</ele>
        <time>2021-07-12T18:07:27Z</time>
      </trkpt>
      <trkpt lat="37.2845" lon="-7.37833">
        <ele>66.0313</ele>
        <time>2021-07-12T18:07:38Z</time>
      </trkpt>
      <trkpt lat="37.28529" lon="-7.37884">
        <ele>64.84733</ele>
        <time>2021-07-12T18:07:49Z</time>
      </trkpt>
      <trkpt lat="37.28689" lon="-7.37845">
        <ele>69.93518</ele>
        <time>2021-07-12T18:08:00Z</time>
      </trkpt>
      <trkpt lat="37.2885" lon="-7.37807">
        <ele>74.06466</ele>
        <time>2021-07-12T18:08:11Z</time>
      </trkpt>
      <trkpt lat="37.29009" lon="-7.37763">
        <ele>79.193</ele>
        <time>2021-07-12T18:08:22Z</time>
      </trkpt>
      <trkpt lat="37.29165" lon="-7.37713">
        <ele>81.73162</ele>
        <time>2021-07-12T18:08:33Z</time>
      </trkpt>
      <trkpt lat="37.29317" lon="-7.37662">
        <ele>85.83406</ele>
        <time>2021-07-12T18:08:44Z</time>
      </trkpt>
      <trkpt lat="37.29367" lon="-7.37598">
        <ele>82.16493</ele>
        <time>2021-07-12T18:08:55Z</time>
      </trkpt>
      <trkpt lat="37.29343" lon="-7.37404">
        <ele>81.91021</ele>
        <time>2021-07-12T18:09:06Z</time>
      </trkpt>
      <trkpt lat="37.29313" lon="-7.37189">
        <ele>84.01309</ele>
        <time>2021-07-12T18:09:17Z</time>
      </trkpt>
      <trkpt lat="37.29285" lon="-7.36958">
        <ele>77.73535</ele>
        <time>2021-07-12T18:09:28Z</time>
      </trkpt>
      <trkpt lat="37.2926" lon="-7.36713">
        <ele>72.4891</ele>
        <time>2021-07-12T18:09:39Z</time>
      </trkpt>
      <trkpt lat="37.29237" lon="-7.36477">
        <ele>72.1148</ele>
        <time>2021-07-12T18:09:50Z</time>
      </trkpt>
      <trkpt lat="37.29211" lon="-7.36201">
        <ele>69.21272</ele>
        <time>2021-07-12T18:10:01Z</time>
      </trkpt>
      <trkpt lat="37.29187" lon="-7.35954">
        <ele>74.36859</ele>
        <time>2021-07-12T18:10:12Z</time>
      </trkpt>
      <trkpt lat="37.29194" lon="-7.3575">
        <ele>69.22549</ele>
        <time>2021-07-12T18:10:23Z</time>
      </trkpt>
      <trkpt lat="37.29272" lon="-7.35552">
        <ele>75.3085</ele>
        <time>2021-07-12T18:10:34Z</time>
      </trkpt>
      <trkpt lat="37.29359" lon="-7.35366">
        <ele>78.0277</ele>
        <time>2021-07-12T18:10:45Z</time>
      </trkpt>
      <trkpt lat="37.29485" lon="-7.35178">
        <ele>76.51574</ele>
        <time>2021-07-12T18:10:56Z</time>
      </trkpt>
      <trkpt lat="37.29639" lon="-7.3499">
        <ele>78.79514</ele>
        <time>2021-07-12T18:11:07Z</time>
      </trkpt>
      <trkpt lat="37.29776" lon="-7.34804">
        <ele>75.88092</ele>
        <time>2021-07-12T18:11:18Z</time>
      </trkpt>
      <trkpt lat="37.29896" lon="-7.34688">
        <ele>75.66836</ele>
        <time>2021-07-12T18:11:29Z</time>
      </trkpt>
      <trkpt lat="37.29948" lon="-7.34575">
        <ele>80.86104</ele>
        <time>2021-07-12T18:11:40Z</time>
      </trkpt>
      <trkpt lat="37.29966" lon="-7.34548">
        <ele>82.44064</ele>
        <time>2021-07-12T18:11:51Z</time>
      </trkpt>
      <trkpt lat="37.30005" lon="-7.34517">
        <ele>84.34428</ele>
        <time>2021-07-12T18:12:02Z</time>
      </trkpt>
      <trkpt lat="37.30113" lon="-7.3448">
        <ele>85.53378</ele>
        <time>2021-07-12T18:12:13Z</time>
      </trkpt>
      <trkpt lat="37.30227" lon="-7.34449">
        <ele>82.49303</ele>
        <time>2021-07-12T18:12:24Z</time>
      </trkpt>
      <trkpt lat="37.30323" lon="-7.34413">
        <ele>88.86309</ele>
        <time>2021-07-12T18:12:35Z</time>
      </trkpt>
      <trkpt lat="37.30398" lon="-7.34373">
        <ele>94.35775</ele>
        <time>2021-07-12T18:12:46Z</time>
      </trkpt>
      <trkpt lat="37.3048" lon="-7.34326">
        <ele>101.5628</ele>
        <time>2021-07-12T18:12:57Z</time>
      </trkpt>
      <trkpt lat="37.30546" lon="-7.34291">
        <ele>107.1866</ele>
        <time>2021-07-12T18:13:08Z</time>
      </trkpt>
      <trkpt lat="37.30482" lon="-7.34258">
        <ele>99.31137</ele>
        <time>2021-07-12T18:13:19Z</time>
      </trkpt>
      <trkpt lat="37.3044" lon="-7.34251">
        <ele>95.66868</ele>
        <time>2021-07-12T18:13:31Z</time>
      </trkpt>
      <trkpt lat="37.30418" lon="-7.3421">
        <ele>99.96047</ele>
        <time>2021-07-12T18:13:42Z</time>
      </trkpt>
      <trkpt lat="37.30393" lon="-7.34211">
        <ele>100.8903</ele>
        <time>2021-07-12T18:13:53Z</time>
      </trkpt>
      <trkpt lat="37.30371" lon="-7.3413">
        <ele>97.45933</ele>
        <time>2021-07-12T18:14:04Z</time>
      </trkpt>
      <trkpt lat="37.30355" lon="-7.34036">
        <ele>97.00697</ele>
        <time>2021-07-12T18:14:15Z</time>
      </trkpt>
      <trkpt lat="37.30366" lon="-7.33979">
        <ele>97.57607</ele>
        <time>2021-07-12T18:14:26Z</time>
      </trkpt>
      <trkpt lat="37.30405" lon="-7.3392">
        <ele>97.57064</ele>
        <time>2021-07-12T18:14:37Z</time>
      </trkpt>
      <trkpt lat="37.30476" lon="-7.33792">
        <ele>104.3992</ele>
        <time>2021-07-12T18:14:48Z</time>
      </trkpt>
      <trkpt lat="37.30567" lon="-7.33604">
        <ele>104.5312</ele>
        <time>2021-07-12T18:14:59Z</time>
      </trkpt>
      <trkpt lat="37.30616" lon="-7.33488">
        <ele>105.4028</ele>
        <time>2021-07-12T18:15:10Z</time>
      </trkpt>
      <trkpt lat="37.30597" lon="-7.33317">
        <ele>103.8637</ele>
        <time>2021-07-12T18:15:21Z</time>
      </trkpt>
      <trkpt lat="37.30635" lon="-7.33105">
        <ele>98.61014</ele>
        <time>2021-07-12T18:15:32Z</time>
      </trkpt>
      <trkpt lat="37.30671" lon="-7.32886">
        <ele>97.60093</ele>
        <time>2021-07-12T18:15:43Z</time>
      </trkpt>
      <trkpt lat="37.30765" lon="-7.32701">
        <ele>106.7687</ele>
        <time>2021-07-12T18:15:54Z</time>
      </trkpt>
      <trkpt lat="37.30844" lon="-7.32539">
        <ele>102.847</ele>
        <time>2021-07-12T18:16:05Z</time>
      </trkpt>
      <trkpt lat="37.30914" lon="-7.32329">
        <ele>119.8187</ele>
        <time>2021-07-12T18:16:16Z</time>
      </trkpt>
      <trkpt lat="37.31034" lon="-7.32139">
        <ele>126.6425</ele>
        <time>2021-07-12T18:16:27Z</time>
      </trkpt>
      <trkpt lat="37.31103" lon="-7.31987">
        <ele>116.6812</ele>
        <time>2021-07-12T18:16:38Z</time>
      </trkpt>
      <trkpt lat="37.31235" lon="-7.31837">
        <ele>118.3258</ele>
        <time>2021-07-12T18:16:49Z</time>
      </trkpt>
      <trkpt lat="37.3134" lon="-7.31697">
        <ele>113.2401</ele>
        <time>2021-07-12T18:17:00Z</time>
      </trkpt>
      <trkpt lat="37.31394" lon="-7.31606">
        <ele>111.5609</ele>
        <time>2021-07-12T18:17:11Z</time>
      </trkpt>
      <trkpt lat="37.31436" lon="-7.31415">
        <ele>110.2289</ele>
        <time>2021-07-12T18:17:22Z</time>
      </trkpt>
      <trkpt lat="37.31492" lon="-7.31218">
        <ele>98.48053</ele>
        <time>2021-07-12T18:17:33Z</time>
      </trkpt>
      <trkpt lat="37.31533" lon="-7.31047">
        <ele>96.46944</ele>
        <time>2021-07-12T18:17:44Z</time>
      </trkpt>
      <trkpt lat="37.31575" lon="-7.3089">
        <ele>102.9096</ele>
        <time>2021-07-12T18:17:55Z</time>
      </trkpt>
      <trkpt lat="37.31697" lon="-7.30737">
        <ele>104.0258</ele>
        <time>2021-07-12T18:18:06Z</time>
      </trkpt>
      <trkpt lat="37.31785" lon="-7.30555">
        <ele>96.74267</ele>
        <time>2021-07-12T18:18:17Z</time>
      </trkpt>
      <trkpt lat="37.31792" lon="-7.30328">
        <ele>92.75776</ele>
        <time>2021-07-12T18:18:28Z</time>
      </trkpt>
      <trkpt lat="37.31796" lon="-7.30085">
        <ele>85.34618</ele>
        <time>2021-07-12T18:18:39Z</time>
      </trkpt>
      <trkpt lat="37.31821" lon="-7.29849">
        <ele>82.82478</ele>
        <time>2021-07-12T18:18:50Z</time>
      </trkpt>
      <trkpt lat="37.31896" lon="-7.2964">
        <ele>84.17366</ele>
        <time>2021-07-12T18:19:01Z</time>
      </trkpt>
      <trkpt lat="37.31903" lon="-7.2938">
        <ele>85.91178</ele>
        <time>2021-07-12T18:19:12Z</time>
      </trkpt>
      <trkpt lat="37.31921" lon="-7.29147">
        <ele>79.08115</ele>
        <time>2021-07-12T18:19:23Z</time>
      </trkpt>
      <trkpt lat="37.32031" lon="-7.2909">
        <ele>81.5866</ele>
        <time>2021-07-12T18:19:34Z</time>
      </trkpt>
      <trkpt lat="37.32096" lon="-7.28902">
        <ele>81.84572</ele>
        <time>2021-07-12T18:19:45Z</time>
      </trkpt>
      <trkpt lat="37.32137" lon="-7.28696">
        <ele>84.16628</ele>
        <time>2021-07-12T18:19:56Z</time>
      </trkpt>
      <trkpt lat="37.32256" lon="-7.28591">
        <ele>83.89784</ele>
        <time>2021-07-12T18:20:07Z</time>
      </trkpt>
      <trkpt lat="37.32355" lon="-7.28523">
        <ele>80.47812</ele>
        <time>2021-07-12T18:20:18Z</time>
      </trkpt>
      <trkpt lat="37.32413" lon="-7.28384">
        <ele>80.25887</ele>
        <time>2021-07-12T18:20:29Z</time>
      </trkpt>
      <trkpt lat="37.32464" lon="-7.28293">
        <ele>76.07211</ele>
        <time>2021-07-12T18:20:40Z</time>
      </trkpt>
      <trkpt lat="37.32604" lon="-7.28285">
        <ele>78.535</ele>
        <time>2021-07-12T18:20:51Z</time>
      </trkpt>
      <trkpt lat="37.32626" lon="-7.28252">
        <ele>82.32729</ele>
        <time>2021-07-12T18:21:02Z</time>
      </trkpt>
      <trkpt lat="37.32628" lon="-7.28214">
        <ele>82.72354</ele>
        <time>2021-07-12T18:21:13Z</time>
      </trkpt>
      <trkpt lat="37.3254" lon="-7.28149">
        <ele>82.30105</ele>
        <time>2021-07-12T18:21:24Z</time>
      </trkpt>
      <trkpt lat="37.32411" lon="-7.28141">
        <ele>79.82775</ele>
        <time>2021-07-12T18:21:35Z</time>
      </trkpt>
      <trkpt lat="37.32238" lon="-7.28012">
        <ele>73.35772</ele>
        <time>2021-07-12T18:21:46Z</time>
      </trkpt>
      <trkpt lat="37.32051" lon="-7.2784">
        <ele>72.18388</ele>
        <time>2021-07-12T18:21:57Z</time>
      </trkpt>
      <trkpt lat="37.31986" lon="-7.27821">
        <ele>74.67597</ele>
        <time>2021-07-12T18:22:08Z</time>
      </trkpt>
      <trkpt lat="37.32056" lon="-7.27769">
        <ele>72.98117</ele>
        <time>2021-07-12T18:22:19Z</time>
      </trkpt>
      <trkpt lat="37.32017" lon="-7.27823">
        <ele>71.47622</ele>
        <time>2021-07-12T18:22:30Z</time>
      </trkpt>
      <trkpt lat="37.31986" lon="-7.27812">
        <ele>73.72685</ele>
        <time>2021-07-12T18:22:41Z</time>
      </trkpt>
      <trkpt lat="37.31979" lon="-7.27818">
        <ele>73.28935</ele>
        <time>2021-07-12T18:23:17Z</time>
      </trkpt>
      <trkpt lat="37.3192" lon="-7.27911">
        <ele>70.92788</ele>
        <time>2021-07-12T18:23:28Z</time>
      </trkpt>
      <trkpt lat="37.318" lon="-7.27953">
        <ele>73.62534</ele>
        <time>2021-07-12T18:23:39Z</time>
      </trkpt>
      <trkpt lat="37.31638" lon="-7.27953">
        <ele>67.8084</ele>
        <time>2021-07-12T18:23:50Z</time>
      </trkpt>
      <trkpt lat="37.3149" lon="-7.27889">
        <ele>65.86278</ele>
        <time>2021-07-12T18:24:01Z</time>
      </trkpt>
      <trkpt lat="37.31463" lon="-7.27875">
        <ele>66.31376</ele>
        <time>2021-07-12T18:24:12Z</time>
      </trkpt>
      <trkpt lat="37.31455" lon="-7.27874">
        <ele>65.87059</ele>
        <time>2021-07-12T18:24:44Z</time>
      </trkpt>
      <trkpt lat="37.31393" lon="-7.27856">
        <ele>64.42485</ele>
        <time>2021-07-12T18:24:55Z</time>
      </trkpt>
      <trkpt lat="37.31265" lon="-7.27796">
        <ele>65.60397</ele>
        <time>2021-07-12T18:25:06Z</time>
      </trkpt>
      <trkpt lat="37.31149" lon="-7.2776">
        <ele>68.54242</ele>
        <time>2021-07-12T18:25:17Z</time>
      </trkpt>
      <trkpt lat="37.31135" lon="-7.27676">
        <ele>70.37683</ele>
        <time>2021-07-12T18:25:28Z</time>
      </trkpt>
      <trkpt lat="37.3117" lon="-7.27424">
        <ele>68.25062</ele>
        <time>2021-07-12T18:25:39Z</time>
      </trkpt>
      <trkpt lat="37.311" lon="-7.27164">
        <ele>68.74847</ele>
        <time>2021-07-12T18:25:50Z</time>
      </trkpt>
      <trkpt lat="37.30978" lon="-7.26915">
        <ele>61.79598</ele>
        <time>2021-07-12T18:26:01Z</time>
      </trkpt>
      <trkpt lat="37.30848" lon="-7.26679">
        <ele>63.70967</ele>
        <time>2021-07-12T18:26:12Z</time>
      </trkpt>
      <trkpt lat="37.30698" lon="-7.26509">
        <ele>62.03276</ele>
        <time>2021-07-12T18:26:23Z</time>
      </trkpt>
      <trkpt lat="37.3056" lon="-7.26345">
        <ele>61.46069</ele>
        <time>2021-07-12T18:26:34Z</time>
      </trkpt>
      <trkpt lat="37.3043" lon="-7.26177">
        <ele>59.49933</ele>
        <time>2021-07-12T18:26:45Z</time>
      </trkpt>
      <trkpt lat="37.30312" lon="-7.25948">
        <ele>59.15541</ele>
        <time>2021-07-12T18:26:56Z</time>
      </trkpt>
      <trkpt lat="37.30187" lon="-7.25709">
        <ele>60.5158</ele>
        <time>2021-07-12T18:27:07Z</time>
      </trkpt>
      <trkpt lat="37.30077" lon="-7.2558">
        <ele>67.54355</ele>
        <time>2021-07-12T18:27:18Z</time>
      </trkpt>
      <trkpt lat="37.30011" lon="-7.25445">
        <ele>71.54435</ele>
        <time>2021-07-12T18:27:29Z</time>
      </trkpt>
      <trkpt lat="37.299" lon="-7.25286">
        <ele>69.81778</ele>
        <time>2021-07-12T18:27:40Z</time>
      </trkpt>
      <trkpt lat="37.29948" lon="-7.25232">
        <ele>68.73684</ele>
        <time>2021-07-12T18:27:51Z</time>
      </trkpt>
      <trkpt lat="37.30097" lon="-7.25229">
        <ele>63.47023</ele>
        <time>2021-07-12T18:28:02Z</time>
      </trkpt>
      <trkpt lat="37.30232" lon="-7.25167">
        <ele>68.07188</ele>
        <time>2021-07-12T18:28:13Z</time>
      </trkpt>
      <trkpt lat="37.30283" lon="-7.2497">
        <ele>72.72719</ele>
        <time>2021-07-12T18:28:24Z</time>
      </trkpt>
      <trkpt lat="37.30327" lon="-7.24791">
        <ele>64.47575</ele>
        <time>2021-07-12T18:28:35Z</time>
      </trkpt>
      <trkpt lat="37.30338" lon="-7.24738">
        <ele>60.05777</ele>
        <time>2021-07-12T18:28:46Z</time>
      </trkpt>
      <trkpt lat="37.30326" lon="-7.24692">
        <ele>55.82312</ele>
        <time>2021-07-12T18:28:57Z</time>
      </trkpt>
      <trkpt lat="37.3039" lon="-7.24554">
        <ele>47.27994</ele>
        <time>2021-07-12T18:29:08Z</time>
      </trkpt>
      <trkpt lat="37.30414" lon="-7.24465">
        <ele>23.4505</ele>
        <time>2021-07-12T18:29:19Z</time>
      </trkpt>
      <trkpt lat="37.30444" lon="-7.24318">
        <ele>46.7667</ele>
        <time>2021-07-12T18:29:30Z</time>
      </trkpt>
      <trkpt lat="37.30474" lon="-7.24191">
        <ele>53.06708</ele>
        <time>2021-07-12T18:29:41Z</time>
      </trkpt>
      <trkpt lat="37.30506" lon="-7.24064">
        <ele>54.38784</ele>
        <time>2021-07-12T18:29:52Z</time>
      </trkpt>
      <trkpt lat="37.30539" lon="-7.23992">
        <ele>55.29071</ele>
        <time>2021-07-12T18:30:03Z</time>
      </trkpt>
      <trkpt lat="37.30533" lon="-7.23941">
        <ele>51.9583</ele>
        <time>2021-07-12T18:30:14Z</time>
      </trkpt>
      <trkpt lat="37.30535" lon="-7.23934">
        <ele>53.4807</ele>
        <time>2021-07-12T18:31:13Z</time>
      </trkpt>
      <trkpt lat="37.30555" lon="-7.23835">
        <ele>54.48043</ele>
        <time>2021-07-12T18:31:24Z</time>
      </trkpt>
      <trkpt lat="37.30579" lon="-7.23738">
        <ele>58.26015</ele>
        <time>2021-07-12T18:31:35Z</time>
      </trkpt>
      <trkpt lat="37.30604" lon="-7.23631">
        <ele>55.6216</ele>
        <time>2021-07-12T18:31:46Z</time>
      </trkpt>
      <trkpt lat="37.30669" lon="-7.23613">
        <ele>56.7102</ele>
        <time>2021-07-12T18:31:57Z</time>
      </trkpt>
      <trkpt lat="37.30709" lon="-7.2353">
        <ele>56.20437</ele>
        <time>2021-07-12T18:32:08Z</time>
      </trkpt>
      <trkpt lat="37.30678" lon="-7.23436">
        <ele>57.83537</ele>
        <time>2021-07-12T18:32:19Z</time>
      </trkpt>
      <trkpt lat="37.30678" lon="-7.23395">
        <ele>60.47564</ele>
        <time>2021-07-12T18:32:30Z</time>
      </trkpt>
      <trkpt lat="37.30682" lon="-7.23388">
        <ele>59.64743</ele>
        <time>2021-07-12T18:33:07Z</time>
      </trkpt>
      <trkpt lat="37.30713" lon="-7.23375">
        <ele>58.79236</ele>
        <time>2021-07-12T18:33:18Z</time>
      </trkpt>
      <trkpt lat="37.3065" lon="-7.23291">
        <ele>57.0013</ele>
        <time>2021-07-12T18:33:29Z</time>
      </trkpt>
      <trkpt lat="37.30528" lon="-7.23192">
        <ele>52.85977</ele>
        <time>2021-07-12T18:33:40Z</time>
      </trkpt>
      <trkpt lat="37.30454" lon="-7.23128">
        <ele>50.58665</ele>
        <time>2021-07-12T18:33:51Z</time>
      </trkpt>
      <trkpt lat="37.30449" lon="-7.23126">
        <ele>53.27112</ele>
        <time>2021-07-12T18:34:27Z</time>
      </trkpt>
      <trkpt lat="37.3035" lon="-7.23124">
        <ele>47.99681</ele>
        <time>2021-07-12T18:34:38Z</time>
      </trkpt>
      <trkpt lat="37.30232" lon="-7.23038">
        <ele>44.90823</ele>
        <time>2021-07-12T18:34:49Z</time>
      </trkpt>
      <trkpt lat="37.3009" lon="-7.22879">
        <ele>41.98273</ele>
        <time>2021-07-12T18:35:00Z</time>
      </trkpt>
      <trkpt lat="37.2997" lon="-7.22723">
        <ele>45.1932</ele>
        <time>2021-07-12T18:35:11Z</time>
      </trkpt>
      <trkpt lat="37.29913" lon="-7.22519">
        <ele>50.9733</ele>
        <time>2021-07-12T18:35:22Z</time>
      </trkpt>
      <trkpt lat="37.29863" lon="-7.22329">
        <ele>46.4392</ele>
        <time>2021-07-12T18:35:33Z</time>
      </trkpt>
      <trkpt lat="37.29869" lon="-7.22178">
        <ele>43.84611</ele>
        <time>2021-07-12T18:35:44Z</time>
      </trkpt>
      <trkpt lat="37.29811" lon="-7.22054">
        <ele>42.73246</ele>
        <time>2021-07-12T18:35:55Z</time>
      </trkpt>
      <trkpt lat="37.29855" lon="-7.21996">
        <ele>42.09694</ele>
        <time>2021-07-12T18:36:06Z</time>
      </trkpt>
      <trkpt lat="37.29962" lon="-7.21799">
        <ele>37.8085</ele>
        <time>2021-07-12T18:36:17Z</time>
      </trkpt>
      <trkpt lat="37.30049" lon="-7.21609">
        <ele>37.68856</ele>
        <time>2021-07-12T18:36:28Z</time>
      </trkpt>
      <trkpt lat="37.30201" lon="-7.21438">
        <ele>44.56137</ele>
        <time>2021-07-12T18:36:39Z</time>
      </trkpt>
      <trkpt lat="37.3027" lon="-7.212">
        <ele>45.24003</ele>
        <time>2021-07-12T18:36:50Z</time>
      </trkpt>
      <trkpt lat="37.30341" lon="-7.21184">
        <ele>45.61531</ele>
        <time>2021-07-12T18:37:01Z</time>
      </trkpt>
      <trkpt lat="37.30529" lon="-7.21221">
        <ele>45.75921</ele>
        <time>2021-07-12T18:37:12Z</time>
      </trkpt>
      <trkpt lat="37.30697" lon="-7.21258">
        <ele>46.63817</ele>
        <time>2021-07-12T18:37:23Z</time>
      </trkpt>
      <trkpt lat="37.30852" lon="-7.21187">
        <ele>57.24904</ele>
        <time>2021-07-12T18:37:34Z</time>
      </trkpt>
      <trkpt lat="37.30948" lon="-7.21056">
        <ele>48.00094</ele>
        <time>2021-07-12T18:37:45Z</time>
      </trkpt>
      <trkpt lat="37.31093" lon="-7.20906">
        <ele>42.4035</ele>
        <time>2021-07-12T18:37:56Z</time>
      </trkpt>
      <trkpt lat="37.31159" lon="-7.20746">
        <ele>41.35839</ele>
        <time>2021-07-12T18:38:07Z</time>
      </trkpt>
      <trkpt lat="37.31271" lon="-7.20628">
        <ele>34.77007</ele>
        <time>2021-07-12T18:38:18Z</time>
      </trkpt>
      <trkpt lat="37.31269" lon="-7.20578">
        <ele>33.25313</ele>
        <time>2021-07-12T18:38:29Z</time>
      </trkpt>
      <trkpt lat="37.3126" lon="-7.20531">
        <ele>30.07945</ele>
        <time>2021-07-12T18:38:40Z</time>
      </trkpt>
      <trkpt lat="37.31259" lon="-7.20543">
        <ele>31.7574</ele>
        <time>2021-07-12T18:38:51Z</time>
      </trkpt>
      <trkpt lat="37.31292" lon="-7.20641">
        <ele>32.23511</ele>
        <time>2021-07-12T18:39:02Z</time>
      </trkpt>
      <trkpt lat="37.31299" lon="-7.20679">
        <ele>31.84876</ele>
        <time>2021-07-12T18:39:13Z</time>
      </trkpt>
      <trkpt lat="37.31296" lon="-7.20681">
        <ele>35.62985</ele>
        <time>2021-07-12T18:39:35Z</time>
      </trkpt>
      <trkpt lat="37.31299" lon="-7.20677">
        <ele>33.13542</ele>
        <time>2021-07-12T18:39:53Z</time>
      </trkpt>
      <trkpt lat="37.31282" lon="-7.20625">
        <ele>33.16606</ele>
        <time>2021-07-12T18:40:04Z</time>
      </trkpt>
      <trkpt lat="37.31273" lon="-7.20583">
        <ele>33.36755</ele>
        <time>2021-07-12T18:40:15Z</time>
      </trkpt>
      <trkpt lat="37.31259" lon="-7.2054">
        <ele>31.78488</ele>
        <time>2021-07-12T18:40:26Z</time>
      </trkpt>
      <trkpt lat="37.31304" lon="-7.20488">
        <ele>32.81568</ele>
        <time>2021-07-12T18:40:37Z</time>
      </trkpt>
      <trkpt lat="37.31357" lon="-7.20437">
        <ele>31.88429</ele>
        <time>2021-07-12T18:40:48Z</time>
      </trkpt>
      <trkpt lat="37.31413" lon="-7.20382">
        <ele>32.2846</ele>
        <time>2021-07-12T18:40:59Z</time>
      </trkpt>
      <trkpt lat="37.31487" lon="-7.20308">
        <ele>32.61869</ele>
        <time>2021-07-12T18:41:10Z</time>
      </trkpt>
      <trkpt lat="37.31522" lon="-7.203">
        <ele>32.47204</ele>
        <time>2021-07-12T18:41:21Z</time>
      </trkpt>
      <trkpt lat="37.3153" lon="-7.20331">
        <ele>32.3846</ele>
        <time>2021-07-12T18:41:32Z</time>
      </trkpt>
      <trkpt lat="37.31531" lon="-7.20338">
        <ele>31.8564</ele>
        <time>2021-07-12T18:41:43Z</time>
      </trkpt>
      <trkpt lat="37.31529" lon="-7.20331">
        <ele>31.46729</ele>
        <time>2021-07-12T18:42:03Z</time>
      </trkpt>
      <trkpt lat="37.31495" lon="-7.20259">
        <ele>30.28688</ele>
        <time>2021-07-12T18:42:14Z</time>
      </trkpt>
      <trkpt lat="37.31619" lon="-7.20189">
        <ele>31.29506</ele>
        <time>2021-07-12T18:42:25Z</time>
      </trkpt>
      <trkpt lat="37.31717" lon="-7.20224">
        <ele>36.36438</ele>
        <time>2021-07-12T18:42:36Z</time>
      </trkpt>
      <trkpt lat="37.31769" lon="-7.20253">
        <ele>35.32118</ele>
        <time>2021-07-12T18:42:47Z</time>
      </trkpt>
      <trkpt lat="37.31776" lon="-7.20251">
        <ele>36.95199</ele>
        <time>2021-07-12T18:43:06Z</time>
      </trkpt>
      <trkpt lat="37.31821" lon="-7.20199">
        <ele>34.04899</ele>
        <time>2021-07-12T18:43:17Z</time>
      </trkpt>
      <trkpt lat="37.31823" lon="-7.20193">
        <ele>34.5983</ele>
        <time>2021-07-12T18:43:35Z</time>
      </trkpt>
      <trkpt lat="37.3182" lon="-7.20205">
        <ele>35.25159</ele>
        <time>2021-07-12T18:43:46Z</time>
      </trkpt>
      <trkpt lat="37.31776" lon="-7.20255">
        <ele>35.14125</ele>
        <time>2021-07-12T18:43:57Z</time>
      </trkpt>
      <trkpt lat="37.31771" lon="-7.20259">
        <ele>34.50943</ele>
        <time>2021-07-12T18:44:08Z</time>
      </trkpt>
      <trkpt lat="37.31767" lon="-7.20264">
        <ele>33.34708</ele>
        <time>2021-07-12T18:44:20Z</time>
      </trkpt>
      <trkpt lat="37.31755" lon="-7.20307">
        <ele>33.06668</ele>
        <time>2021-07-12T18:44:31Z</time>
      </trkpt>
      <trkpt lat="37.31775" lon="-7.20289">
        <ele>33.75326</ele>
        <time>2021-07-12T18:44:42Z</time>
      </trkpt>
      <trkpt lat="37.31783" lon="-7.20281">
        <ele>33.243</ele>
        <time>2021-07-12T18:44:53Z</time>
      </trkpt>
      <trkpt lat="37.31803" lon="-7.20296">
        <ele>31.02764</ele>
        <time>2021-07-12T18:45:04Z</time>
      </trkpt>
      <trkpt lat="37.31809" lon="-7.20311">
        <ele>30.49725</ele>
        <time>2021-07-12T18:45:15Z</time>
      </trkpt>
      <trkpt lat="37.31809" lon="-7.20305">
        <ele>30.25228</ele>
        <time>2021-07-12T18:45:27Z</time>
      </trkpt>
      <trkpt lat="37.31789" lon="-7.20282">
        <ele>32.28347</ele>
        <time>2021-07-12T18:45:38Z</time>
      </trkpt>
      <trkpt lat="37.31783" lon="-7.20279">
        <ele>34.39024</ele>
        <time>2021-07-12T18:45:50Z</time>
      </trkpt>
      <trkpt lat="37.31797" lon="-7.20237">
        <ele>34.06677</ele>
        <time>2021-07-12T18:46:01Z</time>
      </trkpt>
      <trkpt lat="37.31813" lon="-7.20214">
        <ele>34.62698</ele>
        <time>2021-07-12T18:46:12Z</time>
      </trkpt>
      <trkpt lat="37.31831" lon="-7.20157">
        <ele>31.31324</ele>
        <time>2021-07-12T18:46:23Z</time>
      </trkpt>
      <trkpt lat="37.31866" lon="-7.20098">
        <ele>33.86845</ele>
        <time>2021-07-12T18:46:34Z</time>
      </trkpt>
      <trkpt lat="37.31919" lon="-7.20059">
        <ele>33.62243</ele>
        <time>2021-07-12T18:46:45Z</time>
      </trkpt>
      <trkpt lat="37.31986" lon="-7.19985">
        <ele>33.70753</ele>
        <time>2021-07-12T18:46:57Z</time>
      </trkpt>
      <trkpt lat="37.32062" lon="-7.19896">
        <ele>38.93084</ele>
        <time>2021-07-12T18:47:08Z</time>
      </trkpt>
      <trkpt lat="37.32164" lon="-7.19824">
        <ele>40.85234</ele>
        <time>2021-07-12T18:47:19Z</time>
      </trkpt>
      <trkpt lat="37.32233" lon="-7.19767">
        <ele>38.96165</ele>
        <time>2021-07-12T18:47:30Z</time>
      </trkpt>
      <trkpt lat="37.323" lon="-7.19723">
        <ele>39.80818</ele>
        <time>2021-07-12T18:47:41Z</time>
      </trkpt>
      <trkpt lat="37.32375" lon="-7.19688">
        <ele>40.27994</ele>
        <time>2021-07-12T18:47:52Z</time>
      </trkpt>
      <trkpt lat="37.32421" lon="-7.19705">
        <ele>44.04486</ele>
        <time>2021-07-12T18:48:03Z</time>
      </trkpt>
      <trkpt lat="37.32469" lon="-7.19794">
        <ele>47.99925</ele>
        <time>2021-07-12T18:48:14Z</time>
      </trkpt>
      <trkpt lat="37.32513" lon="-7.19907">
        <ele>51.39113</ele>
        <time>2021-07-12T18:48:25Z</time>
      </trkpt>
      <trkpt lat="37.32439" lon="-7.19957">
        <ele>49.93187</ele>
        <time>2021-07-12T18:48:36Z</time>
      </trkpt>
      <trkpt lat="37.32435" lon="-7.20023">
        <ele>49.98501</ele>
        <time>2021-07-12T18:48:47Z</time>
      </trkpt>
      <trkpt lat="37.32419" lon="-7.20106">
        <ele>46.96387</ele>
        <time>2021-07-12T18:48:58Z</time>
      </trkpt>
      <trkpt lat="37.32394" lon="-7.20209">
        <ele>46.33353</ele>
        <time>2021-07-12T18:49:09Z</time>
      </trkpt>
      <trkpt lat="37.32388" lon="-7.20214">
        <ele>47.10099</ele>
        <time>2021-07-12T18:49:20Z</time>
      </trkpt>
      <trkpt lat="37.32382" lon="-7.20216">
        <ele>47.55774</ele>
        <time>2021-07-12T18:49:41Z</time>
      </trkpt>
      <trkpt lat="37.32321" lon="-7.2023">
        <ele>45.84425</ele>
        <time>2021-07-12T18:49:52Z</time>
      </trkpt>
      <trkpt lat="37.3231" lon="-7.20233">
        <ele>46.60744</ele>
        <time>2021-07-12T18:50:03Z</time>
      </trkpt>
      <trkpt lat="37.32307" lon="-7.20233">
        <ele>46.6686</ele>
        <time>2021-07-12T18:50:20Z</time>
      </trkpt>
      <trkpt lat="37.3224" lon="-7.20232">
        <ele>39.35047</ele>
        <time>2021-07-12T18:50:31Z</time>
      </trkpt>
      <trkpt lat="37.32158" lon="-7.20233">
        <ele>42.51923</ele>
        <time>2021-07-12T18:50:42Z</time>
      </trkpt>
      <trkpt lat="37.32118" lon="-7.20256">
        <ele>43.68117</ele>
        <time>2021-07-12T18:50:53Z</time>
      </trkpt>
      <trkpt lat="37.32153" lon="-7.20344">
        <ele>44.63429</ele>
        <time>2021-07-12T18:51:04Z</time>
      </trkpt>
      <trkpt lat="37.3215" lon="-7.2043">
        <ele>44.77117</ele>
        <time>2021-07-12T18:51:15Z</time>
      </trkpt>
      <trkpt lat="37.32152" lon="-7.20441">
        <ele>44.6088</ele>
        <time>2021-07-12T18:51:26Z</time>
      </trkpt>
      <trkpt lat="37.32149" lon="-7.20445">
        <ele>44.62574</ele>
        <time>2021-07-12T18:51:46Z</time>
      </trkpt>
      <trkpt lat="37.32151" lon="-7.20445">
        <ele>43.69621</ele>
        <time>2021-07-12T18:52:46Z</time>
      </trkpt>
      <trkpt lat="37.32151" lon="-7.20446">
        <ele>43.97323</ele>
        <time>2021-07-12T18:53:46Z</time>
      </trkpt>
      <trkpt lat="37.3215" lon="-7.20443">
        <ele>44.62008</ele>
        <time>2021-07-12T18:54:46Z</time>
      </trkpt>
      <trkpt lat="37.32155" lon="-7.20443">
        <ele>43.47515</ele>
        <time>2021-07-12T18:55:26Z</time>
      </trkpt>
      <trkpt lat="37.3215" lon="-7.20442">
        <ele>45.27334</ele>
        <time>2021-07-12T18:56:00Z</time>
      </trkpt>
      <trkpt lat="37.3215" lon="-7.20444">
        <ele>44.8438</ele>
        <time>2021-07-12T18:56:59Z</time>
      </trkpt>
      <trkpt lat="37.3215" lon="-7.20445">
        <ele>43.83125</ele>
        <time>2021-07-12T18:57:58Z</time>
      </trkpt>
      <trkpt lat="37.32152" lon="-7.20444">
        <ele>44.26453</ele>
        <time>2021-07-12T18:58:57Z</time>
      </trkpt>
      <trkpt lat="37.32149" lon="-7.20447">
        <ele>44.18506</ele>
        <time>2021-07-12T18:59:35Z</time>
      </trkpt>
      <trkpt lat="37.32151" lon="-7.20447">
        <ele>43.33013</ele>
        <time>2021-07-12T19:00:35Z</time>
      </trkpt>
      <trkpt lat="37.32151" lon="-7.20447">
        <ele>43.33013</ele>
        <time>2021-07-12T19:01:35Z</time>
      </trkpt>
      <trkpt lat="37.32151" lon="-7.20447">
        <ele>43.33013</ele>
        <time>2021-07-12T19:02:35Z</time>
      </trkpt>
      <trkpt lat="37.32151" lon="-7.20447">
        <ele>43.33013</ele>
        <time>2021-07-12T19:03:35Z</time>
      </trkpt>
      <trkpt lat="37.32151" lon="-7.20447">
        <ele>43.33013</ele>
        <time>2021-07-12T19:04:35Z</time>
      </trkpt>
      <trkpt lat="37.32151" lon="-7.20447">
        <ele>43.33013</ele>
        <time>2021-07-12T19:05:35Z</time>
      </trkpt>
      <trkpt lat="37.32151" lon="-7.20447">
        <ele>43.33013</ele>
        <time>2021-07-12T19:06:35Z</time>
      </trkpt>
      <trkpt lat="37.32151" lon="-7.20447">
        <ele>43.33013</ele>
        <time>2021-07-12T19:07:34Z</time>
      </trkpt>
      <trkpt lat="37.32151" lon="-7.20447">
        <ele>43.33013</ele>
        <time>2021-07-12T19:08:33Z</time>
      </trkpt>
      <trkpt lat="37.32151" lon="-7.20447">
        <ele>43.33013</ele>
        <time>2021-07-12T19:09:32Z</time>
      </trkpt>
      <trkpt lat="37.3215" lon="-7.20446">
        <ele>44.31915</ele>
        <time>2021-07-12T19:10:31Z</time>
      </trkpt>
      <trkpt lat="37.3215" lon="-7.20446">
        <ele>44.31915</ele>
        <time>2021-07-12T19:11:30Z</time>
      </trkpt>
      <trkpt lat="37.3215" lon="-7.20446">
        <ele>44.31915</ele>
        <time>2021-07-12T19:12:29Z</time>
      </trkpt>
      <trkpt lat="37.3215" lon="-7.20444">
        <ele>44.75666</ele>
        <time>2021-07-12T19:13:28Z</time>
      </trkpt>
      <trkpt lat="37.3215" lon="-7.20444">
        <ele>44.75666</ele>
        <time>2021-07-12T19:14:27Z</time>
      </trkpt>
      <trkpt lat="37.3215" lon="-7.20444">
        <ele>44.75666</ele>
        <time>2021-07-12T19:15:26Z</time>
      </trkpt>
      <trkpt lat="37.3215" lon="-7.20444">
        <ele>45.55976</ele>
        <time>2021-07-12T19:16:26Z</time>
      </trkpt>
      <trkpt lat="37.3215" lon="-7.20443">
        <ele>44.90608</ele>
        <time>2021-07-12T19:17:25Z</time>
      </trkpt>
      <trkpt lat="37.32151" lon="-7.20444">
        <ele>45.43495</ele>
        <time>2021-07-12T19:18:25Z</time>
      </trkpt>
      <trkpt lat="37.32151" lon="-7.20444">
        <ele>45.43495</ele>
        <time>2021-07-12T19:19:24Z</time>
      </trkpt>
      <trkpt lat="37.32151" lon="-7.20444">
        <ele>45.43495</ele>
        <time>2021-07-12T19:20:23Z</time>
      </trkpt>
      <trkpt lat="37.3215" lon="-7.20444">
        <ele>44.99</ele>
        <time>2021-07-12T19:21:22Z</time>
      </trkpt>
      <trkpt lat="37.3215" lon="-7.20443">
        <ele>45.426</ele>
        <time>2021-07-12T19:22:22Z</time>
      </trkpt>
      <trkpt lat="37.32152" lon="-7.20444">
        <ele>44.15571</ele>
        <time>2021-07-12T19:23:21Z</time>
      </trkpt>
      <trkpt lat="37.32151" lon="-7.20443">
        <ele>44.6744</ele>
        <time>2021-07-12T19:24:20Z</time>
      </trkpt>
      <trkpt lat="37.32152" lon="-7.20444">
        <ele>47.01816</ele>
        <time>2021-07-12T19:25:19Z</time>
      </trkpt>
      <trkpt lat="37.32156" lon="-7.20446">
        <ele>43.74407</ele>
        <time>2021-07-12T19:25:55Z</time>
      </trkpt>
      <trkpt lat="37.32151" lon="-7.20443">
        <ele>44.09294</ele>
        <time>2021-07-12T19:26:06Z</time>
      </trkpt>
      <trkpt lat="37.32153" lon="-7.20447">
        <ele>44.51761</ele>
        <time>2021-07-12T19:27:04Z</time>
      </trkpt>
      <trkpt lat="37.32151" lon="-7.20443">
        <ele>43.67865</ele>
        <time>2021-07-12T19:27:44Z</time>
      </trkpt>
      <trkpt lat="37.32155" lon="-7.20441">
        <ele>44.10474</ele>
        <time>2021-07-12T19:28:28Z</time>
      </trkpt>
      <trkpt lat="37.32151" lon="-7.20446">
        <ele>44.84017</ele>
        <time>2021-07-12T19:28:39Z</time>
      </trkpt>
      <trkpt lat="37.32154" lon="-7.20448">
        <ele>44.20702</ele>
        <time>2021-07-12T19:29:37Z</time>
      </trkpt>
      <trkpt lat="37.32152" lon="-7.20446">
        <ele>44.98991</ele>
        <time>2021-07-12T19:30:36Z</time>
      </trkpt>
      <trkpt lat="37.32151" lon="-7.20448">
        <ele>43.79222</ele>
        <time>2021-07-12T19:31:35Z</time>
      </trkpt>
      <trkpt lat="37.32154" lon="-7.20446">
        <ele>44.35594</ele>
        <time>2021-07-12T19:32:19Z</time>
      </trkpt>
      <trkpt lat="37.32154" lon="-7.20448">
        <ele>44.22184</ele>
        <time>2021-07-12T19:33:18Z</time>
      </trkpt>
      <trkpt lat="37.32154" lon="-7.20448">
        <ele>44.22184</ele>
        <time>2021-07-12T19:34:17Z</time>
      </trkpt>
      <trkpt lat="37.32154" lon="-7.20446">
        <ele>44.53815</ele>
        <time>2021-07-12T19:35:17Z</time>
      </trkpt>
      <trkpt lat="37.32153" lon="-7.20447">
        <ele>44.93485</ele>
        <time>2021-07-12T19:36:15Z</time>
      </trkpt>
      <trkpt lat="37.32152" lon="-7.20446">
        <ele>44.43347</ele>
        <time>2021-07-12T19:37:15Z</time>
      </trkpt>
      <trkpt lat="37.32152" lon="-7.20447">
        <ele>44.78058</ele>
        <time>2021-07-12T19:38:13Z</time>
      </trkpt>
      <trkpt lat="37.32152" lon="-7.20446">
        <ele>44.86357</ele>
        <time>2021-07-12T19:39:12Z</time>
      </trkpt>
      <trkpt lat="37.32152" lon="-7.20445">
        <ele>44.41175</ele>
        <time>2021-07-12T19:40:11Z</time>
      </trkpt>
      <trkpt lat="37.32153" lon="-7.20445">
        <ele>44.8957</ele>
        <time>2021-07-12T19:41:10Z</time>
      </trkpt>
      <trkpt lat="37.32151" lon="-7.20446">
        <ele>44.39147</ele>
        <time>2021-07-12T19:42:08Z</time>
      </trkpt>
      <trkpt lat="37.32151" lon="-7.20447">
        <ele>44.95688</ele>
        <time>2021-07-12T19:43:07Z</time>
      </trkpt>
      <trkpt lat="37.32152" lon="-7.20446">
        <ele>45.20232</ele>
        <time>2021-07-12T19:44:05Z</time>
      </trkpt>
    </trkseg>
  </trk>
</gpx>